<?xml version="1.0" encoding="UTF-8" standalone="no" ?>
<gpx xmlns="http://www.topografix.com/GPX/1/1" xmlns:xsi="http://www.w3.org/2001/XMLSchema-instance" xsi:schemaLocation="http://www.topografix.com/GPX/1/1 http://www.topografix.com/GPX/1/1/gpx.xsd" version="1.1" creator="VisuGPX - https://www.visugpx.com">
  <metadata>
    <name>Départ Saint Léger en Yvelines vers Tacoignières</name>
    <desc><![CDATA[Samedi, nous partons du pré, Claire Etchevers avec Limpio et Batou, moi avec Ténébra, pour aller à Tacoignières et ferons le retour le dimanche.
En majorité nous avons eu de beaux chemins...et du soleil le samedi !
Nous avons tout de même croisé un mouton !!! Appel à la gendarmerie qui s'occupait de le récupérer...]]></desc>
  </metadata>
  <trk>
    <name><![CDATA[Saint-Léger-en-Yvelines. Tacoignières]]></name>
    <trkseg>
      <trkpt lat="48.70708" lon="1.75754">
        <ele>172.5</ele>
        <time>2015-04-25T06:55:51.000Z</time>
      </trkpt>
      <trkpt lat="48.70707" lon="1.75753">
        <ele>172.4</ele>
        <time>2015-04-25T06:55:52.000Z</time>
      </trkpt>
      <trkpt lat="48.70707" lon="1.75753">
        <ele>172.4</ele>
        <time>2015-04-25T06:55:52.000Z</time>
      </trkpt>
      <trkpt lat="48.70701" lon="1.75744">
        <ele>172.3</ele>
        <time>2015-04-25T06:55:58.000Z</time>
      </trkpt>
      <trkpt lat="48.70708" lon="1.75736">
        <ele>172.5</ele>
        <time>2015-04-25T06:56:08.000Z</time>
      </trkpt>
      <trkpt lat="48.70704" lon="1.75729">
        <ele>172.6</ele>
        <time>2015-04-25T06:56:14.000Z</time>
      </trkpt>
      <trkpt lat="48.70698" lon="1.75723">
        <ele>172.8</ele>
        <time>2015-04-25T06:56:20.000Z</time>
      </trkpt>
      <trkpt lat="48.70696" lon="1.75721">
        <ele>172.9</ele>
        <time>2015-04-25T06:56:22.000Z</time>
      </trkpt>
      <trkpt lat="48.70692" lon="1.75716">
        <ele>172.7</ele>
        <time>2015-04-25T06:56:26.000Z</time>
      </trkpt>
      <trkpt lat="48.70686" lon="1.75708">
        <ele>172.3</ele>
        <time>2015-04-25T06:56:33.000Z</time>
      </trkpt>
      <trkpt lat="48.70683" lon="1.75704">
        <ele>172.2</ele>
        <time>2015-04-25T06:56:37.000Z</time>
      </trkpt>
      <trkpt lat="48.70675" lon="1.75699">
        <ele>172</ele>
        <time>2015-04-25T06:56:43.000Z</time>
      </trkpt>
      <trkpt lat="48.7067" lon="1.75694">
        <ele>172</ele>
        <time>2015-04-25T06:56:48.000Z</time>
      </trkpt>
      <trkpt lat="48.70665" lon="1.75688">
        <ele>172</ele>
        <time>2015-04-25T06:56:53.000Z</time>
      </trkpt>
      <trkpt lat="48.7066" lon="1.75682">
        <ele>172.1</ele>
        <time>2015-04-25T06:56:58.000Z</time>
      </trkpt>
      <trkpt lat="48.70652" lon="1.75672">
        <ele>172.4</ele>
        <time>2015-04-25T06:57:07.000Z</time>
      </trkpt>
      <trkpt lat="48.70648" lon="1.75665">
        <ele>172.7</ele>
        <time>2015-04-25T06:57:12.000Z</time>
      </trkpt>
      <trkpt lat="48.70647" lon="1.75656">
        <ele>172.7</ele>
        <time>2015-04-25T06:57:17.000Z</time>
      </trkpt>
      <trkpt lat="48.70645" lon="1.75644">
        <ele>172.8</ele>
        <time>2015-04-25T06:57:22.000Z</time>
      </trkpt>
      <trkpt lat="48.70643" lon="1.75634">
        <ele>172.7</ele>
        <time>2015-04-25T06:57:27.000Z</time>
      </trkpt>
      <trkpt lat="48.70639" lon="1.75618">
        <ele>172.2</ele>
        <time>2015-04-25T06:57:34.000Z</time>
      </trkpt>
      <trkpt lat="48.70641" lon="1.75603">
        <ele>172.1</ele>
        <time>2015-04-25T06:57:40.000Z</time>
      </trkpt>
      <trkpt lat="48.70643" lon="1.75599">
        <ele>172.1</ele>
        <time>2015-04-25T06:57:44.000Z</time>
      </trkpt>
      <trkpt lat="48.7064" lon="1.75586">
        <ele>172</ele>
        <time>2015-04-25T06:57:51.000Z</time>
      </trkpt>
      <trkpt lat="48.70646" lon="1.75582">
        <ele>172.3</ele>
        <time>2015-04-25T06:57:54.000Z</time>
      </trkpt>
      <trkpt lat="48.70651" lon="1.75574">
        <ele>172.6</ele>
        <time>2015-04-25T06:57:59.000Z</time>
      </trkpt>
      <trkpt lat="48.7066" lon="1.75565">
        <ele>172.9</ele>
        <time>2015-04-25T06:58:06.000Z</time>
      </trkpt>
      <trkpt lat="48.70667" lon="1.75557">
        <ele>173</ele>
        <time>2015-04-25T06:58:11.000Z</time>
      </trkpt>
      <trkpt lat="48.70672" lon="1.75553">
        <ele>173</ele>
        <time>2015-04-25T06:58:17.000Z</time>
      </trkpt>
      <trkpt lat="48.70675" lon="1.75547">
        <ele>173</ele>
        <time>2015-04-25T06:58:24.000Z</time>
      </trkpt>
      <trkpt lat="48.70678" lon="1.75547">
        <ele>173</ele>
        <time>2015-04-25T06:58:29.000Z</time>
      </trkpt>
      <trkpt lat="48.70679" lon="1.75546">
        <ele>173</ele>
        <time>2015-04-25T06:58:30.000Z</time>
      </trkpt>
      <trkpt lat="48.70689" lon="1.75528">
        <ele>173</ele>
        <time>2015-04-25T06:58:39.000Z</time>
      </trkpt>
      <trkpt lat="48.70694" lon="1.75518">
        <ele>173</ele>
        <time>2015-04-25T06:58:46.000Z</time>
      </trkpt>
      <trkpt lat="48.70694" lon="1.75514">
        <ele>173</ele>
        <time>2015-04-25T06:58:52.000Z</time>
      </trkpt>
      <trkpt lat="48.70698" lon="1.75499">
        <ele>173</ele>
        <time>2015-04-25T06:59:32.000Z</time>
      </trkpt>
      <trkpt lat="48.70703" lon="1.75485">
        <ele>173</ele>
        <time>2015-04-25T06:59:39.000Z</time>
      </trkpt>
      <trkpt lat="48.70706" lon="1.75474">
        <ele>173</ele>
        <time>2015-04-25T06:59:46.000Z</time>
      </trkpt>
      <trkpt lat="48.70706" lon="1.75473">
        <ele>173</ele>
        <time>2015-04-25T06:59:47.000Z</time>
      </trkpt>
      <trkpt lat="48.70707" lon="1.7547">
        <ele>173</ele>
        <time>2015-04-25T06:59:50.000Z</time>
      </trkpt>
      <trkpt lat="48.70707" lon="1.75472">
        <ele>173</ele>
        <time>2015-04-25T06:59:53.000Z</time>
      </trkpt>
      <trkpt lat="48.70711" lon="1.75466">
        <ele>173</ele>
        <time>2015-04-25T06:59:57.000Z</time>
      </trkpt>
      <trkpt lat="48.70718" lon="1.75453">
        <ele>173</ele>
        <time>2015-04-25T07:00:05.000Z</time>
      </trkpt>
      <trkpt lat="48.70725" lon="1.75437">
        <ele>173</ele>
        <time>2015-04-25T07:00:15.000Z</time>
      </trkpt>
      <trkpt lat="48.70732" lon="1.75419">
        <ele>173</ele>
        <time>2015-04-25T07:00:25.000Z</time>
      </trkpt>
      <trkpt lat="48.70736" lon="1.75408">
        <ele>173.2</ele>
        <time>2015-04-25T07:00:31.000Z</time>
      </trkpt>
      <trkpt lat="48.70737" lon="1.75404">
        <ele>173.2</ele>
        <time>2015-04-25T07:00:34.000Z</time>
      </trkpt>
      <trkpt lat="48.70737" lon="1.75402">
        <ele>173.2</ele>
        <time>2015-04-25T07:00:36.000Z</time>
      </trkpt>
      <trkpt lat="48.70744" lon="1.75388">
        <ele>173.2</ele>
        <time>2015-04-25T07:00:45.000Z</time>
      </trkpt>
      <trkpt lat="48.7075" lon="1.7537">
        <ele>173.7</ele>
        <time>2015-04-25T07:00:55.000Z</time>
      </trkpt>
      <trkpt lat="48.70752" lon="1.75365">
        <ele>173.9</ele>
        <time>2015-04-25T07:00:59.000Z</time>
      </trkpt>
      <trkpt lat="48.70756" lon="1.75353">
        <ele>174</ele>
        <time>2015-04-25T07:01:06.000Z</time>
      </trkpt>
      <trkpt lat="48.70758" lon="1.7535">
        <ele>174</ele>
        <time>2015-04-25T07:01:08.000Z</time>
      </trkpt>
      <trkpt lat="48.70761" lon="1.7534">
        <ele>174</ele>
        <time>2015-04-25T07:01:14.000Z</time>
      </trkpt>
      <trkpt lat="48.70766" lon="1.75326">
        <ele>174</ele>
        <time>2015-04-25T07:01:22.000Z</time>
      </trkpt>
      <trkpt lat="48.70768" lon="1.75319">
        <ele>174</ele>
        <time>2015-04-25T07:01:28.000Z</time>
      </trkpt>
      <trkpt lat="48.70768" lon="1.75318">
        <ele>174</ele>
        <time>2015-04-25T07:01:30.000Z</time>
      </trkpt>
      <trkpt lat="48.70781" lon="1.75293">
        <ele>174.1</ele>
        <time>2015-04-25T07:02:24.000Z</time>
      </trkpt>
      <trkpt lat="48.70786" lon="1.75279">
        <ele>174.3</ele>
        <time>2015-04-25T07:02:31.000Z</time>
      </trkpt>
      <trkpt lat="48.70791" lon="1.75267">
        <ele>174.5</ele>
        <time>2015-04-25T07:02:39.000Z</time>
      </trkpt>
      <trkpt lat="48.70793" lon="1.7526">
        <ele>174.5</ele>
        <time>2015-04-25T07:02:45.000Z</time>
      </trkpt>
      <trkpt lat="48.70793" lon="1.7526">
        <ele>174.5</ele>
        <time>2015-04-25T07:02:46.000Z</time>
      </trkpt>
      <trkpt lat="48.70797" lon="1.75252">
        <ele>174.7</ele>
        <time>2015-04-25T07:02:54.000Z</time>
      </trkpt>
      <trkpt lat="48.70798" lon="1.75251">
        <ele>174.7</ele>
        <time>2015-04-25T07:02:55.000Z</time>
      </trkpt>
      <trkpt lat="48.70803" lon="1.75238">
        <ele>174.9</ele>
        <time>2015-04-25T07:03:02.000Z</time>
      </trkpt>
      <trkpt lat="48.70806" lon="1.75229">
        <ele>175</ele>
        <time>2015-04-25T07:03:07.000Z</time>
      </trkpt>
      <trkpt lat="48.7081" lon="1.75219">
        <ele>175</ele>
        <time>2015-04-25T07:03:13.000Z</time>
      </trkpt>
      <trkpt lat="48.70816" lon="1.75204">
        <ele>175</ele>
        <time>2015-04-25T07:03:22.000Z</time>
      </trkpt>
      <trkpt lat="48.70821" lon="1.75195">
        <ele>175</ele>
        <time>2015-04-25T07:03:28.000Z</time>
      </trkpt>
      <trkpt lat="48.70823" lon="1.75191">
        <ele>175</ele>
        <time>2015-04-25T07:03:33.000Z</time>
      </trkpt>
      <trkpt lat="48.70826" lon="1.75181">
        <ele>175</ele>
        <time>2015-04-25T07:03:44.000Z</time>
      </trkpt>
      <trkpt lat="48.70828" lon="1.75177">
        <ele>175</ele>
        <time>2015-04-25T07:03:47.000Z</time>
      </trkpt>
      <trkpt lat="48.70835" lon="1.75164">
        <ele>175</ele>
        <time>2015-04-25T07:03:56.000Z</time>
      </trkpt>
      <trkpt lat="48.70837" lon="1.75159">
        <ele>175</ele>
        <time>2015-04-25T07:03:59.000Z</time>
      </trkpt>
      <trkpt lat="48.70839" lon="1.75153">
        <ele>175</ele>
        <time>2015-04-25T07:04:05.000Z</time>
      </trkpt>
      <trkpt lat="48.70844" lon="1.75143">
        <ele>175</ele>
        <time>2015-04-25T07:04:12.000Z</time>
      </trkpt>
      <trkpt lat="48.70848" lon="1.75134">
        <ele>175</ele>
        <time>2015-04-25T07:04:18.000Z</time>
      </trkpt>
      <trkpt lat="48.70848" lon="1.75133">
        <ele>175</ele>
        <time>2015-04-25T07:04:19.000Z</time>
      </trkpt>
      <trkpt lat="48.7085" lon="1.75126">
        <ele>175</ele>
        <time>2015-04-25T07:04:23.000Z</time>
      </trkpt>
      <trkpt lat="48.70852" lon="1.75124">
        <ele>175</ele>
        <time>2015-04-25T07:04:28.000Z</time>
      </trkpt>
      <trkpt lat="48.70861" lon="1.7511">
        <ele>175</ele>
        <time>2015-04-25T07:04:44.000Z</time>
      </trkpt>
      <trkpt lat="48.70867" lon="1.75096">
        <ele>175</ele>
        <time>2015-04-25T07:04:52.000Z</time>
      </trkpt>
      <trkpt lat="48.70871" lon="1.75085">
        <ele>175</ele>
        <time>2015-04-25T07:04:59.000Z</time>
      </trkpt>
      <trkpt lat="48.70875" lon="1.75076">
        <ele>175</ele>
        <time>2015-04-25T07:05:05.000Z</time>
      </trkpt>
      <trkpt lat="48.70875" lon="1.75073">
        <ele>175</ele>
        <time>2015-04-25T07:05:06.000Z</time>
      </trkpt>
      <trkpt lat="48.70878" lon="1.75064">
        <ele>175</ele>
        <time>2015-04-25T07:05:12.000Z</time>
      </trkpt>
      <trkpt lat="48.70881" lon="1.7506">
        <ele>175</ele>
        <time>2015-04-25T07:05:15.000Z</time>
      </trkpt>
      <trkpt lat="48.70884" lon="1.75055">
        <ele>175</ele>
        <time>2015-04-25T07:05:19.000Z</time>
      </trkpt>
      <trkpt lat="48.70888" lon="1.75046">
        <ele>175</ele>
        <time>2015-04-25T07:05:25.000Z</time>
      </trkpt>
      <trkpt lat="48.70894" lon="1.75032">
        <ele>175.2</ele>
        <time>2015-04-25T07:05:34.000Z</time>
      </trkpt>
      <trkpt lat="48.70897" lon="1.75024">
        <ele>175.3</ele>
        <time>2015-04-25T07:05:39.000Z</time>
      </trkpt>
      <trkpt lat="48.70904" lon="1.75012">
        <ele>175.2</ele>
        <time>2015-04-25T07:05:47.000Z</time>
      </trkpt>
      <trkpt lat="48.7091" lon="1.75001">
        <ele>175</ele>
        <time>2015-04-25T07:05:55.000Z</time>
      </trkpt>
      <trkpt lat="48.70914" lon="1.74992">
        <ele>175</ele>
        <time>2015-04-25T07:06:01.000Z</time>
      </trkpt>
      <trkpt lat="48.70918" lon="1.74981">
        <ele>175</ele>
        <time>2015-04-25T07:06:08.000Z</time>
      </trkpt>
      <trkpt lat="48.70919" lon="1.74978">
        <ele>175.1</ele>
        <time>2015-04-25T07:06:10.000Z</time>
      </trkpt>
      <trkpt lat="48.70923" lon="1.74973">
        <ele>175.2</ele>
        <time>2015-04-25T07:06:14.000Z</time>
      </trkpt>
      <trkpt lat="48.70931" lon="1.74959">
        <ele>175.8</ele>
        <time>2015-04-25T07:06:24.000Z</time>
      </trkpt>
      <trkpt lat="48.70937" lon="1.74945">
        <ele>176</ele>
        <time>2015-04-25T07:06:32.000Z</time>
      </trkpt>
      <trkpt lat="48.70942" lon="1.74937">
        <ele>176</ele>
        <time>2015-04-25T07:06:39.000Z</time>
      </trkpt>
      <trkpt lat="48.70949" lon="1.74923">
        <ele>176</ele>
        <time>2015-04-25T07:06:48.000Z</time>
      </trkpt>
      <trkpt lat="48.70956" lon="1.74915">
        <ele>176</ele>
        <time>2015-04-25T07:06:55.000Z</time>
      </trkpt>
      <trkpt lat="48.70964" lon="1.74905">
        <ele>176</ele>
        <time>2015-04-25T07:07:02.000Z</time>
      </trkpt>
      <trkpt lat="48.70971" lon="1.74899">
        <ele>176</ele>
        <time>2015-04-25T07:07:08.000Z</time>
      </trkpt>
      <trkpt lat="48.70977" lon="1.74891">
        <ele>176</ele>
        <time>2015-04-25T07:07:14.000Z</time>
      </trkpt>
      <trkpt lat="48.70984" lon="1.74883">
        <ele>176</ele>
        <time>2015-04-25T07:07:21.000Z</time>
      </trkpt>
      <trkpt lat="48.7099" lon="1.74873">
        <ele>176</ele>
        <time>2015-04-25T07:07:28.000Z</time>
      </trkpt>
      <trkpt lat="48.70992" lon="1.74869">
        <ele>176</ele>
        <time>2015-04-25T07:07:31.000Z</time>
      </trkpt>
      <trkpt lat="48.71" lon="1.74857">
        <ele>176</ele>
        <time>2015-04-25T07:07:40.000Z</time>
      </trkpt>
      <trkpt lat="48.71008" lon="1.74845">
        <ele>176</ele>
        <time>2015-04-25T07:07:49.000Z</time>
      </trkpt>
      <trkpt lat="48.71011" lon="1.74836">
        <ele>176</ele>
        <time>2015-04-25T07:07:56.000Z</time>
      </trkpt>
      <trkpt lat="48.71011" lon="1.74827">
        <ele>176</ele>
        <time>2015-04-25T07:08:03.000Z</time>
      </trkpt>
      <trkpt lat="48.71007" lon="1.74822">
        <ele>176</ele>
        <time>2015-04-25T07:08:09.000Z</time>
      </trkpt>
      <trkpt lat="48.71005" lon="1.74818">
        <ele>176</ele>
        <time>2015-04-25T07:08:12.000Z</time>
      </trkpt>
      <trkpt lat="48.70999" lon="1.74811">
        <ele>176</ele>
        <time>2015-04-25T07:08:18.000Z</time>
      </trkpt>
      <trkpt lat="48.70993" lon="1.74807">
        <ele>176</ele>
        <time>2015-04-25T07:08:25.000Z</time>
      </trkpt>
      <trkpt lat="48.70989" lon="1.748">
        <ele>176</ele>
        <time>2015-04-25T07:08:30.000Z</time>
      </trkpt>
      <trkpt lat="48.70986" lon="1.74797">
        <ele>176</ele>
        <time>2015-04-25T07:08:31.000Z</time>
      </trkpt>
      <trkpt lat="48.70981" lon="1.7479">
        <ele>176</ele>
        <time>2015-04-25T07:08:35.000Z</time>
      </trkpt>
      <trkpt lat="48.70971" lon="1.7478">
        <ele>176</ele>
        <time>2015-04-25T07:08:44.000Z</time>
      </trkpt>
      <trkpt lat="48.70966" lon="1.74774">
        <ele>176</ele>
        <time>2015-04-25T07:08:49.000Z</time>
      </trkpt>
      <trkpt lat="48.70957" lon="1.74762">
        <ele>176</ele>
        <time>2015-04-25T07:08:56.000Z</time>
      </trkpt>
      <trkpt lat="48.70951" lon="1.74753">
        <ele>176</ele>
        <time>2015-04-25T07:09:02.000Z</time>
      </trkpt>
      <trkpt lat="48.70944" lon="1.74745">
        <ele>176</ele>
        <time>2015-04-25T07:09:08.000Z</time>
      </trkpt>
      <trkpt lat="48.70939" lon="1.74739">
        <ele>176</ele>
        <time>2015-04-25T07:09:13.000Z</time>
      </trkpt>
      <trkpt lat="48.70928" lon="1.74724">
        <ele>176</ele>
        <time>2015-04-25T07:09:24.000Z</time>
      </trkpt>
      <trkpt lat="48.70915" lon="1.74709">
        <ele>175.5</ele>
        <time>2015-04-25T07:09:36.000Z</time>
      </trkpt>
      <trkpt lat="48.70914" lon="1.74707">
        <ele>175.5</ele>
        <time>2015-04-25T07:09:37.000Z</time>
      </trkpt>
      <trkpt lat="48.70907" lon="1.74699">
        <ele>175.5</ele>
        <time>2015-04-25T07:09:44.000Z</time>
      </trkpt>
      <trkpt lat="48.709" lon="1.74691">
        <ele>175.6</ele>
        <time>2015-04-25T07:09:51.000Z</time>
      </trkpt>
      <trkpt lat="48.70892" lon="1.74678">
        <ele>175.4</ele>
        <time>2015-04-25T07:09:59.000Z</time>
      </trkpt>
      <trkpt lat="48.70885" lon="1.74667">
        <ele>175.1</ele>
        <time>2015-04-25T07:10:06.000Z</time>
      </trkpt>
      <trkpt lat="48.70876" lon="1.74653">
        <ele>175.5</ele>
        <time>2015-04-25T07:10:15.000Z</time>
      </trkpt>
      <trkpt lat="48.70867" lon="1.74641">
        <ele>175.3</ele>
        <time>2015-04-25T07:10:24.000Z</time>
      </trkpt>
      <trkpt lat="48.70863" lon="1.74632">
        <ele>175.3</ele>
        <time>2015-04-25T07:10:30.000Z</time>
      </trkpt>
      <trkpt lat="48.70856" lon="1.74624">
        <ele>175.6</ele>
        <time>2015-04-25T07:10:38.000Z</time>
      </trkpt>
      <trkpt lat="48.70853" lon="1.74622">
        <ele>175.7</ele>
        <time>2015-04-25T07:10:41.000Z</time>
      </trkpt>
      <trkpt lat="48.70847" lon="1.74615">
        <ele>175.9</ele>
        <time>2015-04-25T07:10:47.000Z</time>
      </trkpt>
      <trkpt lat="48.70845" lon="1.74611">
        <ele>176</ele>
        <time>2015-04-25T07:10:50.000Z</time>
      </trkpt>
      <trkpt lat="48.70837" lon="1.74598">
        <ele>176</ele>
        <time>2015-04-25T07:10:58.000Z</time>
      </trkpt>
      <trkpt lat="48.70828" lon="1.74588">
        <ele>176</ele>
        <time>2015-04-25T07:11:07.000Z</time>
      </trkpt>
      <trkpt lat="48.70821" lon="1.74579">
        <ele>176</ele>
        <time>2015-04-25T07:11:14.000Z</time>
      </trkpt>
      <trkpt lat="48.70812" lon="1.74568">
        <ele>176</ele>
        <time>2015-04-25T07:11:23.000Z</time>
      </trkpt>
      <trkpt lat="48.70804" lon="1.74558">
        <ele>176.1</ele>
        <time>2015-04-25T07:11:31.000Z</time>
      </trkpt>
      <trkpt lat="48.70802" lon="1.74556">
        <ele>176.1</ele>
        <time>2015-04-25T07:11:33.000Z</time>
      </trkpt>
      <trkpt lat="48.708" lon="1.74554">
        <ele>176.2</ele>
        <time>2015-04-25T07:11:38.000Z</time>
      </trkpt>
      <trkpt lat="48.70797" lon="1.74551">
        <ele>176.3</ele>
        <time>2015-04-25T07:11:41.000Z</time>
      </trkpt>
      <trkpt lat="48.70794" lon="1.74547">
        <ele>176.3</ele>
        <time>2015-04-25T07:11:45.000Z</time>
      </trkpt>
      <trkpt lat="48.70788" lon="1.74541">
        <ele>176.3</ele>
        <time>2015-04-25T07:11:52.000Z</time>
      </trkpt>
      <trkpt lat="48.70787" lon="1.74539">
        <ele>176.3</ele>
        <time>2015-04-25T07:11:55.000Z</time>
      </trkpt>
      <trkpt lat="48.70781" lon="1.74531">
        <ele>176.1</ele>
        <time>2015-04-25T07:12:08.000Z</time>
      </trkpt>
      <trkpt lat="48.70771" lon="1.7452">
        <ele>176</ele>
        <time>2015-04-25T07:12:17.000Z</time>
      </trkpt>
      <trkpt lat="48.70763" lon="1.74509">
        <ele>176</ele>
        <time>2015-04-25T07:12:26.000Z</time>
      </trkpt>
      <trkpt lat="48.70757" lon="1.74502">
        <ele>176</ele>
        <time>2015-04-25T07:12:33.000Z</time>
      </trkpt>
      <trkpt lat="48.70756" lon="1.745">
        <ele>176</ele>
        <time>2015-04-25T07:12:34.000Z</time>
      </trkpt>
      <trkpt lat="48.70748" lon="1.74492">
        <ele>176</ele>
        <time>2015-04-25T07:12:42.000Z</time>
      </trkpt>
      <trkpt lat="48.70745" lon="1.74489">
        <ele>176</ele>
        <time>2015-04-25T07:12:45.000Z</time>
      </trkpt>
      <trkpt lat="48.7074" lon="1.74483">
        <ele>176</ele>
        <time>2015-04-25T07:12:50.000Z</time>
      </trkpt>
      <trkpt lat="48.70735" lon="1.74479">
        <ele>176</ele>
        <time>2015-04-25T07:12:54.000Z</time>
      </trkpt>
      <trkpt lat="48.70728" lon="1.7447">
        <ele>176</ele>
        <time>2015-04-25T07:13:02.000Z</time>
      </trkpt>
      <trkpt lat="48.70727" lon="1.74464">
        <ele>176</ele>
        <time>2015-04-25T07:13:05.000Z</time>
      </trkpt>
      <trkpt lat="48.70728" lon="1.74459">
        <ele>176</ele>
        <time>2015-04-25T07:13:10.000Z</time>
      </trkpt>
      <trkpt lat="48.70741" lon="1.74454">
        <ele>176</ele>
        <time>2015-04-25T07:14:35.000Z</time>
      </trkpt>
      <trkpt lat="48.70744" lon="1.7445">
        <ele>176</ele>
        <time>2015-04-25T07:14:37.000Z</time>
      </trkpt>
      <trkpt lat="48.70753" lon="1.74445">
        <ele>176</ele>
        <time>2015-04-25T07:14:45.000Z</time>
      </trkpt>
      <trkpt lat="48.70758" lon="1.74439">
        <ele>176</ele>
        <time>2015-04-25T07:14:51.000Z</time>
      </trkpt>
      <trkpt lat="48.70769" lon="1.74431">
        <ele>176</ele>
        <time>2015-04-25T07:15:00.000Z</time>
      </trkpt>
      <trkpt lat="48.70772" lon="1.7443">
        <ele>176</ele>
        <time>2015-04-25T07:15:02.000Z</time>
      </trkpt>
      <trkpt lat="48.70777" lon="1.74426">
        <ele>176</ele>
        <time>2015-04-25T07:15:07.000Z</time>
      </trkpt>
      <trkpt lat="48.70784" lon="1.74422">
        <ele>176</ele>
        <time>2015-04-25T07:15:13.000Z</time>
      </trkpt>
      <trkpt lat="48.70787" lon="1.74417">
        <ele>176</ele>
        <time>2015-04-25T07:15:18.000Z</time>
      </trkpt>
      <trkpt lat="48.70795" lon="1.74414">
        <ele>176</ele>
        <time>2015-04-25T07:15:25.000Z</time>
      </trkpt>
      <trkpt lat="48.70796" lon="1.74414">
        <ele>176</ele>
        <time>2015-04-25T07:15:26.000Z</time>
      </trkpt>
      <trkpt lat="48.70803" lon="1.74408">
        <ele>176</ele>
        <time>2015-04-25T07:15:33.000Z</time>
      </trkpt>
      <trkpt lat="48.70809" lon="1.74403">
        <ele>176</ele>
        <time>2015-04-25T07:15:39.000Z</time>
      </trkpt>
      <trkpt lat="48.70818" lon="1.74397">
        <ele>176</ele>
        <time>2015-04-25T07:15:46.000Z</time>
      </trkpt>
      <trkpt lat="48.70824" lon="1.74394">
        <ele>176</ele>
        <time>2015-04-25T07:15:52.000Z</time>
      </trkpt>
      <trkpt lat="48.70828" lon="1.7439">
        <ele>176</ele>
        <time>2015-04-25T07:15:56.000Z</time>
      </trkpt>
      <trkpt lat="48.70831" lon="1.74385">
        <ele>176</ele>
        <time>2015-04-25T07:16:00.000Z</time>
      </trkpt>
      <trkpt lat="48.70836" lon="1.74378">
        <ele>176</ele>
        <time>2015-04-25T07:16:06.000Z</time>
      </trkpt>
      <trkpt lat="48.70839" lon="1.74376">
        <ele>176</ele>
        <time>2015-04-25T07:16:12.000Z</time>
      </trkpt>
      <trkpt lat="48.70844" lon="1.74368">
        <ele>176</ele>
        <time>2015-04-25T07:16:20.000Z</time>
      </trkpt>
      <trkpt lat="48.7085" lon="1.74359">
        <ele>176</ele>
        <time>2015-04-25T07:16:26.000Z</time>
      </trkpt>
      <trkpt lat="48.70851" lon="1.74353">
        <ele>176</ele>
        <time>2015-04-25T07:16:30.000Z</time>
      </trkpt>
      <trkpt lat="48.70858" lon="1.74346">
        <ele>176</ele>
        <time>2015-04-25T07:16:37.000Z</time>
      </trkpt>
      <trkpt lat="48.70862" lon="1.74338">
        <ele>176</ele>
        <time>2015-04-25T07:16:43.000Z</time>
      </trkpt>
      <trkpt lat="48.70868" lon="1.74328">
        <ele>176</ele>
        <time>2015-04-25T07:16:50.000Z</time>
      </trkpt>
      <trkpt lat="48.70871" lon="1.74323">
        <ele>176</ele>
        <time>2015-04-25T07:16:53.000Z</time>
      </trkpt>
      <trkpt lat="48.70876" lon="1.74313">
        <ele>176</ele>
        <time>2015-04-25T07:17:01.000Z</time>
      </trkpt>
      <trkpt lat="48.70878" lon="1.7431">
        <ele>176</ele>
        <time>2015-04-25T07:17:04.000Z</time>
      </trkpt>
      <trkpt lat="48.70881" lon="1.74299">
        <ele>176.1</ele>
        <time>2015-04-25T07:17:10.000Z</time>
      </trkpt>
      <trkpt lat="48.70884" lon="1.74294">
        <ele>176.1</ele>
        <time>2015-04-25T07:17:17.000Z</time>
      </trkpt>
      <trkpt lat="48.70877" lon="1.74308">
        <ele>176</ele>
        <time>2015-04-25T07:17:56.000Z</time>
      </trkpt>
      <trkpt lat="48.70878" lon="1.74306">
        <ele>176</ele>
        <time>2015-04-25T07:17:57.000Z</time>
      </trkpt>
      <trkpt lat="48.70887" lon="1.74298">
        <ele>176</ele>
        <time>2015-04-25T07:18:07.000Z</time>
      </trkpt>
      <trkpt lat="48.70887" lon="1.74296">
        <ele>176</ele>
        <time>2015-04-25T07:18:16.000Z</time>
      </trkpt>
      <trkpt lat="48.70886" lon="1.74297">
        <ele>176</ele>
        <time>2015-04-25T07:18:18.000Z</time>
      </trkpt>
      <trkpt lat="48.70883" lon="1.74292">
        <ele>176.1</ele>
        <time>2015-04-25T07:19:04.000Z</time>
      </trkpt>
      <trkpt lat="48.70887" lon="1.74285">
        <ele>176</ele>
        <time>2015-04-25T07:19:10.000Z</time>
      </trkpt>
      <trkpt lat="48.70891" lon="1.74278">
        <ele>176</ele>
        <time>2015-04-25T07:19:17.000Z</time>
      </trkpt>
      <trkpt lat="48.70898" lon="1.74267">
        <ele>176.3</ele>
        <time>2015-04-25T07:19:26.000Z</time>
      </trkpt>
      <trkpt lat="48.70901" lon="1.74261">
        <ele>176.3</ele>
        <time>2015-04-25T07:19:30.000Z</time>
      </trkpt>
      <trkpt lat="48.70905" lon="1.74254">
        <ele>176.4</ele>
        <time>2015-04-25T07:19:35.000Z</time>
      </trkpt>
      <trkpt lat="48.70906" lon="1.74254">
        <ele>176.3</ele>
        <time>2015-04-25T07:19:38.000Z</time>
      </trkpt>
      <trkpt lat="48.70906" lon="1.74236">
        <ele>176.7</ele>
        <time>2015-04-25T07:19:54.000Z</time>
      </trkpt>
      <trkpt lat="48.70906" lon="1.74235">
        <ele>176.7</ele>
        <time>2015-04-25T07:19:57.000Z</time>
      </trkpt>
      <trkpt lat="48.70907" lon="1.74213">
        <ele>177</ele>
        <time>2015-04-25T07:22:41.000Z</time>
      </trkpt>
      <trkpt lat="48.70909" lon="1.74208">
        <ele>177</ele>
        <time>2015-04-25T07:22:43.000Z</time>
      </trkpt>
      <trkpt lat="48.7091" lon="1.742">
        <ele>177</ele>
        <time>2015-04-25T07:22:47.000Z</time>
      </trkpt>
      <trkpt lat="48.70912" lon="1.74185">
        <ele>177</ele>
        <time>2015-04-25T07:22:55.000Z</time>
      </trkpt>
      <trkpt lat="48.70914" lon="1.74174">
        <ele>177</ele>
        <time>2015-04-25T07:23:01.000Z</time>
      </trkpt>
      <trkpt lat="48.70917" lon="1.74163">
        <ele>177</ele>
        <time>2015-04-25T07:23:07.000Z</time>
      </trkpt>
      <trkpt lat="48.70917" lon="1.74159">
        <ele>177</ele>
        <time>2015-04-25T07:23:11.000Z</time>
      </trkpt>
      <trkpt lat="48.70915" lon="1.74142">
        <ele>177</ele>
        <time>2015-04-25T07:23:29.000Z</time>
      </trkpt>
      <trkpt lat="48.70919" lon="1.74128">
        <ele>177</ele>
        <time>2015-04-25T07:23:36.000Z</time>
      </trkpt>
      <trkpt lat="48.70924" lon="1.74119">
        <ele>177</ele>
        <time>2015-04-25T07:23:42.000Z</time>
      </trkpt>
      <trkpt lat="48.70924" lon="1.74117">
        <ele>177</ele>
        <time>2015-04-25T07:23:43.000Z</time>
      </trkpt>
      <trkpt lat="48.70927" lon="1.74101">
        <ele>177.2</ele>
        <time>2015-04-25T07:23:52.000Z</time>
      </trkpt>
      <trkpt lat="48.70927" lon="1.74097">
        <ele>177.3</ele>
        <time>2015-04-25T07:23:54.000Z</time>
      </trkpt>
      <trkpt lat="48.70933" lon="1.74082">
        <ele>177.4</ele>
        <time>2015-04-25T07:24:03.000Z</time>
      </trkpt>
      <trkpt lat="48.70937" lon="1.74066">
        <ele>177.3</ele>
        <time>2015-04-25T07:24:12.000Z</time>
      </trkpt>
      <trkpt lat="48.7094" lon="1.7405">
        <ele>177.3</ele>
        <time>2015-04-25T07:24:20.000Z</time>
      </trkpt>
      <trkpt lat="48.70942" lon="1.74039">
        <ele>177.6</ele>
        <time>2015-04-25T07:24:26.000Z</time>
      </trkpt>
      <trkpt lat="48.70943" lon="1.74036">
        <ele>177.7</ele>
        <time>2015-04-25T07:24:31.000Z</time>
      </trkpt>
      <trkpt lat="48.70946" lon="1.74029">
        <ele>178</ele>
        <time>2015-04-25T07:24:37.000Z</time>
      </trkpt>
      <trkpt lat="48.70949" lon="1.74014">
        <ele>178</ele>
        <time>2015-04-25T07:24:44.000Z</time>
      </trkpt>
      <trkpt lat="48.70954" lon="1.74005">
        <ele>178</ele>
        <time>2015-04-25T07:24:50.000Z</time>
      </trkpt>
      <trkpt lat="48.70956" lon="1.73994">
        <ele>178</ele>
        <time>2015-04-25T07:24:56.000Z</time>
      </trkpt>
      <trkpt lat="48.70959" lon="1.73981">
        <ele>178</ele>
        <time>2015-04-25T07:25:03.000Z</time>
      </trkpt>
      <trkpt lat="48.70963" lon="1.73968">
        <ele>177.9</ele>
        <time>2015-04-25T07:25:11.000Z</time>
      </trkpt>
      <trkpt lat="48.70965" lon="1.73959">
        <ele>177.6</ele>
        <time>2015-04-25T07:25:16.000Z</time>
      </trkpt>
      <trkpt lat="48.70964" lon="1.7395">
        <ele>177.4</ele>
        <time>2015-04-25T07:25:21.000Z</time>
      </trkpt>
      <trkpt lat="48.70969" lon="1.7394">
        <ele>177.3</ele>
        <time>2015-04-25T07:25:28.000Z</time>
      </trkpt>
      <trkpt lat="48.70974" lon="1.73925">
        <ele>177.7</ele>
        <time>2015-04-25T07:25:36.000Z</time>
      </trkpt>
      <trkpt lat="48.70977" lon="1.73906">
        <ele>178</ele>
        <time>2015-04-25T07:25:45.000Z</time>
      </trkpt>
      <trkpt lat="48.7098" lon="1.73896">
        <ele>178</ele>
        <time>2015-04-25T07:25:51.000Z</time>
      </trkpt>
      <trkpt lat="48.70979" lon="1.73888">
        <ele>178</ele>
        <time>2015-04-25T07:25:55.000Z</time>
      </trkpt>
      <trkpt lat="48.70976" lon="1.73872">
        <ele>178</ele>
        <time>2015-04-25T07:26:02.000Z</time>
      </trkpt>
      <trkpt lat="48.70982" lon="1.7386">
        <ele>178</ele>
        <time>2015-04-25T07:26:09.000Z</time>
      </trkpt>
      <trkpt lat="48.70988" lon="1.73854">
        <ele>178</ele>
        <time>2015-04-25T07:26:15.000Z</time>
      </trkpt>
      <trkpt lat="48.7099" lon="1.73855">
        <ele>178</ele>
        <time>2015-04-25T07:26:19.000Z</time>
      </trkpt>
      <trkpt lat="48.70997" lon="1.7385">
        <ele>178</ele>
        <time>2015-04-25T07:26:26.000Z</time>
      </trkpt>
      <trkpt lat="48.71" lon="1.73841">
        <ele>178</ele>
        <time>2015-04-25T07:26:31.000Z</time>
      </trkpt>
      <trkpt lat="48.71002" lon="1.73838">
        <ele>177.9</ele>
        <time>2015-04-25T07:26:33.000Z</time>
      </trkpt>
      <trkpt lat="48.71002" lon="1.73837">
        <ele>177.9</ele>
        <time>2015-04-25T07:26:36.000Z</time>
      </trkpt>
      <trkpt lat="48.71005" lon="1.73828">
        <ele>177.9</ele>
        <time>2015-04-25T07:26:52.000Z</time>
      </trkpt>
      <trkpt lat="48.71008" lon="1.73815">
        <ele>177.9</ele>
        <time>2015-04-25T07:26:58.000Z</time>
      </trkpt>
      <trkpt lat="48.71008" lon="1.73812">
        <ele>177.9</ele>
        <time>2015-04-25T07:27:00.000Z</time>
      </trkpt>
      <trkpt lat="48.71002" lon="1.73804">
        <ele>178</ele>
        <time>2015-04-25T07:27:07.000Z</time>
      </trkpt>
      <trkpt lat="48.70989" lon="1.73803">
        <ele>178</ele>
        <time>2015-04-25T07:27:16.000Z</time>
      </trkpt>
      <trkpt lat="48.70979" lon="1.73803">
        <ele>178</ele>
        <time>2015-04-25T07:27:23.000Z</time>
      </trkpt>
      <trkpt lat="48.70977" lon="1.73803">
        <ele>178</ele>
        <time>2015-04-25T07:27:25.000Z</time>
      </trkpt>
      <trkpt lat="48.70966" lon="1.73798">
        <ele>178</ele>
        <time>2015-04-25T07:27:33.000Z</time>
      </trkpt>
      <trkpt lat="48.70961" lon="1.73796">
        <ele>178</ele>
        <time>2015-04-25T07:27:36.000Z</time>
      </trkpt>
      <trkpt lat="48.70952" lon="1.73796">
        <ele>178</ele>
        <time>2015-04-25T07:27:42.000Z</time>
      </trkpt>
      <trkpt lat="48.70945" lon="1.73793">
        <ele>178</ele>
        <time>2015-04-25T07:27:47.000Z</time>
      </trkpt>
      <trkpt lat="48.70936" lon="1.73792">
        <ele>177.8</ele>
        <time>2015-04-25T07:27:53.000Z</time>
      </trkpt>
      <trkpt lat="48.70927" lon="1.73792">
        <ele>177.7</ele>
        <time>2015-04-25T07:27:58.000Z</time>
      </trkpt>
      <trkpt lat="48.70924" lon="1.73792">
        <ele>177.6</ele>
        <time>2015-04-25T07:28:00.000Z</time>
      </trkpt>
      <trkpt lat="48.70914" lon="1.73795">
        <ele>177.3</ele>
        <time>2015-04-25T07:28:06.000Z</time>
      </trkpt>
      <trkpt lat="48.70907" lon="1.73799">
        <ele>177.2</ele>
        <time>2015-04-25T07:28:11.000Z</time>
      </trkpt>
      <trkpt lat="48.70903" lon="1.73798">
        <ele>177.1</ele>
        <time>2015-04-25T07:28:13.000Z</time>
      </trkpt>
      <trkpt lat="48.70895" lon="1.73795">
        <ele>177.1</ele>
        <time>2015-04-25T07:28:18.000Z</time>
      </trkpt>
      <trkpt lat="48.70884" lon="1.73793">
        <ele>176.9</ele>
        <time>2015-04-25T07:28:25.000Z</time>
      </trkpt>
      <trkpt lat="48.70874" lon="1.73787">
        <ele>176.6</ele>
        <time>2015-04-25T07:28:31.000Z</time>
      </trkpt>
      <trkpt lat="48.70868" lon="1.73785">
        <ele>176.5</ele>
        <time>2015-04-25T07:28:35.000Z</time>
      </trkpt>
      <trkpt lat="48.70856" lon="1.73783">
        <ele>176.1</ele>
        <time>2015-04-25T07:28:42.000Z</time>
      </trkpt>
      <trkpt lat="48.70849" lon="1.7378">
        <ele>176</ele>
        <time>2015-04-25T07:28:48.000Z</time>
      </trkpt>
      <trkpt lat="48.70844" lon="1.73779">
        <ele>176</ele>
        <time>2015-04-25T07:28:51.000Z</time>
      </trkpt>
      <trkpt lat="48.70836" lon="1.73781">
        <ele>176</ele>
        <time>2015-04-25T07:28:59.000Z</time>
      </trkpt>
      <trkpt lat="48.70836" lon="1.73781">
        <ele>176</ele>
        <time>2015-04-25T07:29:01.000Z</time>
      </trkpt>
      <trkpt lat="48.70829" lon="1.73781">
        <ele>175.9</ele>
        <time>2015-04-25T07:29:12.000Z</time>
      </trkpt>
      <trkpt lat="48.70824" lon="1.73781">
        <ele>175.7</ele>
        <time>2015-04-25T07:29:15.000Z</time>
      </trkpt>
      <trkpt lat="48.70813" lon="1.7378">
        <ele>175.3</ele>
        <time>2015-04-25T07:29:20.000Z</time>
      </trkpt>
      <trkpt lat="48.70802" lon="1.73779">
        <ele>174.9</ele>
        <time>2015-04-25T07:29:27.000Z</time>
      </trkpt>
      <trkpt lat="48.70789" lon="1.73778">
        <ele>174.4</ele>
        <time>2015-04-25T07:29:35.000Z</time>
      </trkpt>
      <trkpt lat="48.70775" lon="1.73775">
        <ele>173.9</ele>
        <time>2015-04-25T07:29:44.000Z</time>
      </trkpt>
      <trkpt lat="48.70766" lon="1.73774">
        <ele>173.6</ele>
        <time>2015-04-25T07:29:50.000Z</time>
      </trkpt>
      <trkpt lat="48.70757" lon="1.73775">
        <ele>173.3</ele>
        <time>2015-04-25T07:29:56.000Z</time>
      </trkpt>
      <trkpt lat="48.70757" lon="1.73775">
        <ele>173.3</ele>
        <time>2015-04-25T07:29:58.000Z</time>
      </trkpt>
      <trkpt lat="48.70752" lon="1.73776">
        <ele>173.1</ele>
        <time>2015-04-25T07:30:10.000Z</time>
      </trkpt>
      <trkpt lat="48.70737" lon="1.73774">
        <ele>172.5</ele>
        <time>2015-04-25T07:30:18.000Z</time>
      </trkpt>
      <trkpt lat="48.70734" lon="1.73773">
        <ele>172.4</ele>
        <time>2015-04-25T07:30:20.000Z</time>
      </trkpt>
      <trkpt lat="48.70726" lon="1.73772">
        <ele>172.1</ele>
        <time>2015-04-25T07:30:25.000Z</time>
      </trkpt>
      <trkpt lat="48.70723" lon="1.73772">
        <ele>172</ele>
        <time>2015-04-25T07:30:27.000Z</time>
      </trkpt>
      <trkpt lat="48.70707" lon="1.73768">
        <ele>171.4</ele>
        <time>2015-04-25T07:30:37.000Z</time>
      </trkpt>
      <trkpt lat="48.70696" lon="1.73767">
        <ele>171.1</ele>
        <time>2015-04-25T07:30:44.000Z</time>
      </trkpt>
      <trkpt lat="48.70684" lon="1.73765">
        <ele>170.6</ele>
        <time>2015-04-25T07:30:52.000Z</time>
      </trkpt>
      <trkpt lat="48.70678" lon="1.73763">
        <ele>170.4</ele>
        <time>2015-04-25T07:30:57.000Z</time>
      </trkpt>
      <trkpt lat="48.70669" lon="1.73762">
        <ele>170.1</ele>
        <time>2015-04-25T07:31:04.000Z</time>
      </trkpt>
      <trkpt lat="48.70665" lon="1.73761">
        <ele>170</ele>
        <time>2015-04-25T07:31:07.000Z</time>
      </trkpt>
      <trkpt lat="48.70657" lon="1.7376">
        <ele>169.7</ele>
        <time>2015-04-25T07:31:14.000Z</time>
      </trkpt>
      <trkpt lat="48.70652" lon="1.73765">
        <ele>169.5</ele>
        <time>2015-04-25T07:31:19.000Z</time>
      </trkpt>
      <trkpt lat="48.70647" lon="1.73764">
        <ele>169.3</ele>
        <time>2015-04-25T07:31:24.000Z</time>
      </trkpt>
      <trkpt lat="48.70646" lon="1.73764">
        <ele>169.3</ele>
        <time>2015-04-25T07:31:25.000Z</time>
      </trkpt>
      <trkpt lat="48.70637" lon="1.73763">
        <ele>169</ele>
        <time>2015-04-25T07:31:32.000Z</time>
      </trkpt>
      <trkpt lat="48.7063" lon="1.73761">
        <ele>168.9</ele>
        <time>2015-04-25T07:31:37.000Z</time>
      </trkpt>
      <trkpt lat="48.70627" lon="1.73759">
        <ele>168.9</ele>
        <time>2015-04-25T07:31:40.000Z</time>
      </trkpt>
      <trkpt lat="48.7062" lon="1.73758">
        <ele>168.8</ele>
        <time>2015-04-25T07:31:44.000Z</time>
      </trkpt>
      <trkpt lat="48.70608" lon="1.7376">
        <ele>168.7</ele>
        <time>2015-04-25T07:31:51.000Z</time>
      </trkpt>
      <trkpt lat="48.706" lon="1.73762">
        <ele>168.8</ele>
        <time>2015-04-25T07:31:56.000Z</time>
      </trkpt>
      <trkpt lat="48.70592" lon="1.73765">
        <ele>168.8</ele>
        <time>2015-04-25T07:32:02.000Z</time>
      </trkpt>
      <trkpt lat="48.70592" lon="1.73764">
        <ele>168.8</ele>
        <time>2015-04-25T07:32:04.000Z</time>
      </trkpt>
      <trkpt lat="48.70582" lon="1.73766">
        <ele>169</ele>
        <time>2015-04-25T07:32:47.000Z</time>
      </trkpt>
      <trkpt lat="48.7058" lon="1.73765">
        <ele>169</ele>
        <time>2015-04-25T07:32:48.000Z</time>
      </trkpt>
      <trkpt lat="48.70572" lon="1.73764">
        <ele>169</ele>
        <time>2015-04-25T07:32:53.000Z</time>
      </trkpt>
      <trkpt lat="48.70565" lon="1.73761">
        <ele>169</ele>
        <time>2015-04-25T07:32:58.000Z</time>
      </trkpt>
      <trkpt lat="48.70559" lon="1.73759">
        <ele>169</ele>
        <time>2015-04-25T07:33:03.000Z</time>
      </trkpt>
      <trkpt lat="48.70549" lon="1.73758">
        <ele>169</ele>
        <time>2015-04-25T07:33:10.000Z</time>
      </trkpt>
      <trkpt lat="48.70545" lon="1.73757">
        <ele>169</ele>
        <time>2015-04-25T07:33:13.000Z</time>
      </trkpt>
      <trkpt lat="48.70535" lon="1.73754">
        <ele>169</ele>
        <time>2015-04-25T07:33:21.000Z</time>
      </trkpt>
      <trkpt lat="48.70534" lon="1.73754">
        <ele>169</ele>
        <time>2015-04-25T07:33:22.000Z</time>
      </trkpt>
      <trkpt lat="48.70523" lon="1.73754">
        <ele>169</ele>
        <time>2015-04-25T07:33:29.000Z</time>
      </trkpt>
      <trkpt lat="48.70518" lon="1.73754">
        <ele>169</ele>
        <time>2015-04-25T07:33:32.000Z</time>
      </trkpt>
      <trkpt lat="48.70512" lon="1.73755">
        <ele>169</ele>
        <time>2015-04-25T07:33:37.000Z</time>
      </trkpt>
      <trkpt lat="48.70509" lon="1.7375">
        <ele>169</ele>
        <time>2015-04-25T07:33:43.000Z</time>
      </trkpt>
      <trkpt lat="48.70509" lon="1.7375">
        <ele>169</ele>
        <time>2015-04-25T07:33:44.000Z</time>
      </trkpt>
      <trkpt lat="48.70505" lon="1.73749">
        <ele>169</ele>
        <time>2015-04-25T07:36:51.000Z</time>
      </trkpt>
      <trkpt lat="48.70504" lon="1.7375">
        <ele>169</ele>
        <time>2015-04-25T07:36:55.000Z</time>
      </trkpt>
      <trkpt lat="48.70504" lon="1.73751">
        <ele>169</ele>
        <time>2015-04-25T07:36:57.000Z</time>
      </trkpt>
      <trkpt lat="48.70495" lon="1.73733">
        <ele>169.6</ele>
        <time>2015-04-25T07:40:18.000Z</time>
      </trkpt>
      <trkpt lat="48.70495" lon="1.73736">
        <ele>169.5</ele>
        <time>2015-04-25T07:40:21.000Z</time>
      </trkpt>
      <trkpt lat="48.70498" lon="1.73746">
        <ele>169.2</ele>
        <time>2015-04-25T07:40:43.000Z</time>
      </trkpt>
      <trkpt lat="48.70498" lon="1.73746">
        <ele>169.2</ele>
        <time>2015-04-25T07:40:44.000Z</time>
      </trkpt>
      <trkpt lat="48.70497" lon="1.73751">
        <ele>169</ele>
        <time>2015-04-25T07:43:06.000Z</time>
      </trkpt>
      <trkpt lat="48.70487" lon="1.73752">
        <ele>169</ele>
        <time>2015-04-25T07:43:12.000Z</time>
      </trkpt>
      <trkpt lat="48.7048" lon="1.73751">
        <ele>169</ele>
        <time>2015-04-25T07:43:17.000Z</time>
      </trkpt>
      <trkpt lat="48.70479" lon="1.73752">
        <ele>169</ele>
        <time>2015-04-25T07:43:18.000Z</time>
      </trkpt>
      <trkpt lat="48.70468" lon="1.7375">
        <ele>169</ele>
        <time>2015-04-25T07:43:25.000Z</time>
      </trkpt>
      <trkpt lat="48.70457" lon="1.73748">
        <ele>169</ele>
        <time>2015-04-25T07:43:32.000Z</time>
      </trkpt>
      <trkpt lat="48.70448" lon="1.73748">
        <ele>169</ele>
        <time>2015-04-25T07:43:38.000Z</time>
      </trkpt>
      <trkpt lat="48.70442" lon="1.73749">
        <ele>169</ele>
        <time>2015-04-25T07:43:42.000Z</time>
      </trkpt>
      <trkpt lat="48.70436" lon="1.73747">
        <ele>169</ele>
        <time>2015-04-25T07:43:47.000Z</time>
      </trkpt>
      <trkpt lat="48.70425" lon="1.73746">
        <ele>169</ele>
        <time>2015-04-25T07:43:55.000Z</time>
      </trkpt>
      <trkpt lat="48.7042" lon="1.73744">
        <ele>169</ele>
        <time>2015-04-25T07:43:58.000Z</time>
      </trkpt>
      <trkpt lat="48.70411" lon="1.73744">
        <ele>169</ele>
        <time>2015-04-25T07:44:04.000Z</time>
      </trkpt>
      <trkpt lat="48.704" lon="1.73745">
        <ele>169.1</ele>
        <time>2015-04-25T07:44:12.000Z</time>
      </trkpt>
      <trkpt lat="48.7039" lon="1.73745">
        <ele>169.2</ele>
        <time>2015-04-25T07:44:18.000Z</time>
      </trkpt>
      <trkpt lat="48.70382" lon="1.73748">
        <ele>169.3</ele>
        <time>2015-04-25T07:44:24.000Z</time>
      </trkpt>
      <trkpt lat="48.70381" lon="1.73748">
        <ele>169.3</ele>
        <time>2015-04-25T07:44:25.000Z</time>
      </trkpt>
      <trkpt lat="48.70369" lon="1.73743">
        <ele>169.8</ele>
        <time>2015-04-25T07:44:33.000Z</time>
      </trkpt>
      <trkpt lat="48.70359" lon="1.73742">
        <ele>170</ele>
        <time>2015-04-25T07:44:39.000Z</time>
      </trkpt>
      <trkpt lat="48.70357" lon="1.73742">
        <ele>170</ele>
        <time>2015-04-25T07:44:40.000Z</time>
      </trkpt>
      <trkpt lat="48.70347" lon="1.73739">
        <ele>170</ele>
        <time>2015-04-25T07:44:47.000Z</time>
      </trkpt>
      <trkpt lat="48.70344" lon="1.73738">
        <ele>170</ele>
        <time>2015-04-25T07:44:49.000Z</time>
      </trkpt>
      <trkpt lat="48.70334" lon="1.73738">
        <ele>170</ele>
        <time>2015-04-25T07:44:54.000Z</time>
      </trkpt>
      <trkpt lat="48.70323" lon="1.73735">
        <ele>170</ele>
        <time>2015-04-25T07:45:01.000Z</time>
      </trkpt>
      <trkpt lat="48.70316" lon="1.73733">
        <ele>170</ele>
        <time>2015-04-25T07:45:06.000Z</time>
      </trkpt>
      <trkpt lat="48.70312" lon="1.73732">
        <ele>170</ele>
        <time>2015-04-25T07:45:09.000Z</time>
      </trkpt>
      <trkpt lat="48.70303" lon="1.73731">
        <ele>170</ele>
        <time>2015-04-25T07:45:14.000Z</time>
      </trkpt>
      <trkpt lat="48.70301" lon="1.7373">
        <ele>170</ele>
        <time>2015-04-25T07:45:15.000Z</time>
      </trkpt>
      <trkpt lat="48.70289" lon="1.73731">
        <ele>170</ele>
        <time>2015-04-25T07:45:23.000Z</time>
      </trkpt>
      <trkpt lat="48.70283" lon="1.73733">
        <ele>170</ele>
        <time>2015-04-25T07:45:26.000Z</time>
      </trkpt>
      <trkpt lat="48.70271" lon="1.73736">
        <ele>170</ele>
        <time>2015-04-25T07:45:33.000Z</time>
      </trkpt>
      <trkpt lat="48.7026" lon="1.73734">
        <ele>170</ele>
        <time>2015-04-25T07:45:41.000Z</time>
      </trkpt>
      <trkpt lat="48.70255" lon="1.73732">
        <ele>170</ele>
        <time>2015-04-25T07:45:45.000Z</time>
      </trkpt>
      <trkpt lat="48.7025" lon="1.73733">
        <ele>170</ele>
        <time>2015-04-25T07:45:48.000Z</time>
      </trkpt>
      <trkpt lat="48.70239" lon="1.73735">
        <ele>170</ele>
        <time>2015-04-25T07:45:55.000Z</time>
      </trkpt>
      <trkpt lat="48.70237" lon="1.73736">
        <ele>170</ele>
        <time>2015-04-25T07:45:56.000Z</time>
      </trkpt>
      <trkpt lat="48.70228" lon="1.73738">
        <ele>170</ele>
        <time>2015-04-25T07:46:02.000Z</time>
      </trkpt>
      <trkpt lat="48.70223" lon="1.73738">
        <ele>170</ele>
        <time>2015-04-25T07:46:06.000Z</time>
      </trkpt>
      <trkpt lat="48.70211" lon="1.73737">
        <ele>169.6</ele>
        <time>2015-04-25T07:46:15.000Z</time>
      </trkpt>
      <trkpt lat="48.702" lon="1.73734">
        <ele>169.2</ele>
        <time>2015-04-25T07:46:23.000Z</time>
      </trkpt>
      <trkpt lat="48.70189" lon="1.73733">
        <ele>168.9</ele>
        <time>2015-04-25T07:46:30.000Z</time>
      </trkpt>
      <trkpt lat="48.70181" lon="1.73729">
        <ele>168.6</ele>
        <time>2015-04-25T07:46:36.000Z</time>
      </trkpt>
      <trkpt lat="48.70171" lon="1.73728">
        <ele>168.3</ele>
        <time>2015-04-25T07:46:44.000Z</time>
      </trkpt>
      <trkpt lat="48.70161" lon="1.73726">
        <ele>168.1</ele>
        <time>2015-04-25T07:46:51.000Z</time>
      </trkpt>
      <trkpt lat="48.70152" lon="1.73723">
        <ele>168</ele>
        <time>2015-04-25T07:46:58.000Z</time>
      </trkpt>
      <trkpt lat="48.70147" lon="1.7372">
        <ele>168</ele>
        <time>2015-04-25T07:47:02.000Z</time>
      </trkpt>
      <trkpt lat="48.70139" lon="1.73719">
        <ele>167.9</ele>
        <time>2015-04-25T07:47:08.000Z</time>
      </trkpt>
      <trkpt lat="48.70136" lon="1.73719">
        <ele>167.8</ele>
        <time>2015-04-25T07:47:10.000Z</time>
      </trkpt>
      <trkpt lat="48.70128" lon="1.7372">
        <ele>167.5</ele>
        <time>2015-04-25T07:47:16.000Z</time>
      </trkpt>
      <trkpt lat="48.70127" lon="1.7372">
        <ele>167.5</ele>
        <time>2015-04-25T07:47:17.000Z</time>
      </trkpt>
      <trkpt lat="48.70114" lon="1.73723">
        <ele>167.1</ele>
        <time>2015-04-25T07:47:25.000Z</time>
      </trkpt>
      <trkpt lat="48.70109" lon="1.73725">
        <ele>166.9</ele>
        <time>2015-04-25T07:47:28.000Z</time>
      </trkpt>
      <trkpt lat="48.70104" lon="1.73723">
        <ele>166.7</ele>
        <time>2015-04-25T07:47:32.000Z</time>
      </trkpt>
      <trkpt lat="48.70099" lon="1.73722">
        <ele>166.6</ele>
        <time>2015-04-25T07:47:35.000Z</time>
      </trkpt>
      <trkpt lat="48.70089" lon="1.73717">
        <ele>166.2</ele>
        <time>2015-04-25T07:47:42.000Z</time>
      </trkpt>
      <trkpt lat="48.70082" lon="1.73718">
        <ele>166</ele>
        <time>2015-04-25T07:47:46.000Z</time>
      </trkpt>
      <trkpt lat="48.70078" lon="1.73718">
        <ele>166</ele>
        <time>2015-04-25T07:47:49.000Z</time>
      </trkpt>
      <trkpt lat="48.70073" lon="1.73717">
        <ele>166</ele>
        <time>2015-04-25T07:47:53.000Z</time>
      </trkpt>
      <trkpt lat="48.70065" lon="1.73718">
        <ele>166</ele>
        <time>2015-04-25T07:47:59.000Z</time>
      </trkpt>
      <trkpt lat="48.70054" lon="1.7372">
        <ele>166</ele>
        <time>2015-04-25T07:48:05.000Z</time>
      </trkpt>
      <trkpt lat="48.70048" lon="1.73717">
        <ele>166.3</ele>
        <time>2015-04-25T07:48:10.000Z</time>
      </trkpt>
      <trkpt lat="48.70045" lon="1.73716">
        <ele>166.4</ele>
        <time>2015-04-25T07:48:12.000Z</time>
      </trkpt>
      <trkpt lat="48.70034" lon="1.73713">
        <ele>166.8</ele>
        <time>2015-04-25T07:48:20.000Z</time>
      </trkpt>
      <trkpt lat="48.70027" lon="1.73711">
        <ele>167</ele>
        <time>2015-04-25T07:48:26.000Z</time>
      </trkpt>
      <trkpt lat="48.70021" lon="1.73709">
        <ele>167.3</ele>
        <time>2015-04-25T07:48:32.000Z</time>
      </trkpt>
      <trkpt lat="48.70012" lon="1.73711">
        <ele>167.6</ele>
        <time>2015-04-25T07:48:39.000Z</time>
      </trkpt>
      <trkpt lat="48.70006" lon="1.73711">
        <ele>167.8</ele>
        <time>2015-04-25T07:48:43.000Z</time>
      </trkpt>
      <trkpt lat="48.69998" lon="1.73708">
        <ele>168</ele>
        <time>2015-04-25T07:48:50.000Z</time>
      </trkpt>
      <trkpt lat="48.69987" lon="1.73707">
        <ele>168</ele>
        <time>2015-04-25T07:48:58.000Z</time>
      </trkpt>
      <trkpt lat="48.69976" lon="1.7371">
        <ele>168</ele>
        <time>2015-04-25T07:49:03.000Z</time>
      </trkpt>
      <trkpt lat="48.69968" lon="1.73709">
        <ele>168</ele>
        <time>2015-04-25T07:49:10.000Z</time>
      </trkpt>
      <trkpt lat="48.69958" lon="1.73708">
        <ele>168</ele>
        <time>2015-04-25T07:49:16.000Z</time>
      </trkpt>
      <trkpt lat="48.69951" lon="1.7371">
        <ele>168</ele>
        <time>2015-04-25T07:49:20.000Z</time>
      </trkpt>
      <trkpt lat="48.69938" lon="1.73712">
        <ele>168</ele>
        <time>2015-04-25T07:49:27.000Z</time>
      </trkpt>
      <trkpt lat="48.69935" lon="1.73712">
        <ele>168</ele>
        <time>2015-04-25T07:49:29.000Z</time>
      </trkpt>
      <trkpt lat="48.69929" lon="1.73706">
        <ele>168</ele>
        <time>2015-04-25T07:49:36.000Z</time>
      </trkpt>
      <trkpt lat="48.69926" lon="1.73705">
        <ele>168</ele>
        <time>2015-04-25T07:49:38.000Z</time>
      </trkpt>
      <trkpt lat="48.6992" lon="1.737">
        <ele>168</ele>
        <time>2015-04-25T07:49:44.000Z</time>
      </trkpt>
      <trkpt lat="48.69911" lon="1.73701">
        <ele>168</ele>
        <time>2015-04-25T07:49:51.000Z</time>
      </trkpt>
      <trkpt lat="48.69905" lon="1.73702">
        <ele>168</ele>
        <time>2015-04-25T07:49:56.000Z</time>
      </trkpt>
      <trkpt lat="48.69896" lon="1.73704">
        <ele>168</ele>
        <time>2015-04-25T07:50:02.000Z</time>
      </trkpt>
      <trkpt lat="48.69886" lon="1.73704">
        <ele>168</ele>
        <time>2015-04-25T07:50:09.000Z</time>
      </trkpt>
      <trkpt lat="48.69876" lon="1.73704">
        <ele>168</ele>
        <time>2015-04-25T07:50:17.000Z</time>
      </trkpt>
      <trkpt lat="48.69874" lon="1.73705">
        <ele>168</ele>
        <time>2015-04-25T07:50:18.000Z</time>
      </trkpt>
      <trkpt lat="48.6987" lon="1.73706">
        <ele>168</ele>
        <time>2015-04-25T07:50:20.000Z</time>
      </trkpt>
      <trkpt lat="48.69857" lon="1.73706">
        <ele>167.9</ele>
        <time>2015-04-25T07:50:27.000Z</time>
      </trkpt>
      <trkpt lat="48.69846" lon="1.73701">
        <ele>167.9</ele>
        <time>2015-04-25T07:50:35.000Z</time>
      </trkpt>
      <trkpt lat="48.69833" lon="1.73702">
        <ele>167.7</ele>
        <time>2015-04-25T07:50:42.000Z</time>
      </trkpt>
      <trkpt lat="48.69828" lon="1.73698">
        <ele>167.9</ele>
        <time>2015-04-25T07:50:47.000Z</time>
      </trkpt>
      <trkpt lat="48.6982" lon="1.73695">
        <ele>168</ele>
        <time>2015-04-25T07:50:54.000Z</time>
      </trkpt>
      <trkpt lat="48.69815" lon="1.73693">
        <ele>168</ele>
        <time>2015-04-25T07:50:57.000Z</time>
      </trkpt>
      <trkpt lat="48.69804" lon="1.73692">
        <ele>168.1</ele>
        <time>2015-04-25T07:51:04.000Z</time>
      </trkpt>
      <trkpt lat="48.69796" lon="1.73691">
        <ele>168.3</ele>
        <time>2015-04-25T07:51:12.000Z</time>
      </trkpt>
      <trkpt lat="48.69796" lon="1.73689">
        <ele>168.4</ele>
        <time>2015-04-25T07:51:15.000Z</time>
      </trkpt>
      <trkpt lat="48.69774" lon="1.73686">
        <ele>169</ele>
        <time>2015-04-25T07:51:44.000Z</time>
      </trkpt>
      <trkpt lat="48.6977" lon="1.73687">
        <ele>169</ele>
        <time>2015-04-25T07:51:46.000Z</time>
      </trkpt>
      <trkpt lat="48.69769" lon="1.73692">
        <ele>169</ele>
        <time>2015-04-25T07:51:52.000Z</time>
      </trkpt>
      <trkpt lat="48.69764" lon="1.7369">
        <ele>169</ele>
        <time>2015-04-25T07:52:01.000Z</time>
      </trkpt>
      <trkpt lat="48.69756" lon="1.73685">
        <ele>169</ele>
        <time>2015-04-25T07:52:06.000Z</time>
      </trkpt>
      <trkpt lat="48.69747" lon="1.73688">
        <ele>169.1</ele>
        <time>2015-04-25T07:52:11.000Z</time>
      </trkpt>
      <trkpt lat="48.6974" lon="1.73686">
        <ele>169.4</ele>
        <time>2015-04-25T07:52:16.000Z</time>
      </trkpt>
      <trkpt lat="48.69739" lon="1.73685">
        <ele>169.4</ele>
        <time>2015-04-25T07:52:17.000Z</time>
      </trkpt>
      <trkpt lat="48.6973" lon="1.73683">
        <ele>169.7</ele>
        <time>2015-04-25T07:52:24.000Z</time>
      </trkpt>
      <trkpt lat="48.6972" lon="1.73682">
        <ele>170</ele>
        <time>2015-04-25T07:52:30.000Z</time>
      </trkpt>
      <trkpt lat="48.69711" lon="1.73682">
        <ele>170</ele>
        <time>2015-04-25T07:52:37.000Z</time>
      </trkpt>
      <trkpt lat="48.6971" lon="1.73682">
        <ele>170</ele>
        <time>2015-04-25T07:52:38.000Z</time>
      </trkpt>
      <trkpt lat="48.69704" lon="1.7368">
        <ele>170</ele>
        <time>2015-04-25T07:52:44.000Z</time>
      </trkpt>
      <trkpt lat="48.69702" lon="1.73681">
        <ele>170</ele>
        <time>2015-04-25T07:52:45.000Z</time>
      </trkpt>
      <trkpt lat="48.69693" lon="1.7368">
        <ele>170</ele>
        <time>2015-04-25T07:52:52.000Z</time>
      </trkpt>
      <trkpt lat="48.69688" lon="1.7368">
        <ele>170.2</ele>
        <time>2015-04-25T07:52:57.000Z</time>
      </trkpt>
      <trkpt lat="48.69682" lon="1.73679">
        <ele>170.5</ele>
        <time>2015-04-25T07:53:04.000Z</time>
      </trkpt>
      <trkpt lat="48.69677" lon="1.73679">
        <ele>170.6</ele>
        <time>2015-04-25T07:53:07.000Z</time>
      </trkpt>
      <trkpt lat="48.69667" lon="1.73678">
        <ele>171</ele>
        <time>2015-04-25T07:53:14.000Z</time>
      </trkpt>
      <trkpt lat="48.69659" lon="1.7368">
        <ele>171</ele>
        <time>2015-04-25T07:53:19.000Z</time>
      </trkpt>
      <trkpt lat="48.69656" lon="1.7368">
        <ele>171</ele>
        <time>2015-04-25T07:53:21.000Z</time>
      </trkpt>
      <trkpt lat="48.69648" lon="1.73678">
        <ele>171</ele>
        <time>2015-04-25T07:53:27.000Z</time>
      </trkpt>
      <trkpt lat="48.69646" lon="1.73677">
        <ele>171</ele>
        <time>2015-04-25T07:53:29.000Z</time>
      </trkpt>
      <trkpt lat="48.69642" lon="1.73674">
        <ele>171</ele>
        <time>2015-04-25T07:53:33.000Z</time>
      </trkpt>
      <trkpt lat="48.69639" lon="1.73677">
        <ele>171</ele>
        <time>2015-04-25T07:53:40.000Z</time>
      </trkpt>
      <trkpt lat="48.69637" lon="1.73678">
        <ele>171</ele>
        <time>2015-04-25T07:53:43.000Z</time>
      </trkpt>
      <trkpt lat="48.69629" lon="1.73675">
        <ele>171</ele>
        <time>2015-04-25T07:53:47.000Z</time>
      </trkpt>
      <trkpt lat="48.69628" lon="1.73674">
        <ele>171</ele>
        <time>2015-04-25T07:53:48.000Z</time>
      </trkpt>
      <trkpt lat="48.6962" lon="1.73669">
        <ele>171</ele>
        <time>2015-04-25T07:53:54.000Z</time>
      </trkpt>
      <trkpt lat="48.69619" lon="1.73667">
        <ele>171</ele>
        <time>2015-04-25T07:53:55.000Z</time>
      </trkpt>
      <trkpt lat="48.69608" lon="1.7366">
        <ele>170.9</ele>
        <time>2015-04-25T07:54:03.000Z</time>
      </trkpt>
      <trkpt lat="48.69602" lon="1.73663">
        <ele>170.7</ele>
        <time>2015-04-25T07:54:06.000Z</time>
      </trkpt>
      <trkpt lat="48.6959" lon="1.7366">
        <ele>170.2</ele>
        <time>2015-04-25T07:54:14.000Z</time>
      </trkpt>
      <trkpt lat="48.69582" lon="1.73656">
        <ele>170</ele>
        <time>2015-04-25T07:54:21.000Z</time>
      </trkpt>
      <trkpt lat="48.69572" lon="1.73659">
        <ele>169.9</ele>
        <time>2015-04-25T07:54:28.000Z</time>
      </trkpt>
      <trkpt lat="48.6957" lon="1.73661">
        <ele>169.9</ele>
        <time>2015-04-25T07:54:33.000Z</time>
      </trkpt>
      <trkpt lat="48.6957" lon="1.73662">
        <ele>169.9</ele>
        <time>2015-04-25T07:54:49.000Z</time>
      </trkpt>
      <trkpt lat="48.69561" lon="1.73661">
        <ele>169.8</ele>
        <time>2015-04-25T07:54:55.000Z</time>
      </trkpt>
      <trkpt lat="48.69558" lon="1.73661">
        <ele>169.8</ele>
        <time>2015-04-25T07:54:57.000Z</time>
      </trkpt>
      <trkpt lat="48.69555" lon="1.73661">
        <ele>169.8</ele>
        <time>2015-04-25T07:55:00.000Z</time>
      </trkpt>
      <trkpt lat="48.69546" lon="1.73659">
        <ele>169</ele>
        <time>2015-04-25T07:55:07.000Z</time>
      </trkpt>
      <trkpt lat="48.69533" lon="1.73661">
        <ele>168.1</ele>
        <time>2015-04-25T07:55:16.000Z</time>
      </trkpt>
      <trkpt lat="48.6952" lon="1.73656">
        <ele>166.7</ele>
        <time>2015-04-25T07:55:25.000Z</time>
      </trkpt>
      <trkpt lat="48.69512" lon="1.73655">
        <ele>165.9</ele>
        <time>2015-04-25T07:55:30.000Z</time>
      </trkpt>
      <trkpt lat="48.69501" lon="1.73656">
        <ele>164.7</ele>
        <time>2015-04-25T07:55:36.000Z</time>
      </trkpt>
      <trkpt lat="48.69489" lon="1.73652">
        <ele>163.5</ele>
        <time>2015-04-25T07:55:43.000Z</time>
      </trkpt>
      <trkpt lat="48.69481" lon="1.73651">
        <ele>162.8</ele>
        <time>2015-04-25T07:55:49.000Z</time>
      </trkpt>
      <trkpt lat="48.69473" lon="1.7365">
        <ele>162</ele>
        <time>2015-04-25T07:55:54.000Z</time>
      </trkpt>
      <trkpt lat="48.69459" lon="1.73649">
        <ele>161</ele>
        <time>2015-04-25T07:56:02.000Z</time>
      </trkpt>
      <trkpt lat="48.69447" lon="1.73649">
        <ele>160.2</ele>
        <time>2015-04-25T07:56:09.000Z</time>
      </trkpt>
      <trkpt lat="48.69434" lon="1.73646">
        <ele>160</ele>
        <time>2015-04-25T07:56:17.000Z</time>
      </trkpt>
      <trkpt lat="48.69431" lon="1.73646">
        <ele>160</ele>
        <time>2015-04-25T07:56:19.000Z</time>
      </trkpt>
      <trkpt lat="48.6942" lon="1.73646">
        <ele>160</ele>
        <time>2015-04-25T07:56:26.000Z</time>
      </trkpt>
      <trkpt lat="48.6941" lon="1.73646">
        <ele>160.2</ele>
        <time>2015-04-25T07:56:32.000Z</time>
      </trkpt>
      <trkpt lat="48.69402" lon="1.73643">
        <ele>160.5</ele>
        <time>2015-04-25T07:56:38.000Z</time>
      </trkpt>
      <trkpt lat="48.69389" lon="1.73642">
        <ele>160.9</ele>
        <time>2015-04-25T07:56:46.000Z</time>
      </trkpt>
      <trkpt lat="48.69385" lon="1.73642">
        <ele>161</ele>
        <time>2015-04-25T07:56:48.000Z</time>
      </trkpt>
      <trkpt lat="48.69375" lon="1.73639">
        <ele>161.5</ele>
        <time>2015-04-25T07:56:55.000Z</time>
      </trkpt>
      <trkpt lat="48.69374" lon="1.73638">
        <ele>161.6</ele>
        <time>2015-04-25T07:56:57.000Z</time>
      </trkpt>
      <trkpt lat="48.69365" lon="1.73637">
        <ele>161.9</ele>
        <time>2015-04-25T07:57:04.000Z</time>
      </trkpt>
      <trkpt lat="48.69352" lon="1.73637">
        <ele>162.7</ele>
        <time>2015-04-25T07:57:12.000Z</time>
      </trkpt>
      <trkpt lat="48.69342" lon="1.73638">
        <ele>163.4</ele>
        <time>2015-04-25T07:57:18.000Z</time>
      </trkpt>
      <trkpt lat="48.69339" lon="1.73636">
        <ele>163.7</ele>
        <time>2015-04-25T07:57:20.000Z</time>
      </trkpt>
      <trkpt lat="48.69329" lon="1.73636">
        <ele>164.1</ele>
        <time>2015-04-25T07:57:26.000Z</time>
      </trkpt>
      <trkpt lat="48.69321" lon="1.7364">
        <ele>163.9</ele>
        <time>2015-04-25T07:57:32.000Z</time>
      </trkpt>
      <trkpt lat="48.69319" lon="1.73641">
        <ele>163.9</ele>
        <time>2015-04-25T07:57:33.000Z</time>
      </trkpt>
      <trkpt lat="48.69308" lon="1.73643">
        <ele>163.8</ele>
        <time>2015-04-25T07:57:40.000Z</time>
      </trkpt>
      <trkpt lat="48.69298" lon="1.73643">
        <ele>164.1</ele>
        <time>2015-04-25T07:57:46.000Z</time>
      </trkpt>
      <trkpt lat="48.6929" lon="1.73637">
        <ele>164.7</ele>
        <time>2015-04-25T07:57:51.000Z</time>
      </trkpt>
      <trkpt lat="48.69281" lon="1.73635">
        <ele>165.2</ele>
        <time>2015-04-25T07:57:55.000Z</time>
      </trkpt>
      <trkpt lat="48.69274" lon="1.73631">
        <ele>165.8</ele>
        <time>2015-04-25T07:58:00.000Z</time>
      </trkpt>
      <trkpt lat="48.69268" lon="1.73628">
        <ele>166.4</ele>
        <time>2015-04-25T07:58:05.000Z</time>
      </trkpt>
      <trkpt lat="48.6926" lon="1.73627">
        <ele>166.9</ele>
        <time>2015-04-25T07:58:11.000Z</time>
      </trkpt>
      <trkpt lat="48.6925" lon="1.73624">
        <ele>167.5</ele>
        <time>2015-04-25T07:58:19.000Z</time>
      </trkpt>
      <trkpt lat="48.69236" lon="1.73622">
        <ele>168.6</ele>
        <time>2015-04-25T07:58:28.000Z</time>
      </trkpt>
      <trkpt lat="48.69223" lon="1.73621">
        <ele>169.6</ele>
        <time>2015-04-25T07:58:36.000Z</time>
      </trkpt>
      <trkpt lat="48.69214" lon="1.73621">
        <ele>169.8</ele>
        <time>2015-04-25T07:58:42.000Z</time>
      </trkpt>
      <trkpt lat="48.69205" lon="1.73619">
        <ele>169.9</ele>
        <time>2015-04-25T07:58:49.000Z</time>
      </trkpt>
      <trkpt lat="48.69201" lon="1.73618">
        <ele>169.9</ele>
        <time>2015-04-25T07:58:52.000Z</time>
      </trkpt>
      <trkpt lat="48.69196" lon="1.73618">
        <ele>170</ele>
        <time>2015-04-25T07:58:56.000Z</time>
      </trkpt>
      <trkpt lat="48.69183" lon="1.73616">
        <ele>170</ele>
        <time>2015-04-25T07:59:05.000Z</time>
      </trkpt>
      <trkpt lat="48.69172" lon="1.73614">
        <ele>170</ele>
        <time>2015-04-25T07:59:12.000Z</time>
      </trkpt>
      <trkpt lat="48.69163" lon="1.73617">
        <ele>170</ele>
        <time>2015-04-25T07:59:18.000Z</time>
      </trkpt>
      <trkpt lat="48.69156" lon="1.73616">
        <ele>170</ele>
        <time>2015-04-25T07:59:24.000Z</time>
      </trkpt>
      <trkpt lat="48.69152" lon="1.73614">
        <ele>170</ele>
        <time>2015-04-25T07:59:27.000Z</time>
      </trkpt>
      <trkpt lat="48.69142" lon="1.73611">
        <ele>170</ele>
        <time>2015-04-25T07:59:34.000Z</time>
      </trkpt>
      <trkpt lat="48.69129" lon="1.73611">
        <ele>170</ele>
        <time>2015-04-25T07:59:42.000Z</time>
      </trkpt>
      <trkpt lat="48.69125" lon="1.73612">
        <ele>170</ele>
        <time>2015-04-25T07:59:45.000Z</time>
      </trkpt>
      <trkpt lat="48.69113" lon="1.73611">
        <ele>170</ele>
        <time>2015-04-25T07:59:53.000Z</time>
      </trkpt>
      <trkpt lat="48.69102" lon="1.73608">
        <ele>169.7</ele>
        <time>2015-04-25T08:00:01.000Z</time>
      </trkpt>
      <trkpt lat="48.69093" lon="1.73604">
        <ele>169.4</ele>
        <time>2015-04-25T08:00:08.000Z</time>
      </trkpt>
      <trkpt lat="48.6908" lon="1.73613">
        <ele>168.9</ele>
        <time>2015-04-25T08:00:16.000Z</time>
      </trkpt>
      <trkpt lat="48.69079" lon="1.73614">
        <ele>168.8</ele>
        <time>2015-04-25T08:00:17.000Z</time>
      </trkpt>
      <trkpt lat="48.69069" lon="1.73609">
        <ele>168.5</ele>
        <time>2015-04-25T08:00:24.000Z</time>
      </trkpt>
      <trkpt lat="48.69062" lon="1.73605">
        <ele>168.2</ele>
        <time>2015-04-25T08:00:31.000Z</time>
      </trkpt>
      <trkpt lat="48.69059" lon="1.73603">
        <ele>168.1</ele>
        <time>2015-04-25T08:00:33.000Z</time>
      </trkpt>
      <trkpt lat="48.69049" lon="1.73606">
        <ele>167.8</ele>
        <time>2015-04-25T08:00:39.000Z</time>
      </trkpt>
      <trkpt lat="48.6904" lon="1.7361">
        <ele>167.5</ele>
        <time>2015-04-25T08:00:45.000Z</time>
      </trkpt>
      <trkpt lat="48.69028" lon="1.73609">
        <ele>167</ele>
        <time>2015-04-25T08:00:52.000Z</time>
      </trkpt>
      <trkpt lat="48.69018" lon="1.73607">
        <ele>166.3</ele>
        <time>2015-04-25T08:00:59.000Z</time>
      </trkpt>
      <trkpt lat="48.69011" lon="1.73606">
        <ele>165.8</ele>
        <time>2015-04-25T08:01:03.000Z</time>
      </trkpt>
      <trkpt lat="48.69002" lon="1.73601">
        <ele>165.2</ele>
        <time>2015-04-25T08:01:10.000Z</time>
      </trkpt>
      <trkpt lat="48.68991" lon="1.73598">
        <ele>164.4</ele>
        <time>2015-04-25T08:01:17.000Z</time>
      </trkpt>
      <trkpt lat="48.68981" lon="1.73595">
        <ele>163.7</ele>
        <time>2015-04-25T08:01:23.000Z</time>
      </trkpt>
      <trkpt lat="48.68967" lon="1.73596">
        <ele>162.8</ele>
        <time>2015-04-25T08:01:31.000Z</time>
      </trkpt>
      <trkpt lat="48.68953" lon="1.73595">
        <ele>162.3</ele>
        <time>2015-04-25T08:01:40.000Z</time>
      </trkpt>
      <trkpt lat="48.68942" lon="1.73594">
        <ele>161.9</ele>
        <time>2015-04-25T08:01:47.000Z</time>
      </trkpt>
      <trkpt lat="48.68931" lon="1.73592">
        <ele>161.5</ele>
        <time>2015-04-25T08:01:54.000Z</time>
      </trkpt>
      <trkpt lat="48.68922" lon="1.73594">
        <ele>161.2</ele>
        <time>2015-04-25T08:02:00.000Z</time>
      </trkpt>
      <trkpt lat="48.68913" lon="1.73592">
        <ele>160.9</ele>
        <time>2015-04-25T08:02:07.000Z</time>
      </trkpt>
      <trkpt lat="48.68911" lon="1.73593">
        <ele>160.8</ele>
        <time>2015-04-25T08:02:08.000Z</time>
      </trkpt>
      <trkpt lat="48.68899" lon="1.7359">
        <ele>160.4</ele>
        <time>2015-04-25T08:02:14.000Z</time>
      </trkpt>
      <trkpt lat="48.68891" lon="1.73588">
        <ele>160.1</ele>
        <time>2015-04-25T08:02:19.000Z</time>
      </trkpt>
      <trkpt lat="48.68888" lon="1.73589">
        <ele>160</ele>
        <time>2015-04-25T08:02:21.000Z</time>
      </trkpt>
      <trkpt lat="48.6887" lon="1.73589">
        <ele>159.3</ele>
        <time>2015-04-25T08:02:31.000Z</time>
      </trkpt>
      <trkpt lat="48.68859" lon="1.73591">
        <ele>159</ele>
        <time>2015-04-25T08:02:37.000Z</time>
      </trkpt>
      <trkpt lat="48.68848" lon="1.7359">
        <ele>158.9</ele>
        <time>2015-04-25T08:02:44.000Z</time>
      </trkpt>
      <trkpt lat="48.68847" lon="1.73589">
        <ele>158.9</ele>
        <time>2015-04-25T08:02:45.000Z</time>
      </trkpt>
      <trkpt lat="48.68847" lon="1.73587">
        <ele>158.9</ele>
        <time>2015-04-25T08:02:49.000Z</time>
      </trkpt>
      <trkpt lat="48.68836" lon="1.73588">
        <ele>158.8</ele>
        <time>2015-04-25T08:03:29.000Z</time>
      </trkpt>
      <trkpt lat="48.68834" lon="1.73586">
        <ele>158.9</ele>
        <time>2015-04-25T08:03:35.000Z</time>
      </trkpt>
      <trkpt lat="48.68834" lon="1.73585">
        <ele>158.9</ele>
        <time>2015-04-25T08:03:36.000Z</time>
      </trkpt>
      <trkpt lat="48.6883" lon="1.73579">
        <ele>159</ele>
        <time>2015-04-25T08:03:51.000Z</time>
      </trkpt>
      <trkpt lat="48.68822" lon="1.73582">
        <ele>159</ele>
        <time>2015-04-25T08:03:57.000Z</time>
      </trkpt>
      <trkpt lat="48.68814" lon="1.73582">
        <ele>159</ele>
        <time>2015-04-25T08:04:03.000Z</time>
      </trkpt>
      <trkpt lat="48.68807" lon="1.73581">
        <ele>159.1</ele>
        <time>2015-04-25T08:04:09.000Z</time>
      </trkpt>
      <trkpt lat="48.688" lon="1.73579">
        <ele>159.2</ele>
        <time>2015-04-25T08:04:14.000Z</time>
      </trkpt>
      <trkpt lat="48.68793" lon="1.73578">
        <ele>159.2</ele>
        <time>2015-04-25T08:04:20.000Z</time>
      </trkpt>
      <trkpt lat="48.68788" lon="1.73579">
        <ele>159.1</ele>
        <time>2015-04-25T08:04:24.000Z</time>
      </trkpt>
      <trkpt lat="48.68777" lon="1.73575">
        <ele>159.3</ele>
        <time>2015-04-25T08:04:31.000Z</time>
      </trkpt>
      <trkpt lat="48.68768" lon="1.73575">
        <ele>159.5</ele>
        <time>2015-04-25T08:04:38.000Z</time>
      </trkpt>
      <trkpt lat="48.68759" lon="1.73573">
        <ele>159.8</ele>
        <time>2015-04-25T08:04:44.000Z</time>
      </trkpt>
      <trkpt lat="48.68749" lon="1.73572">
        <ele>160</ele>
        <time>2015-04-25T08:04:51.000Z</time>
      </trkpt>
      <trkpt lat="48.68742" lon="1.73571">
        <ele>160.1</ele>
        <time>2015-04-25T08:04:57.000Z</time>
      </trkpt>
      <trkpt lat="48.68735" lon="1.7357">
        <ele>160.3</ele>
        <time>2015-04-25T08:05:04.000Z</time>
      </trkpt>
      <trkpt lat="48.6873" lon="1.73567">
        <ele>160.4</ele>
        <time>2015-04-25T08:05:08.000Z</time>
      </trkpt>
      <trkpt lat="48.68722" lon="1.73567">
        <ele>160.6</ele>
        <time>2015-04-25T08:05:14.000Z</time>
      </trkpt>
      <trkpt lat="48.6871" lon="1.73565">
        <ele>160.4</ele>
        <time>2015-04-25T08:05:22.000Z</time>
      </trkpt>
      <trkpt lat="48.68699" lon="1.73563">
        <ele>160.1</ele>
        <time>2015-04-25T08:05:30.000Z</time>
      </trkpt>
      <trkpt lat="48.68693" lon="1.73565">
        <ele>160</ele>
        <time>2015-04-25T08:05:34.000Z</time>
      </trkpt>
      <trkpt lat="48.68682" lon="1.73562">
        <ele>159.7</ele>
        <time>2015-04-25T08:05:41.000Z</time>
      </trkpt>
      <trkpt lat="48.68673" lon="1.73561">
        <ele>159.4</ele>
        <time>2015-04-25T08:05:47.000Z</time>
      </trkpt>
      <trkpt lat="48.68659" lon="1.73562">
        <ele>158.8</ele>
        <time>2015-04-25T08:05:55.000Z</time>
      </trkpt>
      <trkpt lat="48.68658" lon="1.73562">
        <ele>158.7</ele>
        <time>2015-04-25T08:05:56.000Z</time>
      </trkpt>
      <trkpt lat="48.6865" lon="1.73562">
        <ele>158.2</ele>
        <time>2015-04-25T08:06:03.000Z</time>
      </trkpt>
      <trkpt lat="48.68649" lon="1.73562">
        <ele>158.1</ele>
        <time>2015-04-25T08:06:04.000Z</time>
      </trkpt>
      <trkpt lat="48.68643" lon="1.73562">
        <ele>157.7</ele>
        <time>2015-04-25T08:06:09.000Z</time>
      </trkpt>
      <trkpt lat="48.68634" lon="1.73561">
        <ele>156.3</ele>
        <time>2015-04-25T08:06:16.000Z</time>
      </trkpt>
      <trkpt lat="48.68628" lon="1.7356">
        <ele>155</ele>
        <time>2015-04-25T08:06:20.000Z</time>
      </trkpt>
      <trkpt lat="48.68617" lon="1.7356">
        <ele>152.7</ele>
        <time>2015-04-25T08:06:27.000Z</time>
      </trkpt>
      <trkpt lat="48.68612" lon="1.73563">
        <ele>152.1</ele>
        <time>2015-04-25T08:06:31.000Z</time>
      </trkpt>
      <trkpt lat="48.68604" lon="1.73558">
        <ele>150.9</ele>
        <time>2015-04-25T08:06:38.000Z</time>
      </trkpt>
      <trkpt lat="48.686" lon="1.73557">
        <ele>150.7</ele>
        <time>2015-04-25T08:06:40.000Z</time>
      </trkpt>
      <trkpt lat="48.68591" lon="1.73556">
        <ele>150.3</ele>
        <time>2015-04-25T08:06:47.000Z</time>
      </trkpt>
      <trkpt lat="48.68581" lon="1.73557">
        <ele>150.2</ele>
        <time>2015-04-25T08:06:53.000Z</time>
      </trkpt>
      <trkpt lat="48.68567" lon="1.73555">
        <ele>151.8</ele>
        <time>2015-04-25T08:07:01.000Z</time>
      </trkpt>
      <trkpt lat="48.68555" lon="1.73553">
        <ele>153.1</ele>
        <time>2015-04-25T08:07:08.000Z</time>
      </trkpt>
      <trkpt lat="48.68549" lon="1.73553">
        <ele>153.5</ele>
        <time>2015-04-25T08:07:12.000Z</time>
      </trkpt>
      <trkpt lat="48.68541" lon="1.73554">
        <ele>154.1</ele>
        <time>2015-04-25T08:07:18.000Z</time>
      </trkpt>
      <trkpt lat="48.68531" lon="1.73552">
        <ele>154.8</ele>
        <time>2015-04-25T08:07:26.000Z</time>
      </trkpt>
      <trkpt lat="48.68523" lon="1.73553">
        <ele>155</ele>
        <time>2015-04-25T08:07:32.000Z</time>
      </trkpt>
      <trkpt lat="48.68512" lon="1.73553">
        <ele>155.1</ele>
        <time>2015-04-25T08:07:39.000Z</time>
      </trkpt>
      <trkpt lat="48.685" lon="1.73555">
        <ele>155</ele>
        <time>2015-04-25T08:07:46.000Z</time>
      </trkpt>
      <trkpt lat="48.68493" lon="1.73555">
        <ele>155.6</ele>
        <time>2015-04-25T08:07:51.000Z</time>
      </trkpt>
      <trkpt lat="48.68487" lon="1.7355">
        <ele>156.1</ele>
        <time>2015-04-25T08:07:57.000Z</time>
      </trkpt>
      <trkpt lat="48.6848" lon="1.73549">
        <ele>156.5</ele>
        <time>2015-04-25T08:08:03.000Z</time>
      </trkpt>
      <trkpt lat="48.68477" lon="1.73553">
        <ele>156.7</ele>
        <time>2015-04-25T08:08:07.000Z</time>
      </trkpt>
      <trkpt lat="48.68473" lon="1.73553">
        <ele>156.9</ele>
        <time>2015-04-25T08:08:10.000Z</time>
      </trkpt>
      <trkpt lat="48.68466" lon="1.73558">
        <ele>157.1</ele>
        <time>2015-04-25T08:08:16.000Z</time>
      </trkpt>
      <trkpt lat="48.68464" lon="1.7356">
        <ele>157.1</ele>
        <time>2015-04-25T08:08:18.000Z</time>
      </trkpt>
      <trkpt lat="48.68458" lon="1.73565">
        <ele>157.1</ele>
        <time>2015-04-25T08:08:23.000Z</time>
      </trkpt>
      <trkpt lat="48.6845" lon="1.73562">
        <ele>157.6</ele>
        <time>2015-04-25T08:08:30.000Z</time>
      </trkpt>
      <trkpt lat="48.68446" lon="1.73561">
        <ele>157.7</ele>
        <time>2015-04-25T08:08:32.000Z</time>
      </trkpt>
      <trkpt lat="48.68442" lon="1.73557">
        <ele>157.9</ele>
        <time>2015-04-25T08:08:36.000Z</time>
      </trkpt>
      <trkpt lat="48.6844" lon="1.73544">
        <ele>157.7</ele>
        <time>2015-04-25T08:08:43.000Z</time>
      </trkpt>
      <trkpt lat="48.68438" lon="1.73542">
        <ele>157.6</ele>
        <time>2015-04-25T08:08:47.000Z</time>
      </trkpt>
      <trkpt lat="48.68432" lon="1.73536">
        <ele>157.6</ele>
        <time>2015-04-25T08:08:59.000Z</time>
      </trkpt>
      <trkpt lat="48.68421" lon="1.73535">
        <ele>157.9</ele>
        <time>2015-04-25T08:09:04.000Z</time>
      </trkpt>
      <trkpt lat="48.68411" lon="1.73536">
        <ele>158.2</ele>
        <time>2015-04-25T08:09:11.000Z</time>
      </trkpt>
      <trkpt lat="48.684" lon="1.73533">
        <ele>158.6</ele>
        <time>2015-04-25T08:09:18.000Z</time>
      </trkpt>
      <trkpt lat="48.68389" lon="1.7353">
        <ele>159</ele>
        <time>2015-04-25T08:09:26.000Z</time>
      </trkpt>
      <trkpt lat="48.68375" lon="1.73531">
        <ele>159.5</ele>
        <time>2015-04-25T08:09:34.000Z</time>
      </trkpt>
      <trkpt lat="48.68371" lon="1.73531">
        <ele>159.6</ele>
        <time>2015-04-25T08:09:37.000Z</time>
      </trkpt>
      <trkpt lat="48.68364" lon="1.73531">
        <ele>159.9</ele>
        <time>2015-04-25T08:09:43.000Z</time>
      </trkpt>
      <trkpt lat="48.68361" lon="1.7353">
        <ele>160</ele>
        <time>2015-04-25T08:09:45.000Z</time>
      </trkpt>
      <trkpt lat="48.68349" lon="1.73529">
        <ele>160</ele>
        <time>2015-04-25T08:09:53.000Z</time>
      </trkpt>
      <trkpt lat="48.68336" lon="1.73532">
        <ele>160</ele>
        <time>2015-04-25T08:10:00.000Z</time>
      </trkpt>
      <trkpt lat="48.68326" lon="1.73528">
        <ele>160.2</ele>
        <time>2015-04-25T08:10:07.000Z</time>
      </trkpt>
      <trkpt lat="48.68317" lon="1.73527">
        <ele>160.6</ele>
        <time>2015-04-25T08:10:14.000Z</time>
      </trkpt>
      <trkpt lat="48.68311" lon="1.73525">
        <ele>160.9</ele>
        <time>2015-04-25T08:10:20.000Z</time>
      </trkpt>
      <trkpt lat="48.68311" lon="1.73525">
        <ele>160.9</ele>
        <time>2015-04-25T08:10:21.000Z</time>
      </trkpt>
      <trkpt lat="48.68315" lon="1.73523">
        <ele>160.8</ele>
        <time>2015-04-25T08:13:35.000Z</time>
      </trkpt>
      <trkpt lat="48.68325" lon="1.73521">
        <ele>160.5</ele>
        <time>2015-04-25T08:13:42.000Z</time>
      </trkpt>
      <trkpt lat="48.68332" lon="1.73521">
        <ele>160.3</ele>
        <time>2015-04-25T08:13:49.000Z</time>
      </trkpt>
      <trkpt lat="48.68346" lon="1.73513">
        <ele>160.3</ele>
        <time>2015-04-25T08:15:13.000Z</time>
      </trkpt>
      <trkpt lat="48.68349" lon="1.73506">
        <ele>160.3</ele>
        <time>2015-04-25T08:15:16.000Z</time>
      </trkpt>
      <trkpt lat="48.68357" lon="1.73494">
        <ele>160.3</ele>
        <time>2015-04-25T08:15:24.000Z</time>
      </trkpt>
      <trkpt lat="48.68364" lon="1.73481">
        <ele>160.6</ele>
        <time>2015-04-25T08:15:32.000Z</time>
      </trkpt>
      <trkpt lat="48.68373" lon="1.73466">
        <ele>160.6</ele>
        <time>2015-04-25T08:15:41.000Z</time>
      </trkpt>
      <trkpt lat="48.6838" lon="1.73453">
        <ele>160.3</ele>
        <time>2015-04-25T08:15:48.000Z</time>
      </trkpt>
      <trkpt lat="48.68389" lon="1.73441">
        <ele>160.1</ele>
        <time>2015-04-25T08:15:55.000Z</time>
      </trkpt>
      <trkpt lat="48.6839" lon="1.73439">
        <ele>160.2</ele>
        <time>2015-04-25T08:15:56.000Z</time>
      </trkpt>
      <trkpt lat="48.68399" lon="1.73426">
        <ele>160.4</ele>
        <time>2015-04-25T08:16:04.000Z</time>
      </trkpt>
      <trkpt lat="48.68409" lon="1.73413">
        <ele>160.4</ele>
        <time>2015-04-25T08:16:12.000Z</time>
      </trkpt>
      <trkpt lat="48.6842" lon="1.73395">
        <ele>160.6</ele>
        <time>2015-04-25T08:16:22.000Z</time>
      </trkpt>
      <trkpt lat="48.68423" lon="1.73391">
        <ele>160.5</ele>
        <time>2015-04-25T08:16:24.000Z</time>
      </trkpt>
      <trkpt lat="48.68431" lon="1.73377">
        <ele>160.2</ele>
        <time>2015-04-25T08:16:32.000Z</time>
      </trkpt>
      <trkpt lat="48.68436" lon="1.73366">
        <ele>160.2</ele>
        <time>2015-04-25T08:16:38.000Z</time>
      </trkpt>
      <trkpt lat="48.68445" lon="1.73351">
        <ele>159.6</ele>
        <time>2015-04-25T08:16:47.000Z</time>
      </trkpt>
      <trkpt lat="48.68454" lon="1.73338">
        <ele>158.7</ele>
        <time>2015-04-25T08:16:55.000Z</time>
      </trkpt>
      <trkpt lat="48.68466" lon="1.73325">
        <ele>158.5</ele>
        <time>2015-04-25T08:17:05.000Z</time>
      </trkpt>
      <trkpt lat="48.68468" lon="1.73318">
        <ele>158.6</ele>
        <time>2015-04-25T08:17:08.000Z</time>
      </trkpt>
      <trkpt lat="48.68473" lon="1.73303">
        <ele>159.1</ele>
        <time>2015-04-25T08:17:15.000Z</time>
      </trkpt>
      <trkpt lat="48.68484" lon="1.73292">
        <ele>159.1</ele>
        <time>2015-04-25T08:17:23.000Z</time>
      </trkpt>
      <trkpt lat="48.68493" lon="1.7328">
        <ele>159.2</ele>
        <time>2015-04-25T08:17:30.000Z</time>
      </trkpt>
      <trkpt lat="48.68501" lon="1.73268">
        <ele>159.3</ele>
        <time>2015-04-25T08:17:37.000Z</time>
      </trkpt>
      <trkpt lat="48.68508" lon="1.73257">
        <ele>159.7</ele>
        <time>2015-04-25T08:17:44.000Z</time>
      </trkpt>
      <trkpt lat="48.68514" lon="1.73246">
        <ele>160.1</ele>
        <time>2015-04-25T08:17:51.000Z</time>
      </trkpt>
      <trkpt lat="48.68522" lon="1.73232">
        <ele>160.7</ele>
        <time>2015-04-25T08:17:59.000Z</time>
      </trkpt>
      <trkpt lat="48.68527" lon="1.73223">
        <ele>161</ele>
        <time>2015-04-25T08:18:04.000Z</time>
      </trkpt>
      <trkpt lat="48.68532" lon="1.73212">
        <ele>161.5</ele>
        <time>2015-04-25T08:18:10.000Z</time>
      </trkpt>
      <trkpt lat="48.68539" lon="1.73196">
        <ele>162.3</ele>
        <time>2015-04-25T08:18:18.000Z</time>
      </trkpt>
      <trkpt lat="48.68546" lon="1.73183">
        <ele>163.2</ele>
        <time>2015-04-25T08:18:25.000Z</time>
      </trkpt>
      <trkpt lat="48.68555" lon="1.73175">
        <ele>163.7</ele>
        <time>2015-04-25T08:18:32.000Z</time>
      </trkpt>
      <trkpt lat="48.68561" lon="1.73174">
        <ele>163.9</ele>
        <time>2015-04-25T08:18:36.000Z</time>
      </trkpt>
      <trkpt lat="48.6857" lon="1.73167">
        <ele>164.5</ele>
        <time>2015-04-25T08:18:42.000Z</time>
      </trkpt>
      <trkpt lat="48.68577" lon="1.73162">
        <ele>165</ele>
        <time>2015-04-25T08:18:47.000Z</time>
      </trkpt>
      <trkpt lat="48.68588" lon="1.73158">
        <ele>165.3</ele>
        <time>2015-04-25T08:18:54.000Z</time>
      </trkpt>
      <trkpt lat="48.686" lon="1.73153">
        <ele>165.5</ele>
        <time>2015-04-25T08:19:02.000Z</time>
      </trkpt>
      <trkpt lat="48.68612" lon="1.73146">
        <ele>165.7</ele>
        <time>2015-04-25T08:19:11.000Z</time>
      </trkpt>
      <trkpt lat="48.68621" lon="1.73142">
        <ele>165.2</ele>
        <time>2015-04-25T08:19:17.000Z</time>
      </trkpt>
      <trkpt lat="48.68632" lon="1.73135">
        <ele>164.6</ele>
        <time>2015-04-25T08:19:24.000Z</time>
      </trkpt>
      <trkpt lat="48.68636" lon="1.73131">
        <ele>164.5</ele>
        <time>2015-04-25T08:19:28.000Z</time>
      </trkpt>
      <trkpt lat="48.68642" lon="1.73126">
        <ele>164.1</ele>
        <time>2015-04-25T08:19:33.000Z</time>
      </trkpt>
      <trkpt lat="48.68647" lon="1.73125">
        <ele>163.6</ele>
        <time>2015-04-25T08:19:37.000Z</time>
      </trkpt>
      <trkpt lat="48.68655" lon="1.73123">
        <ele>162.8</ele>
        <time>2015-04-25T08:19:43.000Z</time>
      </trkpt>
      <trkpt lat="48.68658" lon="1.73122">
        <ele>162.6</ele>
        <time>2015-04-25T08:19:45.000Z</time>
      </trkpt>
      <trkpt lat="48.6867" lon="1.73116">
        <ele>161.4</ele>
        <time>2015-04-25T08:19:53.000Z</time>
      </trkpt>
      <trkpt lat="48.68679" lon="1.73113">
        <ele>160.2</ele>
        <time>2015-04-25T08:19:58.000Z</time>
      </trkpt>
      <trkpt lat="48.68685" lon="1.73109">
        <ele>159.5</ele>
        <time>2015-04-25T08:20:04.000Z</time>
      </trkpt>
      <trkpt lat="48.68693" lon="1.73109">
        <ele>158.3</ele>
        <time>2015-04-25T08:20:09.000Z</time>
      </trkpt>
      <trkpt lat="48.687" lon="1.73102">
        <ele>157.7</ele>
        <time>2015-04-25T08:20:14.000Z</time>
      </trkpt>
      <trkpt lat="48.68706" lon="1.73094">
        <ele>157.1</ele>
        <time>2015-04-25T08:20:20.000Z</time>
      </trkpt>
      <trkpt lat="48.68704" lon="1.73091">
        <ele>157.5</ele>
        <time>2015-04-25T08:20:30.000Z</time>
      </trkpt>
      <trkpt lat="48.68715" lon="1.73087">
        <ele>156.1</ele>
        <time>2015-04-25T08:20:37.000Z</time>
      </trkpt>
      <trkpt lat="48.68716" lon="1.73086">
        <ele>155.9</ele>
        <time>2015-04-25T08:20:38.000Z</time>
      </trkpt>
      <trkpt lat="48.68729" lon="1.73082">
        <ele>154.8</ele>
        <time>2015-04-25T08:20:45.000Z</time>
      </trkpt>
      <trkpt lat="48.68738" lon="1.73078">
        <ele>154.5</ele>
        <time>2015-04-25T08:20:51.000Z</time>
      </trkpt>
      <trkpt lat="48.68747" lon="1.73073">
        <ele>154.2</ele>
        <time>2015-04-25T08:20:57.000Z</time>
      </trkpt>
      <trkpt lat="48.68758" lon="1.73069">
        <ele>154.1</ele>
        <time>2015-04-25T08:21:03.000Z</time>
      </trkpt>
      <trkpt lat="48.68766" lon="1.73064">
        <ele>154.2</ele>
        <time>2015-04-25T08:21:08.000Z</time>
      </trkpt>
      <trkpt lat="48.68775" lon="1.73062">
        <ele>154.2</ele>
        <time>2015-04-25T08:21:13.000Z</time>
      </trkpt>
      <trkpt lat="48.68786" lon="1.73058">
        <ele>154.7</ele>
        <time>2015-04-25T08:21:20.000Z</time>
      </trkpt>
      <trkpt lat="48.68794" lon="1.73055">
        <ele>155.1</ele>
        <time>2015-04-25T08:21:25.000Z</time>
      </trkpt>
      <trkpt lat="48.68804" lon="1.73048">
        <ele>155.7</ele>
        <time>2015-04-25T08:21:33.000Z</time>
      </trkpt>
      <trkpt lat="48.68813" lon="1.73043">
        <ele>156.4</ele>
        <time>2015-04-25T08:21:38.000Z</time>
      </trkpt>
      <trkpt lat="48.68822" lon="1.73039">
        <ele>157.1</ele>
        <time>2015-04-25T08:21:47.000Z</time>
      </trkpt>
      <trkpt lat="48.68831" lon="1.73037">
        <ele>158.1</ele>
        <time>2015-04-25T08:21:53.000Z</time>
      </trkpt>
      <trkpt lat="48.68843" lon="1.73031">
        <ele>158.8</ele>
        <time>2015-04-25T08:22:00.000Z</time>
      </trkpt>
      <trkpt lat="48.68851" lon="1.73026">
        <ele>159.1</ele>
        <time>2015-04-25T08:22:06.000Z</time>
      </trkpt>
      <trkpt lat="48.6886" lon="1.73019">
        <ele>159.2</ele>
        <time>2015-04-25T08:22:13.000Z</time>
      </trkpt>
      <trkpt lat="48.68873" lon="1.73014">
        <ele>159.9</ele>
        <time>2015-04-25T08:22:21.000Z</time>
      </trkpt>
      <trkpt lat="48.68885" lon="1.7301">
        <ele>160.4</ele>
        <time>2015-04-25T08:22:29.000Z</time>
      </trkpt>
      <trkpt lat="48.68899" lon="1.73">
        <ele>160.4</ele>
        <time>2015-04-25T08:22:38.000Z</time>
      </trkpt>
      <trkpt lat="48.68907" lon="1.73">
        <ele>160.6</ele>
        <time>2015-04-25T08:22:44.000Z</time>
      </trkpt>
      <trkpt lat="48.68907" lon="1.73">
        <ele>160.7</ele>
        <time>2015-04-25T08:22:45.000Z</time>
      </trkpt>
      <trkpt lat="48.68919" lon="1.72995">
        <ele>160.7</ele>
        <time>2015-04-25T08:22:53.000Z</time>
      </trkpt>
      <trkpt lat="48.68927" lon="1.7299">
        <ele>160.7</ele>
        <time>2015-04-25T08:22:59.000Z</time>
      </trkpt>
      <trkpt lat="48.68936" lon="1.72985">
        <ele>160.6</ele>
        <time>2015-04-25T08:23:04.000Z</time>
      </trkpt>
      <trkpt lat="48.68948" lon="1.7298">
        <ele>160.7</ele>
        <time>2015-04-25T08:23:11.000Z</time>
      </trkpt>
      <trkpt lat="48.68959" lon="1.72974">
        <ele>160.6</ele>
        <time>2015-04-25T08:23:18.000Z</time>
      </trkpt>
      <trkpt lat="48.68965" lon="1.72972">
        <ele>160.7</ele>
        <time>2015-04-25T08:23:22.000Z</time>
      </trkpt>
      <trkpt lat="48.68974" lon="1.72965">
        <ele>160.6</ele>
        <time>2015-04-25T08:23:28.000Z</time>
      </trkpt>
      <trkpt lat="48.68983" lon="1.72962">
        <ele>160.6</ele>
        <time>2015-04-25T08:23:34.000Z</time>
      </trkpt>
      <trkpt lat="48.68994" lon="1.72958">
        <ele>160.7</ele>
        <time>2015-04-25T08:23:41.000Z</time>
      </trkpt>
      <trkpt lat="48.68998" lon="1.72956">
        <ele>160.8</ele>
        <time>2015-04-25T08:23:44.000Z</time>
      </trkpt>
      <trkpt lat="48.69003" lon="1.72953">
        <ele>160.7</ele>
        <time>2015-04-25T08:23:48.000Z</time>
      </trkpt>
      <trkpt lat="48.69008" lon="1.7295">
        <ele>160.6</ele>
        <time>2015-04-25T08:23:52.000Z</time>
      </trkpt>
      <trkpt lat="48.69015" lon="1.72945">
        <ele>160.6</ele>
        <time>2015-04-25T08:23:57.000Z</time>
      </trkpt>
      <trkpt lat="48.69027" lon="1.72938">
        <ele>160.7</ele>
        <time>2015-04-25T08:24:04.000Z</time>
      </trkpt>
      <trkpt lat="48.6903" lon="1.72938">
        <ele>160.9</ele>
        <time>2015-04-25T08:24:06.000Z</time>
      </trkpt>
      <trkpt lat="48.69039" lon="1.72929">
        <ele>160.8</ele>
        <time>2015-04-25T08:24:12.000Z</time>
      </trkpt>
      <trkpt lat="48.69049" lon="1.72926">
        <ele>161.1</ele>
        <time>2015-04-25T08:24:17.000Z</time>
      </trkpt>
      <trkpt lat="48.69058" lon="1.72921">
        <ele>161.2</ele>
        <time>2015-04-25T08:24:25.000Z</time>
      </trkpt>
      <trkpt lat="48.69067" lon="1.72917">
        <ele>161</ele>
        <time>2015-04-25T08:24:32.000Z</time>
      </trkpt>
      <trkpt lat="48.69074" lon="1.72916">
        <ele>161</ele>
        <time>2015-04-25T08:24:36.000Z</time>
      </trkpt>
      <trkpt lat="48.69079" lon="1.72913">
        <ele>161</ele>
        <time>2015-04-25T08:24:40.000Z</time>
      </trkpt>
      <trkpt lat="48.69091" lon="1.72907">
        <ele>161.2</ele>
        <time>2015-04-25T08:24:49.000Z</time>
      </trkpt>
      <trkpt lat="48.69101" lon="1.72905">
        <ele>161.4</ele>
        <time>2015-04-25T08:24:55.000Z</time>
      </trkpt>
      <trkpt lat="48.69107" lon="1.72903">
        <ele>161.4</ele>
        <time>2015-04-25T08:25:00.000Z</time>
      </trkpt>
      <trkpt lat="48.69113" lon="1.72901">
        <ele>161.4</ele>
        <time>2015-04-25T08:25:05.000Z</time>
      </trkpt>
      <trkpt lat="48.69122" lon="1.72895">
        <ele>161.2</ele>
        <time>2015-04-25T08:25:12.000Z</time>
      </trkpt>
      <trkpt lat="48.69127" lon="1.7289">
        <ele>161</ele>
        <time>2015-04-25T08:25:17.000Z</time>
      </trkpt>
      <trkpt lat="48.69131" lon="1.72888">
        <ele>161</ele>
        <time>2015-04-25T08:25:20.000Z</time>
      </trkpt>
      <trkpt lat="48.69137" lon="1.7288">
        <ele>161</ele>
        <time>2015-04-25T08:25:26.000Z</time>
      </trkpt>
      <trkpt lat="48.69144" lon="1.72877">
        <ele>161.1</ele>
        <time>2015-04-25T08:25:31.000Z</time>
      </trkpt>
      <trkpt lat="48.69152" lon="1.72871">
        <ele>161.2</ele>
        <time>2015-04-25T08:25:36.000Z</time>
      </trkpt>
      <trkpt lat="48.69155" lon="1.72869">
        <ele>161.2</ele>
        <time>2015-04-25T08:25:38.000Z</time>
      </trkpt>
      <trkpt lat="48.69167" lon="1.72866">
        <ele>161.2</ele>
        <time>2015-04-25T08:25:45.000Z</time>
      </trkpt>
      <trkpt lat="48.69175" lon="1.72866">
        <ele>161.4</ele>
        <time>2015-04-25T08:25:51.000Z</time>
      </trkpt>
      <trkpt lat="48.69181" lon="1.72864">
        <ele>161.6</ele>
        <time>2015-04-25T08:25:55.000Z</time>
      </trkpt>
      <trkpt lat="48.69193" lon="1.7286">
        <ele>161.9</ele>
        <time>2015-04-25T08:26:02.000Z</time>
      </trkpt>
      <trkpt lat="48.69196" lon="1.72859">
        <ele>162</ele>
        <time>2015-04-25T08:26:04.000Z</time>
      </trkpt>
      <trkpt lat="48.69204" lon="1.72852">
        <ele>162</ele>
        <time>2015-04-25T08:26:11.000Z</time>
      </trkpt>
      <trkpt lat="48.69214" lon="1.7285">
        <ele>162</ele>
        <time>2015-04-25T08:26:17.000Z</time>
      </trkpt>
      <trkpt lat="48.69221" lon="1.72846">
        <ele>162</ele>
        <time>2015-04-25T08:26:22.000Z</time>
      </trkpt>
      <trkpt lat="48.69228" lon="1.72841">
        <ele>162</ele>
        <time>2015-04-25T08:26:26.000Z</time>
      </trkpt>
      <trkpt lat="48.69241" lon="1.72834">
        <ele>162</ele>
        <time>2015-04-25T08:26:33.000Z</time>
      </trkpt>
      <trkpt lat="48.69242" lon="1.72833">
        <ele>162</ele>
        <time>2015-04-25T08:26:34.000Z</time>
      </trkpt>
      <trkpt lat="48.69246" lon="1.72831">
        <ele>162</ele>
        <time>2015-04-25T08:26:38.000Z</time>
      </trkpt>
      <trkpt lat="48.69254" lon="1.72828">
        <ele>161.9</ele>
        <time>2015-04-25T08:26:44.000Z</time>
      </trkpt>
      <trkpt lat="48.69262" lon="1.72825">
        <ele>161.6</ele>
        <time>2015-04-25T08:26:49.000Z</time>
      </trkpt>
      <trkpt lat="48.69268" lon="1.72821">
        <ele>161.4</ele>
        <time>2015-04-25T08:26:54.000Z</time>
      </trkpt>
      <trkpt lat="48.6928" lon="1.72815">
        <ele>161.1</ele>
        <time>2015-04-25T08:27:02.000Z</time>
      </trkpt>
      <trkpt lat="48.69284" lon="1.72815">
        <ele>161.1</ele>
        <time>2015-04-25T08:27:05.000Z</time>
      </trkpt>
      <trkpt lat="48.69294" lon="1.72808">
        <ele>161.5</ele>
        <time>2015-04-25T08:27:13.000Z</time>
      </trkpt>
      <trkpt lat="48.693" lon="1.72806">
        <ele>161.8</ele>
        <time>2015-04-25T08:27:17.000Z</time>
      </trkpt>
      <trkpt lat="48.69309" lon="1.72796">
        <ele>162</ele>
        <time>2015-04-25T08:27:25.000Z</time>
      </trkpt>
      <trkpt lat="48.69316" lon="1.72792">
        <ele>162</ele>
        <time>2015-04-25T08:27:31.000Z</time>
      </trkpt>
      <trkpt lat="48.69326" lon="1.72786">
        <ele>162</ele>
        <time>2015-04-25T08:27:38.000Z</time>
      </trkpt>
      <trkpt lat="48.69337" lon="1.72785">
        <ele>161.9</ele>
        <time>2015-04-25T08:27:44.000Z</time>
      </trkpt>
      <trkpt lat="48.69345" lon="1.72783">
        <ele>161.6</ele>
        <time>2015-04-25T08:27:49.000Z</time>
      </trkpt>
      <trkpt lat="48.69362" lon="1.72775">
        <ele>161</ele>
        <time>2015-04-25T08:27:58.000Z</time>
      </trkpt>
      <trkpt lat="48.69365" lon="1.72774">
        <ele>161</ele>
        <time>2015-04-25T08:28:00.000Z</time>
      </trkpt>
      <trkpt lat="48.69377" lon="1.72769">
        <ele>160.8</ele>
        <time>2015-04-25T08:28:08.000Z</time>
      </trkpt>
      <trkpt lat="48.69383" lon="1.72767">
        <ele>160.7</ele>
        <time>2015-04-25T08:28:12.000Z</time>
      </trkpt>
      <trkpt lat="48.69388" lon="1.72764">
        <ele>160.5</ele>
        <time>2015-04-25T08:28:16.000Z</time>
      </trkpt>
      <trkpt lat="48.69397" lon="1.72762">
        <ele>160.4</ele>
        <time>2015-04-25T08:28:21.000Z</time>
      </trkpt>
      <trkpt lat="48.6941" lon="1.72757">
        <ele>160.2</ele>
        <time>2015-04-25T08:28:29.000Z</time>
      </trkpt>
      <trkpt lat="48.69426" lon="1.72752">
        <ele>160</ele>
        <time>2015-04-25T08:28:40.000Z</time>
      </trkpt>
      <trkpt lat="48.69441" lon="1.72744">
        <ele>159.8</ele>
        <time>2015-04-25T08:28:50.000Z</time>
      </trkpt>
      <trkpt lat="48.69451" lon="1.72738">
        <ele>159.7</ele>
        <time>2015-04-25T08:28:56.000Z</time>
      </trkpt>
      <trkpt lat="48.69463" lon="1.72733">
        <ele>159.6</ele>
        <time>2015-04-25T08:29:04.000Z</time>
      </trkpt>
      <trkpt lat="48.69477" lon="1.72728">
        <ele>159.5</ele>
        <time>2015-04-25T08:29:14.000Z</time>
      </trkpt>
      <trkpt lat="48.69489" lon="1.72723">
        <ele>159.6</ele>
        <time>2015-04-25T08:29:22.000Z</time>
      </trkpt>
      <trkpt lat="48.69491" lon="1.72721">
        <ele>159.7</ele>
        <time>2015-04-25T08:29:24.000Z</time>
      </trkpt>
      <trkpt lat="48.69495" lon="1.72715">
        <ele>159.6</ele>
        <time>2015-04-25T08:29:30.000Z</time>
      </trkpt>
      <trkpt lat="48.69503" lon="1.72715">
        <ele>159.8</ele>
        <time>2015-04-25T08:29:36.000Z</time>
      </trkpt>
      <trkpt lat="48.69506" lon="1.72717">
        <ele>159.9</ele>
        <time>2015-04-25T08:29:41.000Z</time>
      </trkpt>
      <trkpt lat="48.69508" lon="1.7272">
        <ele>160</ele>
        <time>2015-04-25T08:29:46.000Z</time>
      </trkpt>
      <trkpt lat="48.69509" lon="1.7272">
        <ele>160</ele>
        <time>2015-04-25T08:29:47.000Z</time>
      </trkpt>
      <trkpt lat="48.69521" lon="1.72739">
        <ele>160</ele>
        <time>2015-04-25T08:31:36.000Z</time>
      </trkpt>
      <trkpt lat="48.6953" lon="1.72746">
        <ele>160</ele>
        <time>2015-04-25T08:31:42.000Z</time>
      </trkpt>
      <trkpt lat="48.69535" lon="1.72739">
        <ele>159.9</ele>
        <time>2015-04-25T08:31:48.000Z</time>
      </trkpt>
      <trkpt lat="48.69538" lon="1.72736">
        <ele>159.8</ele>
        <time>2015-04-25T08:31:51.000Z</time>
      </trkpt>
      <trkpt lat="48.6954" lon="1.72734">
        <ele>159.7</ele>
        <time>2015-04-25T08:31:53.000Z</time>
      </trkpt>
      <trkpt lat="48.69542" lon="1.72727">
        <ele>159.6</ele>
        <time>2015-04-25T08:31:57.000Z</time>
      </trkpt>
      <trkpt lat="48.69546" lon="1.72716">
        <ele>159.3</ele>
        <time>2015-04-25T08:32:03.000Z</time>
      </trkpt>
      <trkpt lat="48.69549" lon="1.7271">
        <ele>159.2</ele>
        <time>2015-04-25T08:32:06.000Z</time>
      </trkpt>
      <trkpt lat="48.69552" lon="1.72704">
        <ele>159.1</ele>
        <time>2015-04-25T08:32:10.000Z</time>
      </trkpt>
      <trkpt lat="48.69552" lon="1.72695">
        <ele>159.1</ele>
        <time>2015-04-25T08:32:14.000Z</time>
      </trkpt>
      <trkpt lat="48.69555" lon="1.72684">
        <ele>159</ele>
        <time>2015-04-25T08:32:20.000Z</time>
      </trkpt>
      <trkpt lat="48.6956" lon="1.7268">
        <ele>159</ele>
        <time>2015-04-25T08:32:23.000Z</time>
      </trkpt>
      <trkpt lat="48.69569" lon="1.72679">
        <ele>159</ele>
        <time>2015-04-25T08:32:28.000Z</time>
      </trkpt>
      <trkpt lat="48.69581" lon="1.72674">
        <ele>159</ele>
        <time>2015-04-25T08:32:36.000Z</time>
      </trkpt>
      <trkpt lat="48.69594" lon="1.72666">
        <ele>159</ele>
        <time>2015-04-25T08:32:44.000Z</time>
      </trkpt>
      <trkpt lat="48.69597" lon="1.72658">
        <ele>159</ele>
        <time>2015-04-25T08:32:49.000Z</time>
      </trkpt>
      <trkpt lat="48.69601" lon="1.72655">
        <ele>159</ele>
        <time>2015-04-25T08:32:53.000Z</time>
      </trkpt>
      <trkpt lat="48.69605" lon="1.72653">
        <ele>159</ele>
        <time>2015-04-25T08:32:56.000Z</time>
      </trkpt>
      <trkpt lat="48.69613" lon="1.72645">
        <ele>159</ele>
        <time>2015-04-25T08:33:04.000Z</time>
      </trkpt>
      <trkpt lat="48.69621" lon="1.72634">
        <ele>159</ele>
        <time>2015-04-25T08:33:12.000Z</time>
      </trkpt>
      <trkpt lat="48.69635" lon="1.72625">
        <ele>159</ele>
        <time>2015-04-25T08:33:19.000Z</time>
      </trkpt>
      <trkpt lat="48.69643" lon="1.7262">
        <ele>159</ele>
        <time>2015-04-25T08:33:24.000Z</time>
      </trkpt>
      <trkpt lat="48.69649" lon="1.72614">
        <ele>159</ele>
        <time>2015-04-25T08:33:29.000Z</time>
      </trkpt>
      <trkpt lat="48.69655" lon="1.72606">
        <ele>159</ele>
        <time>2015-04-25T08:33:36.000Z</time>
      </trkpt>
      <trkpt lat="48.69665" lon="1.72602">
        <ele>159</ele>
        <time>2015-04-25T08:33:41.000Z</time>
      </trkpt>
      <trkpt lat="48.69675" lon="1.72593">
        <ele>159</ele>
        <time>2015-04-25T08:33:48.000Z</time>
      </trkpt>
      <trkpt lat="48.69685" lon="1.72588">
        <ele>159</ele>
        <time>2015-04-25T08:33:54.000Z</time>
      </trkpt>
      <trkpt lat="48.69695" lon="1.72583">
        <ele>159</ele>
        <time>2015-04-25T08:33:59.000Z</time>
      </trkpt>
      <trkpt lat="48.69707" lon="1.72577">
        <ele>159</ele>
        <time>2015-04-25T08:34:04.000Z</time>
      </trkpt>
      <trkpt lat="48.69714" lon="1.72574">
        <ele>159</ele>
        <time>2015-04-25T08:34:09.000Z</time>
      </trkpt>
      <trkpt lat="48.69719" lon="1.72569">
        <ele>159</ele>
        <time>2015-04-25T08:34:14.000Z</time>
      </trkpt>
      <trkpt lat="48.69725" lon="1.72564">
        <ele>159</ele>
        <time>2015-04-25T08:34:19.000Z</time>
      </trkpt>
      <trkpt lat="48.69732" lon="1.7256">
        <ele>159</ele>
        <time>2015-04-25T08:34:25.000Z</time>
      </trkpt>
      <trkpt lat="48.69738" lon="1.72553">
        <ele>159</ele>
        <time>2015-04-25T08:34:31.000Z</time>
      </trkpt>
      <trkpt lat="48.69749" lon="1.72544">
        <ele>159</ele>
        <time>2015-04-25T08:34:38.000Z</time>
      </trkpt>
      <trkpt lat="48.69757" lon="1.72538">
        <ele>159</ele>
        <time>2015-04-25T08:34:43.000Z</time>
      </trkpt>
      <trkpt lat="48.69759" lon="1.72537">
        <ele>159</ele>
        <time>2015-04-25T08:34:44.000Z</time>
      </trkpt>
      <trkpt lat="48.69766" lon="1.72531">
        <ele>159</ele>
        <time>2015-04-25T08:34:49.000Z</time>
      </trkpt>
      <trkpt lat="48.69767" lon="1.72528">
        <ele>159</ele>
        <time>2015-04-25T08:34:51.000Z</time>
      </trkpt>
      <trkpt lat="48.69775" lon="1.72519">
        <ele>159</ele>
        <time>2015-04-25T08:34:59.000Z</time>
      </trkpt>
      <trkpt lat="48.69777" lon="1.72518">
        <ele>159</ele>
        <time>2015-04-25T08:35:00.000Z</time>
      </trkpt>
      <trkpt lat="48.69783" lon="1.72512">
        <ele>159</ele>
        <time>2015-04-25T08:35:05.000Z</time>
      </trkpt>
      <trkpt lat="48.69793" lon="1.7251">
        <ele>159</ele>
        <time>2015-04-25T08:35:10.000Z</time>
      </trkpt>
      <trkpt lat="48.69803" lon="1.72507">
        <ele>159</ele>
        <time>2015-04-25T08:35:16.000Z</time>
      </trkpt>
      <trkpt lat="48.69812" lon="1.72504">
        <ele>159</ele>
        <time>2015-04-25T08:35:21.000Z</time>
      </trkpt>
      <trkpt lat="48.69824" lon="1.72494">
        <ele>159</ele>
        <time>2015-04-25T08:35:29.000Z</time>
      </trkpt>
      <trkpt lat="48.69826" lon="1.72491">
        <ele>159</ele>
        <time>2015-04-25T08:35:31.000Z</time>
      </trkpt>
      <trkpt lat="48.69829" lon="1.72484">
        <ele>159</ele>
        <time>2015-04-25T08:35:36.000Z</time>
      </trkpt>
      <trkpt lat="48.6983" lon="1.72483">
        <ele>159</ele>
        <time>2015-04-25T08:35:37.000Z</time>
      </trkpt>
      <trkpt lat="48.69839" lon="1.72476">
        <ele>158.8</ele>
        <time>2015-04-25T08:35:43.000Z</time>
      </trkpt>
      <trkpt lat="48.69844" lon="1.72472">
        <ele>158.6</ele>
        <time>2015-04-25T08:35:46.000Z</time>
      </trkpt>
      <trkpt lat="48.69851" lon="1.72469">
        <ele>158.4</ele>
        <time>2015-04-25T08:35:52.000Z</time>
      </trkpt>
      <trkpt lat="48.69859" lon="1.72463">
        <ele>158.1</ele>
        <time>2015-04-25T08:35:58.000Z</time>
      </trkpt>
      <trkpt lat="48.69866" lon="1.7246">
        <ele>158.1</ele>
        <time>2015-04-25T08:36:02.000Z</time>
      </trkpt>
      <trkpt lat="48.69874" lon="1.72455">
        <ele>158.2</ele>
        <time>2015-04-25T08:36:07.000Z</time>
      </trkpt>
      <trkpt lat="48.69885" lon="1.72449">
        <ele>158.1</ele>
        <time>2015-04-25T08:36:13.000Z</time>
      </trkpt>
      <trkpt lat="48.69893" lon="1.72445">
        <ele>158.1</ele>
        <time>2015-04-25T08:36:21.000Z</time>
      </trkpt>
      <trkpt lat="48.69903" lon="1.72438">
        <ele>158.4</ele>
        <time>2015-04-25T08:36:26.000Z</time>
      </trkpt>
      <trkpt lat="48.6991" lon="1.7243">
        <ele>158.4</ele>
        <time>2015-04-25T08:36:31.000Z</time>
      </trkpt>
      <trkpt lat="48.69911" lon="1.72429">
        <ele>158.4</ele>
        <time>2015-04-25T08:36:32.000Z</time>
      </trkpt>
      <trkpt lat="48.69922" lon="1.72422">
        <ele>158.4</ele>
        <time>2015-04-25T08:36:39.000Z</time>
      </trkpt>
      <trkpt lat="48.69932" lon="1.72415">
        <ele>158.6</ele>
        <time>2015-04-25T08:36:45.000Z</time>
      </trkpt>
      <trkpt lat="48.69946" lon="1.72409">
        <ele>159.1</ele>
        <time>2015-04-25T08:36:54.000Z</time>
      </trkpt>
      <trkpt lat="48.69954" lon="1.72404">
        <ele>159.5</ele>
        <time>2015-04-25T08:37:00.000Z</time>
      </trkpt>
      <trkpt lat="48.69964" lon="1.72397">
        <ele>159.9</ele>
        <time>2015-04-25T08:37:07.000Z</time>
      </trkpt>
      <trkpt lat="48.69976" lon="1.72389">
        <ele>160.1</ele>
        <time>2015-04-25T08:37:14.000Z</time>
      </trkpt>
      <trkpt lat="48.6998" lon="1.72385">
        <ele>160.3</ele>
        <time>2015-04-25T08:37:18.000Z</time>
      </trkpt>
      <trkpt lat="48.6999" lon="1.72379">
        <ele>160.6</ele>
        <time>2015-04-25T08:37:24.000Z</time>
      </trkpt>
      <trkpt lat="48.69998" lon="1.72369">
        <ele>160.9</ele>
        <time>2015-04-25T08:37:30.000Z</time>
      </trkpt>
      <trkpt lat="48.70005" lon="1.7236">
        <ele>161.2</ele>
        <time>2015-04-25T08:37:36.000Z</time>
      </trkpt>
      <trkpt lat="48.70012" lon="1.72356">
        <ele>161.4</ele>
        <time>2015-04-25T08:37:40.000Z</time>
      </trkpt>
      <trkpt lat="48.70023" lon="1.7235">
        <ele>161.8</ele>
        <time>2015-04-25T08:37:49.000Z</time>
      </trkpt>
      <trkpt lat="48.70025" lon="1.72349">
        <ele>161.9</ele>
        <time>2015-04-25T08:37:50.000Z</time>
      </trkpt>
      <trkpt lat="48.70029" lon="1.72349">
        <ele>162.1</ele>
        <time>2015-04-25T08:37:53.000Z</time>
      </trkpt>
      <trkpt lat="48.70035" lon="1.72341">
        <ele>162.5</ele>
        <time>2015-04-25T08:37:59.000Z</time>
      </trkpt>
      <trkpt lat="48.70038" lon="1.72337">
        <ele>162.7</ele>
        <time>2015-04-25T08:38:01.000Z</time>
      </trkpt>
      <trkpt lat="48.70042" lon="1.72336">
        <ele>163</ele>
        <time>2015-04-25T08:38:04.000Z</time>
      </trkpt>
      <trkpt lat="48.70051" lon="1.72331">
        <ele>163.6</ele>
        <time>2015-04-25T08:38:10.000Z</time>
      </trkpt>
      <trkpt lat="48.70062" lon="1.72323">
        <ele>164</ele>
        <time>2015-04-25T08:38:17.000Z</time>
      </trkpt>
      <trkpt lat="48.70065" lon="1.7232">
        <ele>164</ele>
        <time>2015-04-25T08:38:19.000Z</time>
      </trkpt>
      <trkpt lat="48.70074" lon="1.72309">
        <ele>164.4</ele>
        <time>2015-04-25T08:38:28.000Z</time>
      </trkpt>
      <trkpt lat="48.70083" lon="1.72305">
        <ele>164.9</ele>
        <time>2015-04-25T08:38:33.000Z</time>
      </trkpt>
      <trkpt lat="48.70091" lon="1.72302">
        <ele>165.7</ele>
        <time>2015-04-25T08:38:39.000Z</time>
      </trkpt>
      <trkpt lat="48.701" lon="1.72299">
        <ele>166.5</ele>
        <time>2015-04-25T08:38:45.000Z</time>
      </trkpt>
      <trkpt lat="48.70107" lon="1.72294">
        <ele>167.1</ele>
        <time>2015-04-25T08:38:51.000Z</time>
      </trkpt>
      <trkpt lat="48.70114" lon="1.72288">
        <ele>167.7</ele>
        <time>2015-04-25T08:38:57.000Z</time>
      </trkpt>
      <trkpt lat="48.70116" lon="1.72288">
        <ele>167.8</ele>
        <time>2015-04-25T08:38:58.000Z</time>
      </trkpt>
      <trkpt lat="48.70118" lon="1.72284">
        <ele>167.8</ele>
        <time>2015-04-25T08:39:02.000Z</time>
      </trkpt>
      <trkpt lat="48.70128" lon="1.72279">
        <ele>168.3</ele>
        <time>2015-04-25T08:39:09.000Z</time>
      </trkpt>
      <trkpt lat="48.70137" lon="1.72271">
        <ele>168.6</ele>
        <time>2015-04-25T08:39:15.000Z</time>
      </trkpt>
      <trkpt lat="48.70146" lon="1.72267">
        <ele>169.4</ele>
        <time>2015-04-25T08:39:21.000Z</time>
      </trkpt>
      <trkpt lat="48.70156" lon="1.72263">
        <ele>170.3</ele>
        <time>2015-04-25T08:39:27.000Z</time>
      </trkpt>
      <trkpt lat="48.70159" lon="1.7226">
        <ele>170.5</ele>
        <time>2015-04-25T08:39:29.000Z</time>
      </trkpt>
      <trkpt lat="48.70173" lon="1.72249">
        <ele>171.5</ele>
        <time>2015-04-25T08:39:38.000Z</time>
      </trkpt>
      <trkpt lat="48.70177" lon="1.72247">
        <ele>171.7</ele>
        <time>2015-04-25T08:39:44.000Z</time>
      </trkpt>
      <trkpt lat="48.70181" lon="1.72244">
        <ele>171.9</ele>
        <time>2015-04-25T08:39:49.000Z</time>
      </trkpt>
      <trkpt lat="48.70188" lon="1.72242">
        <ele>172.3</ele>
        <time>2015-04-25T08:39:56.000Z</time>
      </trkpt>
      <trkpt lat="48.70195" lon="1.72236">
        <ele>172.5</ele>
        <time>2015-04-25T08:40:01.000Z</time>
      </trkpt>
      <trkpt lat="48.70207" lon="1.72227">
        <ele>172.6</ele>
        <time>2015-04-25T08:40:09.000Z</time>
      </trkpt>
      <trkpt lat="48.70216" lon="1.72221">
        <ele>172.8</ele>
        <time>2015-04-25T08:40:16.000Z</time>
      </trkpt>
      <trkpt lat="48.70222" lon="1.72215">
        <ele>173</ele>
        <time>2015-04-25T08:40:21.000Z</time>
      </trkpt>
      <trkpt lat="48.70233" lon="1.72207">
        <ele>173.6</ele>
        <time>2015-04-25T08:40:28.000Z</time>
      </trkpt>
      <trkpt lat="48.70246" lon="1.722">
        <ele>174.1</ele>
        <time>2015-04-25T08:40:36.000Z</time>
      </trkpt>
      <trkpt lat="48.70257" lon="1.72194">
        <ele>174.2</ele>
        <time>2015-04-25T08:40:43.000Z</time>
      </trkpt>
      <trkpt lat="48.70264" lon="1.72186">
        <ele>174.5</ele>
        <time>2015-04-25T08:40:50.000Z</time>
      </trkpt>
      <trkpt lat="48.70272" lon="1.72181">
        <ele>174.8</ele>
        <time>2015-04-25T08:40:56.000Z</time>
      </trkpt>
      <trkpt lat="48.7028" lon="1.72179">
        <ele>175.1</ele>
        <time>2015-04-25T08:41:02.000Z</time>
      </trkpt>
      <trkpt lat="48.70283" lon="1.72175">
        <ele>175.2</ele>
        <time>2015-04-25T08:41:05.000Z</time>
      </trkpt>
      <trkpt lat="48.70291" lon="1.72166">
        <ele>175.5</ele>
        <time>2015-04-25T08:41:13.000Z</time>
      </trkpt>
      <trkpt lat="48.70291" lon="1.72166">
        <ele>175.5</ele>
        <time>2015-04-25T08:41:15.000Z</time>
      </trkpt>
      <trkpt lat="48.70288" lon="1.72163">
        <ele>175.4</ele>
        <time>2015-04-25T08:41:23.000Z</time>
      </trkpt>
      <trkpt lat="48.70283" lon="1.72159">
        <ele>175.2</ele>
        <time>2015-04-25T08:41:26.000Z</time>
      </trkpt>
      <trkpt lat="48.70283" lon="1.72159">
        <ele>175.2</ele>
        <time>2015-04-25T08:41:29.000Z</time>
      </trkpt>
      <trkpt lat="48.70296" lon="1.72161">
        <ele>175.7</ele>
        <time>2015-04-25T08:42:05.000Z</time>
      </trkpt>
      <trkpt lat="48.70299" lon="1.7216">
        <ele>175.8</ele>
        <time>2015-04-25T08:42:08.000Z</time>
      </trkpt>
      <trkpt lat="48.70294" lon="1.72149">
        <ele>175.6</ele>
        <time>2015-04-25T08:42:21.000Z</time>
      </trkpt>
      <trkpt lat="48.70295" lon="1.72137">
        <ele>175.6</ele>
        <time>2015-04-25T08:42:26.000Z</time>
      </trkpt>
      <trkpt lat="48.70298" lon="1.72129">
        <ele>175.7</ele>
        <time>2015-04-25T08:42:31.000Z</time>
      </trkpt>
      <trkpt lat="48.70298" lon="1.72117">
        <ele>175.7</ele>
        <time>2015-04-25T08:42:37.000Z</time>
      </trkpt>
      <trkpt lat="48.70297" lon="1.72114">
        <ele>175.7</ele>
        <time>2015-04-25T08:42:38.000Z</time>
      </trkpt>
      <trkpt lat="48.70299" lon="1.72103">
        <ele>175.8</ele>
        <time>2015-04-25T08:42:43.000Z</time>
      </trkpt>
      <trkpt lat="48.70305" lon="1.7209">
        <ele>176</ele>
        <time>2015-04-25T08:42:51.000Z</time>
      </trkpt>
      <trkpt lat="48.70306" lon="1.72083">
        <ele>176</ele>
        <time>2015-04-25T08:42:54.000Z</time>
      </trkpt>
      <trkpt lat="48.70304" lon="1.72074">
        <ele>176</ele>
        <time>2015-04-25T08:42:58.000Z</time>
      </trkpt>
      <trkpt lat="48.70306" lon="1.7207">
        <ele>176</ele>
        <time>2015-04-25T08:43:00.000Z</time>
      </trkpt>
      <trkpt lat="48.70309" lon="1.72059">
        <ele>176.1</ele>
        <time>2015-04-25T08:43:06.000Z</time>
      </trkpt>
      <trkpt lat="48.70311" lon="1.72049">
        <ele>176.2</ele>
        <time>2015-04-25T08:43:12.000Z</time>
      </trkpt>
      <trkpt lat="48.70309" lon="1.72044">
        <ele>176.1</ele>
        <time>2015-04-25T08:43:16.000Z</time>
      </trkpt>
      <trkpt lat="48.70308" lon="1.72039">
        <ele>176.1</ele>
        <time>2015-04-25T08:43:22.000Z</time>
      </trkpt>
      <trkpt lat="48.70323" lon="1.72028">
        <ele>176.6</ele>
        <time>2015-04-25T08:44:04.000Z</time>
      </trkpt>
      <trkpt lat="48.70325" lon="1.72023">
        <ele>176.7</ele>
        <time>2015-04-25T08:44:06.000Z</time>
      </trkpt>
      <trkpt lat="48.7033" lon="1.7201">
        <ele>176.9</ele>
        <time>2015-04-25T08:44:13.000Z</time>
      </trkpt>
      <trkpt lat="48.70332" lon="1.72005">
        <ele>176.9</ele>
        <time>2015-04-25T08:44:16.000Z</time>
      </trkpt>
      <trkpt lat="48.70333" lon="1.71993">
        <ele>177</ele>
        <time>2015-04-25T08:44:23.000Z</time>
      </trkpt>
      <trkpt lat="48.70337" lon="1.71978">
        <ele>177.1</ele>
        <time>2015-04-25T08:44:30.000Z</time>
      </trkpt>
      <trkpt lat="48.70341" lon="1.71965">
        <ele>177.3</ele>
        <time>2015-04-25T08:44:37.000Z</time>
      </trkpt>
      <trkpt lat="48.70345" lon="1.71956">
        <ele>177.4</ele>
        <time>2015-04-25T08:44:42.000Z</time>
      </trkpt>
      <trkpt lat="48.70348" lon="1.7194">
        <ele>177.5</ele>
        <time>2015-04-25T08:44:50.000Z</time>
      </trkpt>
      <trkpt lat="48.7035" lon="1.71934">
        <ele>177.6</ele>
        <time>2015-04-25T08:44:53.000Z</time>
      </trkpt>
      <trkpt lat="48.70352" lon="1.71923">
        <ele>177.7</ele>
        <time>2015-04-25T08:44:59.000Z</time>
      </trkpt>
      <trkpt lat="48.70347" lon="1.71912">
        <ele>177.5</ele>
        <time>2015-04-25T08:45:02.000Z</time>
      </trkpt>
      <trkpt lat="48.70345" lon="1.71907">
        <ele>177.4</ele>
        <time>2015-04-25T08:45:04.000Z</time>
      </trkpt>
      <trkpt lat="48.70348" lon="1.71902">
        <ele>177.5</ele>
        <time>2015-04-25T08:45:06.000Z</time>
      </trkpt>
      <trkpt lat="48.7035" lon="1.71893">
        <ele>177.6</ele>
        <time>2015-04-25T08:45:10.000Z</time>
      </trkpt>
      <trkpt lat="48.70352" lon="1.71886">
        <ele>177.7</ele>
        <time>2015-04-25T08:45:13.000Z</time>
      </trkpt>
      <trkpt lat="48.70353" lon="1.71878">
        <ele>177.7</ele>
        <time>2015-04-25T08:45:16.000Z</time>
      </trkpt>
      <trkpt lat="48.70354" lon="1.71873">
        <ele>177.7</ele>
        <time>2015-04-25T08:45:18.000Z</time>
      </trkpt>
      <trkpt lat="48.70356" lon="1.7186">
        <ele>177.8</ele>
        <time>2015-04-25T08:45:24.000Z</time>
      </trkpt>
      <trkpt lat="48.7036" lon="1.71853">
        <ele>177.9</ele>
        <time>2015-04-25T08:45:28.000Z</time>
      </trkpt>
      <trkpt lat="48.7036" lon="1.71844">
        <ele>178</ele>
        <time>2015-04-25T08:45:32.000Z</time>
      </trkpt>
      <trkpt lat="48.70362" lon="1.71837">
        <ele>178</ele>
        <time>2015-04-25T08:45:36.000Z</time>
      </trkpt>
      <trkpt lat="48.70368" lon="1.71825">
        <ele>178</ele>
        <time>2015-04-25T08:45:43.000Z</time>
      </trkpt>
      <trkpt lat="48.7037" lon="1.71817">
        <ele>178</ele>
        <time>2015-04-25T08:45:48.000Z</time>
      </trkpt>
      <trkpt lat="48.70371" lon="1.71803">
        <ele>178</ele>
        <time>2015-04-25T08:45:55.000Z</time>
      </trkpt>
      <trkpt lat="48.70373" lon="1.71801">
        <ele>178</ele>
        <time>2015-04-25T08:45:56.000Z</time>
      </trkpt>
      <trkpt lat="48.70379" lon="1.71785">
        <ele>178</ele>
        <time>2015-04-25T08:46:04.000Z</time>
      </trkpt>
      <trkpt lat="48.70381" lon="1.71773">
        <ele>178</ele>
        <time>2015-04-25T08:46:10.000Z</time>
      </trkpt>
      <trkpt lat="48.70384" lon="1.71765">
        <ele>178</ele>
        <time>2015-04-25T08:46:14.000Z</time>
      </trkpt>
      <trkpt lat="48.70384" lon="1.7176">
        <ele>178</ele>
        <time>2015-04-25T08:46:16.000Z</time>
      </trkpt>
      <trkpt lat="48.70388" lon="1.71745">
        <ele>178</ele>
        <time>2015-04-25T08:46:24.000Z</time>
      </trkpt>
      <trkpt lat="48.70391" lon="1.71735">
        <ele>178.1</ele>
        <time>2015-04-25T08:46:29.000Z</time>
      </trkpt>
      <trkpt lat="48.70393" lon="1.71719">
        <ele>178.1</ele>
        <time>2015-04-25T08:46:36.000Z</time>
      </trkpt>
      <trkpt lat="48.70396" lon="1.71705">
        <ele>178.1</ele>
        <time>2015-04-25T08:46:42.000Z</time>
      </trkpt>
      <trkpt lat="48.70397" lon="1.71691">
        <ele>178</ele>
        <time>2015-04-25T08:46:48.000Z</time>
      </trkpt>
      <trkpt lat="48.70397" lon="1.71688">
        <ele>178</ele>
        <time>2015-04-25T08:46:49.000Z</time>
      </trkpt>
      <trkpt lat="48.70399" lon="1.71675">
        <ele>178</ele>
        <time>2015-04-25T08:46:55.000Z</time>
      </trkpt>
      <trkpt lat="48.70402" lon="1.71668">
        <ele>178</ele>
        <time>2015-04-25T08:46:59.000Z</time>
      </trkpt>
      <trkpt lat="48.70404" lon="1.71659">
        <ele>177.9</ele>
        <time>2015-04-25T08:47:03.000Z</time>
      </trkpt>
      <trkpt lat="48.70407" lon="1.71645">
        <ele>177.7</ele>
        <time>2015-04-25T08:47:09.000Z</time>
      </trkpt>
      <trkpt lat="48.7041" lon="1.71633">
        <ele>177.6</ele>
        <time>2015-04-25T08:47:15.000Z</time>
      </trkpt>
      <trkpt lat="48.70412" lon="1.71622">
        <ele>177.2</ele>
        <time>2015-04-25T08:47:21.000Z</time>
      </trkpt>
      <trkpt lat="48.70412" lon="1.7162">
        <ele>177.1</ele>
        <time>2015-04-25T08:47:25.000Z</time>
      </trkpt>
      <trkpt lat="48.70409" lon="1.71612">
        <ele>176.7</ele>
        <time>2015-04-25T08:47:31.000Z</time>
      </trkpt>
      <trkpt lat="48.70409" lon="1.71604">
        <ele>176.7</ele>
        <time>2015-04-25T08:47:35.000Z</time>
      </trkpt>
      <trkpt lat="48.70411" lon="1.71596">
        <ele>176.8</ele>
        <time>2015-04-25T08:47:39.000Z</time>
      </trkpt>
      <trkpt lat="48.70414" lon="1.71584">
        <ele>176.9</ele>
        <time>2015-04-25T08:47:46.000Z</time>
      </trkpt>
      <trkpt lat="48.70418" lon="1.71569">
        <ele>176.5</ele>
        <time>2015-04-25T08:47:53.000Z</time>
      </trkpt>
      <trkpt lat="48.7042" lon="1.71562">
        <ele>176.3</ele>
        <time>2015-04-25T08:47:57.000Z</time>
      </trkpt>
      <trkpt lat="48.70423" lon="1.71551">
        <ele>176.4</ele>
        <time>2015-04-25T08:48:02.000Z</time>
      </trkpt>
      <trkpt lat="48.70425" lon="1.71543">
        <ele>176.6</ele>
        <time>2015-04-25T08:48:06.000Z</time>
      </trkpt>
      <trkpt lat="48.70426" lon="1.71539">
        <ele>176.7</ele>
        <time>2015-04-25T08:48:08.000Z</time>
      </trkpt>
      <trkpt lat="48.7043" lon="1.71524">
        <ele>177</ele>
        <time>2015-04-25T08:48:17.000Z</time>
      </trkpt>
      <trkpt lat="48.70434" lon="1.71514">
        <ele>177</ele>
        <time>2015-04-25T08:48:23.000Z</time>
      </trkpt>
      <trkpt lat="48.70434" lon="1.71513">
        <ele>177</ele>
        <time>2015-04-25T08:48:24.000Z</time>
      </trkpt>
      <trkpt lat="48.70432" lon="1.715">
        <ele>177</ele>
        <time>2015-04-25T08:48:29.000Z</time>
      </trkpt>
      <trkpt lat="48.70437" lon="1.7149">
        <ele>177.4</ele>
        <time>2015-04-25T08:48:36.000Z</time>
      </trkpt>
      <trkpt lat="48.70441" lon="1.71476">
        <ele>177.9</ele>
        <time>2015-04-25T08:48:44.000Z</time>
      </trkpt>
      <trkpt lat="48.70442" lon="1.71472">
        <ele>178</ele>
        <time>2015-04-25T08:48:46.000Z</time>
      </trkpt>
      <trkpt lat="48.70444" lon="1.71463">
        <ele>178</ele>
        <time>2015-04-25T08:48:51.000Z</time>
      </trkpt>
      <trkpt lat="48.7045" lon="1.71447">
        <ele>178</ele>
        <time>2015-04-25T08:48:58.000Z</time>
      </trkpt>
      <trkpt lat="48.70453" lon="1.71437">
        <ele>178</ele>
        <time>2015-04-25T08:49:03.000Z</time>
      </trkpt>
      <trkpt lat="48.70456" lon="1.71425">
        <ele>178</ele>
        <time>2015-04-25T08:49:09.000Z</time>
      </trkpt>
      <trkpt lat="48.7046" lon="1.71408">
        <ele>178</ele>
        <time>2015-04-25T08:49:17.000Z</time>
      </trkpt>
      <trkpt lat="48.70464" lon="1.71391">
        <ele>178</ele>
        <time>2015-04-25T08:49:25.000Z</time>
      </trkpt>
      <trkpt lat="48.70463" lon="1.71376">
        <ele>178</ele>
        <time>2015-04-25T08:49:31.000Z</time>
      </trkpt>
      <trkpt lat="48.7046" lon="1.71364">
        <ele>178</ele>
        <time>2015-04-25T08:49:35.000Z</time>
      </trkpt>
      <trkpt lat="48.70463" lon="1.7135">
        <ele>178</ele>
        <time>2015-04-25T08:49:42.000Z</time>
      </trkpt>
      <trkpt lat="48.70468" lon="1.71338">
        <ele>178</ele>
        <time>2015-04-25T08:49:49.000Z</time>
      </trkpt>
      <trkpt lat="48.70468" lon="1.71337">
        <ele>178</ele>
        <time>2015-04-25T08:49:50.000Z</time>
      </trkpt>
      <trkpt lat="48.70474" lon="1.71324">
        <ele>178</ele>
        <time>2015-04-25T08:49:57.000Z</time>
      </trkpt>
      <trkpt lat="48.7048" lon="1.71309">
        <ele>178</ele>
        <time>2015-04-25T08:50:05.000Z</time>
      </trkpt>
      <trkpt lat="48.70479" lon="1.71297">
        <ele>178.3</ele>
        <time>2015-04-25T08:50:11.000Z</time>
      </trkpt>
      <trkpt lat="48.70479" lon="1.71281">
        <ele>178.9</ele>
        <time>2015-04-25T08:50:18.000Z</time>
      </trkpt>
      <trkpt lat="48.7048" lon="1.71277">
        <ele>179</ele>
        <time>2015-04-25T08:50:20.000Z</time>
      </trkpt>
      <trkpt lat="48.70481" lon="1.71266">
        <ele>179</ele>
        <time>2015-04-25T08:50:25.000Z</time>
      </trkpt>
      <trkpt lat="48.7048" lon="1.71253">
        <ele>179</ele>
        <time>2015-04-25T08:50:30.000Z</time>
      </trkpt>
      <trkpt lat="48.70481" lon="1.71243">
        <ele>179</ele>
        <time>2015-04-25T08:50:35.000Z</time>
      </trkpt>
      <trkpt lat="48.70482" lon="1.71235">
        <ele>179</ele>
        <time>2015-04-25T08:50:39.000Z</time>
      </trkpt>
      <trkpt lat="48.70486" lon="1.71222">
        <ele>179</ele>
        <time>2015-04-25T08:50:46.000Z</time>
      </trkpt>
      <trkpt lat="48.70486" lon="1.71218">
        <ele>179</ele>
        <time>2015-04-25T08:50:48.000Z</time>
      </trkpt>
      <trkpt lat="48.7049" lon="1.71213">
        <ele>179</ele>
        <time>2015-04-25T08:50:51.000Z</time>
      </trkpt>
      <trkpt lat="48.70494" lon="1.71205">
        <ele>179</ele>
        <time>2015-04-25T08:50:55.000Z</time>
      </trkpt>
      <trkpt lat="48.70496" lon="1.71192">
        <ele>179.1</ele>
        <time>2015-04-25T08:51:02.000Z</time>
      </trkpt>
      <trkpt lat="48.70501" lon="1.71179">
        <ele>179.6</ele>
        <time>2015-04-25T08:51:09.000Z</time>
      </trkpt>
      <trkpt lat="48.70501" lon="1.71177">
        <ele>179.6</ele>
        <time>2015-04-25T08:51:13.000Z</time>
      </trkpt>
      <trkpt lat="48.70507" lon="1.71154">
        <ele>179.5</ele>
        <time>2015-04-25T08:52:10.000Z</time>
      </trkpt>
      <trkpt lat="48.70504" lon="1.71137">
        <ele>179.2</ele>
        <time>2015-04-25T08:52:17.000Z</time>
      </trkpt>
      <trkpt lat="48.70509" lon="1.71116">
        <ele>179.3</ele>
        <time>2015-04-25T08:52:27.000Z</time>
      </trkpt>
      <trkpt lat="48.70511" lon="1.71112">
        <ele>179.4</ele>
        <time>2015-04-25T08:52:29.000Z</time>
      </trkpt>
      <trkpt lat="48.70518" lon="1.71097">
        <ele>179.3</ele>
        <time>2015-04-25T08:52:37.000Z</time>
      </trkpt>
      <trkpt lat="48.70523" lon="1.71085">
        <ele>179</ele>
        <time>2015-04-25T08:52:44.000Z</time>
      </trkpt>
      <trkpt lat="48.70525" lon="1.7108">
        <ele>179</ele>
        <time>2015-04-25T08:52:46.000Z</time>
      </trkpt>
      <trkpt lat="48.70525" lon="1.71067">
        <ele>179</ele>
        <time>2015-04-25T08:52:52.000Z</time>
      </trkpt>
      <trkpt lat="48.70524" lon="1.71046">
        <ele>179</ele>
        <time>2015-04-25T08:53:00.000Z</time>
      </trkpt>
      <trkpt lat="48.70526" lon="1.71041">
        <ele>179</ele>
        <time>2015-04-25T08:53:02.000Z</time>
      </trkpt>
      <trkpt lat="48.70527" lon="1.71036">
        <ele>179</ele>
        <time>2015-04-25T08:53:04.000Z</time>
      </trkpt>
      <trkpt lat="48.70526" lon="1.71021">
        <ele>179</ele>
        <time>2015-04-25T08:53:10.000Z</time>
      </trkpt>
      <trkpt lat="48.70526" lon="1.71008">
        <ele>179</ele>
        <time>2015-04-25T08:53:15.000Z</time>
      </trkpt>
      <trkpt lat="48.70528" lon="1.71006">
        <ele>179</ele>
        <time>2015-04-25T08:53:16.000Z</time>
      </trkpt>
      <trkpt lat="48.70538" lon="1.7099">
        <ele>179</ele>
        <time>2015-04-25T08:53:23.000Z</time>
      </trkpt>
      <trkpt lat="48.70542" lon="1.70981">
        <ele>179</ele>
        <time>2015-04-25T08:53:28.000Z</time>
      </trkpt>
      <trkpt lat="48.70543" lon="1.70974">
        <ele>179</ele>
        <time>2015-04-25T08:53:32.000Z</time>
      </trkpt>
      <trkpt lat="48.70546" lon="1.70967">
        <ele>179</ele>
        <time>2015-04-25T08:53:36.000Z</time>
      </trkpt>
      <trkpt lat="48.70548" lon="1.70956">
        <ele>179</ele>
        <time>2015-04-25T08:53:41.000Z</time>
      </trkpt>
      <trkpt lat="48.7055" lon="1.7095">
        <ele>179</ele>
        <time>2015-04-25T08:53:44.000Z</time>
      </trkpt>
      <trkpt lat="48.70551" lon="1.70933">
        <ele>179</ele>
        <time>2015-04-25T08:53:51.000Z</time>
      </trkpt>
      <trkpt lat="48.70556" lon="1.70924">
        <ele>179</ele>
        <time>2015-04-25T08:53:56.000Z</time>
      </trkpt>
      <trkpt lat="48.70558" lon="1.70915">
        <ele>179</ele>
        <time>2015-04-25T08:54:01.000Z</time>
      </trkpt>
      <trkpt lat="48.7056" lon="1.70899">
        <ele>179.1</ele>
        <time>2015-04-25T08:54:08.000Z</time>
      </trkpt>
      <trkpt lat="48.70562" lon="1.70884">
        <ele>179.4</ele>
        <time>2015-04-25T08:54:15.000Z</time>
      </trkpt>
      <trkpt lat="48.70566" lon="1.70874">
        <ele>179.7</ele>
        <time>2015-04-25T08:54:20.000Z</time>
      </trkpt>
      <trkpt lat="48.7057" lon="1.70865">
        <ele>179.9</ele>
        <time>2015-04-25T08:54:25.000Z</time>
      </trkpt>
      <trkpt lat="48.70571" lon="1.70864">
        <ele>180</ele>
        <time>2015-04-25T08:54:26.000Z</time>
      </trkpt>
      <trkpt lat="48.70573" lon="1.70861">
        <ele>180</ele>
        <time>2015-04-25T08:54:28.000Z</time>
      </trkpt>
      <trkpt lat="48.70575" lon="1.70852">
        <ele>180</ele>
        <time>2015-04-25T08:54:33.000Z</time>
      </trkpt>
      <trkpt lat="48.7058" lon="1.70841">
        <ele>180</ele>
        <time>2015-04-25T08:54:40.000Z</time>
      </trkpt>
      <trkpt lat="48.70587" lon="1.70827">
        <ele>180.1</ele>
        <time>2015-04-25T08:54:47.000Z</time>
      </trkpt>
      <trkpt lat="48.70592" lon="1.70813">
        <ele>180.3</ele>
        <time>2015-04-25T08:54:54.000Z</time>
      </trkpt>
      <trkpt lat="48.70595" lon="1.70805">
        <ele>180.4</ele>
        <time>2015-04-25T08:54:58.000Z</time>
      </trkpt>
      <trkpt lat="48.70598" lon="1.70791">
        <ele>180.5</ele>
        <time>2015-04-25T08:55:05.000Z</time>
      </trkpt>
      <trkpt lat="48.70605" lon="1.70777">
        <ele>180.8</ele>
        <time>2015-04-25T08:55:12.000Z</time>
      </trkpt>
      <trkpt lat="48.70608" lon="1.70764">
        <ele>180.9</ele>
        <time>2015-04-25T08:55:18.000Z</time>
      </trkpt>
      <trkpt lat="48.70609" lon="1.70747">
        <ele>181</ele>
        <time>2015-04-25T08:55:25.000Z</time>
      </trkpt>
      <trkpt lat="48.70608" lon="1.70733">
        <ele>181</ele>
        <time>2015-04-25T08:55:31.000Z</time>
      </trkpt>
      <trkpt lat="48.70612" lon="1.70722">
        <ele>181</ele>
        <time>2015-04-25T08:55:37.000Z</time>
      </trkpt>
      <trkpt lat="48.70614" lon="1.70719">
        <ele>181</ele>
        <time>2015-04-25T08:55:39.000Z</time>
      </trkpt>
      <trkpt lat="48.70619" lon="1.70706">
        <ele>181</ele>
        <time>2015-04-25T08:55:45.000Z</time>
      </trkpt>
      <trkpt lat="48.70624" lon="1.70691">
        <ele>181</ele>
        <time>2015-04-25T08:55:52.000Z</time>
      </trkpt>
      <trkpt lat="48.70628" lon="1.70676">
        <ele>181</ele>
        <time>2015-04-25T08:55:59.000Z</time>
      </trkpt>
      <trkpt lat="48.70629" lon="1.7067">
        <ele>181</ele>
        <time>2015-04-25T08:56:02.000Z</time>
      </trkpt>
      <trkpt lat="48.70631" lon="1.70657">
        <ele>181</ele>
        <time>2015-04-25T08:56:08.000Z</time>
      </trkpt>
      <trkpt lat="48.70635" lon="1.70642">
        <ele>181</ele>
        <time>2015-04-25T08:56:15.000Z</time>
      </trkpt>
      <trkpt lat="48.70637" lon="1.70629">
        <ele>181</ele>
        <time>2015-04-25T08:56:21.000Z</time>
      </trkpt>
      <trkpt lat="48.70643" lon="1.70615">
        <ele>181</ele>
        <time>2015-04-25T08:56:29.000Z</time>
      </trkpt>
      <trkpt lat="48.70649" lon="1.70598">
        <ele>180.8</ele>
        <time>2015-04-25T08:56:37.000Z</time>
      </trkpt>
      <trkpt lat="48.70651" lon="1.70585">
        <ele>180.6</ele>
        <time>2015-04-25T08:56:43.000Z</time>
      </trkpt>
      <trkpt lat="48.70656" lon="1.70575">
        <ele>180.4</ele>
        <time>2015-04-25T08:56:48.000Z</time>
      </trkpt>
      <trkpt lat="48.70658" lon="1.70562">
        <ele>180.3</ele>
        <time>2015-04-25T08:56:54.000Z</time>
      </trkpt>
      <trkpt lat="48.70658" lon="1.70546">
        <ele>180.3</ele>
        <time>2015-04-25T08:57:01.000Z</time>
      </trkpt>
      <trkpt lat="48.70659" lon="1.70532">
        <ele>180.3</ele>
        <time>2015-04-25T08:57:08.000Z</time>
      </trkpt>
      <trkpt lat="48.7066" lon="1.70528">
        <ele>180.3</ele>
        <time>2015-04-25T08:57:10.000Z</time>
      </trkpt>
      <trkpt lat="48.70662" lon="1.70512">
        <ele>180.2</ele>
        <time>2015-04-25T08:57:18.000Z</time>
      </trkpt>
      <trkpt lat="48.70663" lon="1.7051">
        <ele>180.1</ele>
        <time>2015-04-25T08:57:19.000Z</time>
      </trkpt>
      <trkpt lat="48.70669" lon="1.70497">
        <ele>179.8</ele>
        <time>2015-04-25T08:57:26.000Z</time>
      </trkpt>
      <trkpt lat="48.7067" lon="1.70495">
        <ele>179.7</ele>
        <time>2015-04-25T08:57:27.000Z</time>
      </trkpt>
      <trkpt lat="48.7067" lon="1.70486">
        <ele>179.7</ele>
        <time>2015-04-25T08:57:31.000Z</time>
      </trkpt>
      <trkpt lat="48.70671" lon="1.70473">
        <ele>179.8</ele>
        <time>2015-04-25T08:57:37.000Z</time>
      </trkpt>
      <trkpt lat="48.70675" lon="1.70457">
        <ele>179.9</ele>
        <time>2015-04-25T08:57:45.000Z</time>
      </trkpt>
      <trkpt lat="48.7068" lon="1.70446">
        <ele>180</ele>
        <time>2015-04-25T08:57:51.000Z</time>
      </trkpt>
      <trkpt lat="48.70684" lon="1.70433">
        <ele>180</ele>
        <time>2015-04-25T08:57:58.000Z</time>
      </trkpt>
      <trkpt lat="48.70687" lon="1.70418">
        <ele>180</ele>
        <time>2015-04-25T08:58:03.000Z</time>
      </trkpt>
      <trkpt lat="48.70689" lon="1.70408">
        <ele>180</ele>
        <time>2015-04-25T08:58:07.000Z</time>
      </trkpt>
      <trkpt lat="48.70692" lon="1.70396">
        <ele>180</ele>
        <time>2015-04-25T08:58:13.000Z</time>
      </trkpt>
      <trkpt lat="48.70692" lon="1.70395">
        <ele>180</ele>
        <time>2015-04-25T08:58:14.000Z</time>
      </trkpt>
      <trkpt lat="48.70695" lon="1.70383">
        <ele>180</ele>
        <time>2015-04-25T08:58:19.000Z</time>
      </trkpt>
      <trkpt lat="48.70699" lon="1.70369">
        <ele>179.5</ele>
        <time>2015-04-25T08:58:26.000Z</time>
      </trkpt>
      <trkpt lat="48.70702" lon="1.70352">
        <ele>179.4</ele>
        <time>2015-04-25T08:58:34.000Z</time>
      </trkpt>
      <trkpt lat="48.70705" lon="1.70346">
        <ele>179.3</ele>
        <time>2015-04-25T08:58:38.000Z</time>
      </trkpt>
      <trkpt lat="48.70708" lon="1.70334">
        <ele>179.5</ele>
        <time>2015-04-25T08:58:44.000Z</time>
      </trkpt>
      <trkpt lat="48.70714" lon="1.70317">
        <ele>179.7</ele>
        <time>2015-04-25T08:58:52.000Z</time>
      </trkpt>
      <trkpt lat="48.70716" lon="1.70304">
        <ele>180</ele>
        <time>2015-04-25T08:58:58.000Z</time>
      </trkpt>
      <trkpt lat="48.70718" lon="1.70295">
        <ele>180</ele>
        <time>2015-04-25T08:59:02.000Z</time>
      </trkpt>
      <trkpt lat="48.70722" lon="1.70275">
        <ele>180</ele>
        <time>2015-04-25T08:59:11.000Z</time>
      </trkpt>
      <trkpt lat="48.70723" lon="1.70262">
        <ele>180</ele>
        <time>2015-04-25T08:59:17.000Z</time>
      </trkpt>
      <trkpt lat="48.70724" lon="1.70261">
        <ele>180</ele>
        <time>2015-04-25T08:59:18.000Z</time>
      </trkpt>
      <trkpt lat="48.70727" lon="1.70243">
        <ele>180</ele>
        <time>2015-04-25T08:59:26.000Z</time>
      </trkpt>
      <trkpt lat="48.70729" lon="1.70235">
        <ele>180</ele>
        <time>2015-04-25T08:59:30.000Z</time>
      </trkpt>
      <trkpt lat="48.70733" lon="1.70212">
        <ele>180</ele>
        <time>2015-04-25T08:59:41.000Z</time>
      </trkpt>
      <trkpt lat="48.70733" lon="1.70207">
        <ele>180</ele>
        <time>2015-04-25T08:59:44.000Z</time>
      </trkpt>
      <trkpt lat="48.70734" lon="1.70195">
        <ele>180</ele>
        <time>2015-04-25T08:59:50.000Z</time>
      </trkpt>
      <trkpt lat="48.70734" lon="1.70193">
        <ele>180</ele>
        <time>2015-04-25T08:59:51.000Z</time>
      </trkpt>
      <trkpt lat="48.70736" lon="1.70183">
        <ele>180</ele>
        <time>2015-04-25T08:59:56.000Z</time>
      </trkpt>
      <trkpt lat="48.70735" lon="1.70167">
        <ele>180</ele>
        <time>2015-04-25T09:00:03.000Z</time>
      </trkpt>
      <trkpt lat="48.70734" lon="1.70156">
        <ele>180</ele>
        <time>2015-04-25T09:00:08.000Z</time>
      </trkpt>
      <trkpt lat="48.70734" lon="1.70147">
        <ele>180</ele>
        <time>2015-04-25T09:00:12.000Z</time>
      </trkpt>
      <trkpt lat="48.70734" lon="1.70132">
        <ele>180</ele>
        <time>2015-04-25T09:00:19.000Z</time>
      </trkpt>
      <trkpt lat="48.70735" lon="1.70116">
        <ele>180</ele>
        <time>2015-04-25T09:00:27.000Z</time>
      </trkpt>
      <trkpt lat="48.70739" lon="1.70099">
        <ele>180</ele>
        <time>2015-04-25T09:00:35.000Z</time>
      </trkpt>
      <trkpt lat="48.70742" lon="1.70088">
        <ele>180</ele>
        <time>2015-04-25T09:00:40.000Z</time>
      </trkpt>
      <trkpt lat="48.70742" lon="1.70078">
        <ele>179.9</ele>
        <time>2015-04-25T09:00:45.000Z</time>
      </trkpt>
      <trkpt lat="48.70744" lon="1.7006">
        <ele>179.3</ele>
        <time>2015-04-25T09:00:54.000Z</time>
      </trkpt>
      <trkpt lat="48.70745" lon="1.70043">
        <ele>179.1</ele>
        <time>2015-04-25T09:01:02.000Z</time>
      </trkpt>
      <trkpt lat="48.70744" lon="1.70027">
        <ele>179</ele>
        <time>2015-04-25T09:01:10.000Z</time>
      </trkpt>
      <trkpt lat="48.70742" lon="1.70012">
        <ele>179</ele>
        <time>2015-04-25T09:01:18.000Z</time>
      </trkpt>
      <trkpt lat="48.70741" lon="1.7001">
        <ele>179</ele>
        <time>2015-04-25T09:01:21.000Z</time>
      </trkpt>
      <trkpt lat="48.70741" lon="1.70004">
        <ele>179</ele>
        <time>2015-04-25T09:01:26.000Z</time>
      </trkpt>
      <trkpt lat="48.70741" lon="1.69988">
        <ele>178.7</ele>
        <time>2015-04-25T09:01:35.000Z</time>
      </trkpt>
      <trkpt lat="48.7074" lon="1.69977">
        <ele>178.5</ele>
        <time>2015-04-25T09:01:40.000Z</time>
      </trkpt>
      <trkpt lat="48.70738" lon="1.69967">
        <ele>178.2</ele>
        <time>2015-04-25T09:01:45.000Z</time>
      </trkpt>
      <trkpt lat="48.70736" lon="1.69949">
        <ele>177.6</ele>
        <time>2015-04-25T09:01:54.000Z</time>
      </trkpt>
      <trkpt lat="48.70739" lon="1.69936">
        <ele>177.4</ele>
        <time>2015-04-25T09:02:00.000Z</time>
      </trkpt>
      <trkpt lat="48.7074" lon="1.69928">
        <ele>177.4</ele>
        <time>2015-04-25T09:02:04.000Z</time>
      </trkpt>
      <trkpt lat="48.7074" lon="1.6992">
        <ele>177.6</ele>
        <time>2015-04-25T09:02:08.000Z</time>
      </trkpt>
      <trkpt lat="48.70743" lon="1.69907">
        <ele>177.2</ele>
        <time>2015-04-25T09:02:14.000Z</time>
      </trkpt>
      <trkpt lat="48.70745" lon="1.69889">
        <ele>176.4</ele>
        <time>2015-04-25T09:02:22.000Z</time>
      </trkpt>
      <trkpt lat="48.70748" lon="1.69873">
        <ele>176.7</ele>
        <time>2015-04-25T09:02:30.000Z</time>
      </trkpt>
      <trkpt lat="48.70752" lon="1.69861">
        <ele>176.9</ele>
        <time>2015-04-25T09:02:36.000Z</time>
      </trkpt>
      <trkpt lat="48.70754" lon="1.69856">
        <ele>177</ele>
        <time>2015-04-25T09:02:39.000Z</time>
      </trkpt>
      <trkpt lat="48.70756" lon="1.69846">
        <ele>177.2</ele>
        <time>2015-04-25T09:02:45.000Z</time>
      </trkpt>
      <trkpt lat="48.70758" lon="1.69843">
        <ele>177.2</ele>
        <time>2015-04-25T09:02:47.000Z</time>
      </trkpt>
      <trkpt lat="48.7076" lon="1.69832">
        <ele>177.3</ele>
        <time>2015-04-25T09:02:53.000Z</time>
      </trkpt>
      <trkpt lat="48.70763" lon="1.69816">
        <ele>177.1</ele>
        <time>2015-04-25T09:03:01.000Z</time>
      </trkpt>
      <trkpt lat="48.70764" lon="1.69802">
        <ele>177</ele>
        <time>2015-04-25T09:03:07.000Z</time>
      </trkpt>
      <trkpt lat="48.70765" lon="1.698">
        <ele>177</ele>
        <time>2015-04-25T09:03:08.000Z</time>
      </trkpt>
      <trkpt lat="48.70768" lon="1.69793">
        <ele>177</ele>
        <time>2015-04-25T09:03:12.000Z</time>
      </trkpt>
      <trkpt lat="48.70771" lon="1.69779">
        <ele>177.2</ele>
        <time>2015-04-25T09:03:19.000Z</time>
      </trkpt>
      <trkpt lat="48.70771" lon="1.69778">
        <ele>177.2</ele>
        <time>2015-04-25T09:03:20.000Z</time>
      </trkpt>
      <trkpt lat="48.70771" lon="1.69773">
        <ele>177.3</ele>
        <time>2015-04-25T09:03:24.000Z</time>
      </trkpt>
      <trkpt lat="48.70771" lon="1.6977">
        <ele>177.3</ele>
        <time>2015-04-25T09:03:28.000Z</time>
      </trkpt>
      <trkpt lat="48.70777" lon="1.69774">
        <ele>177</ele>
        <time>2015-04-25T09:03:40.000Z</time>
      </trkpt>
      <trkpt lat="48.70778" lon="1.69775">
        <ele>177</ele>
        <time>2015-04-25T09:03:41.000Z</time>
      </trkpt>
      <trkpt lat="48.7078" lon="1.69777">
        <ele>176.8</ele>
        <time>2015-04-25T09:03:44.000Z</time>
      </trkpt>
      <trkpt lat="48.70788" lon="1.69778">
        <ele>176.3</ele>
        <time>2015-04-25T09:03:53.000Z</time>
      </trkpt>
      <trkpt lat="48.70795" lon="1.69777">
        <ele>175.7</ele>
        <time>2015-04-25T09:03:58.000Z</time>
      </trkpt>
      <trkpt lat="48.70801" lon="1.69783">
        <ele>175.1</ele>
        <time>2015-04-25T09:04:04.000Z</time>
      </trkpt>
      <trkpt lat="48.70811" lon="1.6979">
        <ele>174.1</ele>
        <time>2015-04-25T09:04:12.000Z</time>
      </trkpt>
      <trkpt lat="48.70818" lon="1.69792">
        <ele>173.3</ele>
        <time>2015-04-25T09:04:19.000Z</time>
      </trkpt>
      <trkpt lat="48.70818" lon="1.69793">
        <ele>173.3</ele>
        <time>2015-04-25T09:04:20.000Z</time>
      </trkpt>
      <trkpt lat="48.7084" lon="1.69792">
        <ele>171.5</ele>
        <time>2015-04-25T09:05:23.000Z</time>
      </trkpt>
      <trkpt lat="48.70842" lon="1.6979">
        <ele>171.4</ele>
        <time>2015-04-25T09:05:26.000Z</time>
      </trkpt>
      <trkpt lat="48.70843" lon="1.69789">
        <ele>171.4</ele>
        <time>2015-04-25T09:05:29.000Z</time>
      </trkpt>
      <trkpt lat="48.70825" lon="1.69787">
        <ele>172.8</ele>
        <time>2015-04-25T09:10:04.000Z</time>
      </trkpt>
      <trkpt lat="48.70814" lon="1.69787">
        <ele>173.9</ele>
        <time>2015-04-25T09:10:13.000Z</time>
      </trkpt>
      <trkpt lat="48.70805" lon="1.69785">
        <ele>174.8</ele>
        <time>2015-04-25T09:10:20.000Z</time>
      </trkpt>
      <trkpt lat="48.70799" lon="1.69782">
        <ele>175.3</ele>
        <time>2015-04-25T09:10:25.000Z</time>
      </trkpt>
      <trkpt lat="48.70792" lon="1.69779">
        <ele>176</ele>
        <time>2015-04-25T09:10:31.000Z</time>
      </trkpt>
      <trkpt lat="48.70789" lon="1.69779">
        <ele>176.1</ele>
        <time>2015-04-25T09:10:33.000Z</time>
      </trkpt>
      <trkpt lat="48.70782" lon="1.6978">
        <ele>176.6</ele>
        <time>2015-04-25T09:10:39.000Z</time>
      </trkpt>
      <trkpt lat="48.70772" lon="1.69773">
        <ele>177.2</ele>
        <time>2015-04-25T09:10:47.000Z</time>
      </trkpt>
      <trkpt lat="48.7077" lon="1.69769">
        <ele>177.4</ele>
        <time>2015-04-25T09:10:53.000Z</time>
      </trkpt>
      <trkpt lat="48.70771" lon="1.69763">
        <ele>177.4</ele>
        <time>2015-04-25T09:10:57.000Z</time>
      </trkpt>
      <trkpt lat="48.70773" lon="1.69748">
        <ele>177.4</ele>
        <time>2015-04-25T09:11:04.000Z</time>
      </trkpt>
      <trkpt lat="48.70773" lon="1.69746">
        <ele>177.5</ele>
        <time>2015-04-25T09:11:05.000Z</time>
      </trkpt>
      <trkpt lat="48.70773" lon="1.6973">
        <ele>177.9</ele>
        <time>2015-04-25T09:11:12.000Z</time>
      </trkpt>
      <trkpt lat="48.70774" lon="1.69712">
        <ele>177.5</ele>
        <time>2015-04-25T09:11:20.000Z</time>
      </trkpt>
      <trkpt lat="48.70774" lon="1.69695">
        <ele>176.5</ele>
        <time>2015-04-25T09:11:27.000Z</time>
      </trkpt>
      <trkpt lat="48.70776" lon="1.69676">
        <ele>177.4</ele>
        <time>2015-04-25T09:11:35.000Z</time>
      </trkpt>
      <trkpt lat="48.70776" lon="1.69668">
        <ele>178</ele>
        <time>2015-04-25T09:11:39.000Z</time>
      </trkpt>
      <trkpt lat="48.70782" lon="1.69656">
        <ele>178.1</ele>
        <time>2015-04-25T09:11:45.000Z</time>
      </trkpt>
      <trkpt lat="48.70784" lon="1.69643">
        <ele>178.6</ele>
        <time>2015-04-25T09:11:51.000Z</time>
      </trkpt>
      <trkpt lat="48.70787" lon="1.6963">
        <ele>178.8</ele>
        <time>2015-04-25T09:11:57.000Z</time>
      </trkpt>
      <trkpt lat="48.70791" lon="1.69614">
        <ele>179</ele>
        <time>2015-04-25T09:12:04.000Z</time>
      </trkpt>
      <trkpt lat="48.70793" lon="1.696">
        <ele>179</ele>
        <time>2015-04-25T09:12:10.000Z</time>
      </trkpt>
      <trkpt lat="48.70794" lon="1.69585">
        <ele>179</ele>
        <time>2015-04-25T09:12:17.000Z</time>
      </trkpt>
      <trkpt lat="48.70796" lon="1.69571">
        <ele>179</ele>
        <time>2015-04-25T09:12:24.000Z</time>
      </trkpt>
      <trkpt lat="48.70795" lon="1.6955">
        <ele>179</ele>
        <time>2015-04-25T09:12:33.000Z</time>
      </trkpt>
      <trkpt lat="48.70794" lon="1.69534">
        <ele>179</ele>
        <time>2015-04-25T09:12:40.000Z</time>
      </trkpt>
      <trkpt lat="48.70791" lon="1.69508">
        <ele>179</ele>
        <time>2015-04-25T09:12:51.000Z</time>
      </trkpt>
      <trkpt lat="48.7079" lon="1.69488">
        <ele>179</ele>
        <time>2015-04-25T09:13:00.000Z</time>
      </trkpt>
      <trkpt lat="48.70788" lon="1.69468">
        <ele>179</ele>
        <time>2015-04-25T09:13:08.000Z</time>
      </trkpt>
      <trkpt lat="48.70788" lon="1.69464">
        <ele>179</ele>
        <time>2015-04-25T09:13:10.000Z</time>
      </trkpt>
      <trkpt lat="48.70786" lon="1.69452">
        <ele>179</ele>
        <time>2015-04-25T09:13:16.000Z</time>
      </trkpt>
      <trkpt lat="48.70785" lon="1.69434">
        <ele>179</ele>
        <time>2015-04-25T09:13:24.000Z</time>
      </trkpt>
      <trkpt lat="48.70785" lon="1.69423">
        <ele>179</ele>
        <time>2015-04-25T09:13:30.000Z</time>
      </trkpt>
      <trkpt lat="48.70785" lon="1.69423">
        <ele>179</ele>
        <time>2015-04-25T09:13:33.000Z</time>
      </trkpt>
      <trkpt lat="48.70783" lon="1.69415">
        <ele>179</ele>
        <time>2015-04-25T09:14:53.000Z</time>
      </trkpt>
      <trkpt lat="48.70784" lon="1.69396">
        <ele>179</ele>
        <time>2015-04-25T09:15:01.000Z</time>
      </trkpt>
      <trkpt lat="48.70784" lon="1.69383">
        <ele>179</ele>
        <time>2015-04-25T09:15:07.000Z</time>
      </trkpt>
      <trkpt lat="48.70784" lon="1.69372">
        <ele>179</ele>
        <time>2015-04-25T09:15:13.000Z</time>
      </trkpt>
      <trkpt lat="48.70785" lon="1.69356">
        <ele>179</ele>
        <time>2015-04-25T09:15:21.000Z</time>
      </trkpt>
      <trkpt lat="48.70785" lon="1.69343">
        <ele>179</ele>
        <time>2015-04-25T09:15:27.000Z</time>
      </trkpt>
      <trkpt lat="48.70785" lon="1.6933">
        <ele>179</ele>
        <time>2015-04-25T09:15:33.000Z</time>
      </trkpt>
      <trkpt lat="48.70784" lon="1.69325">
        <ele>179</ele>
        <time>2015-04-25T09:15:35.000Z</time>
      </trkpt>
      <trkpt lat="48.70784" lon="1.69301">
        <ele>179</ele>
        <time>2015-04-25T09:15:46.000Z</time>
      </trkpt>
      <trkpt lat="48.70785" lon="1.69283">
        <ele>179</ele>
        <time>2015-04-25T09:15:54.000Z</time>
      </trkpt>
      <trkpt lat="48.70785" lon="1.69262">
        <ele>179</ele>
        <time>2015-04-25T09:16:04.000Z</time>
      </trkpt>
      <trkpt lat="48.70785" lon="1.69261">
        <ele>179</ele>
        <time>2015-04-25T09:16:07.000Z</time>
      </trkpt>
      <trkpt lat="48.70785" lon="1.69245">
        <ele>179</ele>
        <time>2015-04-25T09:17:07.000Z</time>
      </trkpt>
      <trkpt lat="48.70786" lon="1.69228">
        <ele>179</ele>
        <time>2015-04-25T09:17:14.000Z</time>
      </trkpt>
      <trkpt lat="48.70786" lon="1.69208">
        <ele>179</ele>
        <time>2015-04-25T09:17:23.000Z</time>
      </trkpt>
      <trkpt lat="48.70787" lon="1.69193">
        <ele>179</ele>
        <time>2015-04-25T09:17:30.000Z</time>
      </trkpt>
      <trkpt lat="48.70787" lon="1.69182">
        <ele>179</ele>
        <time>2015-04-25T09:17:35.000Z</time>
      </trkpt>
      <trkpt lat="48.70788" lon="1.69167">
        <ele>179</ele>
        <time>2015-04-25T09:17:42.000Z</time>
      </trkpt>
      <trkpt lat="48.70789" lon="1.69156">
        <ele>179</ele>
        <time>2015-04-25T09:17:47.000Z</time>
      </trkpt>
      <trkpt lat="48.70789" lon="1.69144">
        <ele>179</ele>
        <time>2015-04-25T09:17:53.000Z</time>
      </trkpt>
      <trkpt lat="48.70789" lon="1.69134">
        <ele>179</ele>
        <time>2015-04-25T09:17:58.000Z</time>
      </trkpt>
      <trkpt lat="48.70788" lon="1.6913">
        <ele>179</ele>
        <time>2015-04-25T09:18:00.000Z</time>
      </trkpt>
      <trkpt lat="48.7079" lon="1.69113">
        <ele>179</ele>
        <time>2015-04-25T09:18:09.000Z</time>
      </trkpt>
      <trkpt lat="48.7079" lon="1.69111">
        <ele>179</ele>
        <time>2015-04-25T09:18:10.000Z</time>
      </trkpt>
      <trkpt lat="48.7079" lon="1.69098">
        <ele>179</ele>
        <time>2015-04-25T09:18:16.000Z</time>
      </trkpt>
      <trkpt lat="48.7079" lon="1.69089">
        <ele>179</ele>
        <time>2015-04-25T09:18:20.000Z</time>
      </trkpt>
      <trkpt lat="48.7079" lon="1.69065">
        <ele>179</ele>
        <time>2015-04-25T09:18:30.000Z</time>
      </trkpt>
      <trkpt lat="48.70789" lon="1.69053">
        <ele>178.9</ele>
        <time>2015-04-25T09:18:36.000Z</time>
      </trkpt>
      <trkpt lat="48.70789" lon="1.69043">
        <ele>178.7</ele>
        <time>2015-04-25T09:18:41.000Z</time>
      </trkpt>
      <trkpt lat="48.7079" lon="1.6903">
        <ele>178.5</ele>
        <time>2015-04-25T09:18:47.000Z</time>
      </trkpt>
      <trkpt lat="48.7079" lon="1.69025">
        <ele>178.4</ele>
        <time>2015-04-25T09:18:49.000Z</time>
      </trkpt>
      <trkpt lat="48.70793" lon="1.69008">
        <ele>178.2</ele>
        <time>2015-04-25T09:18:56.000Z</time>
      </trkpt>
      <trkpt lat="48.70794" lon="1.68991">
        <ele>178</ele>
        <time>2015-04-25T09:19:03.000Z</time>
      </trkpt>
      <trkpt lat="48.70795" lon="1.68984">
        <ele>178</ele>
        <time>2015-04-25T09:19:06.000Z</time>
      </trkpt>
      <trkpt lat="48.70798" lon="1.68971">
        <ele>178</ele>
        <time>2015-04-25T09:19:12.000Z</time>
      </trkpt>
      <trkpt lat="48.70799" lon="1.68966">
        <ele>178</ele>
        <time>2015-04-25T09:19:14.000Z</time>
      </trkpt>
      <trkpt lat="48.708" lon="1.68949">
        <ele>177.8</ele>
        <time>2015-04-25T09:19:21.000Z</time>
      </trkpt>
      <trkpt lat="48.70801" lon="1.68932">
        <ele>177.8</ele>
        <time>2015-04-25T09:19:28.000Z</time>
      </trkpt>
      <trkpt lat="48.70801" lon="1.68914">
        <ele>177.8</ele>
        <time>2015-04-25T09:19:36.000Z</time>
      </trkpt>
      <trkpt lat="48.70799" lon="1.689">
        <ele>177.8</ele>
        <time>2015-04-25T09:19:43.000Z</time>
      </trkpt>
      <trkpt lat="48.70797" lon="1.68882">
        <ele>177.7</ele>
        <time>2015-04-25T09:19:50.000Z</time>
      </trkpt>
      <trkpt lat="48.70797" lon="1.6888">
        <ele>177.7</ele>
        <time>2015-04-25T09:19:51.000Z</time>
      </trkpt>
      <trkpt lat="48.70797" lon="1.68871">
        <ele>177.7</ele>
        <time>2015-04-25T09:19:55.000Z</time>
      </trkpt>
      <trkpt lat="48.70797" lon="1.68857">
        <ele>177.6</ele>
        <time>2015-04-25T09:20:01.000Z</time>
      </trkpt>
      <trkpt lat="48.70796" lon="1.68839">
        <ele>177.1</ele>
        <time>2015-04-25T09:20:08.000Z</time>
      </trkpt>
      <trkpt lat="48.70798" lon="1.68825">
        <ele>176.9</ele>
        <time>2015-04-25T09:20:15.000Z</time>
      </trkpt>
      <trkpt lat="48.70799" lon="1.68809">
        <ele>176.8</ele>
        <time>2015-04-25T09:20:22.000Z</time>
      </trkpt>
      <trkpt lat="48.70798" lon="1.68793">
        <ele>176.9</ele>
        <time>2015-04-25T09:20:29.000Z</time>
      </trkpt>
      <trkpt lat="48.70799" lon="1.68781">
        <ele>177</ele>
        <time>2015-04-25T09:20:35.000Z</time>
      </trkpt>
      <trkpt lat="48.70798" lon="1.68779">
        <ele>177</ele>
        <time>2015-04-25T09:20:39.000Z</time>
      </trkpt>
      <trkpt lat="48.70799" lon="1.68773">
        <ele>177</ele>
        <time>2015-04-25T09:20:43.000Z</time>
      </trkpt>
      <trkpt lat="48.70798" lon="1.68763">
        <ele>177</ele>
        <time>2015-04-25T09:20:46.000Z</time>
      </trkpt>
      <trkpt lat="48.70798" lon="1.68751">
        <ele>177</ele>
        <time>2015-04-25T09:20:52.000Z</time>
      </trkpt>
      <trkpt lat="48.70799" lon="1.68749">
        <ele>177</ele>
        <time>2015-04-25T09:20:53.000Z</time>
      </trkpt>
      <trkpt lat="48.70799" lon="1.68746">
        <ele>177</ele>
        <time>2015-04-25T09:20:58.000Z</time>
      </trkpt>
      <trkpt lat="48.70798" lon="1.68732">
        <ele>177</ele>
        <time>2015-04-25T09:21:29.000Z</time>
      </trkpt>
      <trkpt lat="48.70798" lon="1.68724">
        <ele>177</ele>
        <time>2015-04-25T09:21:32.000Z</time>
      </trkpt>
      <trkpt lat="48.70799" lon="1.68705">
        <ele>177</ele>
        <time>2015-04-25T09:21:40.000Z</time>
      </trkpt>
      <trkpt lat="48.708" lon="1.68685">
        <ele>177</ele>
        <time>2015-04-25T09:21:49.000Z</time>
      </trkpt>
      <trkpt lat="48.70802" lon="1.68671">
        <ele>177</ele>
        <time>2015-04-25T09:21:56.000Z</time>
      </trkpt>
      <trkpt lat="48.70802" lon="1.68655">
        <ele>177.1</ele>
        <time>2015-04-25T09:22:04.000Z</time>
      </trkpt>
      <trkpt lat="48.70801" lon="1.68642">
        <ele>177.2</ele>
        <time>2015-04-25T09:22:10.000Z</time>
      </trkpt>
      <trkpt lat="48.70801" lon="1.68633">
        <ele>177.3</ele>
        <time>2015-04-25T09:22:14.000Z</time>
      </trkpt>
      <trkpt lat="48.70799" lon="1.6862">
        <ele>177.7</ele>
        <time>2015-04-25T09:22:21.000Z</time>
      </trkpt>
      <trkpt lat="48.70797" lon="1.68612">
        <ele>178</ele>
        <time>2015-04-25T09:22:25.000Z</time>
      </trkpt>
      <trkpt lat="48.70795" lon="1.68596">
        <ele>178</ele>
        <time>2015-04-25T09:22:32.000Z</time>
      </trkpt>
      <trkpt lat="48.70793" lon="1.68581">
        <ele>178</ele>
        <time>2015-04-25T09:22:39.000Z</time>
      </trkpt>
      <trkpt lat="48.7079" lon="1.68565">
        <ele>178</ele>
        <time>2015-04-25T09:22:46.000Z</time>
      </trkpt>
      <trkpt lat="48.70787" lon="1.68546">
        <ele>178</ele>
        <time>2015-04-25T09:22:55.000Z</time>
      </trkpt>
      <trkpt lat="48.70785" lon="1.68536">
        <ele>178</ele>
        <time>2015-04-25T09:23:00.000Z</time>
      </trkpt>
      <trkpt lat="48.70785" lon="1.68531">
        <ele>178</ele>
        <time>2015-04-25T09:23:03.000Z</time>
      </trkpt>
      <trkpt lat="48.7078" lon="1.68518">
        <ele>178</ele>
        <time>2015-04-25T09:23:10.000Z</time>
      </trkpt>
      <trkpt lat="48.70777" lon="1.68509">
        <ele>178</ele>
        <time>2015-04-25T09:23:16.000Z</time>
      </trkpt>
      <trkpt lat="48.70777" lon="1.68505">
        <ele>178</ele>
        <time>2015-04-25T09:23:19.000Z</time>
      </trkpt>
      <trkpt lat="48.70772" lon="1.68489">
        <ele>178.2</ele>
        <time>2015-04-25T09:23:27.000Z</time>
      </trkpt>
      <trkpt lat="48.70769" lon="1.68478">
        <ele>178.3</ele>
        <time>2015-04-25T09:23:33.000Z</time>
      </trkpt>
      <trkpt lat="48.70764" lon="1.68464">
        <ele>178.2</ele>
        <time>2015-04-25T09:23:40.000Z</time>
      </trkpt>
      <trkpt lat="48.7076" lon="1.68452">
        <ele>177.9</ele>
        <time>2015-04-25T09:23:47.000Z</time>
      </trkpt>
      <trkpt lat="48.70754" lon="1.68442">
        <ele>177.8</ele>
        <time>2015-04-25T09:23:53.000Z</time>
      </trkpt>
      <trkpt lat="48.70751" lon="1.6843">
        <ele>178</ele>
        <time>2015-04-25T09:23:59.000Z</time>
      </trkpt>
      <trkpt lat="48.7075" lon="1.68415">
        <ele>178</ele>
        <time>2015-04-25T09:24:06.000Z</time>
      </trkpt>
      <trkpt lat="48.70748" lon="1.68403">
        <ele>178.1</ele>
        <time>2015-04-25T09:24:12.000Z</time>
      </trkpt>
      <trkpt lat="48.70747" lon="1.6839">
        <ele>178.1</ele>
        <time>2015-04-25T09:24:18.000Z</time>
      </trkpt>
      <trkpt lat="48.70744" lon="1.68374">
        <ele>178.6</ele>
        <time>2015-04-25T09:24:26.000Z</time>
      </trkpt>
      <trkpt lat="48.70739" lon="1.68353">
        <ele>179</ele>
        <time>2015-04-25T09:24:36.000Z</time>
      </trkpt>
      <trkpt lat="48.70735" lon="1.6834">
        <ele>179</ele>
        <time>2015-04-25T09:24:43.000Z</time>
      </trkpt>
      <trkpt lat="48.70734" lon="1.68334">
        <ele>179</ele>
        <time>2015-04-25T09:24:46.000Z</time>
      </trkpt>
      <trkpt lat="48.70732" lon="1.68326">
        <ele>179</ele>
        <time>2015-04-25T09:24:50.000Z</time>
      </trkpt>
      <trkpt lat="48.70729" lon="1.68315">
        <ele>179</ele>
        <time>2015-04-25T09:24:56.000Z</time>
      </trkpt>
      <trkpt lat="48.70727" lon="1.68304">
        <ele>179</ele>
        <time>2015-04-25T09:25:01.000Z</time>
      </trkpt>
      <trkpt lat="48.70725" lon="1.68291">
        <ele>179</ele>
        <time>2015-04-25T09:25:07.000Z</time>
      </trkpt>
      <trkpt lat="48.70721" lon="1.68281">
        <ele>179</ele>
        <time>2015-04-25T09:25:13.000Z</time>
      </trkpt>
      <trkpt lat="48.70719" lon="1.68267">
        <ele>179.1</ele>
        <time>2015-04-25T09:25:21.000Z</time>
      </trkpt>
      <trkpt lat="48.70717" lon="1.68257">
        <ele>179.2</ele>
        <time>2015-04-25T09:25:27.000Z</time>
      </trkpt>
      <trkpt lat="48.70713" lon="1.68247">
        <ele>179.4</ele>
        <time>2015-04-25T09:25:32.000Z</time>
      </trkpt>
      <trkpt lat="48.70712" lon="1.68244">
        <ele>179.5</ele>
        <time>2015-04-25T09:25:34.000Z</time>
      </trkpt>
      <trkpt lat="48.70712" lon="1.6824">
        <ele>179.6</ele>
        <time>2015-04-25T09:25:38.000Z</time>
      </trkpt>
      <trkpt lat="48.70709" lon="1.68214">
        <ele>180</ele>
        <time>2015-04-25T09:26:06.000Z</time>
      </trkpt>
      <trkpt lat="48.70708" lon="1.68205">
        <ele>180</ele>
        <time>2015-04-25T09:26:11.000Z</time>
      </trkpt>
      <trkpt lat="48.70704" lon="1.68191">
        <ele>180</ele>
        <time>2015-04-25T09:26:18.000Z</time>
      </trkpt>
      <trkpt lat="48.70702" lon="1.68185">
        <ele>180</ele>
        <time>2015-04-25T09:26:21.000Z</time>
      </trkpt>
      <trkpt lat="48.70699" lon="1.68174">
        <ele>180</ele>
        <time>2015-04-25T09:26:26.000Z</time>
      </trkpt>
      <trkpt lat="48.70697" lon="1.68163">
        <ele>180</ele>
        <time>2015-04-25T09:26:31.000Z</time>
      </trkpt>
      <trkpt lat="48.70694" lon="1.6815">
        <ele>180</ele>
        <time>2015-04-25T09:26:36.000Z</time>
      </trkpt>
      <trkpt lat="48.70693" lon="1.68142">
        <ele>180.1</ele>
        <time>2015-04-25T09:26:40.000Z</time>
      </trkpt>
      <trkpt lat="48.70692" lon="1.68132">
        <ele>180.3</ele>
        <time>2015-04-25T09:26:45.000Z</time>
      </trkpt>
      <trkpt lat="48.70691" lon="1.68127">
        <ele>180.5</ele>
        <time>2015-04-25T09:26:47.000Z</time>
      </trkpt>
      <trkpt lat="48.70687" lon="1.68113">
        <ele>181</ele>
        <time>2015-04-25T09:26:55.000Z</time>
      </trkpt>
      <trkpt lat="48.70687" lon="1.68105">
        <ele>181</ele>
        <time>2015-04-25T09:27:02.000Z</time>
      </trkpt>
      <trkpt lat="48.70686" lon="1.6809">
        <ele>181</ele>
        <time>2015-04-25T09:27:08.000Z</time>
      </trkpt>
      <trkpt lat="48.70685" lon="1.68073">
        <ele>181</ele>
        <time>2015-04-25T09:27:15.000Z</time>
      </trkpt>
      <trkpt lat="48.70684" lon="1.68064">
        <ele>181</ele>
        <time>2015-04-25T09:27:20.000Z</time>
      </trkpt>
      <trkpt lat="48.70683" lon="1.68062">
        <ele>181</ele>
        <time>2015-04-25T09:27:21.000Z</time>
      </trkpt>
      <trkpt lat="48.70679" lon="1.68039">
        <ele>181</ele>
        <time>2015-04-25T09:27:30.000Z</time>
      </trkpt>
      <trkpt lat="48.70676" lon="1.68022">
        <ele>181</ele>
        <time>2015-04-25T09:27:37.000Z</time>
      </trkpt>
      <trkpt lat="48.70676" lon="1.68014">
        <ele>181</ele>
        <time>2015-04-25T09:27:41.000Z</time>
      </trkpt>
      <trkpt lat="48.70676" lon="1.68003">
        <ele>181</ele>
        <time>2015-04-25T09:27:47.000Z</time>
      </trkpt>
      <trkpt lat="48.70677" lon="1.67999">
        <ele>181</ele>
        <time>2015-04-25T09:27:50.000Z</time>
      </trkpt>
      <trkpt lat="48.70676" lon="1.67985">
        <ele>181</ele>
        <time>2015-04-25T09:27:57.000Z</time>
      </trkpt>
      <trkpt lat="48.70675" lon="1.67975">
        <ele>181</ele>
        <time>2015-04-25T09:28:02.000Z</time>
      </trkpt>
      <trkpt lat="48.70675" lon="1.67973">
        <ele>181</ele>
        <time>2015-04-25T09:28:03.000Z</time>
      </trkpt>
      <trkpt lat="48.70674" lon="1.67958">
        <ele>181</ele>
        <time>2015-04-25T09:28:10.000Z</time>
      </trkpt>
      <trkpt lat="48.70673" lon="1.67948">
        <ele>181</ele>
        <time>2015-04-25T09:28:14.000Z</time>
      </trkpt>
      <trkpt lat="48.70671" lon="1.67936">
        <ele>181</ele>
        <time>2015-04-25T09:28:20.000Z</time>
      </trkpt>
      <trkpt lat="48.7067" lon="1.67921">
        <ele>181</ele>
        <time>2015-04-25T09:28:27.000Z</time>
      </trkpt>
      <trkpt lat="48.70671" lon="1.67918">
        <ele>181</ele>
        <time>2015-04-25T09:28:29.000Z</time>
      </trkpt>
      <trkpt lat="48.70671" lon="1.679">
        <ele>181</ele>
        <time>2015-04-25T09:28:37.000Z</time>
      </trkpt>
      <trkpt lat="48.7067" lon="1.67898">
        <ele>181</ele>
        <time>2015-04-25T09:28:38.000Z</time>
      </trkpt>
      <trkpt lat="48.70669" lon="1.67886">
        <ele>181</ele>
        <time>2015-04-25T09:28:44.000Z</time>
      </trkpt>
      <trkpt lat="48.70667" lon="1.67871">
        <ele>181</ele>
        <time>2015-04-25T09:28:50.000Z</time>
      </trkpt>
      <trkpt lat="48.70666" lon="1.6786">
        <ele>181</ele>
        <time>2015-04-25T09:28:54.000Z</time>
      </trkpt>
      <trkpt lat="48.70665" lon="1.67845">
        <ele>181</ele>
        <time>2015-04-25T09:29:01.000Z</time>
      </trkpt>
      <trkpt lat="48.70665" lon="1.67833">
        <ele>181</ele>
        <time>2015-04-25T09:29:07.000Z</time>
      </trkpt>
      <trkpt lat="48.70666" lon="1.67815">
        <ele>181</ele>
        <time>2015-04-25T09:29:16.000Z</time>
      </trkpt>
      <trkpt lat="48.70662" lon="1.67798">
        <ele>181</ele>
        <time>2015-04-25T09:29:22.000Z</time>
      </trkpt>
      <trkpt lat="48.70662" lon="1.67789">
        <ele>181</ele>
        <time>2015-04-25T09:29:25.000Z</time>
      </trkpt>
      <trkpt lat="48.70661" lon="1.6778">
        <ele>181</ele>
        <time>2015-04-25T09:29:29.000Z</time>
      </trkpt>
      <trkpt lat="48.7066" lon="1.6776">
        <ele>181</ele>
        <time>2015-04-25T09:29:37.000Z</time>
      </trkpt>
      <trkpt lat="48.70659" lon="1.67747">
        <ele>181</ele>
        <time>2015-04-25T09:29:42.000Z</time>
      </trkpt>
      <trkpt lat="48.7066" lon="1.6774">
        <ele>181</ele>
        <time>2015-04-25T09:29:46.000Z</time>
      </trkpt>
      <trkpt lat="48.7066" lon="1.67725">
        <ele>181</ele>
        <time>2015-04-25T09:29:52.000Z</time>
      </trkpt>
      <trkpt lat="48.70659" lon="1.6771">
        <ele>181</ele>
        <time>2015-04-25T09:29:58.000Z</time>
      </trkpt>
      <trkpt lat="48.70659" lon="1.67706">
        <ele>181</ele>
        <time>2015-04-25T09:30:00.000Z</time>
      </trkpt>
      <trkpt lat="48.70659" lon="1.67692">
        <ele>181</ele>
        <time>2015-04-25T09:30:08.000Z</time>
      </trkpt>
      <trkpt lat="48.70661" lon="1.67681">
        <ele>181</ele>
        <time>2015-04-25T09:30:14.000Z</time>
      </trkpt>
      <trkpt lat="48.70662" lon="1.67671">
        <ele>181</ele>
        <time>2015-04-25T09:30:19.000Z</time>
      </trkpt>
      <trkpt lat="48.70662" lon="1.67664">
        <ele>181</ele>
        <time>2015-04-25T09:30:23.000Z</time>
      </trkpt>
      <trkpt lat="48.70662" lon="1.67656">
        <ele>181</ele>
        <time>2015-04-25T09:30:27.000Z</time>
      </trkpt>
      <trkpt lat="48.70662" lon="1.67651">
        <ele>181</ele>
        <time>2015-04-25T09:30:30.000Z</time>
      </trkpt>
      <trkpt lat="48.70661" lon="1.67636">
        <ele>181</ele>
        <time>2015-04-25T09:30:36.000Z</time>
      </trkpt>
      <trkpt lat="48.7066" lon="1.6762">
        <ele>181</ele>
        <time>2015-04-25T09:30:42.000Z</time>
      </trkpt>
      <trkpt lat="48.7066" lon="1.67613">
        <ele>181</ele>
        <time>2015-04-25T09:30:48.000Z</time>
      </trkpt>
      <trkpt lat="48.70659" lon="1.67605">
        <ele>180.8</ele>
        <time>2015-04-25T09:30:53.000Z</time>
      </trkpt>
      <trkpt lat="48.7066" lon="1.67593">
        <ele>180.5</ele>
        <time>2015-04-25T09:30:58.000Z</time>
      </trkpt>
      <trkpt lat="48.70658" lon="1.67575">
        <ele>180.3</ele>
        <time>2015-04-25T09:31:05.000Z</time>
      </trkpt>
      <trkpt lat="48.70658" lon="1.67573">
        <ele>180.3</ele>
        <time>2015-04-25T09:31:06.000Z</time>
      </trkpt>
      <trkpt lat="48.70658" lon="1.67556">
        <ele>180.3</ele>
        <time>2015-04-25T09:31:13.000Z</time>
      </trkpt>
      <trkpt lat="48.7066" lon="1.67545">
        <ele>180.2</ele>
        <time>2015-04-25T09:31:19.000Z</time>
      </trkpt>
      <trkpt lat="48.70659" lon="1.67542">
        <ele>180.1</ele>
        <time>2015-04-25T09:31:21.000Z</time>
      </trkpt>
      <trkpt lat="48.70659" lon="1.67529">
        <ele>180</ele>
        <time>2015-04-25T09:31:26.000Z</time>
      </trkpt>
      <trkpt lat="48.7066" lon="1.67516">
        <ele>180</ele>
        <time>2015-04-25T09:31:31.000Z</time>
      </trkpt>
      <trkpt lat="48.70661" lon="1.67507">
        <ele>180</ele>
        <time>2015-04-25T09:31:35.000Z</time>
      </trkpt>
      <trkpt lat="48.7066" lon="1.67496">
        <ele>180</ele>
        <time>2015-04-25T09:31:40.000Z</time>
      </trkpt>
      <trkpt lat="48.70659" lon="1.67477">
        <ele>180</ele>
        <time>2015-04-25T09:31:47.000Z</time>
      </trkpt>
      <trkpt lat="48.70658" lon="1.6746">
        <ele>180</ele>
        <time>2015-04-25T09:31:53.000Z</time>
      </trkpt>
      <trkpt lat="48.70657" lon="1.6745">
        <ele>180</ele>
        <time>2015-04-25T09:31:57.000Z</time>
      </trkpt>
      <trkpt lat="48.70657" lon="1.67441">
        <ele>180</ele>
        <time>2015-04-25T09:32:02.000Z</time>
      </trkpt>
      <trkpt lat="48.70657" lon="1.67438">
        <ele>180</ele>
        <time>2015-04-25T09:32:07.000Z</time>
      </trkpt>
      <trkpt lat="48.70651" lon="1.67426">
        <ele>180</ele>
        <time>2015-04-25T09:32:41.000Z</time>
      </trkpt>
      <trkpt lat="48.70652" lon="1.67427">
        <ele>180</ele>
        <time>2015-04-25T09:32:42.000Z</time>
      </trkpt>
      <trkpt lat="48.70654" lon="1.67429">
        <ele>180</ele>
        <time>2015-04-25T09:32:45.000Z</time>
      </trkpt>
      <trkpt lat="48.70657" lon="1.67435">
        <ele>180</ele>
        <time>2015-04-25T09:37:25.000Z</time>
      </trkpt>
      <trkpt lat="48.70656" lon="1.67429">
        <ele>180</ele>
        <time>2015-04-25T09:37:28.000Z</time>
      </trkpt>
      <trkpt lat="48.70658" lon="1.67423">
        <ele>180</ele>
        <time>2015-04-25T09:37:35.000Z</time>
      </trkpt>
      <trkpt lat="48.70658" lon="1.67423">
        <ele>180</ele>
        <time>2015-04-25T09:37:37.000Z</time>
      </trkpt>
      <trkpt lat="48.70655" lon="1.67406">
        <ele>180</ele>
        <time>2015-04-25T09:38:08.000Z</time>
      </trkpt>
      <trkpt lat="48.70655" lon="1.67401">
        <ele>180</ele>
        <time>2015-04-25T09:38:10.000Z</time>
      </trkpt>
      <trkpt lat="48.70653" lon="1.67386">
        <ele>180</ele>
        <time>2015-04-25T09:38:18.000Z</time>
      </trkpt>
      <trkpt lat="48.7065" lon="1.67374">
        <ele>180</ele>
        <time>2015-04-25T09:38:25.000Z</time>
      </trkpt>
      <trkpt lat="48.70649" lon="1.67369">
        <ele>180</ele>
        <time>2015-04-25T09:38:27.000Z</time>
      </trkpt>
      <trkpt lat="48.70645" lon="1.67353">
        <ele>180</ele>
        <time>2015-04-25T09:38:35.000Z</time>
      </trkpt>
      <trkpt lat="48.70644" lon="1.67351">
        <ele>180</ele>
        <time>2015-04-25T09:38:36.000Z</time>
      </trkpt>
      <trkpt lat="48.70642" lon="1.67337">
        <ele>180</ele>
        <time>2015-04-25T09:38:43.000Z</time>
      </trkpt>
      <trkpt lat="48.70641" lon="1.67324">
        <ele>180.3</ele>
        <time>2015-04-25T09:38:50.000Z</time>
      </trkpt>
      <trkpt lat="48.70638" lon="1.67311">
        <ele>180.8</ele>
        <time>2015-04-25T09:38:56.000Z</time>
      </trkpt>
      <trkpt lat="48.70638" lon="1.67309">
        <ele>180.9</ele>
        <time>2015-04-25T09:38:57.000Z</time>
      </trkpt>
      <trkpt lat="48.70637" lon="1.67297">
        <ele>181</ele>
        <time>2015-04-25T09:39:02.000Z</time>
      </trkpt>
      <trkpt lat="48.70635" lon="1.67285">
        <ele>181</ele>
        <time>2015-04-25T09:39:07.000Z</time>
      </trkpt>
      <trkpt lat="48.70633" lon="1.67269">
        <ele>181</ele>
        <time>2015-04-25T09:39:14.000Z</time>
      </trkpt>
      <trkpt lat="48.70632" lon="1.67266">
        <ele>181</ele>
        <time>2015-04-25T09:39:16.000Z</time>
      </trkpt>
      <trkpt lat="48.70631" lon="1.67253">
        <ele>181</ele>
        <time>2015-04-25T09:39:22.000Z</time>
      </trkpt>
      <trkpt lat="48.7063" lon="1.67246">
        <ele>180.9</ele>
        <time>2015-04-25T09:39:26.000Z</time>
      </trkpt>
      <trkpt lat="48.70627" lon="1.6723">
        <ele>180.6</ele>
        <time>2015-04-25T09:39:32.000Z</time>
      </trkpt>
      <trkpt lat="48.70628" lon="1.67224">
        <ele>180.4</ele>
        <time>2015-04-25T09:39:35.000Z</time>
      </trkpt>
      <trkpt lat="48.70625" lon="1.67209">
        <ele>180.5</ele>
        <time>2015-04-25T09:39:41.000Z</time>
      </trkpt>
      <trkpt lat="48.70623" lon="1.67205">
        <ele>180.6</ele>
        <time>2015-04-25T09:39:43.000Z</time>
      </trkpt>
      <trkpt lat="48.70621" lon="1.672">
        <ele>180.6</ele>
        <time>2015-04-25T09:39:45.000Z</time>
      </trkpt>
      <trkpt lat="48.70622" lon="1.67186">
        <ele>180.4</ele>
        <time>2015-04-25T09:39:51.000Z</time>
      </trkpt>
      <trkpt lat="48.7062" lon="1.67172">
        <ele>180.1</ele>
        <time>2015-04-25T09:39:58.000Z</time>
      </trkpt>
      <trkpt lat="48.70616" lon="1.67163">
        <ele>180</ele>
        <time>2015-04-25T09:40:03.000Z</time>
      </trkpt>
      <trkpt lat="48.70617" lon="1.6715">
        <ele>180</ele>
        <time>2015-04-25T09:40:09.000Z</time>
      </trkpt>
      <trkpt lat="48.70617" lon="1.67144">
        <ele>180</ele>
        <time>2015-04-25T09:40:11.000Z</time>
      </trkpt>
      <trkpt lat="48.70618" lon="1.67131">
        <ele>180</ele>
        <time>2015-04-25T09:40:17.000Z</time>
      </trkpt>
      <trkpt lat="48.7062" lon="1.67118">
        <ele>180</ele>
        <time>2015-04-25T09:40:22.000Z</time>
      </trkpt>
      <trkpt lat="48.70619" lon="1.67103">
        <ele>180.2</ele>
        <time>2015-04-25T09:40:28.000Z</time>
      </trkpt>
      <trkpt lat="48.70619" lon="1.67091">
        <ele>180.5</ele>
        <time>2015-04-25T09:40:34.000Z</time>
      </trkpt>
      <trkpt lat="48.7062" lon="1.67077">
        <ele>180.6</ele>
        <time>2015-04-25T09:40:40.000Z</time>
      </trkpt>
      <trkpt lat="48.70621" lon="1.67061">
        <ele>180.4</ele>
        <time>2015-04-25T09:40:46.000Z</time>
      </trkpt>
      <trkpt lat="48.70621" lon="1.67059">
        <ele>180.4</ele>
        <time>2015-04-25T09:40:47.000Z</time>
      </trkpt>
      <trkpt lat="48.70621" lon="1.6705">
        <ele>180.3</ele>
        <time>2015-04-25T09:40:51.000Z</time>
      </trkpt>
      <trkpt lat="48.70621" lon="1.67039">
        <ele>180.1</ele>
        <time>2015-04-25T09:40:56.000Z</time>
      </trkpt>
      <trkpt lat="48.70624" lon="1.67026">
        <ele>180</ele>
        <time>2015-04-25T09:41:03.000Z</time>
      </trkpt>
      <trkpt lat="48.70623" lon="1.67009">
        <ele>180</ele>
        <time>2015-04-25T09:41:11.000Z</time>
      </trkpt>
      <trkpt lat="48.70623" lon="1.66992">
        <ele>180</ele>
        <time>2015-04-25T09:41:18.000Z</time>
      </trkpt>
      <trkpt lat="48.70625" lon="1.66979">
        <ele>180</ele>
        <time>2015-04-25T09:41:24.000Z</time>
      </trkpt>
      <trkpt lat="48.70628" lon="1.66966">
        <ele>180</ele>
        <time>2015-04-25T09:41:30.000Z</time>
      </trkpt>
      <trkpt lat="48.70629" lon="1.66961">
        <ele>180</ele>
        <time>2015-04-25T09:41:32.000Z</time>
      </trkpt>
      <trkpt lat="48.70625" lon="1.66946">
        <ele>180</ele>
        <time>2015-04-25T09:41:39.000Z</time>
      </trkpt>
      <trkpt lat="48.70617" lon="1.66941">
        <ele>180</ele>
        <time>2015-04-25T09:41:45.000Z</time>
      </trkpt>
      <trkpt lat="48.70609" lon="1.66934">
        <ele>180</ele>
        <time>2015-04-25T09:41:51.000Z</time>
      </trkpt>
      <trkpt lat="48.70607" lon="1.66929">
        <ele>180</ele>
        <time>2015-04-25T09:41:54.000Z</time>
      </trkpt>
      <trkpt lat="48.706" lon="1.66919">
        <ele>180</ele>
        <time>2015-04-25T09:42:02.000Z</time>
      </trkpt>
      <trkpt lat="48.70598" lon="1.66916">
        <ele>180</ele>
        <time>2015-04-25T09:42:04.000Z</time>
      </trkpt>
      <trkpt lat="48.70598" lon="1.66909">
        <ele>180</ele>
        <time>2015-04-25T09:42:08.000Z</time>
      </trkpt>
      <trkpt lat="48.70597" lon="1.66905">
        <ele>180</ele>
        <time>2015-04-25T09:42:13.000Z</time>
      </trkpt>
      <trkpt lat="48.70589" lon="1.66877">
        <ele>180</ele>
        <time>2015-04-25T09:44:09.000Z</time>
      </trkpt>
      <trkpt lat="48.70586" lon="1.66865">
        <ele>180</ele>
        <time>2015-04-25T09:44:14.000Z</time>
      </trkpt>
      <trkpt lat="48.70587" lon="1.66853">
        <ele>180</ele>
        <time>2015-04-25T09:44:19.000Z</time>
      </trkpt>
      <trkpt lat="48.70586" lon="1.6684">
        <ele>180</ele>
        <time>2015-04-25T09:44:26.000Z</time>
      </trkpt>
      <trkpt lat="48.70585" lon="1.6683">
        <ele>180</ele>
        <time>2015-04-25T09:44:31.000Z</time>
      </trkpt>
      <trkpt lat="48.70582" lon="1.6682">
        <ele>180</ele>
        <time>2015-04-25T09:44:37.000Z</time>
      </trkpt>
      <trkpt lat="48.70587" lon="1.66809">
        <ele>180</ele>
        <time>2015-04-25T09:44:43.000Z</time>
      </trkpt>
      <trkpt lat="48.70592" lon="1.66801">
        <ele>180</ele>
        <time>2015-04-25T09:44:48.000Z</time>
      </trkpt>
      <trkpt lat="48.70601" lon="1.66795">
        <ele>180</ele>
        <time>2015-04-25T09:44:55.000Z</time>
      </trkpt>
      <trkpt lat="48.70605" lon="1.66794">
        <ele>180</ele>
        <time>2015-04-25T09:44:58.000Z</time>
      </trkpt>
      <trkpt lat="48.70608" lon="1.6679">
        <ele>180</ele>
        <time>2015-04-25T09:45:02.000Z</time>
      </trkpt>
      <trkpt lat="48.7061" lon="1.66786">
        <ele>180</ele>
        <time>2015-04-25T09:45:05.000Z</time>
      </trkpt>
      <trkpt lat="48.70609" lon="1.66776">
        <ele>180</ele>
        <time>2015-04-25T09:45:10.000Z</time>
      </trkpt>
      <trkpt lat="48.7061" lon="1.66775">
        <ele>180</ele>
        <time>2015-04-25T09:45:11.000Z</time>
      </trkpt>
      <trkpt lat="48.70609" lon="1.66761">
        <ele>180</ele>
        <time>2015-04-25T09:45:17.000Z</time>
      </trkpt>
      <trkpt lat="48.70612" lon="1.66747">
        <ele>180</ele>
        <time>2015-04-25T09:45:23.000Z</time>
      </trkpt>
      <trkpt lat="48.70612" lon="1.66744">
        <ele>180</ele>
        <time>2015-04-25T09:45:24.000Z</time>
      </trkpt>
      <trkpt lat="48.70616" lon="1.66726">
        <ele>180</ele>
        <time>2015-04-25T09:45:32.000Z</time>
      </trkpt>
      <trkpt lat="48.70618" lon="1.6672">
        <ele>180</ele>
        <time>2015-04-25T09:45:35.000Z</time>
      </trkpt>
      <trkpt lat="48.70616" lon="1.66708">
        <ele>180</ele>
        <time>2015-04-25T09:45:40.000Z</time>
      </trkpt>
      <trkpt lat="48.70615" lon="1.66702">
        <ele>180</ele>
        <time>2015-04-25T09:45:43.000Z</time>
      </trkpt>
      <trkpt lat="48.70619" lon="1.66694">
        <ele>180</ele>
        <time>2015-04-25T09:45:48.000Z</time>
      </trkpt>
      <trkpt lat="48.70621" lon="1.66688">
        <ele>180</ele>
        <time>2015-04-25T09:45:52.000Z</time>
      </trkpt>
      <trkpt lat="48.70621" lon="1.66677">
        <ele>180</ele>
        <time>2015-04-25T09:45:57.000Z</time>
      </trkpt>
      <trkpt lat="48.70621" lon="1.66665">
        <ele>180</ele>
        <time>2015-04-25T09:46:02.000Z</time>
      </trkpt>
      <trkpt lat="48.7062" lon="1.66661">
        <ele>180</ele>
        <time>2015-04-25T09:46:04.000Z</time>
      </trkpt>
      <trkpt lat="48.7062" lon="1.66657">
        <ele>180</ele>
        <time>2015-04-25T09:46:06.000Z</time>
      </trkpt>
      <trkpt lat="48.70622" lon="1.66644">
        <ele>180</ele>
        <time>2015-04-25T09:46:12.000Z</time>
      </trkpt>
      <trkpt lat="48.70622" lon="1.66631">
        <ele>180</ele>
        <time>2015-04-25T09:46:15.000Z</time>
      </trkpt>
      <trkpt lat="48.70623" lon="1.66622">
        <ele>180</ele>
        <time>2015-04-25T09:46:18.000Z</time>
      </trkpt>
      <trkpt lat="48.70624" lon="1.66616">
        <ele>180</ele>
        <time>2015-04-25T09:46:21.000Z</time>
      </trkpt>
      <trkpt lat="48.70626" lon="1.66605">
        <ele>180</ele>
        <time>2015-04-25T09:46:27.000Z</time>
      </trkpt>
      <trkpt lat="48.70625" lon="1.66596">
        <ele>180</ele>
        <time>2015-04-25T09:46:31.000Z</time>
      </trkpt>
      <trkpt lat="48.70624" lon="1.66585">
        <ele>180</ele>
        <time>2015-04-25T09:46:36.000Z</time>
      </trkpt>
      <trkpt lat="48.70624" lon="1.66576">
        <ele>179.9</ele>
        <time>2015-04-25T09:46:39.000Z</time>
      </trkpt>
      <trkpt lat="48.70626" lon="1.6656">
        <ele>179.6</ele>
        <time>2015-04-25T09:46:46.000Z</time>
      </trkpt>
      <trkpt lat="48.70627" lon="1.66558">
        <ele>179.6</ele>
        <time>2015-04-25T09:46:47.000Z</time>
      </trkpt>
      <trkpt lat="48.70628" lon="1.66554">
        <ele>179.6</ele>
        <time>2015-04-25T09:46:49.000Z</time>
      </trkpt>
      <trkpt lat="48.70633" lon="1.66546">
        <ele>179.5</ele>
        <time>2015-04-25T09:46:55.000Z</time>
      </trkpt>
      <trkpt lat="48.70635" lon="1.66533">
        <ele>179.2</ele>
        <time>2015-04-25T09:47:01.000Z</time>
      </trkpt>
      <trkpt lat="48.70635" lon="1.6653">
        <ele>179.1</ele>
        <time>2015-04-25T09:47:02.000Z</time>
      </trkpt>
      <trkpt lat="48.70636" lon="1.66521">
        <ele>179</ele>
        <time>2015-04-25T09:47:06.000Z</time>
      </trkpt>
      <trkpt lat="48.70637" lon="1.66504">
        <ele>179</ele>
        <time>2015-04-25T09:47:13.000Z</time>
      </trkpt>
      <trkpt lat="48.70641" lon="1.66491">
        <ele>178.7</ele>
        <time>2015-04-25T09:47:19.000Z</time>
      </trkpt>
      <trkpt lat="48.7064" lon="1.66484">
        <ele>178.4</ele>
        <time>2015-04-25T09:47:23.000Z</time>
      </trkpt>
      <trkpt lat="48.7064" lon="1.66465">
        <ele>178</ele>
        <time>2015-04-25T09:47:30.000Z</time>
      </trkpt>
      <trkpt lat="48.70641" lon="1.66448">
        <ele>177.9</ele>
        <time>2015-04-25T09:47:36.000Z</time>
      </trkpt>
      <trkpt lat="48.70642" lon="1.66441">
        <ele>177.8</ele>
        <time>2015-04-25T09:47:39.000Z</time>
      </trkpt>
      <trkpt lat="48.70644" lon="1.66434">
        <ele>177.5</ele>
        <time>2015-04-25T09:47:46.000Z</time>
      </trkpt>
      <trkpt lat="48.70648" lon="1.66431">
        <ele>177.2</ele>
        <time>2015-04-25T09:47:55.000Z</time>
      </trkpt>
      <trkpt lat="48.70652" lon="1.66406">
        <ele>176.8</ele>
        <time>2015-04-25T09:48:17.000Z</time>
      </trkpt>
      <trkpt lat="48.70653" lon="1.66404">
        <ele>176.7</ele>
        <time>2015-04-25T09:48:18.000Z</time>
      </trkpt>
      <trkpt lat="48.70654" lon="1.66392">
        <ele>176.8</ele>
        <time>2015-04-25T09:48:23.000Z</time>
      </trkpt>
      <trkpt lat="48.70651" lon="1.66385">
        <ele>177.2</ele>
        <time>2015-04-25T09:48:28.000Z</time>
      </trkpt>
      <trkpt lat="48.7065" lon="1.66378">
        <ele>177.3</ele>
        <time>2015-04-25T09:48:31.000Z</time>
      </trkpt>
      <trkpt lat="48.70651" lon="1.66374">
        <ele>177.4</ele>
        <time>2015-04-25T09:48:34.000Z</time>
      </trkpt>
      <trkpt lat="48.70651" lon="1.66359">
        <ele>177.6</ele>
        <time>2015-04-25T09:48:42.000Z</time>
      </trkpt>
      <trkpt lat="48.70649" lon="1.66347">
        <ele>177.8</ele>
        <time>2015-04-25T09:48:48.000Z</time>
      </trkpt>
      <trkpt lat="48.70645" lon="1.66333">
        <ele>178</ele>
        <time>2015-04-25T09:48:54.000Z</time>
      </trkpt>
      <trkpt lat="48.70644" lon="1.6633">
        <ele>178</ele>
        <time>2015-04-25T09:48:55.000Z</time>
      </trkpt>
      <trkpt lat="48.70646" lon="1.66317">
        <ele>178</ele>
        <time>2015-04-25T09:49:02.000Z</time>
      </trkpt>
      <trkpt lat="48.70645" lon="1.66309">
        <ele>178</ele>
        <time>2015-04-25T09:49:06.000Z</time>
      </trkpt>
      <trkpt lat="48.70645" lon="1.663">
        <ele>178</ele>
        <time>2015-04-25T09:49:11.000Z</time>
      </trkpt>
      <trkpt lat="48.70645" lon="1.66285">
        <ele>178</ele>
        <time>2015-04-25T09:49:18.000Z</time>
      </trkpt>
      <trkpt lat="48.70645" lon="1.66281">
        <ele>178</ele>
        <time>2015-04-25T09:49:20.000Z</time>
      </trkpt>
      <trkpt lat="48.70641" lon="1.66271">
        <ele>178</ele>
        <time>2015-04-25T09:49:25.000Z</time>
      </trkpt>
      <trkpt lat="48.7064" lon="1.66267">
        <ele>178</ele>
        <time>2015-04-25T09:49:27.000Z</time>
      </trkpt>
      <trkpt lat="48.70635" lon="1.66251">
        <ele>178</ele>
        <time>2015-04-25T09:49:34.000Z</time>
      </trkpt>
      <trkpt lat="48.70632" lon="1.66235">
        <ele>178</ele>
        <time>2015-04-25T09:49:42.000Z</time>
      </trkpt>
      <trkpt lat="48.70631" lon="1.6623">
        <ele>178</ele>
        <time>2015-04-25T09:49:45.000Z</time>
      </trkpt>
      <trkpt lat="48.70629" lon="1.6622">
        <ele>178</ele>
        <time>2015-04-25T09:49:50.000Z</time>
      </trkpt>
      <trkpt lat="48.70627" lon="1.66213">
        <ele>178</ele>
        <time>2015-04-25T09:49:53.000Z</time>
      </trkpt>
      <trkpt lat="48.70627" lon="1.66209">
        <ele>178</ele>
        <time>2015-04-25T09:49:55.000Z</time>
      </trkpt>
      <trkpt lat="48.70626" lon="1.66197">
        <ele>178</ele>
        <time>2015-04-25T09:49:59.000Z</time>
      </trkpt>
      <trkpt lat="48.70624" lon="1.66181">
        <ele>178.2</ele>
        <time>2015-04-25T09:50:07.000Z</time>
      </trkpt>
      <trkpt lat="48.70624" lon="1.66171">
        <ele>178.4</ele>
        <time>2015-04-25T09:50:12.000Z</time>
      </trkpt>
      <trkpt lat="48.70625" lon="1.66167">
        <ele>178.5</ele>
        <time>2015-04-25T09:50:15.000Z</time>
      </trkpt>
      <trkpt lat="48.70624" lon="1.66151">
        <ele>178.8</ele>
        <time>2015-04-25T09:50:21.000Z</time>
      </trkpt>
      <trkpt lat="48.70622" lon="1.66139">
        <ele>179</ele>
        <time>2015-04-25T09:50:25.000Z</time>
      </trkpt>
      <trkpt lat="48.70622" lon="1.66133">
        <ele>179</ele>
        <time>2015-04-25T09:50:30.000Z</time>
      </trkpt>
      <trkpt lat="48.70624" lon="1.66123">
        <ele>179</ele>
        <time>2015-04-25T09:50:48.000Z</time>
      </trkpt>
      <trkpt lat="48.70624" lon="1.66113">
        <ele>179</ele>
        <time>2015-04-25T09:50:52.000Z</time>
      </trkpt>
      <trkpt lat="48.70625" lon="1.66104">
        <ele>179</ele>
        <time>2015-04-25T09:50:56.000Z</time>
      </trkpt>
      <trkpt lat="48.70625" lon="1.66085">
        <ele>179</ele>
        <time>2015-04-25T09:51:04.000Z</time>
      </trkpt>
      <trkpt lat="48.70625" lon="1.66082">
        <ele>179</ele>
        <time>2015-04-25T09:51:05.000Z</time>
      </trkpt>
      <trkpt lat="48.70624" lon="1.66077">
        <ele>178.9</ele>
        <time>2015-04-25T09:51:07.000Z</time>
      </trkpt>
      <trkpt lat="48.70623" lon="1.66065">
        <ele>178.6</ele>
        <time>2015-04-25T09:51:12.000Z</time>
      </trkpt>
      <trkpt lat="48.7062" lon="1.66047">
        <ele>178.2</ele>
        <time>2015-04-25T09:51:19.000Z</time>
      </trkpt>
      <trkpt lat="48.70618" lon="1.66033">
        <ele>178.1</ele>
        <time>2015-04-25T09:51:25.000Z</time>
      </trkpt>
      <trkpt lat="48.70619" lon="1.66019">
        <ele>177.8</ele>
        <time>2015-04-25T09:51:31.000Z</time>
      </trkpt>
      <trkpt lat="48.70621" lon="1.66005">
        <ele>177.5</ele>
        <time>2015-04-25T09:51:37.000Z</time>
      </trkpt>
      <trkpt lat="48.70625" lon="1.65993">
        <ele>177.5</ele>
        <time>2015-04-25T09:51:43.000Z</time>
      </trkpt>
      <trkpt lat="48.70637" lon="1.6598">
        <ele>177.9</ele>
        <time>2015-04-25T09:51:52.000Z</time>
      </trkpt>
      <trkpt lat="48.70639" lon="1.65977">
        <ele>178</ele>
        <time>2015-04-25T09:51:54.000Z</time>
      </trkpt>
      <trkpt lat="48.70645" lon="1.65972">
        <ele>178</ele>
        <time>2015-04-25T09:51:59.000Z</time>
      </trkpt>
      <trkpt lat="48.70646" lon="1.6597">
        <ele>178</ele>
        <time>2015-04-25T09:52:00.000Z</time>
      </trkpt>
      <trkpt lat="48.7065" lon="1.65963">
        <ele>177.8</ele>
        <time>2015-04-25T09:52:04.000Z</time>
      </trkpt>
      <trkpt lat="48.70664" lon="1.65949">
        <ele>177.9</ele>
        <time>2015-04-25T09:52:12.000Z</time>
      </trkpt>
      <trkpt lat="48.70673" lon="1.65945">
        <ele>178</ele>
        <time>2015-04-25T09:52:19.000Z</time>
      </trkpt>
      <trkpt lat="48.7068" lon="1.65937">
        <ele>178</ele>
        <time>2015-04-25T09:52:25.000Z</time>
      </trkpt>
      <trkpt lat="48.70694" lon="1.65919">
        <ele>178</ele>
        <time>2015-04-25T09:52:35.000Z</time>
      </trkpt>
      <trkpt lat="48.70706" lon="1.65908">
        <ele>178.4</ele>
        <time>2015-04-25T09:52:43.000Z</time>
      </trkpt>
      <trkpt lat="48.70713" lon="1.65901">
        <ele>178.7</ele>
        <time>2015-04-25T09:52:49.000Z</time>
      </trkpt>
      <trkpt lat="48.7072" lon="1.65892">
        <ele>178.9</ele>
        <time>2015-04-25T09:52:55.000Z</time>
      </trkpt>
      <trkpt lat="48.70732" lon="1.65878">
        <ele>179</ele>
        <time>2015-04-25T09:53:05.000Z</time>
      </trkpt>
      <trkpt lat="48.70744" lon="1.65866">
        <ele>179</ele>
        <time>2015-04-25T09:53:14.000Z</time>
      </trkpt>
      <trkpt lat="48.70755" lon="1.65854">
        <ele>179.2</ele>
        <time>2015-04-25T09:53:23.000Z</time>
      </trkpt>
      <trkpt lat="48.70765" lon="1.65843">
        <ele>179.5</ele>
        <time>2015-04-25T09:53:31.000Z</time>
      </trkpt>
      <trkpt lat="48.70777" lon="1.65831">
        <ele>179.9</ele>
        <time>2015-04-25T09:53:41.000Z</time>
      </trkpt>
      <trkpt lat="48.70788" lon="1.65822">
        <ele>179.8</ele>
        <time>2015-04-25T09:53:49.000Z</time>
      </trkpt>
      <trkpt lat="48.70799" lon="1.65814">
        <ele>179.8</ele>
        <time>2015-04-25T09:53:57.000Z</time>
      </trkpt>
      <trkpt lat="48.70808" lon="1.65807">
        <ele>180</ele>
        <time>2015-04-25T09:54:05.000Z</time>
      </trkpt>
      <trkpt lat="48.70816" lon="1.65801">
        <ele>180</ele>
        <time>2015-04-25T09:54:11.000Z</time>
      </trkpt>
      <trkpt lat="48.7082" lon="1.65787">
        <ele>180</ele>
        <time>2015-04-25T09:54:18.000Z</time>
      </trkpt>
      <trkpt lat="48.70821" lon="1.65786">
        <ele>180</ele>
        <time>2015-04-25T09:54:19.000Z</time>
      </trkpt>
      <trkpt lat="48.70821" lon="1.65784">
        <ele>180</ele>
        <time>2015-04-25T09:54:22.000Z</time>
      </trkpt>
      <trkpt lat="48.70821" lon="1.65779">
        <ele>180</ele>
        <time>2015-04-25T10:02:14.000Z</time>
      </trkpt>
      <trkpt lat="48.70824" lon="1.65769">
        <ele>180</ele>
        <time>2015-04-25T10:02:18.000Z</time>
      </trkpt>
      <trkpt lat="48.70829" lon="1.65754">
        <ele>180</ele>
        <time>2015-04-25T10:02:26.000Z</time>
      </trkpt>
      <trkpt lat="48.70829" lon="1.65752">
        <ele>180</ele>
        <time>2015-04-25T10:02:29.000Z</time>
      </trkpt>
      <trkpt lat="48.70832" lon="1.65735">
        <ele>180</ele>
        <time>2015-04-25T10:02:58.000Z</time>
      </trkpt>
      <trkpt lat="48.70837" lon="1.65723">
        <ele>180</ele>
        <time>2015-04-25T10:03:03.000Z</time>
      </trkpt>
      <trkpt lat="48.70839" lon="1.65718">
        <ele>180</ele>
        <time>2015-04-25T10:03:06.000Z</time>
      </trkpt>
      <trkpt lat="48.70844" lon="1.65707">
        <ele>180</ele>
        <time>2015-04-25T10:03:13.000Z</time>
      </trkpt>
      <trkpt lat="48.70845" lon="1.65705">
        <ele>180</ele>
        <time>2015-04-25T10:03:14.000Z</time>
      </trkpt>
      <trkpt lat="48.70848" lon="1.65695">
        <ele>180</ele>
        <time>2015-04-25T10:03:20.000Z</time>
      </trkpt>
      <trkpt lat="48.70851" lon="1.65684">
        <ele>180</ele>
        <time>2015-04-25T10:03:25.000Z</time>
      </trkpt>
      <trkpt lat="48.70852" lon="1.65678">
        <ele>180</ele>
        <time>2015-04-25T10:03:28.000Z</time>
      </trkpt>
      <trkpt lat="48.70857" lon="1.65662">
        <ele>180.1</ele>
        <time>2015-04-25T10:03:36.000Z</time>
      </trkpt>
      <trkpt lat="48.70862" lon="1.65647">
        <ele>180.7</ele>
        <time>2015-04-25T10:03:44.000Z</time>
      </trkpt>
      <trkpt lat="48.70868" lon="1.65632">
        <ele>180.6</ele>
        <time>2015-04-25T10:03:52.000Z</time>
      </trkpt>
      <trkpt lat="48.70872" lon="1.65618">
        <ele>180.4</ele>
        <time>2015-04-25T10:03:59.000Z</time>
      </trkpt>
      <trkpt lat="48.70876" lon="1.65606">
        <ele>180.6</ele>
        <time>2015-04-25T10:04:06.000Z</time>
      </trkpt>
      <trkpt lat="48.70882" lon="1.65589">
        <ele>181</ele>
        <time>2015-04-25T10:04:15.000Z</time>
      </trkpt>
      <trkpt lat="48.70886" lon="1.6557">
        <ele>181</ele>
        <time>2015-04-25T10:04:24.000Z</time>
      </trkpt>
      <trkpt lat="48.70889" lon="1.65558">
        <ele>181</ele>
        <time>2015-04-25T10:04:29.000Z</time>
      </trkpt>
      <trkpt lat="48.70892" lon="1.65545">
        <ele>181</ele>
        <time>2015-04-25T10:04:35.000Z</time>
      </trkpt>
      <trkpt lat="48.70896" lon="1.6553">
        <ele>181</ele>
        <time>2015-04-25T10:04:43.000Z</time>
      </trkpt>
      <trkpt lat="48.70901" lon="1.65512">
        <ele>181</ele>
        <time>2015-04-25T10:04:52.000Z</time>
      </trkpt>
      <trkpt lat="48.70904" lon="1.65501">
        <ele>181</ele>
        <time>2015-04-25T10:04:58.000Z</time>
      </trkpt>
      <trkpt lat="48.70909" lon="1.65484">
        <ele>181.4</ele>
        <time>2015-04-25T10:05:06.000Z</time>
      </trkpt>
      <trkpt lat="48.70913" lon="1.65466">
        <ele>181.9</ele>
        <time>2015-04-25T10:05:14.000Z</time>
      </trkpt>
      <trkpt lat="48.70919" lon="1.6545">
        <ele>182</ele>
        <time>2015-04-25T10:05:22.000Z</time>
      </trkpt>
      <trkpt lat="48.70921" lon="1.65442">
        <ele>182</ele>
        <time>2015-04-25T10:05:26.000Z</time>
      </trkpt>
      <trkpt lat="48.70925" lon="1.65428">
        <ele>182</ele>
        <time>2015-04-25T10:05:33.000Z</time>
      </trkpt>
      <trkpt lat="48.70932" lon="1.65408">
        <ele>182</ele>
        <time>2015-04-25T10:05:43.000Z</time>
      </trkpt>
      <trkpt lat="48.70938" lon="1.65389">
        <ele>182</ele>
        <time>2015-04-25T10:05:52.000Z</time>
      </trkpt>
      <trkpt lat="48.70942" lon="1.65379">
        <ele>182</ele>
        <time>2015-04-25T10:05:58.000Z</time>
      </trkpt>
      <trkpt lat="48.70945" lon="1.65366">
        <ele>182</ele>
        <time>2015-04-25T10:06:04.000Z</time>
      </trkpt>
      <trkpt lat="48.70947" lon="1.65363">
        <ele>182</ele>
        <time>2015-04-25T10:06:06.000Z</time>
      </trkpt>
      <trkpt lat="48.70951" lon="1.65363">
        <ele>182</ele>
        <time>2015-04-25T10:06:09.000Z</time>
      </trkpt>
      <trkpt lat="48.70952" lon="1.65363">
        <ele>182</ele>
        <time>2015-04-25T10:06:12.000Z</time>
      </trkpt>
      <trkpt lat="48.70972" lon="1.65332">
        <ele>182</ele>
        <time>2015-04-25T10:11:27.000Z</time>
      </trkpt>
      <trkpt lat="48.70973" lon="1.65321">
        <ele>182</ele>
        <time>2015-04-25T10:11:32.000Z</time>
      </trkpt>
      <trkpt lat="48.70974" lon="1.6532">
        <ele>182</ele>
        <time>2015-04-25T10:11:33.000Z</time>
      </trkpt>
      <trkpt lat="48.7098" lon="1.65309">
        <ele>182</ele>
        <time>2015-04-25T10:11:41.000Z</time>
      </trkpt>
      <trkpt lat="48.7098" lon="1.65307">
        <ele>182</ele>
        <time>2015-04-25T10:11:42.000Z</time>
      </trkpt>
      <trkpt lat="48.70979" lon="1.65295">
        <ele>182</ele>
        <time>2015-04-25T10:11:48.000Z</time>
      </trkpt>
      <trkpt lat="48.70978" lon="1.65284">
        <ele>182</ele>
        <time>2015-04-25T10:11:54.000Z</time>
      </trkpt>
      <trkpt lat="48.70978" lon="1.65279">
        <ele>182</ele>
        <time>2015-04-25T10:11:56.000Z</time>
      </trkpt>
      <trkpt lat="48.70982" lon="1.65268">
        <ele>182</ele>
        <time>2015-04-25T10:12:03.000Z</time>
      </trkpt>
      <trkpt lat="48.70983" lon="1.65258">
        <ele>182</ele>
        <time>2015-04-25T10:12:08.000Z</time>
      </trkpt>
      <trkpt lat="48.7099" lon="1.65248">
        <ele>182</ele>
        <time>2015-04-25T10:12:16.000Z</time>
      </trkpt>
      <trkpt lat="48.70992" lon="1.65246">
        <ele>182</ele>
        <time>2015-04-25T10:12:18.000Z</time>
      </trkpt>
      <trkpt lat="48.70998" lon="1.65235">
        <ele>182</ele>
        <time>2015-04-25T10:12:25.000Z</time>
      </trkpt>
      <trkpt lat="48.71003" lon="1.65225">
        <ele>182</ele>
        <time>2015-04-25T10:12:31.000Z</time>
      </trkpt>
      <trkpt lat="48.71004" lon="1.65223">
        <ele>182</ele>
        <time>2015-04-25T10:12:33.000Z</time>
      </trkpt>
      <trkpt lat="48.71007" lon="1.65214">
        <ele>182</ele>
        <time>2015-04-25T10:12:38.000Z</time>
      </trkpt>
      <trkpt lat="48.71009" lon="1.65205">
        <ele>182</ele>
        <time>2015-04-25T10:12:43.000Z</time>
      </trkpt>
      <trkpt lat="48.71012" lon="1.65199">
        <ele>182</ele>
        <time>2015-04-25T10:12:46.000Z</time>
      </trkpt>
      <trkpt lat="48.71012" lon="1.65194">
        <ele>182</ele>
        <time>2015-04-25T10:12:52.000Z</time>
      </trkpt>
      <trkpt lat="48.71013" lon="1.65192">
        <ele>182</ele>
        <time>2015-04-25T10:12:54.000Z</time>
      </trkpt>
      <trkpt lat="48.71016" lon="1.65184">
        <ele>182.2</ele>
        <time>2015-04-25T10:13:00.000Z</time>
      </trkpt>
      <trkpt lat="48.71017" lon="1.65182">
        <ele>182.2</ele>
        <time>2015-04-25T10:13:02.000Z</time>
      </trkpt>
      <trkpt lat="48.71017" lon="1.65174">
        <ele>182.3</ele>
        <time>2015-04-25T10:13:08.000Z</time>
      </trkpt>
      <trkpt lat="48.71018" lon="1.65166">
        <ele>182.3</ele>
        <time>2015-04-25T10:13:15.000Z</time>
      </trkpt>
      <trkpt lat="48.71018" lon="1.65167">
        <ele>182.3</ele>
        <time>2015-04-25T10:13:20.000Z</time>
      </trkpt>
      <trkpt lat="48.71019" lon="1.65163">
        <ele>182.3</ele>
        <time>2015-04-25T10:13:31.000Z</time>
      </trkpt>
      <trkpt lat="48.71023" lon="1.65171">
        <ele>182.1</ele>
        <time>2015-04-25T10:13:35.000Z</time>
      </trkpt>
      <trkpt lat="48.71025" lon="1.65176">
        <ele>182.1</ele>
        <time>2015-04-25T10:13:42.000Z</time>
      </trkpt>
      <trkpt lat="48.71029" lon="1.65155">
        <ele>182</ele>
        <time>2015-04-25T10:15:33.000Z</time>
      </trkpt>
      <trkpt lat="48.71035" lon="1.65147">
        <ele>182</ele>
        <time>2015-04-25T10:15:37.000Z</time>
      </trkpt>
      <trkpt lat="48.71038" lon="1.65145">
        <ele>182</ele>
        <time>2015-04-25T10:15:39.000Z</time>
      </trkpt>
      <trkpt lat="48.71043" lon="1.65131">
        <ele>182.3</ele>
        <time>2015-04-25T10:15:47.000Z</time>
      </trkpt>
      <trkpt lat="48.71047" lon="1.65121">
        <ele>182.6</ele>
        <time>2015-04-25T10:15:53.000Z</time>
      </trkpt>
      <trkpt lat="48.71048" lon="1.6512">
        <ele>182.7</ele>
        <time>2015-04-25T10:15:54.000Z</time>
      </trkpt>
      <trkpt lat="48.71052" lon="1.65112">
        <ele>183</ele>
        <time>2015-04-25T10:15:59.000Z</time>
      </trkpt>
      <trkpt lat="48.71057" lon="1.651">
        <ele>183</ele>
        <time>2015-04-25T10:16:05.000Z</time>
      </trkpt>
      <trkpt lat="48.71061" lon="1.65094">
        <ele>183</ele>
        <time>2015-04-25T10:16:10.000Z</time>
      </trkpt>
      <trkpt lat="48.71061" lon="1.6509">
        <ele>183</ele>
        <time>2015-04-25T10:16:12.000Z</time>
      </trkpt>
      <trkpt lat="48.71069" lon="1.65077">
        <ele>183</ele>
        <time>2015-04-25T10:16:19.000Z</time>
      </trkpt>
      <trkpt lat="48.71072" lon="1.65062">
        <ele>183</ele>
        <time>2015-04-25T10:16:26.000Z</time>
      </trkpt>
      <trkpt lat="48.71075" lon="1.65059">
        <ele>183</ele>
        <time>2015-04-25T10:16:29.000Z</time>
      </trkpt>
      <trkpt lat="48.71079" lon="1.6505">
        <ele>183</ele>
        <time>2015-04-25T10:16:37.000Z</time>
      </trkpt>
      <trkpt lat="48.71079" lon="1.65046">
        <ele>183</ele>
        <time>2015-04-25T10:16:39.000Z</time>
      </trkpt>
      <trkpt lat="48.71085" lon="1.65033">
        <ele>183</ele>
        <time>2015-04-25T10:16:46.000Z</time>
      </trkpt>
      <trkpt lat="48.71087" lon="1.65028">
        <ele>183</ele>
        <time>2015-04-25T10:16:49.000Z</time>
      </trkpt>
      <trkpt lat="48.71092" lon="1.65019">
        <ele>183</ele>
        <time>2015-04-25T10:16:54.000Z</time>
      </trkpt>
      <trkpt lat="48.71096" lon="1.65009">
        <ele>183</ele>
        <time>2015-04-25T10:17:01.000Z</time>
      </trkpt>
      <trkpt lat="48.71102" lon="1.64998">
        <ele>183</ele>
        <time>2015-04-25T10:17:08.000Z</time>
      </trkpt>
      <trkpt lat="48.71105" lon="1.64991">
        <ele>183</ele>
        <time>2015-04-25T10:17:12.000Z</time>
      </trkpt>
      <trkpt lat="48.71108" lon="1.64984">
        <ele>183</ele>
        <time>2015-04-25T10:17:17.000Z</time>
      </trkpt>
      <trkpt lat="48.71115" lon="1.64971">
        <ele>183</ele>
        <time>2015-04-25T10:17:24.000Z</time>
      </trkpt>
      <trkpt lat="48.71121" lon="1.64959">
        <ele>183</ele>
        <time>2015-04-25T10:17:31.000Z</time>
      </trkpt>
      <trkpt lat="48.71123" lon="1.64956">
        <ele>183</ele>
        <time>2015-04-25T10:17:33.000Z</time>
      </trkpt>
      <trkpt lat="48.71128" lon="1.6495">
        <ele>183</ele>
        <time>2015-04-25T10:17:38.000Z</time>
      </trkpt>
      <trkpt lat="48.71133" lon="1.64944">
        <ele>183</ele>
        <time>2015-04-25T10:17:43.000Z</time>
      </trkpt>
      <trkpt lat="48.71139" lon="1.64935">
        <ele>183</ele>
        <time>2015-04-25T10:17:50.000Z</time>
      </trkpt>
      <trkpt lat="48.7114" lon="1.64934">
        <ele>183</ele>
        <time>2015-04-25T10:17:51.000Z</time>
      </trkpt>
      <trkpt lat="48.7114" lon="1.64931">
        <ele>183</ele>
        <time>2015-04-25T10:17:57.000Z</time>
      </trkpt>
      <trkpt lat="48.71147" lon="1.64892">
        <ele>182.4</ele>
        <time>2015-04-25T10:18:32.000Z</time>
      </trkpt>
      <trkpt lat="48.71149" lon="1.64883">
        <ele>182.3</ele>
        <time>2015-04-25T10:18:36.000Z</time>
      </trkpt>
      <trkpt lat="48.7115" lon="1.64868">
        <ele>182.1</ele>
        <time>2015-04-25T10:18:43.000Z</time>
      </trkpt>
      <trkpt lat="48.7115" lon="1.64863">
        <ele>182</ele>
        <time>2015-04-25T10:18:46.000Z</time>
      </trkpt>
      <trkpt lat="48.71149" lon="1.64856">
        <ele>181.9</ele>
        <time>2015-04-25T10:18:54.000Z</time>
      </trkpt>
      <trkpt lat="48.7115" lon="1.64844">
        <ele>181.8</ele>
        <time>2015-04-25T10:19:01.000Z</time>
      </trkpt>
      <trkpt lat="48.7115" lon="1.64843">
        <ele>181.7</ele>
        <time>2015-04-25T10:19:02.000Z</time>
      </trkpt>
      <trkpt lat="48.71152" lon="1.6483">
        <ele>181.5</ele>
        <time>2015-04-25T10:19:08.000Z</time>
      </trkpt>
      <trkpt lat="48.71151" lon="1.64829">
        <ele>181.5</ele>
        <time>2015-04-25T10:19:09.000Z</time>
      </trkpt>
      <trkpt lat="48.71152" lon="1.64827">
        <ele>181.4</ele>
        <time>2015-04-25T10:19:13.000Z</time>
      </trkpt>
      <trkpt lat="48.71148" lon="1.64792">
        <ele>180.4</ele>
        <time>2015-04-25T10:19:49.000Z</time>
      </trkpt>
      <trkpt lat="48.71148" lon="1.6479">
        <ele>180.2</ele>
        <time>2015-04-25T10:19:50.000Z</time>
      </trkpt>
      <trkpt lat="48.71149" lon="1.64777">
        <ele>179.6</ele>
        <time>2015-04-25T10:19:56.000Z</time>
      </trkpt>
      <trkpt lat="48.71145" lon="1.64767">
        <ele>179.6</ele>
        <time>2015-04-25T10:20:02.000Z</time>
      </trkpt>
      <trkpt lat="48.71144" lon="1.64765">
        <ele>179.7</ele>
        <time>2015-04-25T10:20:04.000Z</time>
      </trkpt>
      <trkpt lat="48.71141" lon="1.64751">
        <ele>179.7</ele>
        <time>2015-04-25T10:20:11.000Z</time>
      </trkpt>
      <trkpt lat="48.7114" lon="1.64743">
        <ele>179.6</ele>
        <time>2015-04-25T10:20:16.000Z</time>
      </trkpt>
      <trkpt lat="48.71137" lon="1.64732">
        <ele>179.5</ele>
        <time>2015-04-25T10:20:22.000Z</time>
      </trkpt>
      <trkpt lat="48.71132" lon="1.64724">
        <ele>179.5</ele>
        <time>2015-04-25T10:20:28.000Z</time>
      </trkpt>
      <trkpt lat="48.71127" lon="1.64709">
        <ele>179.6</ele>
        <time>2015-04-25T10:20:37.000Z</time>
      </trkpt>
      <trkpt lat="48.71124" lon="1.64701">
        <ele>179.7</ele>
        <time>2015-04-25T10:20:41.000Z</time>
      </trkpt>
      <trkpt lat="48.71122" lon="1.64693">
        <ele>179.9</ele>
        <time>2015-04-25T10:20:44.000Z</time>
      </trkpt>
      <trkpt lat="48.71122" lon="1.64674">
        <ele>180.1</ele>
        <time>2015-04-25T10:20:52.000Z</time>
      </trkpt>
      <trkpt lat="48.7112" lon="1.64657">
        <ele>180.8</ele>
        <time>2015-04-25T10:20:59.000Z</time>
      </trkpt>
      <trkpt lat="48.71121" lon="1.64649">
        <ele>181.1</ele>
        <time>2015-04-25T10:21:03.000Z</time>
      </trkpt>
      <trkpt lat="48.71124" lon="1.64636">
        <ele>181.6</ele>
        <time>2015-04-25T10:21:09.000Z</time>
      </trkpt>
      <trkpt lat="48.71124" lon="1.64635">
        <ele>181.6</ele>
        <time>2015-04-25T10:21:10.000Z</time>
      </trkpt>
      <trkpt lat="48.7113" lon="1.64613">
        <ele>181.9</ele>
        <time>2015-04-25T10:21:20.000Z</time>
      </trkpt>
      <trkpt lat="48.71134" lon="1.64593">
        <ele>182.1</ele>
        <time>2015-04-25T10:21:29.000Z</time>
      </trkpt>
      <trkpt lat="48.71135" lon="1.64575">
        <ele>182.1</ele>
        <time>2015-04-25T10:21:37.000Z</time>
      </trkpt>
      <trkpt lat="48.71134" lon="1.64571">
        <ele>182.2</ele>
        <time>2015-04-25T10:21:39.000Z</time>
      </trkpt>
      <trkpt lat="48.71133" lon="1.64563">
        <ele>182.2</ele>
        <time>2015-04-25T10:21:43.000Z</time>
      </trkpt>
      <trkpt lat="48.71132" lon="1.64554">
        <ele>182.2</ele>
        <time>2015-04-25T10:21:47.000Z</time>
      </trkpt>
      <trkpt lat="48.71131" lon="1.64541">
        <ele>181.9</ele>
        <time>2015-04-25T10:21:53.000Z</time>
      </trkpt>
      <trkpt lat="48.71133" lon="1.64528">
        <ele>181.4</ele>
        <time>2015-04-25T10:21:59.000Z</time>
      </trkpt>
      <trkpt lat="48.71137" lon="1.64515">
        <ele>181.1</ele>
        <time>2015-04-25T10:22:06.000Z</time>
      </trkpt>
      <trkpt lat="48.71143" lon="1.64501">
        <ele>180.4</ele>
        <time>2015-04-25T10:22:13.000Z</time>
      </trkpt>
      <trkpt lat="48.71148" lon="1.64485">
        <ele>180.4</ele>
        <time>2015-04-25T10:22:21.000Z</time>
      </trkpt>
      <trkpt lat="48.71149" lon="1.64481">
        <ele>180.5</ele>
        <time>2015-04-25T10:22:23.000Z</time>
      </trkpt>
      <trkpt lat="48.71151" lon="1.64474">
        <ele>180.6</ele>
        <time>2015-04-25T10:22:27.000Z</time>
      </trkpt>
      <trkpt lat="48.71154" lon="1.64464">
        <ele>180.5</ele>
        <time>2015-04-25T10:22:32.000Z</time>
      </trkpt>
      <trkpt lat="48.7116" lon="1.64451">
        <ele>180.3</ele>
        <time>2015-04-25T10:22:40.000Z</time>
      </trkpt>
      <trkpt lat="48.71166" lon="1.64444">
        <ele>180</ele>
        <time>2015-04-25T10:22:46.000Z</time>
      </trkpt>
      <trkpt lat="48.71173" lon="1.64433">
        <ele>180.1</ele>
        <time>2015-04-25T10:22:52.000Z</time>
      </trkpt>
      <trkpt lat="48.71176" lon="1.64428">
        <ele>180.1</ele>
        <time>2015-04-25T10:22:55.000Z</time>
      </trkpt>
      <trkpt lat="48.71183" lon="1.6441">
        <ele>180.8</ele>
        <time>2015-04-25T10:23:04.000Z</time>
      </trkpt>
      <trkpt lat="48.71186" lon="1.644">
        <ele>181.3</ele>
        <time>2015-04-25T10:23:09.000Z</time>
      </trkpt>
      <trkpt lat="48.71192" lon="1.64388">
        <ele>182</ele>
        <time>2015-04-25T10:23:15.000Z</time>
      </trkpt>
      <trkpt lat="48.71204" lon="1.64368">
        <ele>181.6</ele>
        <time>2015-04-25T10:23:21.000Z</time>
      </trkpt>
      <trkpt lat="48.71214" lon="1.64351">
        <ele>181.7</ele>
        <time>2015-04-25T10:23:27.000Z</time>
      </trkpt>
      <trkpt lat="48.71223" lon="1.6434">
        <ele>181.7</ele>
        <time>2015-04-25T10:23:33.000Z</time>
      </trkpt>
      <trkpt lat="48.71233" lon="1.64327">
        <ele>181.8</ele>
        <time>2015-04-25T10:23:39.000Z</time>
      </trkpt>
      <trkpt lat="48.71242" lon="1.64305">
        <ele>182.3</ele>
        <time>2015-04-25T10:23:44.000Z</time>
      </trkpt>
      <trkpt lat="48.71249" lon="1.64284">
        <ele>182</ele>
        <time>2015-04-25T10:23:49.000Z</time>
      </trkpt>
      <trkpt lat="48.71261" lon="1.6426">
        <ele>182.4</ele>
        <time>2015-04-25T10:23:56.000Z</time>
      </trkpt>
      <trkpt lat="48.71272" lon="1.64246">
        <ele>182.3</ele>
        <time>2015-04-25T10:24:02.000Z</time>
      </trkpt>
      <trkpt lat="48.7128" lon="1.64235">
        <ele>182.6</ele>
        <time>2015-04-25T10:24:07.000Z</time>
      </trkpt>
      <trkpt lat="48.71288" lon="1.64218">
        <ele>182.8</ele>
        <time>2015-04-25T10:24:12.000Z</time>
      </trkpt>
      <trkpt lat="48.713" lon="1.6419">
        <ele>182</ele>
        <time>2015-04-25T10:24:18.000Z</time>
      </trkpt>
      <trkpt lat="48.71306" lon="1.64176">
        <ele>182</ele>
        <time>2015-04-25T10:24:22.000Z</time>
      </trkpt>
      <trkpt lat="48.71307" lon="1.64175">
        <ele>182</ele>
        <time>2015-04-25T10:24:23.000Z</time>
      </trkpt>
      <trkpt lat="48.71311" lon="1.64169">
        <ele>182</ele>
        <time>2015-04-25T10:24:29.000Z</time>
      </trkpt>
      <trkpt lat="48.71313" lon="1.64165">
        <ele>182</ele>
        <time>2015-04-25T10:24:32.000Z</time>
      </trkpt>
      <trkpt lat="48.71315" lon="1.64155">
        <ele>182</ele>
        <time>2015-04-25T10:24:37.000Z</time>
      </trkpt>
      <trkpt lat="48.71319" lon="1.64141">
        <ele>182</ele>
        <time>2015-04-25T10:24:44.000Z</time>
      </trkpt>
      <trkpt lat="48.71319" lon="1.64136">
        <ele>182</ele>
        <time>2015-04-25T10:24:46.000Z</time>
      </trkpt>
      <trkpt lat="48.71321" lon="1.64127">
        <ele>182</ele>
        <time>2015-04-25T10:24:50.000Z</time>
      </trkpt>
      <trkpt lat="48.71325" lon="1.64117">
        <ele>182</ele>
        <time>2015-04-25T10:24:55.000Z</time>
      </trkpt>
      <trkpt lat="48.71329" lon="1.64109">
        <ele>182</ele>
        <time>2015-04-25T10:25:00.000Z</time>
      </trkpt>
      <trkpt lat="48.71332" lon="1.641">
        <ele>182</ele>
        <time>2015-04-25T10:25:04.000Z</time>
      </trkpt>
      <trkpt lat="48.71338" lon="1.64083">
        <ele>181.8</ele>
        <time>2015-04-25T10:25:13.000Z</time>
      </trkpt>
      <trkpt lat="48.7134" lon="1.64079">
        <ele>181.8</ele>
        <time>2015-04-25T10:25:15.000Z</time>
      </trkpt>
      <trkpt lat="48.71344" lon="1.64067">
        <ele>181.8</ele>
        <time>2015-04-25T10:25:22.000Z</time>
      </trkpt>
      <trkpt lat="48.71344" lon="1.64065">
        <ele>181.9</ele>
        <time>2015-04-25T10:25:23.000Z</time>
      </trkpt>
      <trkpt lat="48.71343" lon="1.64059">
        <ele>182</ele>
        <time>2015-04-25T10:25:25.000Z</time>
      </trkpt>
      <trkpt lat="48.71345" lon="1.64048">
        <ele>182</ele>
        <time>2015-04-25T10:25:30.000Z</time>
      </trkpt>
      <trkpt lat="48.71352" lon="1.64039">
        <ele>182</ele>
        <time>2015-04-25T10:25:37.000Z</time>
      </trkpt>
      <trkpt lat="48.71356" lon="1.6403">
        <ele>182</ele>
        <time>2015-04-25T10:25:42.000Z</time>
      </trkpt>
      <trkpt lat="48.71359" lon="1.64027">
        <ele>182</ele>
        <time>2015-04-25T10:25:45.000Z</time>
      </trkpt>
      <trkpt lat="48.71364" lon="1.64022">
        <ele>182.2</ele>
        <time>2015-04-25T10:25:51.000Z</time>
      </trkpt>
      <trkpt lat="48.71368" lon="1.64014">
        <ele>182.4</ele>
        <time>2015-04-25T10:25:56.000Z</time>
      </trkpt>
      <trkpt lat="48.71373" lon="1.64002">
        <ele>182.5</ele>
        <time>2015-04-25T10:26:04.000Z</time>
      </trkpt>
      <trkpt lat="48.71378" lon="1.63993">
        <ele>182.5</ele>
        <time>2015-04-25T10:26:10.000Z</time>
      </trkpt>
      <trkpt lat="48.71379" lon="1.63992">
        <ele>182.5</ele>
        <time>2015-04-25T10:26:11.000Z</time>
      </trkpt>
      <trkpt lat="48.71384" lon="1.63983">
        <ele>182.7</ele>
        <time>2015-04-25T10:26:17.000Z</time>
      </trkpt>
      <trkpt lat="48.71385" lon="1.63982">
        <ele>182.7</ele>
        <time>2015-04-25T10:26:19.000Z</time>
      </trkpt>
      <trkpt lat="48.71391" lon="1.63973">
        <ele>183</ele>
        <time>2015-04-25T10:26:25.000Z</time>
      </trkpt>
      <trkpt lat="48.71395" lon="1.63964">
        <ele>183</ele>
        <time>2015-04-25T10:26:30.000Z</time>
      </trkpt>
      <trkpt lat="48.71399" lon="1.63955">
        <ele>183</ele>
        <time>2015-04-25T10:26:36.000Z</time>
      </trkpt>
      <trkpt lat="48.714" lon="1.63951">
        <ele>183</ele>
        <time>2015-04-25T10:26:38.000Z</time>
      </trkpt>
      <trkpt lat="48.71404" lon="1.63941">
        <ele>183</ele>
        <time>2015-04-25T10:26:44.000Z</time>
      </trkpt>
      <trkpt lat="48.71406" lon="1.63936">
        <ele>183</ele>
        <time>2015-04-25T10:26:47.000Z</time>
      </trkpt>
      <trkpt lat="48.71408" lon="1.63931">
        <ele>183</ele>
        <time>2015-04-25T10:26:49.000Z</time>
      </trkpt>
      <trkpt lat="48.71409" lon="1.63921">
        <ele>183</ele>
        <time>2015-04-25T10:26:53.000Z</time>
      </trkpt>
      <trkpt lat="48.71414" lon="1.63911">
        <ele>182.8</ele>
        <time>2015-04-25T10:26:58.000Z</time>
      </trkpt>
      <trkpt lat="48.71415" lon="1.63907">
        <ele>182.7</ele>
        <time>2015-04-25T10:27:00.000Z</time>
      </trkpt>
      <trkpt lat="48.71418" lon="1.63896">
        <ele>182.3</ele>
        <time>2015-04-25T10:27:06.000Z</time>
      </trkpt>
      <trkpt lat="48.71421" lon="1.63886">
        <ele>182</ele>
        <time>2015-04-25T10:27:11.000Z</time>
      </trkpt>
      <trkpt lat="48.71421" lon="1.63883">
        <ele>182</ele>
        <time>2015-04-25T10:27:12.000Z</time>
      </trkpt>
      <trkpt lat="48.71426" lon="1.63862">
        <ele>182</ele>
        <time>2015-04-25T10:27:19.000Z</time>
      </trkpt>
      <trkpt lat="48.7143" lon="1.63852">
        <ele>182.2</ele>
        <time>2015-04-25T10:27:24.000Z</time>
      </trkpt>
      <trkpt lat="48.71432" lon="1.63842">
        <ele>182.3</ele>
        <time>2015-04-25T10:27:29.000Z</time>
      </trkpt>
      <trkpt lat="48.71436" lon="1.63829">
        <ele>182.3</ele>
        <time>2015-04-25T10:27:35.000Z</time>
      </trkpt>
      <trkpt lat="48.71437" lon="1.63816">
        <ele>182.3</ele>
        <time>2015-04-25T10:27:40.000Z</time>
      </trkpt>
      <trkpt lat="48.71441" lon="1.63805">
        <ele>182.1</ele>
        <time>2015-04-25T10:27:46.000Z</time>
      </trkpt>
      <trkpt lat="48.71444" lon="1.63795">
        <ele>182</ele>
        <time>2015-04-25T10:27:51.000Z</time>
      </trkpt>
      <trkpt lat="48.71449" lon="1.63788">
        <ele>181.8</ele>
        <time>2015-04-25T10:27:55.000Z</time>
      </trkpt>
      <trkpt lat="48.71452" lon="1.63782">
        <ele>181.7</ele>
        <time>2015-04-25T10:27:58.000Z</time>
      </trkpt>
      <trkpt lat="48.71456" lon="1.63775">
        <ele>181.6</ele>
        <time>2015-04-25T10:28:02.000Z</time>
      </trkpt>
      <trkpt lat="48.71464" lon="1.63766">
        <ele>181.6</ele>
        <time>2015-04-25T10:28:09.000Z</time>
      </trkpt>
      <trkpt lat="48.71471" lon="1.6376">
        <ele>181.7</ele>
        <time>2015-04-25T10:28:15.000Z</time>
      </trkpt>
      <trkpt lat="48.71474" lon="1.63754">
        <ele>181.8</ele>
        <time>2015-04-25T10:28:18.000Z</time>
      </trkpt>
      <trkpt lat="48.71477" lon="1.63742">
        <ele>181.9</ele>
        <time>2015-04-25T10:28:24.000Z</time>
      </trkpt>
      <trkpt lat="48.7148" lon="1.63737">
        <ele>181.8</ele>
        <time>2015-04-25T10:28:27.000Z</time>
      </trkpt>
      <trkpt lat="48.71482" lon="1.63732">
        <ele>181.9</ele>
        <time>2015-04-25T10:28:30.000Z</time>
      </trkpt>
      <trkpt lat="48.7149" lon="1.63723">
        <ele>182</ele>
        <time>2015-04-25T10:28:37.000Z</time>
      </trkpt>
      <trkpt lat="48.71496" lon="1.63715">
        <ele>182</ele>
        <time>2015-04-25T10:28:44.000Z</time>
      </trkpt>
      <trkpt lat="48.71499" lon="1.6371">
        <ele>182</ele>
        <time>2015-04-25T10:28:48.000Z</time>
      </trkpt>
      <trkpt lat="48.71503" lon="1.63692">
        <ele>182.1</ele>
        <time>2015-04-25T10:28:56.000Z</time>
      </trkpt>
      <trkpt lat="48.71508" lon="1.63684">
        <ele>182.4</ele>
        <time>2015-04-25T10:29:01.000Z</time>
      </trkpt>
      <trkpt lat="48.71515" lon="1.63675">
        <ele>182.7</ele>
        <time>2015-04-25T10:29:08.000Z</time>
      </trkpt>
      <trkpt lat="48.71517" lon="1.63668">
        <ele>182.9</ele>
        <time>2015-04-25T10:29:11.000Z</time>
      </trkpt>
      <trkpt lat="48.71525" lon="1.63653">
        <ele>183.4</ele>
        <time>2015-04-25T10:29:19.000Z</time>
      </trkpt>
      <trkpt lat="48.71528" lon="1.63647">
        <ele>183.7</ele>
        <time>2015-04-25T10:29:22.000Z</time>
      </trkpt>
      <trkpt lat="48.71532" lon="1.6364">
        <ele>184</ele>
        <time>2015-04-25T10:29:26.000Z</time>
      </trkpt>
      <trkpt lat="48.71537" lon="1.6362">
        <ele>183.5</ele>
        <time>2015-04-25T10:29:31.000Z</time>
      </trkpt>
      <trkpt lat="48.7154" lon="1.63614">
        <ele>183.5</ele>
        <time>2015-04-25T10:29:35.000Z</time>
      </trkpt>
      <trkpt lat="48.71543" lon="1.63608">
        <ele>183.5</ele>
        <time>2015-04-25T10:29:38.000Z</time>
      </trkpt>
      <trkpt lat="48.71551" lon="1.63594">
        <ele>183.8</ele>
        <time>2015-04-25T10:29:46.000Z</time>
      </trkpt>
      <trkpt lat="48.71553" lon="1.63591">
        <ele>183.9</ele>
        <time>2015-04-25T10:29:48.000Z</time>
      </trkpt>
      <trkpt lat="48.71556" lon="1.63585">
        <ele>184</ele>
        <time>2015-04-25T10:29:52.000Z</time>
      </trkpt>
      <trkpt lat="48.71563" lon="1.63578">
        <ele>183.6</ele>
        <time>2015-04-25T10:29:58.000Z</time>
      </trkpt>
      <trkpt lat="48.71573" lon="1.63566">
        <ele>183.1</ele>
        <time>2015-04-25T10:30:06.000Z</time>
      </trkpt>
      <trkpt lat="48.71578" lon="1.63555">
        <ele>183</ele>
        <time>2015-04-25T10:30:12.000Z</time>
      </trkpt>
      <trkpt lat="48.71579" lon="1.63554">
        <ele>183</ele>
        <time>2015-04-25T10:30:13.000Z</time>
      </trkpt>
      <trkpt lat="48.71587" lon="1.63539">
        <ele>183</ele>
        <time>2015-04-25T10:30:22.000Z</time>
      </trkpt>
      <trkpt lat="48.71588" lon="1.63537">
        <ele>183</ele>
        <time>2015-04-25T10:30:23.000Z</time>
      </trkpt>
      <trkpt lat="48.71593" lon="1.63525">
        <ele>182.9</ele>
        <time>2015-04-25T10:30:29.000Z</time>
      </trkpt>
      <trkpt lat="48.71597" lon="1.63519">
        <ele>182.7</ele>
        <time>2015-04-25T10:30:33.000Z</time>
      </trkpt>
      <trkpt lat="48.716" lon="1.63512">
        <ele>182.4</ele>
        <time>2015-04-25T10:30:37.000Z</time>
      </trkpt>
      <trkpt lat="48.71607" lon="1.63499">
        <ele>182</ele>
        <time>2015-04-25T10:30:44.000Z</time>
      </trkpt>
      <trkpt lat="48.71611" lon="1.63488">
        <ele>182</ele>
        <time>2015-04-25T10:30:50.000Z</time>
      </trkpt>
      <trkpt lat="48.71613" lon="1.6348">
        <ele>182</ele>
        <time>2015-04-25T10:30:54.000Z</time>
      </trkpt>
      <trkpt lat="48.71618" lon="1.6347">
        <ele>182</ele>
        <time>2015-04-25T10:31:00.000Z</time>
      </trkpt>
      <trkpt lat="48.71623" lon="1.63462">
        <ele>182</ele>
        <time>2015-04-25T10:31:04.000Z</time>
      </trkpt>
      <trkpt lat="48.71624" lon="1.6346">
        <ele>182</ele>
        <time>2015-04-25T10:31:06.000Z</time>
      </trkpt>
      <trkpt lat="48.71631" lon="1.6345">
        <ele>182</ele>
        <time>2015-04-25T10:31:13.000Z</time>
      </trkpt>
      <trkpt lat="48.71639" lon="1.6344">
        <ele>182</ele>
        <time>2015-04-25T10:31:19.000Z</time>
      </trkpt>
      <trkpt lat="48.71641" lon="1.63436">
        <ele>182.1</ele>
        <time>2015-04-25T10:31:21.000Z</time>
      </trkpt>
      <trkpt lat="48.71645" lon="1.63426">
        <ele>182.2</ele>
        <time>2015-04-25T10:31:26.000Z</time>
      </trkpt>
      <trkpt lat="48.7165" lon="1.63419">
        <ele>182.4</ele>
        <time>2015-04-25T10:31:31.000Z</time>
      </trkpt>
      <trkpt lat="48.71655" lon="1.6341">
        <ele>182.4</ele>
        <time>2015-04-25T10:31:36.000Z</time>
      </trkpt>
      <trkpt lat="48.71663" lon="1.63397">
        <ele>182.2</ele>
        <time>2015-04-25T10:31:43.000Z</time>
      </trkpt>
      <trkpt lat="48.7167" lon="1.63386">
        <ele>182.1</ele>
        <time>2015-04-25T10:31:49.000Z</time>
      </trkpt>
      <trkpt lat="48.71672" lon="1.6338">
        <ele>182.1</ele>
        <time>2015-04-25T10:31:53.000Z</time>
      </trkpt>
      <trkpt lat="48.71677" lon="1.63372">
        <ele>182.1</ele>
        <time>2015-04-25T10:31:57.000Z</time>
      </trkpt>
      <trkpt lat="48.71681" lon="1.63365">
        <ele>182.1</ele>
        <time>2015-04-25T10:32:00.000Z</time>
      </trkpt>
      <trkpt lat="48.71687" lon="1.63355">
        <ele>182</ele>
        <time>2015-04-25T10:32:07.000Z</time>
      </trkpt>
      <trkpt lat="48.7169" lon="1.63352">
        <ele>182</ele>
        <time>2015-04-25T10:32:10.000Z</time>
      </trkpt>
      <trkpt lat="48.71693" lon="1.63339">
        <ele>182</ele>
        <time>2015-04-25T10:32:16.000Z</time>
      </trkpt>
      <trkpt lat="48.71695" lon="1.6333">
        <ele>182</ele>
        <time>2015-04-25T10:32:21.000Z</time>
      </trkpt>
      <trkpt lat="48.71702" lon="1.63322">
        <ele>182.2</ele>
        <time>2015-04-25T10:32:27.000Z</time>
      </trkpt>
      <trkpt lat="48.71702" lon="1.6332">
        <ele>182.1</ele>
        <time>2015-04-25T10:32:28.000Z</time>
      </trkpt>
      <trkpt lat="48.71705" lon="1.63314">
        <ele>182.1</ele>
        <time>2015-04-25T10:32:31.000Z</time>
      </trkpt>
      <trkpt lat="48.7171" lon="1.63304">
        <ele>182</ele>
        <time>2015-04-25T10:32:37.000Z</time>
      </trkpt>
      <trkpt lat="48.71715" lon="1.63295">
        <ele>182</ele>
        <time>2015-04-25T10:32:43.000Z</time>
      </trkpt>
      <trkpt lat="48.71722" lon="1.63283">
        <ele>182</ele>
        <time>2015-04-25T10:32:50.000Z</time>
      </trkpt>
      <trkpt lat="48.71728" lon="1.63272">
        <ele>182</ele>
        <time>2015-04-25T10:32:56.000Z</time>
      </trkpt>
      <trkpt lat="48.71733" lon="1.63263">
        <ele>182</ele>
        <time>2015-04-25T10:33:01.000Z</time>
      </trkpt>
      <trkpt lat="48.71739" lon="1.63256">
        <ele>182</ele>
        <time>2015-04-25T10:33:06.000Z</time>
      </trkpt>
      <trkpt lat="48.71741" lon="1.63251">
        <ele>182</ele>
        <time>2015-04-25T10:33:09.000Z</time>
      </trkpt>
      <trkpt lat="48.71744" lon="1.63248">
        <ele>182</ele>
        <time>2015-04-25T10:33:12.000Z</time>
      </trkpt>
      <trkpt lat="48.71751" lon="1.63234">
        <ele>182</ele>
        <time>2015-04-25T10:33:19.000Z</time>
      </trkpt>
      <trkpt lat="48.71752" lon="1.63232">
        <ele>182</ele>
        <time>2015-04-25T10:33:20.000Z</time>
      </trkpt>
      <trkpt lat="48.71758" lon="1.63225">
        <ele>182</ele>
        <time>2015-04-25T10:33:26.000Z</time>
      </trkpt>
      <trkpt lat="48.71764" lon="1.63211">
        <ele>182</ele>
        <time>2015-04-25T10:33:33.000Z</time>
      </trkpt>
      <trkpt lat="48.71772" lon="1.63201">
        <ele>182</ele>
        <time>2015-04-25T10:33:40.000Z</time>
      </trkpt>
      <trkpt lat="48.71779" lon="1.63194">
        <ele>182</ele>
        <time>2015-04-25T10:33:45.000Z</time>
      </trkpt>
      <trkpt lat="48.71788" lon="1.63183">
        <ele>181.6</ele>
        <time>2015-04-25T10:33:52.000Z</time>
      </trkpt>
      <trkpt lat="48.71796" lon="1.63179">
        <ele>181.3</ele>
        <time>2015-04-25T10:33:58.000Z</time>
      </trkpt>
      <trkpt lat="48.71805" lon="1.63172">
        <ele>181</ele>
        <time>2015-04-25T10:34:05.000Z</time>
      </trkpt>
      <trkpt lat="48.71814" lon="1.63168">
        <ele>180.7</ele>
        <time>2015-04-25T10:34:11.000Z</time>
      </trkpt>
      <trkpt lat="48.71822" lon="1.63166">
        <ele>180.4</ele>
        <time>2015-04-25T10:34:17.000Z</time>
      </trkpt>
      <trkpt lat="48.71829" lon="1.63162">
        <ele>180.2</ele>
        <time>2015-04-25T10:34:23.000Z</time>
      </trkpt>
      <trkpt lat="48.71835" lon="1.6316">
        <ele>179.9</ele>
        <time>2015-04-25T10:34:27.000Z</time>
      </trkpt>
      <trkpt lat="48.71845" lon="1.63154">
        <ele>179.3</ele>
        <time>2015-04-25T10:34:35.000Z</time>
      </trkpt>
      <trkpt lat="48.71847" lon="1.63152">
        <ele>179.3</ele>
        <time>2015-04-25T10:34:37.000Z</time>
      </trkpt>
      <trkpt lat="48.7185" lon="1.6315">
        <ele>179.2</ele>
        <time>2015-04-25T10:34:39.000Z</time>
      </trkpt>
      <trkpt lat="48.71855" lon="1.63145">
        <ele>179.1</ele>
        <time>2015-04-25T10:34:43.000Z</time>
      </trkpt>
      <trkpt lat="48.71858" lon="1.63141">
        <ele>179</ele>
        <time>2015-04-25T10:34:46.000Z</time>
      </trkpt>
      <trkpt lat="48.71862" lon="1.63139">
        <ele>178.9</ele>
        <time>2015-04-25T10:34:49.000Z</time>
      </trkpt>
      <trkpt lat="48.71869" lon="1.63134">
        <ele>178.1</ele>
        <time>2015-04-25T10:34:55.000Z</time>
      </trkpt>
      <trkpt lat="48.71876" lon="1.63123">
        <ele>177.4</ele>
        <time>2015-04-25T10:35:01.000Z</time>
      </trkpt>
      <trkpt lat="48.71882" lon="1.63119">
        <ele>176.7</ele>
        <time>2015-04-25T10:35:06.000Z</time>
      </trkpt>
      <trkpt lat="48.71884" lon="1.63118">
        <ele>176.6</ele>
        <time>2015-04-25T10:35:07.000Z</time>
      </trkpt>
      <trkpt lat="48.71895" lon="1.63111">
        <ele>175.4</ele>
        <time>2015-04-25T10:35:15.000Z</time>
      </trkpt>
      <trkpt lat="48.71905" lon="1.63106">
        <ele>174.6</ele>
        <time>2015-04-25T10:35:22.000Z</time>
      </trkpt>
      <trkpt lat="48.71914" lon="1.63107">
        <ele>173.6</ele>
        <time>2015-04-25T10:35:28.000Z</time>
      </trkpt>
      <trkpt lat="48.71919" lon="1.63105">
        <ele>173.2</ele>
        <time>2015-04-25T10:35:32.000Z</time>
      </trkpt>
      <trkpt lat="48.71924" lon="1.63102">
        <ele>172.9</ele>
        <time>2015-04-25T10:35:36.000Z</time>
      </trkpt>
      <trkpt lat="48.71929" lon="1.63099">
        <ele>172.3</ele>
        <time>2015-04-25T10:35:40.000Z</time>
      </trkpt>
      <trkpt lat="48.71937" lon="1.63093">
        <ele>171.6</ele>
        <time>2015-04-25T10:35:45.000Z</time>
      </trkpt>
      <trkpt lat="48.71947" lon="1.63085">
        <ele>170.6</ele>
        <time>2015-04-25T10:35:51.000Z</time>
      </trkpt>
      <trkpt lat="48.71949" lon="1.63085">
        <ele>170.4</ele>
        <time>2015-04-25T10:35:52.000Z</time>
      </trkpt>
      <trkpt lat="48.71958" lon="1.6308">
        <ele>169.3</ele>
        <time>2015-04-25T10:35:58.000Z</time>
      </trkpt>
      <trkpt lat="48.7197" lon="1.63073">
        <ele>167.6</ele>
        <time>2015-04-25T10:36:06.000Z</time>
      </trkpt>
      <trkpt lat="48.71981" lon="1.63063">
        <ele>166.7</ele>
        <time>2015-04-25T10:36:14.000Z</time>
      </trkpt>
      <trkpt lat="48.71993" lon="1.63057">
        <ele>165.7</ele>
        <time>2015-04-25T10:36:22.000Z</time>
      </trkpt>
      <trkpt lat="48.72005" lon="1.63055">
        <ele>164.4</ele>
        <time>2015-04-25T10:36:30.000Z</time>
      </trkpt>
      <trkpt lat="48.72016" lon="1.6305">
        <ele>163.3</ele>
        <time>2015-04-25T10:36:37.000Z</time>
      </trkpt>
      <trkpt lat="48.7202" lon="1.6305">
        <ele>162.8</ele>
        <time>2015-04-25T10:36:39.000Z</time>
      </trkpt>
      <trkpt lat="48.72032" lon="1.63048">
        <ele>161.6</ele>
        <time>2015-04-25T10:36:46.000Z</time>
      </trkpt>
      <trkpt lat="48.72037" lon="1.63047">
        <ele>161.1</ele>
        <time>2015-04-25T10:36:50.000Z</time>
      </trkpt>
      <trkpt lat="48.72047" lon="1.63044">
        <ele>160.2</ele>
        <time>2015-04-25T10:36:57.000Z</time>
      </trkpt>
      <trkpt lat="48.72058" lon="1.63039">
        <ele>159.5</ele>
        <time>2015-04-25T10:37:04.000Z</time>
      </trkpt>
      <trkpt lat="48.72059" lon="1.63039">
        <ele>159.4</ele>
        <time>2015-04-25T10:37:05.000Z</time>
      </trkpt>
      <trkpt lat="48.7206" lon="1.63041">
        <ele>159.2</ele>
        <time>2015-04-25T10:37:17.000Z</time>
      </trkpt>
      <trkpt lat="48.72065" lon="1.63029">
        <ele>159.2</ele>
        <time>2015-04-25T10:37:23.000Z</time>
      </trkpt>
      <trkpt lat="48.72069" lon="1.6302">
        <ele>158.7</ele>
        <time>2015-04-25T10:37:28.000Z</time>
      </trkpt>
      <trkpt lat="48.72078" lon="1.63014">
        <ele>157.9</ele>
        <time>2015-04-25T10:37:35.000Z</time>
      </trkpt>
      <trkpt lat="48.72091" lon="1.63009">
        <ele>157</ele>
        <time>2015-04-25T10:37:42.000Z</time>
      </trkpt>
      <trkpt lat="48.72112" lon="1.63003">
        <ele>156</ele>
        <time>2015-04-25T10:37:48.000Z</time>
      </trkpt>
      <trkpt lat="48.72136" lon="1.62991">
        <ele>154.8</ele>
        <time>2015-04-25T10:37:55.000Z</time>
      </trkpt>
      <trkpt lat="48.72153" lon="1.6298">
        <ele>154.1</ele>
        <time>2015-04-25T10:38:00.000Z</time>
      </trkpt>
      <trkpt lat="48.72167" lon="1.6297">
        <ele>154</ele>
        <time>2015-04-25T10:38:05.000Z</time>
      </trkpt>
      <trkpt lat="48.72187" lon="1.62957">
        <ele>154</ele>
        <time>2015-04-25T10:38:11.000Z</time>
      </trkpt>
      <trkpt lat="48.72202" lon="1.62947">
        <ele>154</ele>
        <time>2015-04-25T10:38:16.000Z</time>
      </trkpt>
      <trkpt lat="48.72215" lon="1.62937">
        <ele>154</ele>
        <time>2015-04-25T10:38:20.000Z</time>
      </trkpt>
      <trkpt lat="48.72231" lon="1.62927">
        <ele>154</ele>
        <time>2015-04-25T10:38:24.000Z</time>
      </trkpt>
      <trkpt lat="48.72241" lon="1.62922">
        <ele>154</ele>
        <time>2015-04-25T10:38:26.000Z</time>
      </trkpt>
      <trkpt lat="48.72258" lon="1.62911">
        <ele>154</ele>
        <time>2015-04-25T10:38:31.000Z</time>
      </trkpt>
      <trkpt lat="48.72265" lon="1.62907">
        <ele>154</ele>
        <time>2015-04-25T10:38:33.000Z</time>
      </trkpt>
      <trkpt lat="48.72276" lon="1.62898">
        <ele>154</ele>
        <time>2015-04-25T10:38:37.000Z</time>
      </trkpt>
      <trkpt lat="48.72296" lon="1.62876">
        <ele>154.3</ele>
        <time>2015-04-25T10:38:44.000Z</time>
      </trkpt>
      <trkpt lat="48.72309" lon="1.62867">
        <ele>154.8</ele>
        <time>2015-04-25T10:38:48.000Z</time>
      </trkpt>
      <trkpt lat="48.72329" lon="1.62855">
        <ele>155</ele>
        <time>2015-04-25T10:38:53.000Z</time>
      </trkpt>
      <trkpt lat="48.72344" lon="1.62846">
        <ele>155.2</ele>
        <time>2015-04-25T10:38:57.000Z</time>
      </trkpt>
      <trkpt lat="48.72351" lon="1.62842">
        <ele>155.4</ele>
        <time>2015-04-25T10:39:02.000Z</time>
      </trkpt>
      <trkpt lat="48.72352" lon="1.62842">
        <ele>155.5</ele>
        <time>2015-04-25T10:39:03.000Z</time>
      </trkpt>
      <trkpt lat="48.72354" lon="1.6284">
        <ele>155.6</ele>
        <time>2015-04-25T10:39:06.000Z</time>
      </trkpt>
      <trkpt lat="48.72364" lon="1.62828">
        <ele>156</ele>
        <time>2015-04-25T10:39:12.000Z</time>
      </trkpt>
      <trkpt lat="48.72372" lon="1.62822">
        <ele>156</ele>
        <time>2015-04-25T10:39:18.000Z</time>
      </trkpt>
      <trkpt lat="48.7238" lon="1.62815">
        <ele>156</ele>
        <time>2015-04-25T10:39:24.000Z</time>
      </trkpt>
      <trkpt lat="48.72387" lon="1.62811">
        <ele>156</ele>
        <time>2015-04-25T10:39:28.000Z</time>
      </trkpt>
      <trkpt lat="48.72399" lon="1.62808">
        <ele>156</ele>
        <time>2015-04-25T10:39:34.000Z</time>
      </trkpt>
      <trkpt lat="48.72406" lon="1.62813">
        <ele>156</ele>
        <time>2015-04-25T10:39:38.000Z</time>
      </trkpt>
      <trkpt lat="48.72413" lon="1.62823">
        <ele>156</ele>
        <time>2015-04-25T10:39:42.000Z</time>
      </trkpt>
      <trkpt lat="48.72418" lon="1.62832">
        <ele>155.9</ele>
        <time>2015-04-25T10:39:46.000Z</time>
      </trkpt>
      <trkpt lat="48.72424" lon="1.62843">
        <ele>155.2</ele>
        <time>2015-04-25T10:39:51.000Z</time>
      </trkpt>
      <trkpt lat="48.72425" lon="1.62845">
        <ele>155.1</ele>
        <time>2015-04-25T10:39:52.000Z</time>
      </trkpt>
      <trkpt lat="48.72432" lon="1.62865">
        <ele>154.4</ele>
        <time>2015-04-25T10:40:00.000Z</time>
      </trkpt>
      <trkpt lat="48.72441" lon="1.62877">
        <ele>154.1</ele>
        <time>2015-04-25T10:40:06.000Z</time>
      </trkpt>
      <trkpt lat="48.72445" lon="1.62892">
        <ele>154</ele>
        <time>2015-04-25T10:40:12.000Z</time>
      </trkpt>
      <trkpt lat="48.72449" lon="1.62907">
        <ele>153.8</ele>
        <time>2015-04-25T10:40:19.000Z</time>
      </trkpt>
      <trkpt lat="48.72459" lon="1.62919">
        <ele>153.4</ele>
        <time>2015-04-25T10:40:25.000Z</time>
      </trkpt>
      <trkpt lat="48.72467" lon="1.62935">
        <ele>152.5</ele>
        <time>2015-04-25T10:40:33.000Z</time>
      </trkpt>
      <trkpt lat="48.72474" lon="1.62945">
        <ele>152</ele>
        <time>2015-04-25T10:40:39.000Z</time>
      </trkpt>
      <trkpt lat="48.72479" lon="1.62953">
        <ele>151.9</ele>
        <time>2015-04-25T10:40:44.000Z</time>
      </trkpt>
      <trkpt lat="48.72488" lon="1.62966">
        <ele>151.1</ele>
        <time>2015-04-25T10:40:51.000Z</time>
      </trkpt>
      <trkpt lat="48.72499" lon="1.62979">
        <ele>150.1</ele>
        <time>2015-04-25T10:41:00.000Z</time>
      </trkpt>
      <trkpt lat="48.72508" lon="1.62989">
        <ele>149.8</ele>
        <time>2015-04-25T10:41:07.000Z</time>
      </trkpt>
      <trkpt lat="48.72517" lon="1.62997">
        <ele>149.5</ele>
        <time>2015-04-25T10:41:13.000Z</time>
      </trkpt>
      <trkpt lat="48.72518" lon="1.62998">
        <ele>149.4</ele>
        <time>2015-04-25T10:41:14.000Z</time>
      </trkpt>
      <trkpt lat="48.72527" lon="1.63004">
        <ele>149</ele>
        <time>2015-04-25T10:41:19.000Z</time>
      </trkpt>
      <trkpt lat="48.72539" lon="1.63015">
        <ele>148.8</ele>
        <time>2015-04-25T10:41:27.000Z</time>
      </trkpt>
      <trkpt lat="48.72549" lon="1.63023">
        <ele>148.4</ele>
        <time>2015-04-25T10:41:33.000Z</time>
      </trkpt>
      <trkpt lat="48.72559" lon="1.63031">
        <ele>148</ele>
        <time>2015-04-25T10:41:39.000Z</time>
      </trkpt>
      <trkpt lat="48.72565" lon="1.63035">
        <ele>147.9</ele>
        <time>2015-04-25T10:41:43.000Z</time>
      </trkpt>
      <trkpt lat="48.72575" lon="1.63042">
        <ele>147.6</ele>
        <time>2015-04-25T10:41:50.000Z</time>
      </trkpt>
      <trkpt lat="48.72587" lon="1.6305">
        <ele>147.3</ele>
        <time>2015-04-25T10:41:58.000Z</time>
      </trkpt>
      <trkpt lat="48.72599" lon="1.63057">
        <ele>147.6</ele>
        <time>2015-04-25T10:42:06.000Z</time>
      </trkpt>
      <trkpt lat="48.72599" lon="1.63057">
        <ele>147.6</ele>
        <time>2015-04-25T10:42:08.000Z</time>
      </trkpt>
      <trkpt lat="48.72604" lon="1.63051">
        <ele>147.8</ele>
        <time>2015-04-25T10:42:19.000Z</time>
      </trkpt>
      <trkpt lat="48.72607" lon="1.63045">
        <ele>147.9</ele>
        <time>2015-04-25T10:42:22.000Z</time>
      </trkpt>
      <trkpt lat="48.72613" lon="1.63029">
        <ele>148.1</ele>
        <time>2015-04-25T10:42:31.000Z</time>
      </trkpt>
      <trkpt lat="48.72617" lon="1.63014">
        <ele>148.6</ele>
        <time>2015-04-25T10:42:39.000Z</time>
      </trkpt>
      <trkpt lat="48.7262" lon="1.63">
        <ele>149</ele>
        <time>2015-04-25T10:42:45.000Z</time>
      </trkpt>
      <trkpt lat="48.72623" lon="1.62992">
        <ele>149</ele>
        <time>2015-04-25T10:42:52.000Z</time>
      </trkpt>
      <trkpt lat="48.72623" lon="1.6299">
        <ele>149</ele>
        <time>2015-04-25T10:42:55.000Z</time>
      </trkpt>
      <trkpt lat="48.72627" lon="1.62979">
        <ele>149</ele>
        <time>2015-04-25T10:42:58.000Z</time>
      </trkpt>
      <trkpt lat="48.72635" lon="1.6296">
        <ele>149</ele>
        <time>2015-04-25T10:43:08.000Z</time>
      </trkpt>
      <trkpt lat="48.72645" lon="1.62937">
        <ele>148.6</ele>
        <time>2015-04-25T10:43:21.000Z</time>
      </trkpt>
      <trkpt lat="48.72649" lon="1.62917">
        <ele>148</ele>
        <time>2015-04-25T10:43:29.000Z</time>
      </trkpt>
      <trkpt lat="48.72652" lon="1.62905">
        <ele>147.8</ele>
        <time>2015-04-25T10:43:34.000Z</time>
      </trkpt>
      <trkpt lat="48.72657" lon="1.62891">
        <ele>147.4</ele>
        <time>2015-04-25T10:43:41.000Z</time>
      </trkpt>
      <trkpt lat="48.72657" lon="1.62885">
        <ele>147.3</ele>
        <time>2015-04-25T10:43:45.000Z</time>
      </trkpt>
      <trkpt lat="48.72667" lon="1.62872">
        <ele>147</ele>
        <time>2015-04-25T10:43:51.000Z</time>
      </trkpt>
      <trkpt lat="48.72674" lon="1.62865">
        <ele>147</ele>
        <time>2015-04-25T10:43:57.000Z</time>
      </trkpt>
      <trkpt lat="48.72681" lon="1.62865">
        <ele>147</ele>
        <time>2015-04-25T10:44:03.000Z</time>
      </trkpt>
      <trkpt lat="48.7269" lon="1.62874">
        <ele>147</ele>
        <time>2015-04-25T10:44:08.000Z</time>
      </trkpt>
      <trkpt lat="48.72694" lon="1.62878">
        <ele>147</ele>
        <time>2015-04-25T10:44:11.000Z</time>
      </trkpt>
      <trkpt lat="48.72707" lon="1.62882">
        <ele>146.5</ele>
        <time>2015-04-25T10:44:19.000Z</time>
      </trkpt>
      <trkpt lat="48.72712" lon="1.62882">
        <ele>146.2</ele>
        <time>2015-04-25T10:44:23.000Z</time>
      </trkpt>
      <trkpt lat="48.7272" lon="1.62887">
        <ele>146</ele>
        <time>2015-04-25T10:44:30.000Z</time>
      </trkpt>
      <trkpt lat="48.72726" lon="1.62886">
        <ele>145.9</ele>
        <time>2015-04-25T10:44:34.000Z</time>
      </trkpt>
      <trkpt lat="48.72737" lon="1.62884">
        <ele>145.8</ele>
        <time>2015-04-25T10:44:41.000Z</time>
      </trkpt>
      <trkpt lat="48.72749" lon="1.62885">
        <ele>145.9</ele>
        <time>2015-04-25T10:44:48.000Z</time>
      </trkpt>
      <trkpt lat="48.72758" lon="1.62891">
        <ele>145.5</ele>
        <time>2015-04-25T10:44:54.000Z</time>
      </trkpt>
      <trkpt lat="48.72764" lon="1.62892">
        <ele>145.1</ele>
        <time>2015-04-25T10:44:59.000Z</time>
      </trkpt>
      <trkpt lat="48.72776" lon="1.62891">
        <ele>144.2</ele>
        <time>2015-04-25T10:45:04.000Z</time>
      </trkpt>
      <trkpt lat="48.72789" lon="1.62889">
        <ele>143.6</ele>
        <time>2015-04-25T10:45:10.000Z</time>
      </trkpt>
      <trkpt lat="48.728" lon="1.62885">
        <ele>143.1</ele>
        <time>2015-04-25T10:45:17.000Z</time>
      </trkpt>
      <trkpt lat="48.72809" lon="1.62884">
        <ele>142.7</ele>
        <time>2015-04-25T10:45:22.000Z</time>
      </trkpt>
      <trkpt lat="48.7282" lon="1.62881">
        <ele>142.2</ele>
        <time>2015-04-25T10:45:29.000Z</time>
      </trkpt>
      <trkpt lat="48.7283" lon="1.62882">
        <ele>141.9</ele>
        <time>2015-04-25T10:45:35.000Z</time>
      </trkpt>
      <trkpt lat="48.72831" lon="1.62882">
        <ele>141.8</ele>
        <time>2015-04-25T10:45:38.000Z</time>
      </trkpt>
      <trkpt lat="48.72837" lon="1.62881">
        <ele>141.5</ele>
        <time>2015-04-25T10:45:44.000Z</time>
      </trkpt>
      <trkpt lat="48.72845" lon="1.62879">
        <ele>141</ele>
        <time>2015-04-25T10:45:49.000Z</time>
      </trkpt>
      <trkpt lat="48.72856" lon="1.62877">
        <ele>140.3</ele>
        <time>2015-04-25T10:45:57.000Z</time>
      </trkpt>
      <trkpt lat="48.72861" lon="1.62876">
        <ele>140</ele>
        <time>2015-04-25T10:46:00.000Z</time>
      </trkpt>
      <trkpt lat="48.72869" lon="1.62875">
        <ele>139.7</ele>
        <time>2015-04-25T10:46:05.000Z</time>
      </trkpt>
      <trkpt lat="48.72876" lon="1.62874">
        <ele>139.5</ele>
        <time>2015-04-25T10:46:09.000Z</time>
      </trkpt>
      <trkpt lat="48.7288" lon="1.62873">
        <ele>139.3</ele>
        <time>2015-04-25T10:46:12.000Z</time>
      </trkpt>
      <trkpt lat="48.72888" lon="1.62871">
        <ele>139</ele>
        <time>2015-04-25T10:46:18.000Z</time>
      </trkpt>
      <trkpt lat="48.72898" lon="1.62868">
        <ele>138.8</ele>
        <time>2015-04-25T10:46:25.000Z</time>
      </trkpt>
      <trkpt lat="48.72909" lon="1.62863">
        <ele>138.3</ele>
        <time>2015-04-25T10:46:33.000Z</time>
      </trkpt>
      <trkpt lat="48.72914" lon="1.62862">
        <ele>138.1</ele>
        <time>2015-04-25T10:46:40.000Z</time>
      </trkpt>
      <trkpt lat="48.72922" lon="1.62859">
        <ele>137.9</ele>
        <time>2015-04-25T10:46:46.000Z</time>
      </trkpt>
      <trkpt lat="48.72928" lon="1.62857">
        <ele>137.8</ele>
        <time>2015-04-25T10:46:51.000Z</time>
      </trkpt>
      <trkpt lat="48.72939" lon="1.62854">
        <ele>137.6</ele>
        <time>2015-04-25T10:46:58.000Z</time>
      </trkpt>
      <trkpt lat="48.72946" lon="1.62849">
        <ele>137.1</ele>
        <time>2015-04-25T10:47:03.000Z</time>
      </trkpt>
      <trkpt lat="48.72954" lon="1.62844">
        <ele>136.7</ele>
        <time>2015-04-25T10:47:10.000Z</time>
      </trkpt>
      <trkpt lat="48.72966" lon="1.62841">
        <ele>136.3</ele>
        <time>2015-04-25T10:47:18.000Z</time>
      </trkpt>
      <trkpt lat="48.72978" lon="1.62837">
        <ele>136.1</ele>
        <time>2015-04-25T10:47:26.000Z</time>
      </trkpt>
      <trkpt lat="48.7298" lon="1.62836">
        <ele>136.1</ele>
        <time>2015-04-25T10:47:28.000Z</time>
      </trkpt>
      <trkpt lat="48.72997" lon="1.62832">
        <ele>136</ele>
        <time>2015-04-25T10:47:36.000Z</time>
      </trkpt>
      <trkpt lat="48.73009" lon="1.6283">
        <ele>135.6</ele>
        <time>2015-04-25T10:47:41.000Z</time>
      </trkpt>
      <trkpt lat="48.73021" lon="1.62825">
        <ele>135.2</ele>
        <time>2015-04-25T10:47:49.000Z</time>
      </trkpt>
      <trkpt lat="48.73032" lon="1.62823">
        <ele>135</ele>
        <time>2015-04-25T10:47:56.000Z</time>
      </trkpt>
      <trkpt lat="48.73045" lon="1.62815">
        <ele>135</ele>
        <time>2015-04-25T10:48:05.000Z</time>
      </trkpt>
      <trkpt lat="48.73049" lon="1.62814">
        <ele>135</ele>
        <time>2015-04-25T10:48:08.000Z</time>
      </trkpt>
      <trkpt lat="48.73054" lon="1.62808">
        <ele>135</ele>
        <time>2015-04-25T10:48:14.000Z</time>
      </trkpt>
      <trkpt lat="48.73059" lon="1.62801">
        <ele>134.7</ele>
        <time>2015-04-25T10:48:19.000Z</time>
      </trkpt>
      <trkpt lat="48.73067" lon="1.62799">
        <ele>134.5</ele>
        <time>2015-04-25T10:48:24.000Z</time>
      </trkpt>
      <trkpt lat="48.7307" lon="1.628">
        <ele>134.4</ele>
        <time>2015-04-25T10:48:26.000Z</time>
      </trkpt>
      <trkpt lat="48.73077" lon="1.62798">
        <ele>134.2</ele>
        <time>2015-04-25T10:48:31.000Z</time>
      </trkpt>
      <trkpt lat="48.73088" lon="1.62795">
        <ele>133.9</ele>
        <time>2015-04-25T10:48:39.000Z</time>
      </trkpt>
      <trkpt lat="48.73092" lon="1.62792">
        <ele>133.9</ele>
        <time>2015-04-25T10:48:42.000Z</time>
      </trkpt>
      <trkpt lat="48.731" lon="1.62787">
        <ele>133.6</ele>
        <time>2015-04-25T10:48:48.000Z</time>
      </trkpt>
      <trkpt lat="48.73104" lon="1.62784">
        <ele>133.4</ele>
        <time>2015-04-25T10:48:51.000Z</time>
      </trkpt>
      <trkpt lat="48.73122" lon="1.6278">
        <ele>133</ele>
        <time>2015-04-25T10:49:01.000Z</time>
      </trkpt>
      <trkpt lat="48.73136" lon="1.6278">
        <ele>133</ele>
        <time>2015-04-25T10:49:09.000Z</time>
      </trkpt>
      <trkpt lat="48.73147" lon="1.62779">
        <ele>133</ele>
        <time>2015-04-25T10:49:17.000Z</time>
      </trkpt>
      <trkpt lat="48.73158" lon="1.62781">
        <ele>133</ele>
        <time>2015-04-25T10:49:24.000Z</time>
      </trkpt>
      <trkpt lat="48.73161" lon="1.62788">
        <ele>133</ele>
        <time>2015-04-25T10:49:28.000Z</time>
      </trkpt>
      <trkpt lat="48.73164" lon="1.62804">
        <ele>133</ele>
        <time>2015-04-25T10:49:36.000Z</time>
      </trkpt>
      <trkpt lat="48.73167" lon="1.62813">
        <ele>133</ele>
        <time>2015-04-25T10:49:40.000Z</time>
      </trkpt>
      <trkpt lat="48.73172" lon="1.62822">
        <ele>133</ele>
        <time>2015-04-25T10:49:44.000Z</time>
      </trkpt>
      <trkpt lat="48.73177" lon="1.62835">
        <ele>133</ele>
        <time>2015-04-25T10:49:50.000Z</time>
      </trkpt>
      <trkpt lat="48.73183" lon="1.62847">
        <ele>133</ele>
        <time>2015-04-25T10:49:55.000Z</time>
      </trkpt>
      <trkpt lat="48.73187" lon="1.62856">
        <ele>133</ele>
        <time>2015-04-25T10:50:00.000Z</time>
      </trkpt>
      <trkpt lat="48.7319" lon="1.62869">
        <ele>133.2</ele>
        <time>2015-04-25T10:50:06.000Z</time>
      </trkpt>
      <trkpt lat="48.7319" lon="1.62887">
        <ele>133.8</ele>
        <time>2015-04-25T10:50:13.000Z</time>
      </trkpt>
      <trkpt lat="48.73193" lon="1.62904">
        <ele>134</ele>
        <time>2015-04-25T10:50:18.000Z</time>
      </trkpt>
      <trkpt lat="48.73198" lon="1.62916">
        <ele>134</ele>
        <time>2015-04-25T10:50:23.000Z</time>
      </trkpt>
      <trkpt lat="48.73201" lon="1.62936">
        <ele>134.2</ele>
        <time>2015-04-25T10:50:31.000Z</time>
      </trkpt>
      <trkpt lat="48.73199" lon="1.62941">
        <ele>134.2</ele>
        <time>2015-04-25T10:50:33.000Z</time>
      </trkpt>
      <trkpt lat="48.73202" lon="1.62949">
        <ele>134.3</ele>
        <time>2015-04-25T10:50:38.000Z</time>
      </trkpt>
      <trkpt lat="48.73205" lon="1.62954">
        <ele>134.4</ele>
        <time>2015-04-25T10:50:44.000Z</time>
      </trkpt>
      <trkpt lat="48.73208" lon="1.62973">
        <ele>134.5</ele>
        <time>2015-04-25T10:50:51.000Z</time>
      </trkpt>
      <trkpt lat="48.73209" lon="1.62997">
        <ele>134.9</ele>
        <time>2015-04-25T10:50:58.000Z</time>
      </trkpt>
      <trkpt lat="48.73209" lon="1.63014">
        <ele>135</ele>
        <time>2015-04-25T10:51:05.000Z</time>
      </trkpt>
      <trkpt lat="48.73211" lon="1.63032">
        <ele>135.1</ele>
        <time>2015-04-25T10:51:13.000Z</time>
      </trkpt>
      <trkpt lat="48.73212" lon="1.63048">
        <ele>135.5</ele>
        <time>2015-04-25T10:51:20.000Z</time>
      </trkpt>
      <trkpt lat="48.73209" lon="1.63066">
        <ele>135.9</ele>
        <time>2015-04-25T10:51:28.000Z</time>
      </trkpt>
      <trkpt lat="48.73209" lon="1.63083">
        <ele>136.5</ele>
        <time>2015-04-25T10:51:35.000Z</time>
      </trkpt>
      <trkpt lat="48.73206" lon="1.63093">
        <ele>136.4</ele>
        <time>2015-04-25T10:51:42.000Z</time>
      </trkpt>
      <trkpt lat="48.73206" lon="1.63094">
        <ele>136.4</ele>
        <time>2015-04-25T10:51:45.000Z</time>
      </trkpt>
      <trkpt lat="48.73204" lon="1.63103">
        <ele>136.4</ele>
        <time>2015-04-25T10:51:52.000Z</time>
      </trkpt>
      <trkpt lat="48.73204" lon="1.63111">
        <ele>136.3</ele>
        <time>2015-04-25T10:51:57.000Z</time>
      </trkpt>
      <trkpt lat="48.73204" lon="1.63111">
        <ele>136.3</ele>
        <time>2015-04-25T10:51:59.000Z</time>
      </trkpt>
      <trkpt lat="48.73202" lon="1.63122">
        <ele>136.6</ele>
        <time>2015-04-25T10:52:17.000Z</time>
      </trkpt>
      <trkpt lat="48.73201" lon="1.63134">
        <ele>137</ele>
        <time>2015-04-25T10:52:20.000Z</time>
      </trkpt>
      <trkpt lat="48.73201" lon="1.63146">
        <ele>137.2</ele>
        <time>2015-04-25T10:52:26.000Z</time>
      </trkpt>
      <trkpt lat="48.732" lon="1.63155">
        <ele>137.2</ele>
        <time>2015-04-25T10:52:30.000Z</time>
      </trkpt>
      <trkpt lat="48.732" lon="1.63171">
        <ele>137.3</ele>
        <time>2015-04-25T10:52:37.000Z</time>
      </trkpt>
      <trkpt lat="48.73198" lon="1.63184">
        <ele>137.7</ele>
        <time>2015-04-25T10:52:42.000Z</time>
      </trkpt>
      <trkpt lat="48.73198" lon="1.63188">
        <ele>137.8</ele>
        <time>2015-04-25T10:52:44.000Z</time>
      </trkpt>
      <trkpt lat="48.73197" lon="1.63208">
        <ele>138</ele>
        <time>2015-04-25T10:52:52.000Z</time>
      </trkpt>
      <trkpt lat="48.73195" lon="1.63223">
        <ele>138</ele>
        <time>2015-04-25T10:52:59.000Z</time>
      </trkpt>
      <trkpt lat="48.73193" lon="1.63232">
        <ele>138</ele>
        <time>2015-04-25T10:53:04.000Z</time>
      </trkpt>
      <trkpt lat="48.73192" lon="1.63242">
        <ele>138</ele>
        <time>2015-04-25T10:53:09.000Z</time>
      </trkpt>
      <trkpt lat="48.73189" lon="1.63272">
        <ele>138</ele>
        <time>2015-04-25T10:53:21.000Z</time>
      </trkpt>
      <trkpt lat="48.73188" lon="1.63289">
        <ele>137.6</ele>
        <time>2015-04-25T10:53:29.000Z</time>
      </trkpt>
      <trkpt lat="48.73186" lon="1.63307">
        <ele>137</ele>
        <time>2015-04-25T10:53:37.000Z</time>
      </trkpt>
      <trkpt lat="48.73185" lon="1.63324">
        <ele>137</ele>
        <time>2015-04-25T10:53:43.000Z</time>
      </trkpt>
      <trkpt lat="48.73183" lon="1.63338">
        <ele>136.9</ele>
        <time>2015-04-25T10:53:47.000Z</time>
      </trkpt>
      <trkpt lat="48.73183" lon="1.63349">
        <ele>136.8</ele>
        <time>2015-04-25T10:53:52.000Z</time>
      </trkpt>
      <trkpt lat="48.73183" lon="1.6337">
        <ele>136.4</ele>
        <time>2015-04-25T10:54:01.000Z</time>
      </trkpt>
      <trkpt lat="48.73184" lon="1.63375">
        <ele>136.3</ele>
        <time>2015-04-25T10:54:06.000Z</time>
      </trkpt>
      <trkpt lat="48.73185" lon="1.63383">
        <ele>136.1</ele>
        <time>2015-04-25T10:54:14.000Z</time>
      </trkpt>
      <trkpt lat="48.73188" lon="1.63397">
        <ele>135.9</ele>
        <time>2015-04-25T10:54:17.000Z</time>
      </trkpt>
      <trkpt lat="48.73191" lon="1.63413">
        <ele>135.9</ele>
        <time>2015-04-25T10:54:23.000Z</time>
      </trkpt>
      <trkpt lat="48.73192" lon="1.63415">
        <ele>135.9</ele>
        <time>2015-04-25T10:54:24.000Z</time>
      </trkpt>
      <trkpt lat="48.73194" lon="1.63434">
        <ele>136</ele>
        <time>2015-04-25T10:54:32.000Z</time>
      </trkpt>
      <trkpt lat="48.73195" lon="1.63453">
        <ele>136</ele>
        <time>2015-04-25T10:54:40.000Z</time>
      </trkpt>
      <trkpt lat="48.73198" lon="1.63469">
        <ele>136.1</ele>
        <time>2015-04-25T10:54:47.000Z</time>
      </trkpt>
      <trkpt lat="48.732" lon="1.63477">
        <ele>135.9</ele>
        <time>2015-04-25T10:54:51.000Z</time>
      </trkpt>
      <trkpt lat="48.73205" lon="1.63496">
        <ele>135</ele>
        <time>2015-04-25T10:54:57.000Z</time>
      </trkpt>
      <trkpt lat="48.73211" lon="1.63513">
        <ele>135.2</ele>
        <time>2015-04-25T10:55:05.000Z</time>
      </trkpt>
      <trkpt lat="48.73213" lon="1.63528">
        <ele>135.6</ele>
        <time>2015-04-25T10:55:12.000Z</time>
      </trkpt>
      <trkpt lat="48.73214" lon="1.63539">
        <ele>135.6</ele>
        <time>2015-04-25T10:55:17.000Z</time>
      </trkpt>
      <trkpt lat="48.73215" lon="1.63552">
        <ele>135.3</ele>
        <time>2015-04-25T10:55:23.000Z</time>
      </trkpt>
      <trkpt lat="48.73218" lon="1.63563">
        <ele>135.5</ele>
        <time>2015-04-25T10:55:28.000Z</time>
      </trkpt>
      <trkpt lat="48.73221" lon="1.63571">
        <ele>135.9</ele>
        <time>2015-04-25T10:55:33.000Z</time>
      </trkpt>
      <trkpt lat="48.73223" lon="1.63578">
        <ele>136</ele>
        <time>2015-04-25T10:55:37.000Z</time>
      </trkpt>
      <trkpt lat="48.73228" lon="1.63594">
        <ele>135.9</ele>
        <time>2015-04-25T10:55:46.000Z</time>
      </trkpt>
      <trkpt lat="48.73229" lon="1.63596">
        <ele>135.9</ele>
        <time>2015-04-25T10:55:47.000Z</time>
      </trkpt>
      <trkpt lat="48.73232" lon="1.63604">
        <ele>135.9</ele>
        <time>2015-04-25T10:55:51.000Z</time>
      </trkpt>
      <trkpt lat="48.73237" lon="1.63615">
        <ele>136</ele>
        <time>2015-04-25T10:55:57.000Z</time>
      </trkpt>
      <trkpt lat="48.73243" lon="1.63627">
        <ele>136.1</ele>
        <time>2015-04-25T10:56:02.000Z</time>
      </trkpt>
      <trkpt lat="48.73255" lon="1.63644">
        <ele>136</ele>
        <time>2015-04-25T10:56:09.000Z</time>
      </trkpt>
      <trkpt lat="48.73261" lon="1.63653">
        <ele>135.9</ele>
        <time>2015-04-25T10:56:14.000Z</time>
      </trkpt>
      <trkpt lat="48.73265" lon="1.6366">
        <ele>136</ele>
        <time>2015-04-25T10:56:18.000Z</time>
      </trkpt>
      <trkpt lat="48.7327" lon="1.63673">
        <ele>135.8</ele>
        <time>2015-04-25T10:56:25.000Z</time>
      </trkpt>
      <trkpt lat="48.73275" lon="1.63685">
        <ele>135.5</ele>
        <time>2015-04-25T10:56:31.000Z</time>
      </trkpt>
      <trkpt lat="48.73281" lon="1.63699">
        <ele>135.2</ele>
        <time>2015-04-25T10:56:38.000Z</time>
      </trkpt>
      <trkpt lat="48.73284" lon="1.63711">
        <ele>134.7</ele>
        <time>2015-04-25T10:56:45.000Z</time>
      </trkpt>
      <trkpt lat="48.7329" lon="1.63726">
        <ele>134.7</ele>
        <time>2015-04-25T10:56:53.000Z</time>
      </trkpt>
      <trkpt lat="48.73291" lon="1.63728">
        <ele>134.8</ele>
        <time>2015-04-25T10:56:54.000Z</time>
      </trkpt>
      <trkpt lat="48.73295" lon="1.63735">
        <ele>135.1</ele>
        <time>2015-04-25T10:56:58.000Z</time>
      </trkpt>
      <trkpt lat="48.73302" lon="1.63749">
        <ele>135.6</ele>
        <time>2015-04-25T10:57:05.000Z</time>
      </trkpt>
      <trkpt lat="48.73307" lon="1.63759">
        <ele>134.9</ele>
        <time>2015-04-25T10:57:10.000Z</time>
      </trkpt>
      <trkpt lat="48.73312" lon="1.6377">
        <ele>133.4</ele>
        <time>2015-04-25T10:57:16.000Z</time>
      </trkpt>
      <trkpt lat="48.73313" lon="1.63779">
        <ele>132.3</ele>
        <time>2015-04-25T10:57:20.000Z</time>
      </trkpt>
      <trkpt lat="48.73318" lon="1.63788">
        <ele>132.6</ele>
        <time>2015-04-25T10:57:27.000Z</time>
      </trkpt>
      <trkpt lat="48.73321" lon="1.63791">
        <ele>132.8</ele>
        <time>2015-04-25T10:57:32.000Z</time>
      </trkpt>
      <trkpt lat="48.7333" lon="1.6379">
        <ele>133.3</ele>
        <time>2015-04-25T10:57:39.000Z</time>
      </trkpt>
      <trkpt lat="48.73342" lon="1.63788">
        <ele>133.5</ele>
        <time>2015-04-25T10:57:47.000Z</time>
      </trkpt>
      <trkpt lat="48.73353" lon="1.63786">
        <ele>133.5</ele>
        <time>2015-04-25T10:57:55.000Z</time>
      </trkpt>
      <trkpt lat="48.73356" lon="1.63785">
        <ele>133.5</ele>
        <time>2015-04-25T10:57:57.000Z</time>
      </trkpt>
      <trkpt lat="48.73369" lon="1.63784">
        <ele>133.9</ele>
        <time>2015-04-25T10:58:07.000Z</time>
      </trkpt>
      <trkpt lat="48.73381" lon="1.63784">
        <ele>134.6</ele>
        <time>2015-04-25T10:58:15.000Z</time>
      </trkpt>
      <trkpt lat="48.73388" lon="1.63784">
        <ele>135</ele>
        <time>2015-04-25T10:58:20.000Z</time>
      </trkpt>
      <trkpt lat="48.73398" lon="1.63783">
        <ele>135.7</ele>
        <time>2015-04-25T10:58:26.000Z</time>
      </trkpt>
      <trkpt lat="48.73409" lon="1.63783">
        <ele>136.4</ele>
        <time>2015-04-25T10:58:31.000Z</time>
      </trkpt>
      <trkpt lat="48.73421" lon="1.63779">
        <ele>137.4</ele>
        <time>2015-04-25T10:58:41.000Z</time>
      </trkpt>
      <trkpt lat="48.73428" lon="1.63775">
        <ele>138.4</ele>
        <time>2015-04-25T10:58:47.000Z</time>
      </trkpt>
      <trkpt lat="48.73433" lon="1.63769">
        <ele>139.2</ele>
        <time>2015-04-25T10:58:54.000Z</time>
      </trkpt>
      <trkpt lat="48.73439" lon="1.63763">
        <ele>139.7</ele>
        <time>2015-04-25T10:59:00.000Z</time>
      </trkpt>
      <trkpt lat="48.73439" lon="1.63762">
        <ele>139.8</ele>
        <time>2015-04-25T10:59:01.000Z</time>
      </trkpt>
      <trkpt lat="48.73443" lon="1.63759">
        <ele>140</ele>
        <time>2015-04-25T10:59:05.000Z</time>
      </trkpt>
      <trkpt lat="48.73453" lon="1.63746">
        <ele>140.7</ele>
        <time>2015-04-25T10:59:12.000Z</time>
      </trkpt>
      <trkpt lat="48.73461" lon="1.63741">
        <ele>141.2</ele>
        <time>2015-04-25T10:59:17.000Z</time>
      </trkpt>
      <trkpt lat="48.73468" lon="1.63738">
        <ele>141.4</ele>
        <time>2015-04-25T10:59:23.000Z</time>
      </trkpt>
      <trkpt lat="48.73469" lon="1.63737">
        <ele>141.5</ele>
        <time>2015-04-25T10:59:27.000Z</time>
      </trkpt>
      <trkpt lat="48.73473" lon="1.63733">
        <ele>141.6</ele>
        <time>2015-04-25T10:59:32.000Z</time>
      </trkpt>
      <trkpt lat="48.73475" lon="1.63732">
        <ele>141.8</ele>
        <time>2015-04-25T10:59:33.000Z</time>
      </trkpt>
      <trkpt lat="48.73489" lon="1.63726">
        <ele>142.5</ele>
        <time>2015-04-25T10:59:41.000Z</time>
      </trkpt>
      <trkpt lat="48.73499" lon="1.63723">
        <ele>143</ele>
        <time>2015-04-25T10:59:48.000Z</time>
      </trkpt>
      <trkpt lat="48.73507" lon="1.63718">
        <ele>143.3</ele>
        <time>2015-04-25T10:59:55.000Z</time>
      </trkpt>
      <trkpt lat="48.73517" lon="1.63714">
        <ele>143.4</ele>
        <time>2015-04-25T11:00:02.000Z</time>
      </trkpt>
      <trkpt lat="48.73528" lon="1.63711">
        <ele>143.4</ele>
        <time>2015-04-25T11:00:09.000Z</time>
      </trkpt>
      <trkpt lat="48.73538" lon="1.63707">
        <ele>143.3</ele>
        <time>2015-04-25T11:00:17.000Z</time>
      </trkpt>
      <trkpt lat="48.73548" lon="1.63704">
        <ele>143.2</ele>
        <time>2015-04-25T11:00:24.000Z</time>
      </trkpt>
      <trkpt lat="48.73563" lon="1.63703">
        <ele>143</ele>
        <time>2015-04-25T11:00:34.000Z</time>
      </trkpt>
      <trkpt lat="48.73577" lon="1.63702">
        <ele>143</ele>
        <time>2015-04-25T11:00:43.000Z</time>
      </trkpt>
      <trkpt lat="48.73593" lon="1.63702">
        <ele>142.7</ele>
        <time>2015-04-25T11:00:53.000Z</time>
      </trkpt>
      <trkpt lat="48.73607" lon="1.63702">
        <ele>142.2</ele>
        <time>2015-04-25T11:01:02.000Z</time>
      </trkpt>
      <trkpt lat="48.73623" lon="1.63702">
        <ele>142</ele>
        <time>2015-04-25T11:01:13.000Z</time>
      </trkpt>
      <trkpt lat="48.73626" lon="1.63703">
        <ele>142</ele>
        <time>2015-04-25T11:01:18.000Z</time>
      </trkpt>
      <trkpt lat="48.73634" lon="1.63703">
        <ele>142</ele>
        <time>2015-04-25T11:01:26.000Z</time>
      </trkpt>
      <trkpt lat="48.73648" lon="1.63704">
        <ele>141.7</ele>
        <time>2015-04-25T11:01:35.000Z</time>
      </trkpt>
      <trkpt lat="48.73664" lon="1.63706">
        <ele>141.1</ele>
        <time>2015-04-25T11:01:46.000Z</time>
      </trkpt>
      <trkpt lat="48.73669" lon="1.63707">
        <ele>140.9</ele>
        <time>2015-04-25T11:01:49.000Z</time>
      </trkpt>
      <trkpt lat="48.73675" lon="1.63708">
        <ele>140.7</ele>
        <time>2015-04-25T11:01:54.000Z</time>
      </trkpt>
      <trkpt lat="48.73684" lon="1.63708">
        <ele>140.4</ele>
        <time>2015-04-25T11:02:00.000Z</time>
      </trkpt>
      <trkpt lat="48.737" lon="1.63709">
        <ele>139.9</ele>
        <time>2015-04-25T11:02:11.000Z</time>
      </trkpt>
      <trkpt lat="48.73714" lon="1.63707">
        <ele>139.6</ele>
        <time>2015-04-25T11:02:21.000Z</time>
      </trkpt>
      <trkpt lat="48.73724" lon="1.63701">
        <ele>139.2</ele>
        <time>2015-04-25T11:02:29.000Z</time>
      </trkpt>
      <trkpt lat="48.73736" lon="1.63689">
        <ele>138.9</ele>
        <time>2015-04-25T11:02:40.000Z</time>
      </trkpt>
      <trkpt lat="48.73747" lon="1.63676">
        <ele>138.4</ele>
        <time>2015-04-25T11:02:50.000Z</time>
      </trkpt>
      <trkpt lat="48.73759" lon="1.63663">
        <ele>138.2</ele>
        <time>2015-04-25T11:03:00.000Z</time>
      </trkpt>
      <trkpt lat="48.73766" lon="1.63653">
        <ele>138</ele>
        <time>2015-04-25T11:03:07.000Z</time>
      </trkpt>
      <trkpt lat="48.73775" lon="1.63642">
        <ele>137.3</ele>
        <time>2015-04-25T11:03:15.000Z</time>
      </trkpt>
      <trkpt lat="48.73782" lon="1.63637">
        <ele>137</ele>
        <time>2015-04-25T11:03:20.000Z</time>
      </trkpt>
      <trkpt lat="48.73791" lon="1.63629">
        <ele>136.8</ele>
        <time>2015-04-25T11:03:28.000Z</time>
      </trkpt>
      <trkpt lat="48.73802" lon="1.63621">
        <ele>136.4</ele>
        <time>2015-04-25T11:03:36.000Z</time>
      </trkpt>
      <trkpt lat="48.73813" lon="1.63611">
        <ele>136</ele>
        <time>2015-04-25T11:03:45.000Z</time>
      </trkpt>
      <trkpt lat="48.73817" lon="1.63606">
        <ele>135.8</ele>
        <time>2015-04-25T11:03:49.000Z</time>
      </trkpt>
      <trkpt lat="48.73827" lon="1.63599">
        <ele>135.3</ele>
        <time>2015-04-25T11:03:57.000Z</time>
      </trkpt>
      <trkpt lat="48.7384" lon="1.63589">
        <ele>134.2</ele>
        <time>2015-04-25T11:04:07.000Z</time>
      </trkpt>
      <trkpt lat="48.73851" lon="1.63583">
        <ele>133.4</ele>
        <time>2015-04-25T11:04:15.000Z</time>
      </trkpt>
      <trkpt lat="48.73857" lon="1.63576">
        <ele>133.2</ele>
        <time>2015-04-25T11:04:20.000Z</time>
      </trkpt>
      <trkpt lat="48.73858" lon="1.63575">
        <ele>133.2</ele>
        <time>2015-04-25T11:04:21.000Z</time>
      </trkpt>
      <trkpt lat="48.73863" lon="1.63575">
        <ele>133</ele>
        <time>2015-04-25T11:04:27.000Z</time>
      </trkpt>
      <trkpt lat="48.73875" lon="1.63571">
        <ele>133</ele>
        <time>2015-04-25T11:04:35.000Z</time>
      </trkpt>
      <trkpt lat="48.73883" lon="1.63566">
        <ele>132.8</ele>
        <time>2015-04-25T11:04:41.000Z</time>
      </trkpt>
      <trkpt lat="48.73892" lon="1.63556">
        <ele>131.9</ele>
        <time>2015-04-25T11:04:50.000Z</time>
      </trkpt>
      <trkpt lat="48.73895" lon="1.63551">
        <ele>131.9</ele>
        <time>2015-04-25T11:04:55.000Z</time>
      </trkpt>
      <trkpt lat="48.73899" lon="1.63546">
        <ele>131.7</ele>
        <time>2015-04-25T11:04:59.000Z</time>
      </trkpt>
      <trkpt lat="48.73908" lon="1.63542">
        <ele>131.1</ele>
        <time>2015-04-25T11:05:06.000Z</time>
      </trkpt>
      <trkpt lat="48.73917" lon="1.63537">
        <ele>130.3</ele>
        <time>2015-04-25T11:05:13.000Z</time>
      </trkpt>
      <trkpt lat="48.7392" lon="1.63537">
        <ele>130.3</ele>
        <time>2015-04-25T11:05:18.000Z</time>
      </trkpt>
      <trkpt lat="48.73923" lon="1.63534">
        <ele>130.2</ele>
        <time>2015-04-25T11:05:34.000Z</time>
      </trkpt>
      <trkpt lat="48.73925" lon="1.63528">
        <ele>130</ele>
        <time>2015-04-25T11:05:36.000Z</time>
      </trkpt>
      <trkpt lat="48.73926" lon="1.63524">
        <ele>130.1</ele>
        <time>2015-04-25T11:05:38.000Z</time>
      </trkpt>
      <trkpt lat="48.73934" lon="1.63509">
        <ele>130.3</ele>
        <time>2015-04-25T11:05:47.000Z</time>
      </trkpt>
      <trkpt lat="48.7394" lon="1.63498">
        <ele>130.1</ele>
        <time>2015-04-25T11:05:55.000Z</time>
      </trkpt>
      <trkpt lat="48.73945" lon="1.6349">
        <ele>129.6</ele>
        <time>2015-04-25T11:06:01.000Z</time>
      </trkpt>
      <trkpt lat="48.73948" lon="1.63485">
        <ele>129.4</ele>
        <time>2015-04-25T11:06:05.000Z</time>
      </trkpt>
      <trkpt lat="48.73948" lon="1.63482">
        <ele>129.3</ele>
        <time>2015-04-25T11:06:10.000Z</time>
      </trkpt>
      <trkpt lat="48.73955" lon="1.6347">
        <ele>129.1</ele>
        <time>2015-04-25T11:06:57.000Z</time>
      </trkpt>
      <trkpt lat="48.73959" lon="1.63466">
        <ele>129.1</ele>
        <time>2015-04-25T11:07:00.000Z</time>
      </trkpt>
      <trkpt lat="48.73969" lon="1.63453">
        <ele>129.1</ele>
        <time>2015-04-25T11:07:11.000Z</time>
      </trkpt>
      <trkpt lat="48.73976" lon="1.63444">
        <ele>128.9</ele>
        <time>2015-04-25T11:07:18.000Z</time>
      </trkpt>
      <trkpt lat="48.73984" lon="1.63436">
        <ele>128.7</ele>
        <time>2015-04-25T11:07:25.000Z</time>
      </trkpt>
      <trkpt lat="48.73996" lon="1.63422">
        <ele>128.8</ele>
        <time>2015-04-25T11:07:35.000Z</time>
      </trkpt>
      <trkpt lat="48.74006" lon="1.6341">
        <ele>128.4</ele>
        <time>2015-04-25T11:07:43.000Z</time>
      </trkpt>
      <trkpt lat="48.74015" lon="1.63399">
        <ele>128</ele>
        <time>2015-04-25T11:07:51.000Z</time>
      </trkpt>
      <trkpt lat="48.74025" lon="1.63386">
        <ele>128</ele>
        <time>2015-04-25T11:08:00.000Z</time>
      </trkpt>
      <trkpt lat="48.74035" lon="1.63377">
        <ele>127.7</ele>
        <time>2015-04-25T11:08:08.000Z</time>
      </trkpt>
      <trkpt lat="48.74042" lon="1.63368">
        <ele>127.8</ele>
        <time>2015-04-25T11:08:15.000Z</time>
      </trkpt>
      <trkpt lat="48.74048" lon="1.63361">
        <ele>128</ele>
        <time>2015-04-25T11:08:20.000Z</time>
      </trkpt>
      <trkpt lat="48.74056" lon="1.63353">
        <ele>128</ele>
        <time>2015-04-25T11:08:27.000Z</time>
      </trkpt>
      <trkpt lat="48.74063" lon="1.63345">
        <ele>127.6</ele>
        <time>2015-04-25T11:08:33.000Z</time>
      </trkpt>
      <trkpt lat="48.74066" lon="1.63342">
        <ele>127.5</ele>
        <time>2015-04-25T11:08:36.000Z</time>
      </trkpt>
      <trkpt lat="48.74074" lon="1.63334">
        <ele>127.3</ele>
        <time>2015-04-25T11:08:43.000Z</time>
      </trkpt>
      <trkpt lat="48.74085" lon="1.63324">
        <ele>127.3</ele>
        <time>2015-04-25T11:08:51.000Z</time>
      </trkpt>
      <trkpt lat="48.74089" lon="1.6332">
        <ele>127.3</ele>
        <time>2015-04-25T11:08:55.000Z</time>
      </trkpt>
      <trkpt lat="48.74094" lon="1.63314">
        <ele>127.3</ele>
        <time>2015-04-25T11:09:00.000Z</time>
      </trkpt>
      <trkpt lat="48.74103" lon="1.63308">
        <ele>127.2</ele>
        <time>2015-04-25T11:09:06.000Z</time>
      </trkpt>
      <trkpt lat="48.74111" lon="1.63305">
        <ele>127</ele>
        <time>2015-04-25T11:09:13.000Z</time>
      </trkpt>
      <trkpt lat="48.74115" lon="1.63304">
        <ele>126.7</ele>
        <time>2015-04-25T11:09:17.000Z</time>
      </trkpt>
      <trkpt lat="48.74129" lon="1.63299">
        <ele>126</ele>
        <time>2015-04-25T11:09:26.000Z</time>
      </trkpt>
      <trkpt lat="48.74137" lon="1.63293">
        <ele>126</ele>
        <time>2015-04-25T11:09:34.000Z</time>
      </trkpt>
      <trkpt lat="48.74143" lon="1.63289">
        <ele>126.1</ele>
        <time>2015-04-25T11:09:40.000Z</time>
      </trkpt>
      <trkpt lat="48.7415" lon="1.63284">
        <ele>126.2</ele>
        <time>2015-04-25T11:09:47.000Z</time>
      </trkpt>
      <trkpt lat="48.74159" lon="1.63278">
        <ele>126.3</ele>
        <time>2015-04-25T11:09:54.000Z</time>
      </trkpt>
      <trkpt lat="48.74171" lon="1.63272">
        <ele>126.2</ele>
        <time>2015-04-25T11:10:00.000Z</time>
      </trkpt>
      <trkpt lat="48.74185" lon="1.63264">
        <ele>126.5</ele>
        <time>2015-04-25T11:10:09.000Z</time>
      </trkpt>
      <trkpt lat="48.74193" lon="1.63255">
        <ele>126.8</ele>
        <time>2015-04-25T11:10:15.000Z</time>
      </trkpt>
      <trkpt lat="48.742" lon="1.63249">
        <ele>126.8</ele>
        <time>2015-04-25T11:10:20.000Z</time>
      </trkpt>
      <trkpt lat="48.7421" lon="1.6324">
        <ele>126.6</ele>
        <time>2015-04-25T11:10:27.000Z</time>
      </trkpt>
      <trkpt lat="48.7422" lon="1.63232">
        <ele>126.7</ele>
        <time>2015-04-25T11:10:34.000Z</time>
      </trkpt>
      <trkpt lat="48.74232" lon="1.63223">
        <ele>127</ele>
        <time>2015-04-25T11:10:42.000Z</time>
      </trkpt>
      <trkpt lat="48.74245" lon="1.63213">
        <ele>127</ele>
        <time>2015-04-25T11:10:52.000Z</time>
      </trkpt>
      <trkpt lat="48.74247" lon="1.63211">
        <ele>127</ele>
        <time>2015-04-25T11:10:54.000Z</time>
      </trkpt>
      <trkpt lat="48.74253" lon="1.63208">
        <ele>127.1</ele>
        <time>2015-04-25T11:10:59.000Z</time>
      </trkpt>
      <trkpt lat="48.74261" lon="1.63202">
        <ele>127.3</ele>
        <time>2015-04-25T11:11:06.000Z</time>
      </trkpt>
      <trkpt lat="48.74272" lon="1.63195">
        <ele>127.8</ele>
        <time>2015-04-25T11:11:15.000Z</time>
      </trkpt>
      <trkpt lat="48.7428" lon="1.63192">
        <ele>127.9</ele>
        <time>2015-04-25T11:11:21.000Z</time>
      </trkpt>
      <trkpt lat="48.74293" lon="1.63185">
        <ele>127.6</ele>
        <time>2015-04-25T11:11:31.000Z</time>
      </trkpt>
      <trkpt lat="48.74307" lon="1.6318">
        <ele>127.5</ele>
        <time>2015-04-25T11:11:41.000Z</time>
      </trkpt>
      <trkpt lat="48.74315" lon="1.63177">
        <ele>127.6</ele>
        <time>2015-04-25T11:11:47.000Z</time>
      </trkpt>
      <trkpt lat="48.74317" lon="1.63178">
        <ele>127.6</ele>
        <time>2015-04-25T11:11:49.000Z</time>
      </trkpt>
      <trkpt lat="48.74326" lon="1.63176">
        <ele>127.7</ele>
        <time>2015-04-25T11:11:55.000Z</time>
      </trkpt>
      <trkpt lat="48.74327" lon="1.63175">
        <ele>127.7</ele>
        <time>2015-04-25T11:11:56.000Z</time>
      </trkpt>
      <trkpt lat="48.74339" lon="1.6317">
        <ele>127.7</ele>
        <time>2015-04-25T11:12:04.000Z</time>
      </trkpt>
      <trkpt lat="48.74347" lon="1.63166">
        <ele>127.5</ele>
        <time>2015-04-25T11:12:10.000Z</time>
      </trkpt>
      <trkpt lat="48.74348" lon="1.63165">
        <ele>127.5</ele>
        <time>2015-04-25T11:12:11.000Z</time>
      </trkpt>
      <trkpt lat="48.74358" lon="1.6316">
        <ele>127.3</ele>
        <time>2015-04-25T11:12:19.000Z</time>
      </trkpt>
      <trkpt lat="48.74369" lon="1.63153">
        <ele>127.3</ele>
        <time>2015-04-25T11:12:27.000Z</time>
      </trkpt>
      <trkpt lat="48.74383" lon="1.63146">
        <ele>127.2</ele>
        <time>2015-04-25T11:12:36.000Z</time>
      </trkpt>
      <trkpt lat="48.74393" lon="1.63141">
        <ele>127</ele>
        <time>2015-04-25T11:12:44.000Z</time>
      </trkpt>
      <trkpt lat="48.74405" lon="1.63134">
        <ele>127.2</ele>
        <time>2015-04-25T11:12:52.000Z</time>
      </trkpt>
      <trkpt lat="48.74412" lon="1.63129">
        <ele>127.4</ele>
        <time>2015-04-25T11:12:57.000Z</time>
      </trkpt>
      <trkpt lat="48.74425" lon="1.63122">
        <ele>127.4</ele>
        <time>2015-04-25T11:13:05.000Z</time>
      </trkpt>
      <trkpt lat="48.74434" lon="1.63115">
        <ele>127.3</ele>
        <time>2015-04-25T11:13:11.000Z</time>
      </trkpt>
      <trkpt lat="48.74446" lon="1.63108">
        <ele>127</ele>
        <time>2015-04-25T11:13:21.000Z</time>
      </trkpt>
      <trkpt lat="48.74457" lon="1.631">
        <ele>127</ele>
        <time>2015-04-25T11:13:30.000Z</time>
      </trkpt>
      <trkpt lat="48.74464" lon="1.63095">
        <ele>127</ele>
        <time>2015-04-25T11:13:35.000Z</time>
      </trkpt>
      <trkpt lat="48.74466" lon="1.6309">
        <ele>127</ele>
        <time>2015-04-25T11:13:40.000Z</time>
      </trkpt>
      <trkpt lat="48.74468" lon="1.63088">
        <ele>127</ele>
        <time>2015-04-25T11:13:42.000Z</time>
      </trkpt>
      <trkpt lat="48.74479" lon="1.6308">
        <ele>127.2</ele>
        <time>2015-04-25T11:13:51.000Z</time>
      </trkpt>
      <trkpt lat="48.74489" lon="1.63071">
        <ele>127.6</ele>
        <time>2015-04-25T11:13:59.000Z</time>
      </trkpt>
      <trkpt lat="48.74495" lon="1.63066">
        <ele>127.8</ele>
        <time>2015-04-25T11:14:04.000Z</time>
      </trkpt>
      <trkpt lat="48.74502" lon="1.63059">
        <ele>128</ele>
        <time>2015-04-25T11:14:10.000Z</time>
      </trkpt>
      <trkpt lat="48.74511" lon="1.6305">
        <ele>128</ele>
        <time>2015-04-25T11:14:18.000Z</time>
      </trkpt>
      <trkpt lat="48.74522" lon="1.63039">
        <ele>128</ele>
        <time>2015-04-25T11:14:29.000Z</time>
      </trkpt>
      <trkpt lat="48.74528" lon="1.63033">
        <ele>128</ele>
        <time>2015-04-25T11:14:34.000Z</time>
      </trkpt>
      <trkpt lat="48.74534" lon="1.63026">
        <ele>128</ele>
        <time>2015-04-25T11:14:39.000Z</time>
      </trkpt>
      <trkpt lat="48.74543" lon="1.63015">
        <ele>128</ele>
        <time>2015-04-25T11:14:44.000Z</time>
      </trkpt>
      <trkpt lat="48.7455" lon="1.63005">
        <ele>128</ele>
        <time>2015-04-25T11:14:50.000Z</time>
      </trkpt>
      <trkpt lat="48.74561" lon="1.62993">
        <ele>128.2</ele>
        <time>2015-04-25T11:14:59.000Z</time>
      </trkpt>
      <trkpt lat="48.74568" lon="1.62987">
        <ele>128.4</ele>
        <time>2015-04-25T11:15:05.000Z</time>
      </trkpt>
      <trkpt lat="48.7457" lon="1.62986">
        <ele>128.5</ele>
        <time>2015-04-25T11:15:07.000Z</time>
      </trkpt>
      <trkpt lat="48.74583" lon="1.62975">
        <ele>129</ele>
        <time>2015-04-25T11:15:19.000Z</time>
      </trkpt>
      <trkpt lat="48.74592" lon="1.62967">
        <ele>129.3</ele>
        <time>2015-04-25T11:15:26.000Z</time>
      </trkpt>
      <trkpt lat="48.746" lon="1.62962">
        <ele>129.6</ele>
        <time>2015-04-25T11:15:33.000Z</time>
      </trkpt>
      <trkpt lat="48.74605" lon="1.62956">
        <ele>129.8</ele>
        <time>2015-04-25T11:15:38.000Z</time>
      </trkpt>
      <trkpt lat="48.7461" lon="1.62952">
        <ele>130</ele>
        <time>2015-04-25T11:15:45.000Z</time>
      </trkpt>
      <trkpt lat="48.7461" lon="1.62952">
        <ele>130</ele>
        <time>2015-04-25T11:15:46.000Z</time>
      </trkpt>
      <trkpt lat="48.74615" lon="1.62944">
        <ele>130</ele>
        <time>2015-04-25T11:16:24.000Z</time>
      </trkpt>
      <trkpt lat="48.74625" lon="1.62932">
        <ele>130.2</ele>
        <time>2015-04-25T11:16:32.000Z</time>
      </trkpt>
      <trkpt lat="48.74635" lon="1.62919">
        <ele>130.8</ele>
        <time>2015-04-25T11:16:41.000Z</time>
      </trkpt>
      <trkpt lat="48.74641" lon="1.62914">
        <ele>131.1</ele>
        <time>2015-04-25T11:16:46.000Z</time>
      </trkpt>
      <trkpt lat="48.74646" lon="1.62908">
        <ele>131.2</ele>
        <time>2015-04-25T11:16:52.000Z</time>
      </trkpt>
      <trkpt lat="48.74647" lon="1.62907">
        <ele>131.3</ele>
        <time>2015-04-25T11:16:53.000Z</time>
      </trkpt>
      <trkpt lat="48.74655" lon="1.62898">
        <ele>131.6</ele>
        <time>2015-04-25T11:17:01.000Z</time>
      </trkpt>
      <trkpt lat="48.74663" lon="1.62888">
        <ele>131.9</ele>
        <time>2015-04-25T11:17:09.000Z</time>
      </trkpt>
      <trkpt lat="48.74667" lon="1.62883">
        <ele>131.8</ele>
        <time>2015-04-25T11:17:13.000Z</time>
      </trkpt>
      <trkpt lat="48.74673" lon="1.62872">
        <ele>131.6</ele>
        <time>2015-04-25T11:17:20.000Z</time>
      </trkpt>
      <trkpt lat="48.74684" lon="1.62857">
        <ele>131.6</ele>
        <time>2015-04-25T11:17:31.000Z</time>
      </trkpt>
      <trkpt lat="48.74691" lon="1.62848">
        <ele>131.9</ele>
        <time>2015-04-25T11:17:38.000Z</time>
      </trkpt>
      <trkpt lat="48.74691" lon="1.62848">
        <ele>131.9</ele>
        <time>2015-04-25T11:17:40.000Z</time>
      </trkpt>
      <trkpt lat="48.74685" lon="1.62855">
        <ele>131.7</ele>
        <time>2015-04-25T11:18:08.000Z</time>
      </trkpt>
      <trkpt lat="48.74671" lon="1.62872">
        <ele>131.5</ele>
        <time>2015-04-25T11:18:19.000Z</time>
      </trkpt>
      <trkpt lat="48.74659" lon="1.62888">
        <ele>131.7</ele>
        <time>2015-04-25T11:18:29.000Z</time>
      </trkpt>
      <trkpt lat="48.74651" lon="1.62897">
        <ele>131.4</ele>
        <time>2015-04-25T11:18:35.000Z</time>
      </trkpt>
      <trkpt lat="48.74643" lon="1.62908">
        <ele>131.2</ele>
        <time>2015-04-25T11:18:41.000Z</time>
      </trkpt>
      <trkpt lat="48.74635" lon="1.62918">
        <ele>130.8</ele>
        <time>2015-04-25T11:18:47.000Z</time>
      </trkpt>
      <trkpt lat="48.74627" lon="1.62929">
        <ele>130.3</ele>
        <time>2015-04-25T11:18:54.000Z</time>
      </trkpt>
      <trkpt lat="48.74627" lon="1.6293">
        <ele>130.3</ele>
        <time>2015-04-25T11:18:55.000Z</time>
      </trkpt>
      <trkpt lat="48.74616" lon="1.62943">
        <ele>130</ele>
        <time>2015-04-25T11:19:04.000Z</time>
      </trkpt>
      <trkpt lat="48.7461" lon="1.62956">
        <ele>130</ele>
        <time>2015-04-25T11:19:11.000Z</time>
      </trkpt>
      <trkpt lat="48.74608" lon="1.62971">
        <ele>129.9</ele>
        <time>2015-04-25T11:19:18.000Z</time>
      </trkpt>
      <trkpt lat="48.74608" lon="1.62983">
        <ele>129.9</ele>
        <time>2015-04-25T11:19:24.000Z</time>
      </trkpt>
      <trkpt lat="48.74611" lon="1.62997">
        <ele>130</ele>
        <time>2015-04-25T11:19:31.000Z</time>
      </trkpt>
      <trkpt lat="48.74616" lon="1.63009">
        <ele>130.2</ele>
        <time>2015-04-25T11:19:37.000Z</time>
      </trkpt>
      <trkpt lat="48.7462" lon="1.6303">
        <ele>130.7</ele>
        <time>2015-04-25T11:19:47.000Z</time>
      </trkpt>
      <trkpt lat="48.74622" lon="1.63041">
        <ele>131.1</ele>
        <time>2015-04-25T11:19:52.000Z</time>
      </trkpt>
      <trkpt lat="48.74625" lon="1.63057">
        <ele>131.5</ele>
        <time>2015-04-25T11:20:00.000Z</time>
      </trkpt>
      <trkpt lat="48.74626" lon="1.63071">
        <ele>131.5</ele>
        <time>2015-04-25T11:20:07.000Z</time>
      </trkpt>
      <trkpt lat="48.74628" lon="1.63085">
        <ele>131.6</ele>
        <time>2015-04-25T11:20:14.000Z</time>
      </trkpt>
      <trkpt lat="48.74631" lon="1.63095">
        <ele>131.7</ele>
        <time>2015-04-25T11:20:19.000Z</time>
      </trkpt>
      <trkpt lat="48.74635" lon="1.6311">
        <ele>131.8</ele>
        <time>2015-04-25T11:20:26.000Z</time>
      </trkpt>
      <trkpt lat="48.74639" lon="1.63131">
        <ele>132</ele>
        <time>2015-04-25T11:20:37.000Z</time>
      </trkpt>
      <trkpt lat="48.74643" lon="1.63148">
        <ele>132.1</ele>
        <time>2015-04-25T11:20:45.000Z</time>
      </trkpt>
      <trkpt lat="48.74647" lon="1.63161">
        <ele>132.3</ele>
        <time>2015-04-25T11:20:52.000Z</time>
      </trkpt>
      <trkpt lat="48.7465" lon="1.63178">
        <ele>132.4</ele>
        <time>2015-04-25T11:21:00.000Z</time>
      </trkpt>
      <trkpt lat="48.74653" lon="1.63191">
        <ele>132.5</ele>
        <time>2015-04-25T11:21:07.000Z</time>
      </trkpt>
      <trkpt lat="48.74656" lon="1.63202">
        <ele>132.5</ele>
        <time>2015-04-25T11:21:13.000Z</time>
      </trkpt>
      <trkpt lat="48.74656" lon="1.63204">
        <ele>132.5</ele>
        <time>2015-04-25T11:21:14.000Z</time>
      </trkpt>
      <trkpt lat="48.74658" lon="1.63213">
        <ele>132.5</ele>
        <time>2015-04-25T11:21:18.000Z</time>
      </trkpt>
      <trkpt lat="48.74661" lon="1.63218">
        <ele>132.6</ele>
        <time>2015-04-25T11:21:21.000Z</time>
      </trkpt>
      <trkpt lat="48.74667" lon="1.63227">
        <ele>132.8</ele>
        <time>2015-04-25T11:21:28.000Z</time>
      </trkpt>
      <trkpt lat="48.74671" lon="1.63232">
        <ele>132.8</ele>
        <time>2015-04-25T11:21:33.000Z</time>
      </trkpt>
      <trkpt lat="48.74683" lon="1.63237">
        <ele>133</ele>
        <time>2015-04-25T11:21:43.000Z</time>
      </trkpt>
      <trkpt lat="48.74689" lon="1.63238">
        <ele>133.2</ele>
        <time>2015-04-25T11:21:49.000Z</time>
      </trkpt>
      <trkpt lat="48.74694" lon="1.63237">
        <ele>133.5</ele>
        <time>2015-04-25T11:21:54.000Z</time>
      </trkpt>
      <trkpt lat="48.74701" lon="1.63234">
        <ele>133.7</ele>
        <time>2015-04-25T11:22:00.000Z</time>
      </trkpt>
      <trkpt lat="48.74712" lon="1.63233">
        <ele>133.9</ele>
        <time>2015-04-25T11:22:08.000Z</time>
      </trkpt>
      <trkpt lat="48.7472" lon="1.63229">
        <ele>134</ele>
        <time>2015-04-25T11:22:14.000Z</time>
      </trkpt>
      <trkpt lat="48.74722" lon="1.63228">
        <ele>134</ele>
        <time>2015-04-25T11:22:15.000Z</time>
      </trkpt>
      <trkpt lat="48.7473" lon="1.63225">
        <ele>134.3</ele>
        <time>2015-04-25T11:22:20.000Z</time>
      </trkpt>
      <trkpt lat="48.74738" lon="1.63221">
        <ele>134.5</ele>
        <time>2015-04-25T11:22:25.000Z</time>
      </trkpt>
      <trkpt lat="48.74748" lon="1.63216">
        <ele>134.7</ele>
        <time>2015-04-25T11:22:32.000Z</time>
      </trkpt>
      <trkpt lat="48.74757" lon="1.63211">
        <ele>134.9</ele>
        <time>2015-04-25T11:22:39.000Z</time>
      </trkpt>
      <trkpt lat="48.74759" lon="1.6321">
        <ele>134.9</ele>
        <time>2015-04-25T11:22:41.000Z</time>
      </trkpt>
      <trkpt lat="48.74765" lon="1.63205">
        <ele>135</ele>
        <time>2015-04-25T11:22:46.000Z</time>
      </trkpt>
      <trkpt lat="48.74771" lon="1.63203">
        <ele>135.1</ele>
        <time>2015-04-25T11:22:51.000Z</time>
      </trkpt>
      <trkpt lat="48.74781" lon="1.632">
        <ele>135.2</ele>
        <time>2015-04-25T11:22:59.000Z</time>
      </trkpt>
      <trkpt lat="48.7479" lon="1.63198">
        <ele>135.1</ele>
        <time>2015-04-25T11:23:07.000Z</time>
      </trkpt>
      <trkpt lat="48.74795" lon="1.63199">
        <ele>135.2</ele>
        <time>2015-04-25T11:23:11.000Z</time>
      </trkpt>
      <trkpt lat="48.74804" lon="1.63198">
        <ele>135.1</ele>
        <time>2015-04-25T11:23:17.000Z</time>
      </trkpt>
      <trkpt lat="48.74812" lon="1.63201">
        <ele>135.5</ele>
        <time>2015-04-25T11:23:22.000Z</time>
      </trkpt>
      <trkpt lat="48.74821" lon="1.632">
        <ele>135.7</ele>
        <time>2015-04-25T11:23:27.000Z</time>
      </trkpt>
      <trkpt lat="48.74831" lon="1.63199">
        <ele>136.1</ele>
        <time>2015-04-25T11:23:34.000Z</time>
      </trkpt>
      <trkpt lat="48.7484" lon="1.63196">
        <ele>136.3</ele>
        <time>2015-04-25T11:23:41.000Z</time>
      </trkpt>
      <trkpt lat="48.74848" lon="1.63195">
        <ele>136.5</ele>
        <time>2015-04-25T11:23:48.000Z</time>
      </trkpt>
      <trkpt lat="48.74857" lon="1.63193">
        <ele>136.9</ele>
        <time>2015-04-25T11:23:56.000Z</time>
      </trkpt>
      <trkpt lat="48.74864" lon="1.63191">
        <ele>137.1</ele>
        <time>2015-04-25T11:24:02.000Z</time>
      </trkpt>
      <trkpt lat="48.74875" lon="1.63189">
        <ele>137.4</ele>
        <time>2015-04-25T11:24:09.000Z</time>
      </trkpt>
      <trkpt lat="48.74888" lon="1.63183">
        <ele>137.6</ele>
        <time>2015-04-25T11:24:18.000Z</time>
      </trkpt>
      <trkpt lat="48.749" lon="1.63178">
        <ele>137.6</ele>
        <time>2015-04-25T11:24:26.000Z</time>
      </trkpt>
      <trkpt lat="48.7491" lon="1.63172">
        <ele>137.8</ele>
        <time>2015-04-25T11:24:33.000Z</time>
      </trkpt>
      <trkpt lat="48.74914" lon="1.6317">
        <ele>137.9</ele>
        <time>2015-04-25T11:24:36.000Z</time>
      </trkpt>
      <trkpt lat="48.74922" lon="1.63162">
        <ele>138.2</ele>
        <time>2015-04-25T11:24:45.000Z</time>
      </trkpt>
      <trkpt lat="48.74928" lon="1.63158">
        <ele>138.3</ele>
        <time>2015-04-25T11:24:51.000Z</time>
      </trkpt>
      <trkpt lat="48.7493" lon="1.63155">
        <ele>138.3</ele>
        <time>2015-04-25T11:24:54.000Z</time>
      </trkpt>
      <trkpt lat="48.74941" lon="1.6315">
        <ele>138.4</ele>
        <time>2015-04-25T11:25:02.000Z</time>
      </trkpt>
      <trkpt lat="48.74948" lon="1.63146">
        <ele>138.4</ele>
        <time>2015-04-25T11:25:08.000Z</time>
      </trkpt>
      <trkpt lat="48.74953" lon="1.63142">
        <ele>138.4</ele>
        <time>2015-04-25T11:25:13.000Z</time>
      </trkpt>
      <trkpt lat="48.74963" lon="1.63136">
        <ele>138.6</ele>
        <time>2015-04-25T11:25:19.000Z</time>
      </trkpt>
      <trkpt lat="48.74968" lon="1.63134">
        <ele>138.7</ele>
        <time>2015-04-25T11:25:23.000Z</time>
      </trkpt>
      <trkpt lat="48.74975" lon="1.63132">
        <ele>138.7</ele>
        <time>2015-04-25T11:25:27.000Z</time>
      </trkpt>
      <trkpt lat="48.74979" lon="1.63127">
        <ele>138.6</ele>
        <time>2015-04-25T11:25:31.000Z</time>
      </trkpt>
      <trkpt lat="48.74983" lon="1.63122">
        <ele>138.4</ele>
        <time>2015-04-25T11:25:36.000Z</time>
      </trkpt>
      <trkpt lat="48.7499" lon="1.63118">
        <ele>138.2</ele>
        <time>2015-04-25T11:25:40.000Z</time>
      </trkpt>
      <trkpt lat="48.75" lon="1.63111">
        <ele>138</ele>
        <time>2015-04-25T11:25:45.000Z</time>
      </trkpt>
      <trkpt lat="48.75002" lon="1.63108">
        <ele>138.1</ele>
        <time>2015-04-25T11:25:47.000Z</time>
      </trkpt>
      <trkpt lat="48.75004" lon="1.63104">
        <ele>138.1</ele>
        <time>2015-04-25T11:25:49.000Z</time>
      </trkpt>
      <trkpt lat="48.75007" lon="1.63102">
        <ele>138.3</ele>
        <time>2015-04-25T11:25:51.000Z</time>
      </trkpt>
      <trkpt lat="48.75018" lon="1.63089">
        <ele>138.6</ele>
        <time>2015-04-25T11:25:59.000Z</time>
      </trkpt>
      <trkpt lat="48.75022" lon="1.63083">
        <ele>138.8</ele>
        <time>2015-04-25T11:26:03.000Z</time>
      </trkpt>
      <trkpt lat="48.75031" lon="1.63071">
        <ele>139.1</ele>
        <time>2015-04-25T11:26:10.000Z</time>
      </trkpt>
      <trkpt lat="48.75032" lon="1.63067">
        <ele>139.2</ele>
        <time>2015-04-25T11:26:12.000Z</time>
      </trkpt>
      <trkpt lat="48.7504" lon="1.63057">
        <ele>139.4</ele>
        <time>2015-04-25T11:26:18.000Z</time>
      </trkpt>
      <trkpt lat="48.75045" lon="1.63051">
        <ele>139.4</ele>
        <time>2015-04-25T11:26:22.000Z</time>
      </trkpt>
      <trkpt lat="48.75054" lon="1.63038">
        <ele>139.3</ele>
        <time>2015-04-25T11:26:30.000Z</time>
      </trkpt>
      <trkpt lat="48.7506" lon="1.63025">
        <ele>139.1</ele>
        <time>2015-04-25T11:26:36.000Z</time>
      </trkpt>
      <trkpt lat="48.75061" lon="1.63011">
        <ele>139.2</ele>
        <time>2015-04-25T11:26:41.000Z</time>
      </trkpt>
      <trkpt lat="48.75064" lon="1.63004">
        <ele>139.3</ele>
        <time>2015-04-25T11:26:45.000Z</time>
      </trkpt>
      <trkpt lat="48.75069" lon="1.6299">
        <ele>139.5</ele>
        <time>2015-04-25T11:26:52.000Z</time>
      </trkpt>
      <trkpt lat="48.75071" lon="1.62979">
        <ele>139.5</ele>
        <time>2015-04-25T11:26:55.000Z</time>
      </trkpt>
      <trkpt lat="48.75078" lon="1.62965">
        <ele>139.6</ele>
        <time>2015-04-25T11:27:02.000Z</time>
      </trkpt>
      <trkpt lat="48.75078" lon="1.62962">
        <ele>139.5</ele>
        <time>2015-04-25T11:27:03.000Z</time>
      </trkpt>
      <trkpt lat="48.7508" lon="1.62946">
        <ele>138.9</ele>
        <time>2015-04-25T11:27:10.000Z</time>
      </trkpt>
      <trkpt lat="48.75083" lon="1.6293">
        <ele>139</ele>
        <time>2015-04-25T11:27:17.000Z</time>
      </trkpt>
      <trkpt lat="48.75085" lon="1.62927">
        <ele>139.1</ele>
        <time>2015-04-25T11:27:19.000Z</time>
      </trkpt>
      <trkpt lat="48.75095" lon="1.62916">
        <ele>139.4</ele>
        <time>2015-04-25T11:27:27.000Z</time>
      </trkpt>
      <trkpt lat="48.75102" lon="1.62908">
        <ele>139.5</ele>
        <time>2015-04-25T11:27:33.000Z</time>
      </trkpt>
      <trkpt lat="48.75104" lon="1.62905">
        <ele>139.4</ele>
        <time>2015-04-25T11:27:35.000Z</time>
      </trkpt>
      <trkpt lat="48.75106" lon="1.62902">
        <ele>139.4</ele>
        <time>2015-04-25T11:27:38.000Z</time>
      </trkpt>
      <trkpt lat="48.75106" lon="1.62901">
        <ele>139.4</ele>
        <time>2015-04-25T11:27:41.000Z</time>
      </trkpt>
      <trkpt lat="48.75109" lon="1.6291">
        <ele>139.7</ele>
        <time>2015-04-25T11:27:55.000Z</time>
      </trkpt>
      <trkpt lat="48.75113" lon="1.62917">
        <ele>139.9</ele>
        <time>2015-04-25T11:27:58.000Z</time>
      </trkpt>
      <trkpt lat="48.75119" lon="1.62927">
        <ele>139.8</ele>
        <time>2015-04-25T11:28:04.000Z</time>
      </trkpt>
      <trkpt lat="48.75118" lon="1.6293">
        <ele>139.9</ele>
        <time>2015-04-25T11:28:09.000Z</time>
      </trkpt>
      <trkpt lat="48.75123" lon="1.62932">
        <ele>139.8</ele>
        <time>2015-04-25T12:32:21.000Z</time>
      </trkpt>
      <trkpt lat="48.75125" lon="1.62922">
        <ele>139.6</ele>
        <time>2015-04-25T12:32:22.000Z</time>
      </trkpt>
      <trkpt lat="48.75123" lon="1.62927">
        <ele>139.7</ele>
        <time>2015-04-25T12:32:26.000Z</time>
      </trkpt>
      <trkpt lat="48.75124" lon="1.62926">
        <ele>139.7</ele>
        <time>2015-04-25T12:32:32.000Z</time>
      </trkpt>
      <trkpt lat="48.75124" lon="1.62927">
        <ele>139.7</ele>
        <time>2015-04-25T12:32:49.000Z</time>
      </trkpt>
      <trkpt lat="48.7512" lon="1.62923">
        <ele>139.8</ele>
        <time>2015-04-25T12:32:52.000Z</time>
      </trkpt>
      <trkpt lat="48.75114" lon="1.62913">
        <ele>139.8</ele>
        <time>2015-04-25T12:33:01.000Z</time>
      </trkpt>
      <trkpt lat="48.75113" lon="1.62913">
        <ele>139.8</ele>
        <time>2015-04-25T12:33:03.000Z</time>
      </trkpt>
      <trkpt lat="48.75113" lon="1.62879">
        <ele>139</ele>
        <time>2015-04-25T12:33:46.000Z</time>
      </trkpt>
      <trkpt lat="48.75116" lon="1.62873">
        <ele>139</ele>
        <time>2015-04-25T12:33:50.000Z</time>
      </trkpt>
      <trkpt lat="48.75117" lon="1.62864">
        <ele>139</ele>
        <time>2015-04-25T12:33:56.000Z</time>
      </trkpt>
      <trkpt lat="48.75119" lon="1.62855">
        <ele>139</ele>
        <time>2015-04-25T12:34:03.000Z</time>
      </trkpt>
      <trkpt lat="48.75121" lon="1.62853">
        <ele>139</ele>
        <time>2015-04-25T12:34:04.000Z</time>
      </trkpt>
      <trkpt lat="48.75125" lon="1.62847">
        <ele>139</ele>
        <time>2015-04-25T12:34:08.000Z</time>
      </trkpt>
      <trkpt lat="48.75131" lon="1.62836">
        <ele>139</ele>
        <time>2015-04-25T12:34:15.000Z</time>
      </trkpt>
      <trkpt lat="48.75135" lon="1.62827">
        <ele>139</ele>
        <time>2015-04-25T12:34:20.000Z</time>
      </trkpt>
      <trkpt lat="48.75137" lon="1.62824">
        <ele>139</ele>
        <time>2015-04-25T12:34:22.000Z</time>
      </trkpt>
      <trkpt lat="48.7514" lon="1.62809">
        <ele>138.9</ele>
        <time>2015-04-25T12:34:31.000Z</time>
      </trkpt>
      <trkpt lat="48.75146" lon="1.62797">
        <ele>138.4</ele>
        <time>2015-04-25T12:34:39.000Z</time>
      </trkpt>
      <trkpt lat="48.7515" lon="1.62783">
        <ele>137.8</ele>
        <time>2015-04-25T12:34:48.000Z</time>
      </trkpt>
      <trkpt lat="48.75151" lon="1.62781">
        <ele>137.7</ele>
        <time>2015-04-25T12:34:50.000Z</time>
      </trkpt>
      <trkpt lat="48.75156" lon="1.62774">
        <ele>137.4</ele>
        <time>2015-04-25T12:34:55.000Z</time>
      </trkpt>
      <trkpt lat="48.75159" lon="1.62766">
        <ele>137.3</ele>
        <time>2015-04-25T12:35:00.000Z</time>
      </trkpt>
      <trkpt lat="48.75159" lon="1.62761">
        <ele>137.3</ele>
        <time>2015-04-25T12:35:03.000Z</time>
      </trkpt>
      <trkpt lat="48.7516" lon="1.6276">
        <ele>137.3</ele>
        <time>2015-04-25T12:35:06.000Z</time>
      </trkpt>
      <trkpt lat="48.75164" lon="1.62753">
        <ele>137.1</ele>
        <time>2015-04-25T12:35:13.000Z</time>
      </trkpt>
      <trkpt lat="48.75166" lon="1.62748">
        <ele>137</ele>
        <time>2015-04-25T12:35:15.000Z</time>
      </trkpt>
      <trkpt lat="48.75168" lon="1.62745">
        <ele>136.8</ele>
        <time>2015-04-25T12:35:17.000Z</time>
      </trkpt>
      <trkpt lat="48.75168" lon="1.62741">
        <ele>136.6</ele>
        <time>2015-04-25T12:35:19.000Z</time>
      </trkpt>
      <trkpt lat="48.75171" lon="1.62734">
        <ele>136.4</ele>
        <time>2015-04-25T12:35:24.000Z</time>
      </trkpt>
      <trkpt lat="48.75171" lon="1.62722">
        <ele>136</ele>
        <time>2015-04-25T12:35:30.000Z</time>
      </trkpt>
      <trkpt lat="48.75174" lon="1.62711">
        <ele>135.9</ele>
        <time>2015-04-25T12:35:36.000Z</time>
      </trkpt>
      <trkpt lat="48.75179" lon="1.62702">
        <ele>135.7</ele>
        <time>2015-04-25T12:35:42.000Z</time>
      </trkpt>
      <trkpt lat="48.75183" lon="1.62693">
        <ele>135.4</ele>
        <time>2015-04-25T12:35:48.000Z</time>
      </trkpt>
      <trkpt lat="48.75184" lon="1.6269">
        <ele>135.3</ele>
        <time>2015-04-25T12:35:50.000Z</time>
      </trkpt>
      <trkpt lat="48.75191" lon="1.62674">
        <ele>135</ele>
        <time>2015-04-25T12:35:59.000Z</time>
      </trkpt>
      <trkpt lat="48.75195" lon="1.62654">
        <ele>134.6</ele>
        <time>2015-04-25T12:36:09.000Z</time>
      </trkpt>
      <trkpt lat="48.75195" lon="1.6265">
        <ele>134.4</ele>
        <time>2015-04-25T12:36:11.000Z</time>
      </trkpt>
      <trkpt lat="48.75199" lon="1.62634">
        <ele>134</ele>
        <time>2015-04-25T12:36:19.000Z</time>
      </trkpt>
      <trkpt lat="48.75202" lon="1.6263">
        <ele>134</ele>
        <time>2015-04-25T12:36:23.000Z</time>
      </trkpt>
      <trkpt lat="48.75204" lon="1.6262">
        <ele>134</ele>
        <time>2015-04-25T12:36:28.000Z</time>
      </trkpt>
      <trkpt lat="48.75205" lon="1.62613">
        <ele>134</ele>
        <time>2015-04-25T12:36:32.000Z</time>
      </trkpt>
      <trkpt lat="48.75208" lon="1.62607">
        <ele>133.8</ele>
        <time>2015-04-25T12:36:35.000Z</time>
      </trkpt>
      <trkpt lat="48.7521" lon="1.62593">
        <ele>133.4</ele>
        <time>2015-04-25T12:36:42.000Z</time>
      </trkpt>
      <trkpt lat="48.75211" lon="1.62584">
        <ele>133</ele>
        <time>2015-04-25T12:36:47.000Z</time>
      </trkpt>
      <trkpt lat="48.7521" lon="1.62578">
        <ele>132.9</ele>
        <time>2015-04-25T12:36:49.000Z</time>
      </trkpt>
      <trkpt lat="48.75213" lon="1.62561">
        <ele>132.7</ele>
        <time>2015-04-25T12:36:59.000Z</time>
      </trkpt>
      <trkpt lat="48.75216" lon="1.62551">
        <ele>132.8</ele>
        <time>2015-04-25T12:37:04.000Z</time>
      </trkpt>
      <trkpt lat="48.75218" lon="1.62539">
        <ele>132.9</ele>
        <time>2015-04-25T12:37:10.000Z</time>
      </trkpt>
      <trkpt lat="48.75219" lon="1.62538">
        <ele>132.9</ele>
        <time>2015-04-25T12:37:11.000Z</time>
      </trkpt>
      <trkpt lat="48.75221" lon="1.62524">
        <ele>132.8</ele>
        <time>2015-04-25T12:37:18.000Z</time>
      </trkpt>
      <trkpt lat="48.75222" lon="1.62513">
        <ele>132.5</ele>
        <time>2015-04-25T12:37:24.000Z</time>
      </trkpt>
      <trkpt lat="48.75224" lon="1.625">
        <ele>132</ele>
        <time>2015-04-25T12:37:30.000Z</time>
      </trkpt>
      <trkpt lat="48.75226" lon="1.62495">
        <ele>132</ele>
        <time>2015-04-25T12:37:33.000Z</time>
      </trkpt>
      <trkpt lat="48.75229" lon="1.62484">
        <ele>132</ele>
        <time>2015-04-25T12:37:39.000Z</time>
      </trkpt>
      <trkpt lat="48.75232" lon="1.6247">
        <ele>132</ele>
        <time>2015-04-25T12:37:47.000Z</time>
      </trkpt>
      <trkpt lat="48.75235" lon="1.62457">
        <ele>131.7</ele>
        <time>2015-04-25T12:37:56.000Z</time>
      </trkpt>
      <trkpt lat="48.75237" lon="1.62449">
        <ele>131.6</ele>
        <time>2015-04-25T12:38:01.000Z</time>
      </trkpt>
      <trkpt lat="48.75242" lon="1.62433">
        <ele>131.4</ele>
        <time>2015-04-25T12:38:10.000Z</time>
      </trkpt>
      <trkpt lat="48.75247" lon="1.62418">
        <ele>131</ele>
        <time>2015-04-25T12:38:20.000Z</time>
      </trkpt>
      <trkpt lat="48.75247" lon="1.62417">
        <ele>131</ele>
        <time>2015-04-25T12:38:23.000Z</time>
      </trkpt>
      <trkpt lat="48.75254" lon="1.62407">
        <ele>131</ele>
        <time>2015-04-25T12:38:54.000Z</time>
      </trkpt>
      <trkpt lat="48.75259" lon="1.62394">
        <ele>130.7</ele>
        <time>2015-04-25T12:39:00.000Z</time>
      </trkpt>
      <trkpt lat="48.75267" lon="1.62385">
        <ele>130.3</ele>
        <time>2015-04-25T12:39:08.000Z</time>
      </trkpt>
      <trkpt lat="48.75271" lon="1.62379">
        <ele>130.2</ele>
        <time>2015-04-25T12:39:13.000Z</time>
      </trkpt>
      <trkpt lat="48.75274" lon="1.62378">
        <ele>130.1</ele>
        <time>2015-04-25T12:39:15.000Z</time>
      </trkpt>
      <trkpt lat="48.7528" lon="1.62375">
        <ele>129.9</ele>
        <time>2015-04-25T12:39:20.000Z</time>
      </trkpt>
      <trkpt lat="48.75291" lon="1.62369">
        <ele>129.5</ele>
        <time>2015-04-25T12:39:29.000Z</time>
      </trkpt>
      <trkpt lat="48.75298" lon="1.62368">
        <ele>129.3</ele>
        <time>2015-04-25T12:39:35.000Z</time>
      </trkpt>
      <trkpt lat="48.75303" lon="1.62364">
        <ele>129.1</ele>
        <time>2015-04-25T12:39:41.000Z</time>
      </trkpt>
      <trkpt lat="48.75303" lon="1.62364">
        <ele>129.1</ele>
        <time>2015-04-25T12:39:43.000Z</time>
      </trkpt>
      <trkpt lat="48.75268" lon="1.62386">
        <ele>130.3</ele>
        <time>2015-04-25T12:40:52.000Z</time>
      </trkpt>
      <trkpt lat="48.75262" lon="1.62394">
        <ele>130.7</ele>
        <time>2015-04-25T12:40:59.000Z</time>
      </trkpt>
      <trkpt lat="48.7526" lon="1.62396">
        <ele>130.7</ele>
        <time>2015-04-25T12:41:03.000Z</time>
      </trkpt>
      <trkpt lat="48.75251" lon="1.6242">
        <ele>131.1</ele>
        <time>2015-04-25T12:46:41.000Z</time>
      </trkpt>
      <trkpt lat="48.75246" lon="1.62433">
        <ele>131.5</ele>
        <time>2015-04-25T12:46:47.000Z</time>
      </trkpt>
      <trkpt lat="48.75243" lon="1.62443">
        <ele>131.7</ele>
        <time>2015-04-25T12:46:53.000Z</time>
      </trkpt>
      <trkpt lat="48.75242" lon="1.62452">
        <ele>131.8</ele>
        <time>2015-04-25T12:46:59.000Z</time>
      </trkpt>
      <trkpt lat="48.75239" lon="1.62461">
        <ele>131.8</ele>
        <time>2015-04-25T12:47:04.000Z</time>
      </trkpt>
      <trkpt lat="48.75236" lon="1.62476">
        <ele>132</ele>
        <time>2015-04-25T12:47:12.000Z</time>
      </trkpt>
      <trkpt lat="48.75235" lon="1.62478">
        <ele>132</ele>
        <time>2015-04-25T12:47:13.000Z</time>
      </trkpt>
      <trkpt lat="48.75232" lon="1.62487">
        <ele>132</ele>
        <time>2015-04-25T12:47:17.000Z</time>
      </trkpt>
      <trkpt lat="48.7523" lon="1.62503">
        <ele>132.1</ele>
        <time>2015-04-25T12:47:24.000Z</time>
      </trkpt>
      <trkpt lat="48.75229" lon="1.62514">
        <ele>132.5</ele>
        <time>2015-04-25T12:47:29.000Z</time>
      </trkpt>
      <trkpt lat="48.75229" lon="1.62516">
        <ele>132.6</ele>
        <time>2015-04-25T12:47:30.000Z</time>
      </trkpt>
      <trkpt lat="48.75227" lon="1.62519">
        <ele>132.7</ele>
        <time>2015-04-25T12:47:32.000Z</time>
      </trkpt>
      <trkpt lat="48.75227" lon="1.62527">
        <ele>133</ele>
        <time>2015-04-25T12:47:37.000Z</time>
      </trkpt>
      <trkpt lat="48.75224" lon="1.62541">
        <ele>133</ele>
        <time>2015-04-25T12:47:43.000Z</time>
      </trkpt>
      <trkpt lat="48.75219" lon="1.6256">
        <ele>132.9</ele>
        <time>2015-04-25T12:47:54.000Z</time>
      </trkpt>
      <trkpt lat="48.75216" lon="1.62571">
        <ele>132.9</ele>
        <time>2015-04-25T12:47:59.000Z</time>
      </trkpt>
      <trkpt lat="48.75212" lon="1.62586">
        <ele>133.1</ele>
        <time>2015-04-25T12:48:06.000Z</time>
      </trkpt>
      <trkpt lat="48.75211" lon="1.62592">
        <ele>133.3</ele>
        <time>2015-04-25T12:48:08.000Z</time>
      </trkpt>
      <trkpt lat="48.75208" lon="1.62599">
        <ele>133.5</ele>
        <time>2015-04-25T12:48:12.000Z</time>
      </trkpt>
      <trkpt lat="48.75205" lon="1.62617">
        <ele>134</ele>
        <time>2015-04-25T12:48:21.000Z</time>
      </trkpt>
      <trkpt lat="48.75202" lon="1.62628">
        <ele>134</ele>
        <time>2015-04-25T12:48:28.000Z</time>
      </trkpt>
      <trkpt lat="48.75198" lon="1.6264">
        <ele>134</ele>
        <time>2015-04-25T12:48:35.000Z</time>
      </trkpt>
      <trkpt lat="48.75194" lon="1.62655">
        <ele>134.6</ele>
        <time>2015-04-25T12:48:44.000Z</time>
      </trkpt>
      <trkpt lat="48.7519" lon="1.6267">
        <ele>135</ele>
        <time>2015-04-25T12:48:52.000Z</time>
      </trkpt>
      <trkpt lat="48.75185" lon="1.62685">
        <ele>135.2</ele>
        <time>2015-04-25T12:49:00.000Z</time>
      </trkpt>
      <trkpt lat="48.75181" lon="1.62696">
        <ele>135.5</ele>
        <time>2015-04-25T12:49:07.000Z</time>
      </trkpt>
      <trkpt lat="48.75179" lon="1.62703">
        <ele>135.7</ele>
        <time>2015-04-25T12:49:11.000Z</time>
      </trkpt>
      <trkpt lat="48.75175" lon="1.6272">
        <ele>136</ele>
        <time>2015-04-25T12:49:20.000Z</time>
      </trkpt>
      <trkpt lat="48.75172" lon="1.62732">
        <ele>136.3</ele>
        <time>2015-04-25T12:49:26.000Z</time>
      </trkpt>
      <trkpt lat="48.75166" lon="1.62748">
        <ele>137</ele>
        <time>2015-04-25T12:49:35.000Z</time>
      </trkpt>
      <trkpt lat="48.75158" lon="1.62771">
        <ele>137.3</ele>
        <time>2015-04-25T12:49:47.000Z</time>
      </trkpt>
      <trkpt lat="48.75152" lon="1.62786">
        <ele>137.8</ele>
        <time>2015-04-25T12:49:57.000Z</time>
      </trkpt>
      <trkpt lat="48.75148" lon="1.62795">
        <ele>138.3</ele>
        <time>2015-04-25T12:50:04.000Z</time>
      </trkpt>
      <trkpt lat="48.75143" lon="1.6281">
        <ele>138.8</ele>
        <time>2015-04-25T12:50:12.000Z</time>
      </trkpt>
      <trkpt lat="48.75139" lon="1.6282">
        <ele>139</ele>
        <time>2015-04-25T12:50:19.000Z</time>
      </trkpt>
      <trkpt lat="48.75134" lon="1.62834">
        <ele>139</ele>
        <time>2015-04-25T12:50:27.000Z</time>
      </trkpt>
      <trkpt lat="48.75128" lon="1.62848">
        <ele>139</ele>
        <time>2015-04-25T12:50:35.000Z</time>
      </trkpt>
      <trkpt lat="48.75121" lon="1.62862">
        <ele>139</ele>
        <time>2015-04-25T12:50:43.000Z</time>
      </trkpt>
      <trkpt lat="48.75115" lon="1.62877">
        <ele>139</ele>
        <time>2015-04-25T12:50:52.000Z</time>
      </trkpt>
      <trkpt lat="48.75109" lon="1.6289">
        <ele>139</ele>
        <time>2015-04-25T12:51:00.000Z</time>
      </trkpt>
      <trkpt lat="48.75102" lon="1.62902">
        <ele>139.3</ele>
        <time>2015-04-25T12:51:08.000Z</time>
      </trkpt>
      <trkpt lat="48.751" lon="1.62905">
        <ele>139.3</ele>
        <time>2015-04-25T12:51:11.000Z</time>
      </trkpt>
      <trkpt lat="48.75098" lon="1.62904">
        <ele>139.3</ele>
        <time>2015-04-25T12:51:16.000Z</time>
      </trkpt>
      <trkpt lat="48.75104" lon="1.62916">
        <ele>139.7</ele>
        <time>2015-04-25T12:51:53.000Z</time>
      </trkpt>
      <trkpt lat="48.75112" lon="1.62923">
        <ele>140</ele>
        <time>2015-04-25T12:51:59.000Z</time>
      </trkpt>
      <trkpt lat="48.75113" lon="1.62924">
        <ele>140</ele>
        <time>2015-04-25T12:52:00.000Z</time>
      </trkpt>
      <trkpt lat="48.75115" lon="1.62928">
        <ele>139.9</ele>
        <time>2015-04-25T12:52:05.000Z</time>
      </trkpt>
      <trkpt lat="48.75144" lon="1.6295">
        <ele>139.8</ele>
        <time>2015-04-25T12:52:43.000Z</time>
      </trkpt>
      <trkpt lat="48.75146" lon="1.62952">
        <ele>139.7</ele>
        <time>2015-04-25T12:52:44.000Z</time>
      </trkpt>
      <trkpt lat="48.75149" lon="1.62955">
        <ele>139.6</ele>
        <time>2015-04-25T12:52:50.000Z</time>
      </trkpt>
      <trkpt lat="48.75155" lon="1.62962">
        <ele>139.4</ele>
        <time>2015-04-25T12:52:56.000Z</time>
      </trkpt>
      <trkpt lat="48.75157" lon="1.62966">
        <ele>139.3</ele>
        <time>2015-04-25T12:52:59.000Z</time>
      </trkpt>
      <trkpt lat="48.75158" lon="1.62968">
        <ele>139.3</ele>
        <time>2015-04-25T12:53:02.000Z</time>
      </trkpt>
      <trkpt lat="48.75165" lon="1.62972">
        <ele>139.1</ele>
        <time>2015-04-25T12:53:24.000Z</time>
      </trkpt>
      <trkpt lat="48.75168" lon="1.62974">
        <ele>138.9</ele>
        <time>2015-04-25T12:53:26.000Z</time>
      </trkpt>
      <trkpt lat="48.75176" lon="1.62982">
        <ele>138.7</ele>
        <time>2015-04-25T12:53:33.000Z</time>
      </trkpt>
      <trkpt lat="48.75181" lon="1.62987">
        <ele>138.5</ele>
        <time>2015-04-25T12:53:38.000Z</time>
      </trkpt>
      <trkpt lat="48.75189" lon="1.62996">
        <ele>138.2</ele>
        <time>2015-04-25T12:53:46.000Z</time>
      </trkpt>
      <trkpt lat="48.75196" lon="1.63002">
        <ele>137.9</ele>
        <time>2015-04-25T12:53:54.000Z</time>
      </trkpt>
      <trkpt lat="48.75205" lon="1.6301">
        <ele>137.6</ele>
        <time>2015-04-25T12:54:03.000Z</time>
      </trkpt>
      <trkpt lat="48.75212" lon="1.63015">
        <ele>137.4</ele>
        <time>2015-04-25T12:54:11.000Z</time>
      </trkpt>
      <trkpt lat="48.75215" lon="1.63017">
        <ele>137.3</ele>
        <time>2015-04-25T12:54:16.000Z</time>
      </trkpt>
      <trkpt lat="48.75216" lon="1.63017">
        <ele>137.2</ele>
        <time>2015-04-25T12:54:18.000Z</time>
      </trkpt>
      <trkpt lat="48.75224" lon="1.63021">
        <ele>136.9</ele>
        <time>2015-04-25T12:54:38.000Z</time>
      </trkpt>
      <trkpt lat="48.75233" lon="1.63028">
        <ele>136.6</ele>
        <time>2015-04-25T12:54:45.000Z</time>
      </trkpt>
      <trkpt lat="48.75242" lon="1.63035">
        <ele>136.5</ele>
        <time>2015-04-25T12:54:53.000Z</time>
      </trkpt>
      <trkpt lat="48.75252" lon="1.63044">
        <ele>136.5</ele>
        <time>2015-04-25T12:55:03.000Z</time>
      </trkpt>
      <trkpt lat="48.75255" lon="1.63046">
        <ele>136.5</ele>
        <time>2015-04-25T12:55:06.000Z</time>
      </trkpt>
      <trkpt lat="48.75258" lon="1.6305">
        <ele>136.5</ele>
        <time>2015-04-25T12:55:11.000Z</time>
      </trkpt>
      <trkpt lat="48.75268" lon="1.63058">
        <ele>136.3</ele>
        <time>2015-04-25T12:55:21.000Z</time>
      </trkpt>
      <trkpt lat="48.75276" lon="1.63063">
        <ele>136.1</ele>
        <time>2015-04-25T12:55:28.000Z</time>
      </trkpt>
      <trkpt lat="48.75284" lon="1.6307">
        <ele>135.8</ele>
        <time>2015-04-25T12:55:36.000Z</time>
      </trkpt>
      <trkpt lat="48.7529" lon="1.63075">
        <ele>135.6</ele>
        <time>2015-04-25T12:55:42.000Z</time>
      </trkpt>
      <trkpt lat="48.75298" lon="1.63082">
        <ele>135.3</ele>
        <time>2015-04-25T12:55:51.000Z</time>
      </trkpt>
      <trkpt lat="48.75306" lon="1.63088">
        <ele>135.2</ele>
        <time>2015-04-25T12:55:59.000Z</time>
      </trkpt>
      <trkpt lat="48.75314" lon="1.63094">
        <ele>135.4</ele>
        <time>2015-04-25T12:56:06.000Z</time>
      </trkpt>
      <trkpt lat="48.7532" lon="1.63097">
        <ele>135.5</ele>
        <time>2015-04-25T12:56:12.000Z</time>
      </trkpt>
      <trkpt lat="48.75328" lon="1.63104">
        <ele>135.7</ele>
        <time>2015-04-25T12:56:21.000Z</time>
      </trkpt>
      <trkpt lat="48.75338" lon="1.6311">
        <ele>136</ele>
        <time>2015-04-25T12:56:29.000Z</time>
      </trkpt>
      <trkpt lat="48.75344" lon="1.63114">
        <ele>136</ele>
        <time>2015-04-25T12:56:35.000Z</time>
      </trkpt>
      <trkpt lat="48.75356" lon="1.63121">
        <ele>136.3</ele>
        <time>2015-04-25T12:56:45.000Z</time>
      </trkpt>
      <trkpt lat="48.7536" lon="1.63125">
        <ele>136.5</ele>
        <time>2015-04-25T12:56:49.000Z</time>
      </trkpt>
      <trkpt lat="48.75369" lon="1.63129">
        <ele>136.7</ele>
        <time>2015-04-25T12:56:56.000Z</time>
      </trkpt>
      <trkpt lat="48.75379" lon="1.63138">
        <ele>137</ele>
        <time>2015-04-25T12:57:06.000Z</time>
      </trkpt>
      <trkpt lat="48.75386" lon="1.63145">
        <ele>137</ele>
        <time>2015-04-25T12:57:15.000Z</time>
      </trkpt>
      <trkpt lat="48.75388" lon="1.63146">
        <ele>137</ele>
        <time>2015-04-25T12:57:17.000Z</time>
      </trkpt>
      <trkpt lat="48.75395" lon="1.6315">
        <ele>137.2</ele>
        <time>2015-04-25T12:57:22.000Z</time>
      </trkpt>
      <trkpt lat="48.754" lon="1.63153">
        <ele>137.4</ele>
        <time>2015-04-25T12:57:27.000Z</time>
      </trkpt>
      <trkpt lat="48.7541" lon="1.63159">
        <ele>137.8</ele>
        <time>2015-04-25T12:57:36.000Z</time>
      </trkpt>
      <trkpt lat="48.75419" lon="1.63165">
        <ele>138.1</ele>
        <time>2015-04-25T12:57:43.000Z</time>
      </trkpt>
      <trkpt lat="48.75424" lon="1.63168">
        <ele>138.3</ele>
        <time>2015-04-25T12:57:47.000Z</time>
      </trkpt>
      <trkpt lat="48.75429" lon="1.63172">
        <ele>138.4</ele>
        <time>2015-04-25T12:57:51.000Z</time>
      </trkpt>
      <trkpt lat="48.75437" lon="1.63177">
        <ele>138.7</ele>
        <time>2015-04-25T12:57:58.000Z</time>
      </trkpt>
      <trkpt lat="48.75445" lon="1.63183">
        <ele>139</ele>
        <time>2015-04-25T12:58:06.000Z</time>
      </trkpt>
      <trkpt lat="48.75458" lon="1.63187">
        <ele>139.5</ele>
        <time>2015-04-25T12:58:15.000Z</time>
      </trkpt>
      <trkpt lat="48.75464" lon="1.63191">
        <ele>139.7</ele>
        <time>2015-04-25T12:58:21.000Z</time>
      </trkpt>
      <trkpt lat="48.75471" lon="1.63198">
        <ele>139.9</ele>
        <time>2015-04-25T12:58:29.000Z</time>
      </trkpt>
      <trkpt lat="48.75479" lon="1.63202">
        <ele>140.5</ele>
        <time>2015-04-25T12:58:36.000Z</time>
      </trkpt>
      <trkpt lat="48.75489" lon="1.63206">
        <ele>141.2</ele>
        <time>2015-04-25T12:58:44.000Z</time>
      </trkpt>
      <trkpt lat="48.7549" lon="1.63206">
        <ele>141.2</ele>
        <time>2015-04-25T12:58:45.000Z</time>
      </trkpt>
      <trkpt lat="48.75496" lon="1.6321">
        <ele>141.7</ele>
        <time>2015-04-25T12:58:53.000Z</time>
      </trkpt>
      <trkpt lat="48.75501" lon="1.63213">
        <ele>142</ele>
        <time>2015-04-25T12:58:58.000Z</time>
      </trkpt>
      <trkpt lat="48.75502" lon="1.63213">
        <ele>142.1</ele>
        <time>2015-04-25T12:58:59.000Z</time>
      </trkpt>
      <trkpt lat="48.7551" lon="1.63216">
        <ele>142.4</ele>
        <time>2015-04-25T12:59:06.000Z</time>
      </trkpt>
      <trkpt lat="48.75513" lon="1.63217">
        <ele>142.5</ele>
        <time>2015-04-25T12:59:08.000Z</time>
      </trkpt>
      <trkpt lat="48.75518" lon="1.63222">
        <ele>142.6</ele>
        <time>2015-04-25T12:59:16.000Z</time>
      </trkpt>
      <trkpt lat="48.75521" lon="1.6322">
        <ele>142.7</ele>
        <time>2015-04-25T12:59:22.000Z</time>
      </trkpt>
      <trkpt lat="48.75521" lon="1.6322">
        <ele>142.8</ele>
        <time>2015-04-25T12:59:24.000Z</time>
      </trkpt>
      <trkpt lat="48.75543" lon="1.63226">
        <ele>143.6</ele>
        <time>2015-04-25T13:01:07.000Z</time>
      </trkpt>
      <trkpt lat="48.75546" lon="1.63226">
        <ele>143.8</ele>
        <time>2015-04-25T13:01:09.000Z</time>
      </trkpt>
      <trkpt lat="48.75553" lon="1.63224">
        <ele>144</ele>
        <time>2015-04-25T13:01:15.000Z</time>
      </trkpt>
      <trkpt lat="48.75562" lon="1.63222">
        <ele>144.5</ele>
        <time>2015-04-25T13:01:22.000Z</time>
      </trkpt>
      <trkpt lat="48.75568" lon="1.63225">
        <ele>144.9</ele>
        <time>2015-04-25T13:01:26.000Z</time>
      </trkpt>
      <trkpt lat="48.7557" lon="1.63225">
        <ele>145.1</ele>
        <time>2015-04-25T13:01:28.000Z</time>
      </trkpt>
      <trkpt lat="48.75575" lon="1.6323">
        <ele>145.5</ele>
        <time>2015-04-25T13:01:33.000Z</time>
      </trkpt>
      <trkpt lat="48.7558" lon="1.63238">
        <ele>145.8</ele>
        <time>2015-04-25T13:01:38.000Z</time>
      </trkpt>
      <trkpt lat="48.75587" lon="1.63248">
        <ele>146.3</ele>
        <time>2015-04-25T13:01:46.000Z</time>
      </trkpt>
      <trkpt lat="48.75594" lon="1.63256">
        <ele>147</ele>
        <time>2015-04-25T13:01:52.000Z</time>
      </trkpt>
      <trkpt lat="48.75599" lon="1.63261">
        <ele>147.5</ele>
        <time>2015-04-25T13:01:56.000Z</time>
      </trkpt>
      <trkpt lat="48.75606" lon="1.63265">
        <ele>148.2</ele>
        <time>2015-04-25T13:02:02.000Z</time>
      </trkpt>
      <trkpt lat="48.75614" lon="1.63267">
        <ele>148.8</ele>
        <time>2015-04-25T13:02:08.000Z</time>
      </trkpt>
      <trkpt lat="48.75622" lon="1.63269">
        <ele>149.2</ele>
        <time>2015-04-25T13:02:14.000Z</time>
      </trkpt>
      <trkpt lat="48.75624" lon="1.63271">
        <ele>149.3</ele>
        <time>2015-04-25T13:02:16.000Z</time>
      </trkpt>
      <trkpt lat="48.75635" lon="1.63275">
        <ele>149.8</ele>
        <time>2015-04-25T13:02:24.000Z</time>
      </trkpt>
      <trkpt lat="48.7564" lon="1.63277">
        <ele>150</ele>
        <time>2015-04-25T13:02:27.000Z</time>
      </trkpt>
      <trkpt lat="48.75649" lon="1.63279">
        <ele>150.4</ele>
        <time>2015-04-25T13:02:34.000Z</time>
      </trkpt>
      <trkpt lat="48.75655" lon="1.6328">
        <ele>150.6</ele>
        <time>2015-04-25T13:02:38.000Z</time>
      </trkpt>
      <trkpt lat="48.75661" lon="1.63284">
        <ele>151</ele>
        <time>2015-04-25T13:02:43.000Z</time>
      </trkpt>
      <trkpt lat="48.75662" lon="1.63284">
        <ele>151</ele>
        <time>2015-04-25T13:02:44.000Z</time>
      </trkpt>
      <trkpt lat="48.75667" lon="1.63282">
        <ele>151.1</ele>
        <time>2015-04-25T13:02:47.000Z</time>
      </trkpt>
      <trkpt lat="48.75675" lon="1.63271">
        <ele>151.6</ele>
        <time>2015-04-25T13:02:55.000Z</time>
      </trkpt>
      <trkpt lat="48.75684" lon="1.63275">
        <ele>152.2</ele>
        <time>2015-04-25T13:03:01.000Z</time>
      </trkpt>
      <trkpt lat="48.75689" lon="1.63275">
        <ele>152.5</ele>
        <time>2015-04-25T13:03:09.000Z</time>
      </trkpt>
      <trkpt lat="48.75693" lon="1.63268">
        <ele>152.6</ele>
        <time>2015-04-25T13:03:31.000Z</time>
      </trkpt>
      <trkpt lat="48.75699" lon="1.63277">
        <ele>153.1</ele>
        <time>2015-04-25T13:03:35.000Z</time>
      </trkpt>
      <trkpt lat="48.75706" lon="1.63286">
        <ele>153.4</ele>
        <time>2015-04-25T13:03:41.000Z</time>
      </trkpt>
      <trkpt lat="48.75712" lon="1.63291">
        <ele>153.6</ele>
        <time>2015-04-25T13:03:47.000Z</time>
      </trkpt>
      <trkpt lat="48.75716" lon="1.63298">
        <ele>153.8</ele>
        <time>2015-04-25T13:03:52.000Z</time>
      </trkpt>
      <trkpt lat="48.75717" lon="1.63301">
        <ele>153.8</ele>
        <time>2015-04-25T13:03:55.000Z</time>
      </trkpt>
      <trkpt lat="48.75721" lon="1.63309">
        <ele>154.1</ele>
        <time>2015-04-25T13:03:59.000Z</time>
      </trkpt>
      <trkpt lat="48.75727" lon="1.6332">
        <ele>154.7</ele>
        <time>2015-04-25T13:04:05.000Z</time>
      </trkpt>
      <trkpt lat="48.75733" lon="1.63326">
        <ele>155.1</ele>
        <time>2015-04-25T13:04:10.000Z</time>
      </trkpt>
      <trkpt lat="48.75735" lon="1.63329">
        <ele>155.3</ele>
        <time>2015-04-25T13:04:12.000Z</time>
      </trkpt>
      <trkpt lat="48.75739" lon="1.63335">
        <ele>155.6</ele>
        <time>2015-04-25T13:04:16.000Z</time>
      </trkpt>
      <trkpt lat="48.7574" lon="1.63336">
        <ele>155.7</ele>
        <time>2015-04-25T13:04:18.000Z</time>
      </trkpt>
      <trkpt lat="48.75746" lon="1.63343">
        <ele>155.9</ele>
        <time>2015-04-25T13:04:24.000Z</time>
      </trkpt>
      <trkpt lat="48.75754" lon="1.63345">
        <ele>155.9</ele>
        <time>2015-04-25T13:04:30.000Z</time>
      </trkpt>
      <trkpt lat="48.75758" lon="1.63349">
        <ele>155.9</ele>
        <time>2015-04-25T13:04:33.000Z</time>
      </trkpt>
      <trkpt lat="48.75762" lon="1.63353">
        <ele>155.9</ele>
        <time>2015-04-25T13:04:37.000Z</time>
      </trkpt>
      <trkpt lat="48.75771" lon="1.63355">
        <ele>155.8</ele>
        <time>2015-04-25T13:04:45.000Z</time>
      </trkpt>
      <trkpt lat="48.75781" lon="1.63358">
        <ele>155.9</ele>
        <time>2015-04-25T13:04:52.000Z</time>
      </trkpt>
      <trkpt lat="48.75788" lon="1.63364">
        <ele>156</ele>
        <time>2015-04-25T13:04:57.000Z</time>
      </trkpt>
      <trkpt lat="48.75794" lon="1.63365">
        <ele>156</ele>
        <time>2015-04-25T13:05:01.000Z</time>
      </trkpt>
      <trkpt lat="48.75797" lon="1.63367">
        <ele>156</ele>
        <time>2015-04-25T13:05:03.000Z</time>
      </trkpt>
      <trkpt lat="48.75799" lon="1.63368">
        <ele>156</ele>
        <time>2015-04-25T13:05:05.000Z</time>
      </trkpt>
      <trkpt lat="48.75806" lon="1.6337">
        <ele>156</ele>
        <time>2015-04-25T13:05:11.000Z</time>
      </trkpt>
      <trkpt lat="48.75806" lon="1.63371">
        <ele>156</ele>
        <time>2015-04-25T13:05:12.000Z</time>
      </trkpt>
      <trkpt lat="48.75811" lon="1.63375">
        <ele>155.9</ele>
        <time>2015-04-25T13:05:17.000Z</time>
      </trkpt>
      <trkpt lat="48.75811" lon="1.63376">
        <ele>155.9</ele>
        <time>2015-04-25T13:05:18.000Z</time>
      </trkpt>
      <trkpt lat="48.7582" lon="1.63384">
        <ele>155.9</ele>
        <time>2015-04-25T13:05:24.000Z</time>
      </trkpt>
      <trkpt lat="48.75826" lon="1.63385">
        <ele>155.9</ele>
        <time>2015-04-25T13:05:29.000Z</time>
      </trkpt>
      <trkpt lat="48.75837" lon="1.63386">
        <ele>155.9</ele>
        <time>2015-04-25T13:05:37.000Z</time>
      </trkpt>
      <trkpt lat="48.75838" lon="1.63387">
        <ele>155.9</ele>
        <time>2015-04-25T13:05:38.000Z</time>
      </trkpt>
      <trkpt lat="48.75847" lon="1.63388">
        <ele>156</ele>
        <time>2015-04-25T13:05:45.000Z</time>
      </trkpt>
      <trkpt lat="48.75855" lon="1.63386">
        <ele>155.9</ele>
        <time>2015-04-25T13:05:51.000Z</time>
      </trkpt>
      <trkpt lat="48.75864" lon="1.63384">
        <ele>155.9</ele>
        <time>2015-04-25T13:05:57.000Z</time>
      </trkpt>
      <trkpt lat="48.75871" lon="1.63386">
        <ele>156.3</ele>
        <time>2015-04-25T13:06:02.000Z</time>
      </trkpt>
      <trkpt lat="48.75874" lon="1.63384">
        <ele>156.3</ele>
        <time>2015-04-25T13:06:04.000Z</time>
      </trkpt>
      <trkpt lat="48.75884" lon="1.63379">
        <ele>156.5</ele>
        <time>2015-04-25T13:06:12.000Z</time>
      </trkpt>
      <trkpt lat="48.75892" lon="1.63373">
        <ele>156.5</ele>
        <time>2015-04-25T13:06:18.000Z</time>
      </trkpt>
      <trkpt lat="48.75898" lon="1.63371">
        <ele>156.7</ele>
        <time>2015-04-25T13:06:23.000Z</time>
      </trkpt>
      <trkpt lat="48.75901" lon="1.6337">
        <ele>156.8</ele>
        <time>2015-04-25T13:06:25.000Z</time>
      </trkpt>
      <trkpt lat="48.75911" lon="1.63369">
        <ele>157.1</ele>
        <time>2015-04-25T13:06:32.000Z</time>
      </trkpt>
      <trkpt lat="48.75912" lon="1.63368">
        <ele>157.1</ele>
        <time>2015-04-25T13:06:33.000Z</time>
      </trkpt>
      <trkpt lat="48.75923" lon="1.6336">
        <ele>156.7</ele>
        <time>2015-04-25T13:06:41.000Z</time>
      </trkpt>
      <trkpt lat="48.7593" lon="1.63359">
        <ele>156.4</ele>
        <time>2015-04-25T13:06:46.000Z</time>
      </trkpt>
      <trkpt lat="48.75931" lon="1.63359">
        <ele>156.4</ele>
        <time>2015-04-25T13:06:47.000Z</time>
      </trkpt>
      <trkpt lat="48.7594" lon="1.63359">
        <ele>156.1</ele>
        <time>2015-04-25T13:06:53.000Z</time>
      </trkpt>
      <trkpt lat="48.75946" lon="1.63359">
        <ele>156</ele>
        <time>2015-04-25T13:06:58.000Z</time>
      </trkpt>
      <trkpt lat="48.75956" lon="1.63356">
        <ele>156.2</ele>
        <time>2015-04-25T13:07:05.000Z</time>
      </trkpt>
      <trkpt lat="48.75957" lon="1.63356">
        <ele>156.2</ele>
        <time>2015-04-25T13:07:06.000Z</time>
      </trkpt>
      <trkpt lat="48.7597" lon="1.63352">
        <ele>156.3</ele>
        <time>2015-04-25T13:07:14.000Z</time>
      </trkpt>
      <trkpt lat="48.75982" lon="1.63354">
        <ele>156.4</ele>
        <time>2015-04-25T13:07:22.000Z</time>
      </trkpt>
      <trkpt lat="48.75988" lon="1.63358">
        <ele>156.7</ele>
        <time>2015-04-25T13:07:27.000Z</time>
      </trkpt>
      <trkpt lat="48.75992" lon="1.63357">
        <ele>156.6</ele>
        <time>2015-04-25T13:07:30.000Z</time>
      </trkpt>
      <trkpt lat="48.75998" lon="1.63353">
        <ele>156.2</ele>
        <time>2015-04-25T13:07:34.000Z</time>
      </trkpt>
      <trkpt lat="48.76005" lon="1.63352">
        <ele>155.9</ele>
        <time>2015-04-25T13:07:39.000Z</time>
      </trkpt>
      <trkpt lat="48.76017" lon="1.63348">
        <ele>155.2</ele>
        <time>2015-04-25T13:07:47.000Z</time>
      </trkpt>
      <trkpt lat="48.76024" lon="1.6334">
        <ele>154.5</ele>
        <time>2015-04-25T13:07:53.000Z</time>
      </trkpt>
      <trkpt lat="48.76037" lon="1.6334">
        <ele>154.5</ele>
        <time>2015-04-25T13:08:01.000Z</time>
      </trkpt>
      <trkpt lat="48.76046" lon="1.63342">
        <ele>154.6</ele>
        <time>2015-04-25T13:08:07.000Z</time>
      </trkpt>
      <trkpt lat="48.76053" lon="1.63344">
        <ele>154.7</ele>
        <time>2015-04-25T13:08:12.000Z</time>
      </trkpt>
      <trkpt lat="48.76061" lon="1.63343">
        <ele>154.6</ele>
        <time>2015-04-25T13:08:18.000Z</time>
      </trkpt>
      <trkpt lat="48.76069" lon="1.63344">
        <ele>154.5</ele>
        <time>2015-04-25T13:08:24.000Z</time>
      </trkpt>
      <trkpt lat="48.76081" lon="1.63349">
        <ele>154.8</ele>
        <time>2015-04-25T13:08:32.000Z</time>
      </trkpt>
      <trkpt lat="48.76089" lon="1.63352">
        <ele>155</ele>
        <time>2015-04-25T13:08:38.000Z</time>
      </trkpt>
      <trkpt lat="48.76093" lon="1.63355">
        <ele>155.3</ele>
        <time>2015-04-25T13:08:41.000Z</time>
      </trkpt>
      <trkpt lat="48.76099" lon="1.63358">
        <ele>155.6</ele>
        <time>2015-04-25T13:08:46.000Z</time>
      </trkpt>
      <trkpt lat="48.76101" lon="1.6336">
        <ele>155.8</ele>
        <time>2015-04-25T13:08:49.000Z</time>
      </trkpt>
      <trkpt lat="48.7611" lon="1.63364">
        <ele>156.2</ele>
        <time>2015-04-25T13:08:55.000Z</time>
      </trkpt>
      <trkpt lat="48.76118" lon="1.6337">
        <ele>156.4</ele>
        <time>2015-04-25T13:09:01.000Z</time>
      </trkpt>
      <trkpt lat="48.76122" lon="1.63372">
        <ele>156.4</ele>
        <time>2015-04-25T13:09:06.000Z</time>
      </trkpt>
      <trkpt lat="48.76127" lon="1.63375">
        <ele>156.4</ele>
        <time>2015-04-25T13:09:10.000Z</time>
      </trkpt>
      <trkpt lat="48.76129" lon="1.63377">
        <ele>156.5</ele>
        <time>2015-04-25T13:09:12.000Z</time>
      </trkpt>
      <trkpt lat="48.76132" lon="1.6338">
        <ele>156.6</ele>
        <time>2015-04-25T13:09:16.000Z</time>
      </trkpt>
      <trkpt lat="48.76143" lon="1.63382">
        <ele>156</ele>
        <time>2015-04-25T13:09:23.000Z</time>
      </trkpt>
      <trkpt lat="48.76147" lon="1.63383">
        <ele>155.5</ele>
        <time>2015-04-25T13:09:27.000Z</time>
      </trkpt>
      <trkpt lat="48.76148" lon="1.63382">
        <ele>155.3</ele>
        <time>2015-04-25T13:09:28.000Z</time>
      </trkpt>
      <trkpt lat="48.76156" lon="1.63383">
        <ele>154.2</ele>
        <time>2015-04-25T13:09:35.000Z</time>
      </trkpt>
      <trkpt lat="48.76163" lon="1.63385">
        <ele>153.4</ele>
        <time>2015-04-25T13:09:39.000Z</time>
      </trkpt>
      <trkpt lat="48.76168" lon="1.63385">
        <ele>152.7</ele>
        <time>2015-04-25T13:09:45.000Z</time>
      </trkpt>
      <trkpt lat="48.76172" lon="1.63383">
        <ele>152.2</ele>
        <time>2015-04-25T13:09:51.000Z</time>
      </trkpt>
      <trkpt lat="48.76183" lon="1.63394">
        <ele>151.4</ele>
        <time>2015-04-25T13:10:10.000Z</time>
      </trkpt>
      <trkpt lat="48.76186" lon="1.63397">
        <ele>151.3</ele>
        <time>2015-04-25T13:10:12.000Z</time>
      </trkpt>
      <trkpt lat="48.76191" lon="1.63403">
        <ele>150.9</ele>
        <time>2015-04-25T13:10:17.000Z</time>
      </trkpt>
      <trkpt lat="48.76194" lon="1.63403">
        <ele>150.6</ele>
        <time>2015-04-25T13:10:19.000Z</time>
      </trkpt>
      <trkpt lat="48.76197" lon="1.63404">
        <ele>150.4</ele>
        <time>2015-04-25T13:10:22.000Z</time>
      </trkpt>
      <trkpt lat="48.76205" lon="1.63407">
        <ele>149.9</ele>
        <time>2015-04-25T13:10:29.000Z</time>
      </trkpt>
      <trkpt lat="48.7621" lon="1.63409">
        <ele>149.6</ele>
        <time>2015-04-25T13:10:34.000Z</time>
      </trkpt>
      <trkpt lat="48.76216" lon="1.63416">
        <ele>149.4</ele>
        <time>2015-04-25T13:10:39.000Z</time>
      </trkpt>
      <trkpt lat="48.7622" lon="1.63416">
        <ele>149.2</ele>
        <time>2015-04-25T13:10:43.000Z</time>
      </trkpt>
      <trkpt lat="48.76222" lon="1.63416">
        <ele>149</ele>
        <time>2015-04-25T13:10:45.000Z</time>
      </trkpt>
      <trkpt lat="48.76227" lon="1.6342">
        <ele>148.8</ele>
        <time>2015-04-25T13:10:49.000Z</time>
      </trkpt>
      <trkpt lat="48.76235" lon="1.63425">
        <ele>148.4</ele>
        <time>2015-04-25T13:10:55.000Z</time>
      </trkpt>
      <trkpt lat="48.76242" lon="1.63435">
        <ele>148.2</ele>
        <time>2015-04-25T13:11:01.000Z</time>
      </trkpt>
      <trkpt lat="48.76249" lon="1.63439">
        <ele>147.9</ele>
        <time>2015-04-25T13:11:08.000Z</time>
      </trkpt>
      <trkpt lat="48.76257" lon="1.63446">
        <ele>147.6</ele>
        <time>2015-04-25T13:11:14.000Z</time>
      </trkpt>
      <trkpt lat="48.76265" lon="1.63449">
        <ele>147.1</ele>
        <time>2015-04-25T13:11:20.000Z</time>
      </trkpt>
      <trkpt lat="48.76273" lon="1.63452">
        <ele>146.6</ele>
        <time>2015-04-25T13:11:26.000Z</time>
      </trkpt>
      <trkpt lat="48.76274" lon="1.63453">
        <ele>146.6</ele>
        <time>2015-04-25T13:11:27.000Z</time>
      </trkpt>
      <trkpt lat="48.76281" lon="1.63457">
        <ele>146.1</ele>
        <time>2015-04-25T13:11:32.000Z</time>
      </trkpt>
      <trkpt lat="48.76291" lon="1.63467">
        <ele>145.4</ele>
        <time>2015-04-25T13:11:39.000Z</time>
      </trkpt>
      <trkpt lat="48.76292" lon="1.63469">
        <ele>145.4</ele>
        <time>2015-04-25T13:11:40.000Z</time>
      </trkpt>
      <trkpt lat="48.763" lon="1.6348">
        <ele>144.6</ele>
        <time>2015-04-25T13:11:48.000Z</time>
      </trkpt>
      <trkpt lat="48.76306" lon="1.63482">
        <ele>144</ele>
        <time>2015-04-25T13:11:52.000Z</time>
      </trkpt>
      <trkpt lat="48.76315" lon="1.63493">
        <ele>143.6</ele>
        <time>2015-04-25T13:11:59.000Z</time>
      </trkpt>
      <trkpt lat="48.76322" lon="1.63502">
        <ele>143.4</ele>
        <time>2015-04-25T13:12:05.000Z</time>
      </trkpt>
      <trkpt lat="48.76327" lon="1.6351">
        <ele>143.3</ele>
        <time>2015-04-25T13:12:11.000Z</time>
      </trkpt>
      <trkpt lat="48.76336" lon="1.63513">
        <ele>142.8</ele>
        <time>2015-04-25T13:12:17.000Z</time>
      </trkpt>
      <trkpt lat="48.76339" lon="1.63515">
        <ele>142.7</ele>
        <time>2015-04-25T13:12:20.000Z</time>
      </trkpt>
      <trkpt lat="48.76343" lon="1.63513">
        <ele>142.5</ele>
        <time>2015-04-25T13:12:23.000Z</time>
      </trkpt>
      <trkpt lat="48.76348" lon="1.63509">
        <ele>142.1</ele>
        <time>2015-04-25T13:12:28.000Z</time>
      </trkpt>
      <trkpt lat="48.76354" lon="1.635">
        <ele>141.5</ele>
        <time>2015-04-25T13:12:34.000Z</time>
      </trkpt>
      <trkpt lat="48.76362" lon="1.63499">
        <ele>140.9</ele>
        <time>2015-04-25T13:12:39.000Z</time>
      </trkpt>
      <trkpt lat="48.76369" lon="1.63497">
        <ele>140.6</ele>
        <time>2015-04-25T13:12:44.000Z</time>
      </trkpt>
      <trkpt lat="48.76381" lon="1.63491">
        <ele>140</ele>
        <time>2015-04-25T13:12:52.000Z</time>
      </trkpt>
      <trkpt lat="48.76389" lon="1.63488">
        <ele>139.6</ele>
        <time>2015-04-25T13:12:57.000Z</time>
      </trkpt>
      <trkpt lat="48.76397" lon="1.63486">
        <ele>139.4</ele>
        <time>2015-04-25T13:13:02.000Z</time>
      </trkpt>
      <trkpt lat="48.76407" lon="1.63484">
        <ele>139.1</ele>
        <time>2015-04-25T13:13:09.000Z</time>
      </trkpt>
      <trkpt lat="48.76412" lon="1.6348">
        <ele>139</ele>
        <time>2015-04-25T13:13:13.000Z</time>
      </trkpt>
      <trkpt lat="48.76423" lon="1.63479">
        <ele>138.5</ele>
        <time>2015-04-25T13:13:20.000Z</time>
      </trkpt>
      <trkpt lat="48.76429" lon="1.63478">
        <ele>138.1</ele>
        <time>2015-04-25T13:13:24.000Z</time>
      </trkpt>
      <trkpt lat="48.76439" lon="1.63475">
        <ele>137.4</ele>
        <time>2015-04-25T13:13:31.000Z</time>
      </trkpt>
      <trkpt lat="48.76441" lon="1.63475">
        <ele>137.3</ele>
        <time>2015-04-25T13:13:32.000Z</time>
      </trkpt>
      <trkpt lat="48.76449" lon="1.63467">
        <ele>136.9</ele>
        <time>2015-04-25T13:13:39.000Z</time>
      </trkpt>
      <trkpt lat="48.76454" lon="1.63462">
        <ele>136.8</ele>
        <time>2015-04-25T13:13:43.000Z</time>
      </trkpt>
      <trkpt lat="48.76462" lon="1.63462">
        <ele>136.6</ele>
        <time>2015-04-25T13:13:51.000Z</time>
      </trkpt>
      <trkpt lat="48.76473" lon="1.63453">
        <ele>136.7</ele>
        <time>2015-04-25T13:13:59.000Z</time>
      </trkpt>
      <trkpt lat="48.76476" lon="1.6345">
        <ele>136.7</ele>
        <time>2015-04-25T13:14:01.000Z</time>
      </trkpt>
      <trkpt lat="48.76483" lon="1.63447">
        <ele>136.5</ele>
        <time>2015-04-25T13:14:07.000Z</time>
      </trkpt>
      <trkpt lat="48.7649" lon="1.63441">
        <ele>136.2</ele>
        <time>2015-04-25T13:14:13.000Z</time>
      </trkpt>
      <trkpt lat="48.76504" lon="1.63433">
        <ele>135.5</ele>
        <time>2015-04-25T13:14:22.000Z</time>
      </trkpt>
      <trkpt lat="48.7651" lon="1.63431">
        <ele>135.3</ele>
        <time>2015-04-25T13:14:28.000Z</time>
      </trkpt>
      <trkpt lat="48.76517" lon="1.63428">
        <ele>135.2</ele>
        <time>2015-04-25T13:14:35.000Z</time>
      </trkpt>
      <trkpt lat="48.76517" lon="1.63426">
        <ele>135.1</ele>
        <time>2015-04-25T13:14:36.000Z</time>
      </trkpt>
      <trkpt lat="48.76524" lon="1.63426">
        <ele>135</ele>
        <time>2015-04-25T13:14:40.000Z</time>
      </trkpt>
      <trkpt lat="48.76534" lon="1.63419">
        <ele>135</ele>
        <time>2015-04-25T13:14:48.000Z</time>
      </trkpt>
      <trkpt lat="48.76543" lon="1.63416">
        <ele>135</ele>
        <time>2015-04-25T13:14:54.000Z</time>
      </trkpt>
      <trkpt lat="48.76552" lon="1.63407">
        <ele>135</ele>
        <time>2015-04-25T13:15:01.000Z</time>
      </trkpt>
      <trkpt lat="48.76554" lon="1.63406">
        <ele>135</ele>
        <time>2015-04-25T13:15:02.000Z</time>
      </trkpt>
      <trkpt lat="48.76564" lon="1.63402">
        <ele>135</ele>
        <time>2015-04-25T13:15:09.000Z</time>
      </trkpt>
      <trkpt lat="48.76567" lon="1.634">
        <ele>135</ele>
        <time>2015-04-25T13:15:11.000Z</time>
      </trkpt>
      <trkpt lat="48.76573" lon="1.63396">
        <ele>135</ele>
        <time>2015-04-25T13:15:16.000Z</time>
      </trkpt>
      <trkpt lat="48.7658" lon="1.63388">
        <ele>135</ele>
        <time>2015-04-25T13:15:23.000Z</time>
      </trkpt>
      <trkpt lat="48.76591" lon="1.63383">
        <ele>134.8</ele>
        <time>2015-04-25T13:15:31.000Z</time>
      </trkpt>
      <trkpt lat="48.76602" lon="1.63376">
        <ele>134.6</ele>
        <time>2015-04-25T13:15:39.000Z</time>
      </trkpt>
      <trkpt lat="48.7661" lon="1.63372">
        <ele>134.4</ele>
        <time>2015-04-25T13:15:45.000Z</time>
      </trkpt>
      <trkpt lat="48.76616" lon="1.63372">
        <ele>134.4</ele>
        <time>2015-04-25T13:15:50.000Z</time>
      </trkpt>
      <trkpt lat="48.76617" lon="1.63372">
        <ele>134.4</ele>
        <time>2015-04-25T13:15:53.000Z</time>
      </trkpt>
      <trkpt lat="48.76623" lon="1.63365">
        <ele>134.1</ele>
        <time>2015-04-25T13:16:15.000Z</time>
      </trkpt>
      <trkpt lat="48.76631" lon="1.63365">
        <ele>134.1</ele>
        <time>2015-04-25T13:16:20.000Z</time>
      </trkpt>
      <trkpt lat="48.76633" lon="1.63365">
        <ele>134.1</ele>
        <time>2015-04-25T13:16:22.000Z</time>
      </trkpt>
      <trkpt lat="48.76638" lon="1.63361">
        <ele>134</ele>
        <time>2015-04-25T13:16:27.000Z</time>
      </trkpt>
      <trkpt lat="48.76649" lon="1.63354">
        <ele>133.9</ele>
        <time>2015-04-25T13:16:36.000Z</time>
      </trkpt>
      <trkpt lat="48.7665" lon="1.63353">
        <ele>133.9</ele>
        <time>2015-04-25T13:16:37.000Z</time>
      </trkpt>
      <trkpt lat="48.76656" lon="1.63347">
        <ele>133.7</ele>
        <time>2015-04-25T13:16:42.000Z</time>
      </trkpt>
      <trkpt lat="48.76657" lon="1.63346">
        <ele>133.6</ele>
        <time>2015-04-25T13:16:43.000Z</time>
      </trkpt>
      <trkpt lat="48.76668" lon="1.63343">
        <ele>133.3</ele>
        <time>2015-04-25T13:16:51.000Z</time>
      </trkpt>
      <trkpt lat="48.76675" lon="1.63341">
        <ele>133.2</ele>
        <time>2015-04-25T13:16:57.000Z</time>
      </trkpt>
      <trkpt lat="48.76685" lon="1.63338">
        <ele>133.1</ele>
        <time>2015-04-25T13:17:05.000Z</time>
      </trkpt>
      <trkpt lat="48.76693" lon="1.63333">
        <ele>133</ele>
        <time>2015-04-25T13:17:11.000Z</time>
      </trkpt>
      <trkpt lat="48.76705" lon="1.63328">
        <ele>132.5</ele>
        <time>2015-04-25T13:17:20.000Z</time>
      </trkpt>
      <trkpt lat="48.76714" lon="1.63322">
        <ele>132.2</ele>
        <time>2015-04-25T13:17:27.000Z</time>
      </trkpt>
      <trkpt lat="48.76722" lon="1.63319">
        <ele>132</ele>
        <time>2015-04-25T13:17:33.000Z</time>
      </trkpt>
      <trkpt lat="48.76729" lon="1.63313">
        <ele>131.8</ele>
        <time>2015-04-25T13:17:40.000Z</time>
      </trkpt>
      <trkpt lat="48.7674" lon="1.63306">
        <ele>131.4</ele>
        <time>2015-04-25T13:17:49.000Z</time>
      </trkpt>
      <trkpt lat="48.7675" lon="1.63297">
        <ele>131</ele>
        <time>2015-04-25T13:17:57.000Z</time>
      </trkpt>
      <trkpt lat="48.7676" lon="1.6329">
        <ele>130.8</ele>
        <time>2015-04-25T13:18:06.000Z</time>
      </trkpt>
      <trkpt lat="48.7677" lon="1.63286">
        <ele>130.5</ele>
        <time>2015-04-25T13:18:14.000Z</time>
      </trkpt>
      <trkpt lat="48.76783" lon="1.63278">
        <ele>130</ele>
        <time>2015-04-25T13:18:24.000Z</time>
      </trkpt>
      <trkpt lat="48.76795" lon="1.63271">
        <ele>130</ele>
        <time>2015-04-25T13:18:34.000Z</time>
      </trkpt>
      <trkpt lat="48.76806" lon="1.63266">
        <ele>130</ele>
        <time>2015-04-25T13:18:42.000Z</time>
      </trkpt>
      <trkpt lat="48.76818" lon="1.63262">
        <ele>129.7</ele>
        <time>2015-04-25T13:18:51.000Z</time>
      </trkpt>
      <trkpt lat="48.76826" lon="1.63262">
        <ele>129.6</ele>
        <time>2015-04-25T13:18:56.000Z</time>
      </trkpt>
      <trkpt lat="48.76836" lon="1.63257">
        <ele>129.2</ele>
        <time>2015-04-25T13:19:04.000Z</time>
      </trkpt>
      <trkpt lat="48.76842" lon="1.63249">
        <ele>129</ele>
        <time>2015-04-25T13:19:10.000Z</time>
      </trkpt>
      <trkpt lat="48.76844" lon="1.63247">
        <ele>129</ele>
        <time>2015-04-25T13:19:11.000Z</time>
      </trkpt>
      <trkpt lat="48.76848" lon="1.63234">
        <ele>129</ele>
        <time>2015-04-25T13:19:18.000Z</time>
      </trkpt>
      <trkpt lat="48.7685" lon="1.63216">
        <ele>128.9</ele>
        <time>2015-04-25T13:19:26.000Z</time>
      </trkpt>
      <trkpt lat="48.7685" lon="1.632">
        <ele>128.5</ele>
        <time>2015-04-25T13:19:33.000Z</time>
      </trkpt>
      <trkpt lat="48.76846" lon="1.63177">
        <ele>128.2</ele>
        <time>2015-04-25T13:19:43.000Z</time>
      </trkpt>
      <trkpt lat="48.76843" lon="1.6316">
        <ele>128</ele>
        <time>2015-04-25T13:19:51.000Z</time>
      </trkpt>
      <trkpt lat="48.76838" lon="1.63142">
        <ele>128</ele>
        <time>2015-04-25T13:20:00.000Z</time>
      </trkpt>
      <trkpt lat="48.76835" lon="1.6313">
        <ele>128</ele>
        <time>2015-04-25T13:20:07.000Z</time>
      </trkpt>
      <trkpt lat="48.76834" lon="1.63127">
        <ele>128</ele>
        <time>2015-04-25T13:20:12.000Z</time>
      </trkpt>
      <trkpt lat="48.76826" lon="1.63131">
        <ele>128</ele>
        <time>2015-04-25T13:20:54.000Z</time>
      </trkpt>
      <trkpt lat="48.76824" lon="1.63121">
        <ele>128</ele>
        <time>2015-04-25T13:20:57.000Z</time>
      </trkpt>
      <trkpt lat="48.76818" lon="1.63103">
        <ele>127.7</ele>
        <time>2015-04-25T13:21:05.000Z</time>
      </trkpt>
      <trkpt lat="48.76814" lon="1.63088">
        <ele>127.2</ele>
        <time>2015-04-25T13:21:13.000Z</time>
      </trkpt>
      <trkpt lat="48.76807" lon="1.63069">
        <ele>127</ele>
        <time>2015-04-25T13:21:22.000Z</time>
      </trkpt>
      <trkpt lat="48.76802" lon="1.6305">
        <ele>127</ele>
        <time>2015-04-25T13:21:30.000Z</time>
      </trkpt>
      <trkpt lat="48.76796" lon="1.63031">
        <ele>127</ele>
        <time>2015-04-25T13:21:35.000Z</time>
      </trkpt>
      <trkpt lat="48.76793" lon="1.63015">
        <ele>126.6</ele>
        <time>2015-04-25T13:21:41.000Z</time>
      </trkpt>
      <trkpt lat="48.76789" lon="1.62998">
        <ele>126</ele>
        <time>2015-04-25T13:21:49.000Z</time>
      </trkpt>
      <trkpt lat="48.76784" lon="1.62975">
        <ele>126</ele>
        <time>2015-04-25T13:21:58.000Z</time>
      </trkpt>
      <trkpt lat="48.76781" lon="1.62956">
        <ele>125.4</ele>
        <time>2015-04-25T13:22:06.000Z</time>
      </trkpt>
      <trkpt lat="48.76781" lon="1.6295">
        <ele>125.2</ele>
        <time>2015-04-25T13:22:10.000Z</time>
      </trkpt>
      <trkpt lat="48.76781" lon="1.6295">
        <ele>125.2</ele>
        <time>2015-04-25T13:22:11.000Z</time>
      </trkpt>
      <trkpt lat="48.76788" lon="1.62957">
        <ele>125.4</ele>
        <time>2015-04-25T13:22:40.000Z</time>
      </trkpt>
      <trkpt lat="48.76793" lon="1.62955">
        <ele>125.4</ele>
        <time>2015-04-25T13:22:43.000Z</time>
      </trkpt>
      <trkpt lat="48.76801" lon="1.62947">
        <ele>125.1</ele>
        <time>2015-04-25T13:22:50.000Z</time>
      </trkpt>
      <trkpt lat="48.76809" lon="1.62937">
        <ele>125</ele>
        <time>2015-04-25T13:22:57.000Z</time>
      </trkpt>
      <trkpt lat="48.76819" lon="1.62929">
        <ele>124.7</ele>
        <time>2015-04-25T13:23:04.000Z</time>
      </trkpt>
      <trkpt lat="48.76824" lon="1.62924">
        <ele>124.5</ele>
        <time>2015-04-25T13:23:11.000Z</time>
      </trkpt>
      <trkpt lat="48.7683" lon="1.62916">
        <ele>124.1</ele>
        <time>2015-04-25T13:23:33.000Z</time>
      </trkpt>
      <trkpt lat="48.76842" lon="1.62904">
        <ele>123.9</ele>
        <time>2015-04-25T13:23:41.000Z</time>
      </trkpt>
      <trkpt lat="48.76852" lon="1.62896">
        <ele>123.5</ele>
        <time>2015-04-25T13:23:49.000Z</time>
      </trkpt>
      <trkpt lat="48.76862" lon="1.62887">
        <ele>123</ele>
        <time>2015-04-25T13:23:57.000Z</time>
      </trkpt>
      <trkpt lat="48.76872" lon="1.62877">
        <ele>122.8</ele>
        <time>2015-04-25T13:24:06.000Z</time>
      </trkpt>
      <trkpt lat="48.7688" lon="1.6287">
        <ele>122.5</ele>
        <time>2015-04-25T13:24:13.000Z</time>
      </trkpt>
      <trkpt lat="48.76883" lon="1.62868">
        <ele>122.4</ele>
        <time>2015-04-25T13:24:15.000Z</time>
      </trkpt>
      <trkpt lat="48.76895" lon="1.62858">
        <ele>121.8</ele>
        <time>2015-04-25T13:24:22.000Z</time>
      </trkpt>
      <trkpt lat="48.76902" lon="1.6285">
        <ele>121.3</ele>
        <time>2015-04-25T13:24:27.000Z</time>
      </trkpt>
      <trkpt lat="48.76914" lon="1.62838">
        <ele>120.4</ele>
        <time>2015-04-25T13:24:36.000Z</time>
      </trkpt>
      <trkpt lat="48.76924" lon="1.62823">
        <ele>119.9</ele>
        <time>2015-04-25T13:24:45.000Z</time>
      </trkpt>
      <trkpt lat="48.76931" lon="1.6281">
        <ele>119.6</ele>
        <time>2015-04-25T13:24:52.000Z</time>
      </trkpt>
      <trkpt lat="48.76938" lon="1.62789">
        <ele>119.2</ele>
        <time>2015-04-25T13:24:58.000Z</time>
      </trkpt>
      <trkpt lat="48.76948" lon="1.6276">
        <ele>118.8</ele>
        <time>2015-04-25T13:25:05.000Z</time>
      </trkpt>
      <trkpt lat="48.76964" lon="1.62716">
        <ele>117.8</ele>
        <time>2015-04-25T13:25:14.000Z</time>
      </trkpt>
      <trkpt lat="48.76977" lon="1.62681">
        <ele>117</ele>
        <time>2015-04-25T13:25:21.000Z</time>
      </trkpt>
      <trkpt lat="48.76996" lon="1.62632">
        <ele>117</ele>
        <time>2015-04-25T13:25:30.000Z</time>
      </trkpt>
      <trkpt lat="48.77015" lon="1.62579">
        <ele>116</ele>
        <time>2015-04-25T13:25:39.000Z</time>
      </trkpt>
      <trkpt lat="48.77035" lon="1.62518">
        <ele>116.3</ele>
        <time>2015-04-25T13:25:48.000Z</time>
      </trkpt>
      <trkpt lat="48.77053" lon="1.6246">
        <ele>116.9</ele>
        <time>2015-04-25T13:25:57.000Z</time>
      </trkpt>
      <trkpt lat="48.7707" lon="1.624">
        <ele>116.5</ele>
        <time>2015-04-25T13:26:07.000Z</time>
      </trkpt>
      <trkpt lat="48.77088" lon="1.6233">
        <ele>117.2</ele>
        <time>2015-04-25T13:26:18.000Z</time>
      </trkpt>
      <trkpt lat="48.77099" lon="1.62281">
        <ele>116.6</ele>
        <time>2015-04-25T13:26:26.000Z</time>
      </trkpt>
      <trkpt lat="48.77111" lon="1.62218">
        <ele>116</ele>
        <time>2015-04-25T13:26:37.000Z</time>
      </trkpt>
      <trkpt lat="48.77119" lon="1.62173">
        <ele>114.8</ele>
        <time>2015-04-25T13:26:45.000Z</time>
      </trkpt>
      <trkpt lat="48.77123" lon="1.62153">
        <ele>114.1</ele>
        <time>2015-04-25T13:26:51.000Z</time>
      </trkpt>
      <trkpt lat="48.7713" lon="1.62128">
        <ele>114</ele>
        <time>2015-04-25T13:27:02.000Z</time>
      </trkpt>
      <trkpt lat="48.77133" lon="1.6211">
        <ele>114</ele>
        <time>2015-04-25T13:27:10.000Z</time>
      </trkpt>
      <trkpt lat="48.77135" lon="1.62097">
        <ele>114</ele>
        <time>2015-04-25T13:27:16.000Z</time>
      </trkpt>
      <trkpt lat="48.77138" lon="1.62079">
        <ele>114</ele>
        <time>2015-04-25T13:27:24.000Z</time>
      </trkpt>
      <trkpt lat="48.7714" lon="1.62058">
        <ele>114</ele>
        <time>2015-04-25T13:27:33.000Z</time>
      </trkpt>
      <trkpt lat="48.77142" lon="1.62039">
        <ele>114</ele>
        <time>2015-04-25T13:27:41.000Z</time>
      </trkpt>
      <trkpt lat="48.77142" lon="1.62037">
        <ele>114</ele>
        <time>2015-04-25T13:27:42.000Z</time>
      </trkpt>
      <trkpt lat="48.77144" lon="1.62018">
        <ele>114.1</ele>
        <time>2015-04-25T13:27:51.000Z</time>
      </trkpt>
      <trkpt lat="48.77146" lon="1.62">
        <ele>114.3</ele>
        <time>2015-04-25T13:27:59.000Z</time>
      </trkpt>
      <trkpt lat="48.77148" lon="1.61987">
        <ele>114.6</ele>
        <time>2015-04-25T13:28:05.000Z</time>
      </trkpt>
      <trkpt lat="48.77148" lon="1.61975">
        <ele>114.9</ele>
        <time>2015-04-25T13:28:11.000Z</time>
      </trkpt>
      <trkpt lat="48.77149" lon="1.61967">
        <ele>115</ele>
        <time>2015-04-25T13:28:17.000Z</time>
      </trkpt>
      <trkpt lat="48.77149" lon="1.61965">
        <ele>115</ele>
        <time>2015-04-25T13:28:18.000Z</time>
      </trkpt>
      <trkpt lat="48.77153" lon="1.61942">
        <ele>115</ele>
        <time>2015-04-25T13:28:29.000Z</time>
      </trkpt>
      <trkpt lat="48.77153" lon="1.61925">
        <ele>115</ele>
        <time>2015-04-25T13:28:37.000Z</time>
      </trkpt>
      <trkpt lat="48.77153" lon="1.6191">
        <ele>115.1</ele>
        <time>2015-04-25T13:28:44.000Z</time>
      </trkpt>
      <trkpt lat="48.77156" lon="1.61892">
        <ele>115.4</ele>
        <time>2015-04-25T13:28:52.000Z</time>
      </trkpt>
      <trkpt lat="48.77158" lon="1.61876">
        <ele>115.6</ele>
        <time>2015-04-25T13:29:00.000Z</time>
      </trkpt>
      <trkpt lat="48.77163" lon="1.61856">
        <ele>116</ele>
        <time>2015-04-25T13:29:10.000Z</time>
      </trkpt>
      <trkpt lat="48.77168" lon="1.61841">
        <ele>116</ele>
        <time>2015-04-25T13:29:18.000Z</time>
      </trkpt>
      <trkpt lat="48.77171" lon="1.61825">
        <ele>116</ele>
        <time>2015-04-25T13:29:26.000Z</time>
      </trkpt>
      <trkpt lat="48.77175" lon="1.61813">
        <ele>116</ele>
        <time>2015-04-25T13:29:32.000Z</time>
      </trkpt>
      <trkpt lat="48.7718" lon="1.61803">
        <ele>116.1</ele>
        <time>2015-04-25T13:29:38.000Z</time>
      </trkpt>
      <trkpt lat="48.77185" lon="1.61788">
        <ele>116.6</ele>
        <time>2015-04-25T13:29:46.000Z</time>
      </trkpt>
      <trkpt lat="48.7719" lon="1.61772">
        <ele>117</ele>
        <time>2015-04-25T13:29:54.000Z</time>
      </trkpt>
      <trkpt lat="48.77194" lon="1.61756">
        <ele>117</ele>
        <time>2015-04-25T13:30:02.000Z</time>
      </trkpt>
      <trkpt lat="48.772" lon="1.61733">
        <ele>117</ele>
        <time>2015-04-25T13:30:12.000Z</time>
      </trkpt>
      <trkpt lat="48.77202" lon="1.61716">
        <ele>117.2</ele>
        <time>2015-04-25T13:30:17.000Z</time>
      </trkpt>
      <trkpt lat="48.77204" lon="1.61702">
        <ele>117.5</ele>
        <time>2015-04-25T13:30:24.000Z</time>
      </trkpt>
      <trkpt lat="48.77205" lon="1.61697">
        <ele>117.6</ele>
        <time>2015-04-25T13:30:29.000Z</time>
      </trkpt>
      <trkpt lat="48.77207" lon="1.61687">
        <ele>117.7</ele>
        <time>2015-04-25T13:32:21.000Z</time>
      </trkpt>
      <trkpt lat="48.77209" lon="1.6167">
        <ele>117.9</ele>
        <time>2015-04-25T13:32:28.000Z</time>
      </trkpt>
      <trkpt lat="48.77211" lon="1.61646">
        <ele>118</ele>
        <time>2015-04-25T13:32:39.000Z</time>
      </trkpt>
      <trkpt lat="48.77212" lon="1.61631">
        <ele>118.1</ele>
        <time>2015-04-25T13:32:46.000Z</time>
      </trkpt>
      <trkpt lat="48.77212" lon="1.6163">
        <ele>118.1</ele>
        <time>2015-04-25T13:32:49.000Z</time>
      </trkpt>
      <trkpt lat="48.77213" lon="1.61622">
        <ele>118.2</ele>
        <time>2015-04-25T13:32:57.000Z</time>
      </trkpt>
      <trkpt lat="48.77213" lon="1.61608">
        <ele>118.4</ele>
        <time>2015-04-25T13:33:02.000Z</time>
      </trkpt>
      <trkpt lat="48.77213" lon="1.61592">
        <ele>118.8</ele>
        <time>2015-04-25T13:33:09.000Z</time>
      </trkpt>
      <trkpt lat="48.77212" lon="1.61574">
        <ele>119</ele>
        <time>2015-04-25T13:33:16.000Z</time>
      </trkpt>
      <trkpt lat="48.77212" lon="1.61559">
        <ele>119</ele>
        <time>2015-04-25T13:33:23.000Z</time>
      </trkpt>
      <trkpt lat="48.77212" lon="1.61543">
        <ele>119</ele>
        <time>2015-04-25T13:33:30.000Z</time>
      </trkpt>
      <trkpt lat="48.77211" lon="1.61519">
        <ele>119.1</ele>
        <time>2015-04-25T13:33:41.000Z</time>
      </trkpt>
      <trkpt lat="48.77213" lon="1.61505">
        <ele>119.3</ele>
        <time>2015-04-25T13:33:48.000Z</time>
      </trkpt>
      <trkpt lat="48.77217" lon="1.61497">
        <ele>119.2</ele>
        <time>2015-04-25T13:33:53.000Z</time>
      </trkpt>
      <trkpt lat="48.77229" lon="1.61493">
        <ele>119</ele>
        <time>2015-04-25T13:33:59.000Z</time>
      </trkpt>
      <trkpt lat="48.7724" lon="1.61489">
        <ele>119</ele>
        <time>2015-04-25T13:34:05.000Z</time>
      </trkpt>
      <trkpt lat="48.77241" lon="1.61489">
        <ele>119</ele>
        <time>2015-04-25T13:34:06.000Z</time>
      </trkpt>
      <trkpt lat="48.77247" lon="1.61485">
        <ele>119</ele>
        <time>2015-04-25T13:34:10.000Z</time>
      </trkpt>
      <trkpt lat="48.77263" lon="1.61484">
        <ele>118.7</ele>
        <time>2015-04-25T13:34:20.000Z</time>
      </trkpt>
      <trkpt lat="48.77273" lon="1.61486">
        <ele>118.6</ele>
        <time>2015-04-25T13:34:25.000Z</time>
      </trkpt>
      <trkpt lat="48.77285" lon="1.61488">
        <ele>118.4</ele>
        <time>2015-04-25T13:34:33.000Z</time>
      </trkpt>
      <trkpt lat="48.77299" lon="1.61489">
        <ele>118.1</ele>
        <time>2015-04-25T13:34:42.000Z</time>
      </trkpt>
      <trkpt lat="48.77312" lon="1.61492">
        <ele>118</ele>
        <time>2015-04-25T13:34:51.000Z</time>
      </trkpt>
      <trkpt lat="48.77323" lon="1.61493">
        <ele>118</ele>
        <time>2015-04-25T13:34:59.000Z</time>
      </trkpt>
      <trkpt lat="48.77335" lon="1.61495">
        <ele>118</ele>
        <time>2015-04-25T13:35:08.000Z</time>
      </trkpt>
      <trkpt lat="48.77345" lon="1.61496">
        <ele>117.9</ele>
        <time>2015-04-25T13:35:15.000Z</time>
      </trkpt>
      <trkpt lat="48.77356" lon="1.61495">
        <ele>117.9</ele>
        <time>2015-04-25T13:35:23.000Z</time>
      </trkpt>
      <trkpt lat="48.77363" lon="1.61496">
        <ele>117.9</ele>
        <time>2015-04-25T13:35:28.000Z</time>
      </trkpt>
      <trkpt lat="48.77373" lon="1.61495">
        <ele>117.8</ele>
        <time>2015-04-25T13:35:35.000Z</time>
      </trkpt>
      <trkpt lat="48.77388" lon="1.61494">
        <ele>117.8</ele>
        <time>2015-04-25T13:35:45.000Z</time>
      </trkpt>
      <trkpt lat="48.774" lon="1.61493">
        <ele>117.7</ele>
        <time>2015-04-25T13:35:54.000Z</time>
      </trkpt>
      <trkpt lat="48.77414" lon="1.6149">
        <ele>117.7</ele>
        <time>2015-04-25T13:36:04.000Z</time>
      </trkpt>
      <trkpt lat="48.7743" lon="1.61487">
        <ele>117.8</ele>
        <time>2015-04-25T13:36:14.000Z</time>
      </trkpt>
      <trkpt lat="48.77447" lon="1.61479">
        <ele>117.9</ele>
        <time>2015-04-25T13:36:26.000Z</time>
      </trkpt>
      <trkpt lat="48.77458" lon="1.61472">
        <ele>117.5</ele>
        <time>2015-04-25T13:36:34.000Z</time>
      </trkpt>
      <trkpt lat="48.77464" lon="1.61463">
        <ele>117.2</ele>
        <time>2015-04-25T13:36:41.000Z</time>
      </trkpt>
      <trkpt lat="48.77467" lon="1.61445">
        <ele>117</ele>
        <time>2015-04-25T13:36:50.000Z</time>
      </trkpt>
      <trkpt lat="48.7747" lon="1.61425">
        <ele>116.4</ele>
        <time>2015-04-25T13:36:59.000Z</time>
      </trkpt>
      <trkpt lat="48.77472" lon="1.61413">
        <ele>116</ele>
        <time>2015-04-25T13:37:06.000Z</time>
      </trkpt>
      <trkpt lat="48.77472" lon="1.61413">
        <ele>116</ele>
        <time>2015-04-25T13:37:07.000Z</time>
      </trkpt>
      <trkpt lat="48.7747" lon="1.61404">
        <ele>116</ele>
        <time>2015-04-25T13:37:36.000Z</time>
      </trkpt>
      <trkpt lat="48.77472" lon="1.6139">
        <ele>116</ele>
        <time>2015-04-25T13:37:42.000Z</time>
      </trkpt>
      <trkpt lat="48.77474" lon="1.61382">
        <ele>115.7</ele>
        <time>2015-04-25T13:37:47.000Z</time>
      </trkpt>
      <trkpt lat="48.77475" lon="1.61373">
        <ele>115.4</ele>
        <time>2015-04-25T13:37:54.000Z</time>
      </trkpt>
      <trkpt lat="48.77476" lon="1.61365">
        <ele>115.2</ele>
        <time>2015-04-25T13:38:00.000Z</time>
      </trkpt>
      <trkpt lat="48.77481" lon="1.61339">
        <ele>114.8</ele>
        <time>2015-04-25T13:38:11.000Z</time>
      </trkpt>
      <trkpt lat="48.77484" lon="1.61317">
        <ele>114.2</ele>
        <time>2015-04-25T13:38:21.000Z</time>
      </trkpt>
      <trkpt lat="48.77486" lon="1.61304">
        <ele>114</ele>
        <time>2015-04-25T13:38:27.000Z</time>
      </trkpt>
      <trkpt lat="48.77489" lon="1.61286">
        <ele>114</ele>
        <time>2015-04-25T13:38:36.000Z</time>
      </trkpt>
      <trkpt lat="48.77492" lon="1.61267">
        <ele>113.6</ele>
        <time>2015-04-25T13:38:43.000Z</time>
      </trkpt>
      <trkpt lat="48.77496" lon="1.61246">
        <ele>112.8</ele>
        <time>2015-04-25T13:38:49.000Z</time>
      </trkpt>
      <trkpt lat="48.77497" lon="1.61239">
        <ele>112.6</ele>
        <time>2015-04-25T13:38:52.000Z</time>
      </trkpt>
      <trkpt lat="48.77499" lon="1.61227">
        <ele>112.2</ele>
        <time>2015-04-25T13:38:58.000Z</time>
      </trkpt>
      <trkpt lat="48.77503" lon="1.61208">
        <ele>111.4</ele>
        <time>2015-04-25T13:39:07.000Z</time>
      </trkpt>
      <trkpt lat="48.77507" lon="1.61186">
        <ele>110.9</ele>
        <time>2015-04-25T13:39:17.000Z</time>
      </trkpt>
      <trkpt lat="48.77512" lon="1.61165">
        <ele>110.5</ele>
        <time>2015-04-25T13:39:27.000Z</time>
      </trkpt>
      <trkpt lat="48.77518" lon="1.61141">
        <ele>109.4</ele>
        <time>2015-04-25T13:39:38.000Z</time>
      </trkpt>
      <trkpt lat="48.77519" lon="1.61127">
        <ele>109.2</ele>
        <time>2015-04-25T13:39:45.000Z</time>
      </trkpt>
      <trkpt lat="48.77525" lon="1.61102">
        <ele>108.7</ele>
        <time>2015-04-25T13:39:56.000Z</time>
      </trkpt>
      <trkpt lat="48.77529" lon="1.61085">
        <ele>107.9</ele>
        <time>2015-04-25T13:40:04.000Z</time>
      </trkpt>
      <trkpt lat="48.77531" lon="1.61078">
        <ele>107.6</ele>
        <time>2015-04-25T13:40:07.000Z</time>
      </trkpt>
      <trkpt lat="48.77535" lon="1.61063">
        <ele>106.7</ele>
        <time>2015-04-25T13:40:14.000Z</time>
      </trkpt>
      <trkpt lat="48.77539" lon="1.61045">
        <ele>105.8</ele>
        <time>2015-04-25T13:40:22.000Z</time>
      </trkpt>
      <trkpt lat="48.77541" lon="1.61028">
        <ele>105.1</ele>
        <time>2015-04-25T13:40:30.000Z</time>
      </trkpt>
      <trkpt lat="48.77541" lon="1.61013">
        <ele>104</ele>
        <time>2015-04-25T13:40:37.000Z</time>
      </trkpt>
      <trkpt lat="48.77535" lon="1.60992">
        <ele>103.3</ele>
        <time>2015-04-25T13:40:46.000Z</time>
      </trkpt>
      <trkpt lat="48.77531" lon="1.60972">
        <ele>102.9</ele>
        <time>2015-04-25T13:40:55.000Z</time>
      </trkpt>
      <trkpt lat="48.77531" lon="1.6097">
        <ele>102.8</ele>
        <time>2015-04-25T13:40:56.000Z</time>
      </trkpt>
      <trkpt lat="48.77534" lon="1.60959">
        <ele>102.4</ele>
        <time>2015-04-25T13:41:02.000Z</time>
      </trkpt>
      <trkpt lat="48.7754" lon="1.60946">
        <ele>102</ele>
        <time>2015-04-25T13:41:10.000Z</time>
      </trkpt>
      <trkpt lat="48.77546" lon="1.60936">
        <ele>102.2</ele>
        <time>2015-04-25T13:41:18.000Z</time>
      </trkpt>
      <trkpt lat="48.77546" lon="1.60936">
        <ele>102.2</ele>
        <time>2015-04-25T13:41:19.000Z</time>
      </trkpt>
      <trkpt lat="48.77558" lon="1.60931">
        <ele>102.5</ele>
        <time>2015-04-25T13:44:10.000Z</time>
      </trkpt>
      <trkpt lat="48.77562" lon="1.60926">
        <ele>102.7</ele>
        <time>2015-04-25T13:44:13.000Z</time>
      </trkpt>
      <trkpt lat="48.77565" lon="1.60918">
        <ele>103</ele>
        <time>2015-04-25T13:44:19.000Z</time>
      </trkpt>
      <trkpt lat="48.77568" lon="1.60902">
        <ele>103.3</ele>
        <time>2015-04-25T13:44:26.000Z</time>
      </trkpt>
      <trkpt lat="48.77575" lon="1.60887">
        <ele>103.7</ele>
        <time>2015-04-25T13:44:34.000Z</time>
      </trkpt>
      <trkpt lat="48.77577" lon="1.60874">
        <ele>103.8</ele>
        <time>2015-04-25T13:44:40.000Z</time>
      </trkpt>
      <trkpt lat="48.77578" lon="1.6086">
        <ele>103.8</ele>
        <time>2015-04-25T13:44:47.000Z</time>
      </trkpt>
      <trkpt lat="48.77577" lon="1.60848">
        <ele>104.1</ele>
        <time>2015-04-25T13:44:53.000Z</time>
      </trkpt>
      <trkpt lat="48.77577" lon="1.60839">
        <ele>104.4</ele>
        <time>2015-04-25T13:44:57.000Z</time>
      </trkpt>
      <trkpt lat="48.77576" lon="1.60824">
        <ele>104.7</ele>
        <time>2015-04-25T13:45:04.000Z</time>
      </trkpt>
      <trkpt lat="48.77577" lon="1.6081">
        <ele>105.2</ele>
        <time>2015-04-25T13:45:10.000Z</time>
      </trkpt>
      <trkpt lat="48.77577" lon="1.60798">
        <ele>105.6</ele>
        <time>2015-04-25T13:45:15.000Z</time>
      </trkpt>
      <trkpt lat="48.77576" lon="1.60779">
        <ele>106.2</ele>
        <time>2015-04-25T13:45:23.000Z</time>
      </trkpt>
      <trkpt lat="48.77577" lon="1.60758">
        <ele>107</ele>
        <time>2015-04-25T13:45:32.000Z</time>
      </trkpt>
      <trkpt lat="48.77576" lon="1.60743">
        <ele>107.5</ele>
        <time>2015-04-25T13:45:38.000Z</time>
      </trkpt>
      <trkpt lat="48.77577" lon="1.60736">
        <ele>107.8</ele>
        <time>2015-04-25T13:45:42.000Z</time>
      </trkpt>
      <trkpt lat="48.77576" lon="1.60719">
        <ele>108.1</ele>
        <time>2015-04-25T13:45:50.000Z</time>
      </trkpt>
      <trkpt lat="48.77576" lon="1.607">
        <ele>107.6</ele>
        <time>2015-04-25T13:45:59.000Z</time>
      </trkpt>
      <trkpt lat="48.77577" lon="1.6068">
        <ele>108.9</ele>
        <time>2015-04-25T13:46:08.000Z</time>
      </trkpt>
      <trkpt lat="48.77576" lon="1.60666">
        <ele>110.2</ele>
        <time>2015-04-25T13:46:13.000Z</time>
      </trkpt>
      <trkpt lat="48.77573" lon="1.60644">
        <ele>109.4</ele>
        <time>2015-04-25T13:46:19.000Z</time>
      </trkpt>
      <trkpt lat="48.77572" lon="1.60635">
        <ele>109.4</ele>
        <time>2015-04-25T13:46:24.000Z</time>
      </trkpt>
      <trkpt lat="48.77571" lon="1.60623">
        <ele>110</ele>
        <time>2015-04-25T13:46:31.000Z</time>
      </trkpt>
      <trkpt lat="48.77568" lon="1.60605">
        <ele>110.6</ele>
        <time>2015-04-25T13:46:40.000Z</time>
      </trkpt>
      <trkpt lat="48.77567" lon="1.60599">
        <ele>110.7</ele>
        <time>2015-04-25T13:46:43.000Z</time>
      </trkpt>
      <trkpt lat="48.77567" lon="1.60582">
        <ele>111.3</ele>
        <time>2015-04-25T13:46:51.000Z</time>
      </trkpt>
      <trkpt lat="48.77567" lon="1.60565">
        <ele>111.6</ele>
        <time>2015-04-25T13:47:00.000Z</time>
      </trkpt>
      <trkpt lat="48.77566" lon="1.60547">
        <ele>111.9</ele>
        <time>2015-04-25T13:47:09.000Z</time>
      </trkpt>
      <trkpt lat="48.77567" lon="1.60526">
        <ele>112.5</ele>
        <time>2015-04-25T13:47:20.000Z</time>
      </trkpt>
      <trkpt lat="48.77568" lon="1.60511">
        <ele>112.7</ele>
        <time>2015-04-25T13:47:27.000Z</time>
      </trkpt>
      <trkpt lat="48.77571" lon="1.60495">
        <ele>113.3</ele>
        <time>2015-04-25T13:47:35.000Z</time>
      </trkpt>
      <trkpt lat="48.77574" lon="1.60475">
        <ele>114.2</ele>
        <time>2015-04-25T13:47:45.000Z</time>
      </trkpt>
      <trkpt lat="48.77574" lon="1.60468">
        <ele>114.3</ele>
        <time>2015-04-25T13:47:51.000Z</time>
      </trkpt>
      <trkpt lat="48.77574" lon="1.60455">
        <ele>113.9</ele>
        <time>2015-04-25T13:48:23.000Z</time>
      </trkpt>
      <trkpt lat="48.77574" lon="1.60438">
        <ele>114.1</ele>
        <time>2015-04-25T13:48:30.000Z</time>
      </trkpt>
      <trkpt lat="48.77573" lon="1.6042">
        <ele>115.1</ele>
        <time>2015-04-25T13:48:39.000Z</time>
      </trkpt>
      <trkpt lat="48.7757" lon="1.60403">
        <ele>115.1</ele>
        <time>2015-04-25T13:48:48.000Z</time>
      </trkpt>
      <trkpt lat="48.77568" lon="1.60388">
        <ele>114.9</ele>
        <time>2015-04-25T13:48:56.000Z</time>
      </trkpt>
      <trkpt lat="48.77572" lon="1.60388">
        <ele>115.2</ele>
        <time>2015-04-25T13:49:01.000Z</time>
      </trkpt>
      <trkpt lat="48.77574" lon="1.6039">
        <ele>115.3</ele>
        <time>2015-04-25T13:49:05.000Z</time>
      </trkpt>
      <trkpt lat="48.77588" lon="1.60406">
        <ele>116.2</ele>
        <time>2015-04-25T13:58:49.000Z</time>
      </trkpt>
      <trkpt lat="48.77589" lon="1.60408">
        <ele>116.2</ele>
        <time>2015-04-25T13:58:51.000Z</time>
      </trkpt>
      <trkpt lat="48.77593" lon="1.60417">
        <ele>116.3</ele>
        <time>2015-04-25T13:58:56.000Z</time>
      </trkpt>
      <trkpt lat="48.77595" lon="1.60425">
        <ele>116</ele>
        <time>2015-04-25T13:59:01.000Z</time>
      </trkpt>
      <trkpt lat="48.77598" lon="1.60432">
        <ele>115.7</ele>
        <time>2015-04-25T13:59:06.000Z</time>
      </trkpt>
      <trkpt lat="48.77603" lon="1.60441">
        <ele>115.5</ele>
        <time>2015-04-25T13:59:12.000Z</time>
      </trkpt>
      <trkpt lat="48.77604" lon="1.60444">
        <ele>115.5</ele>
        <time>2015-04-25T13:59:14.000Z</time>
      </trkpt>
      <trkpt lat="48.77605" lon="1.60445">
        <ele>115.6</ele>
        <time>2015-04-25T13:59:16.000Z</time>
      </trkpt>
      <trkpt lat="48.77613" lon="1.60456">
        <ele>116.1</ele>
        <time>2015-04-25T13:59:23.000Z</time>
      </trkpt>
      <trkpt lat="48.77615" lon="1.60465">
        <ele>116.1</ele>
        <time>2015-04-25T13:59:28.000Z</time>
      </trkpt>
      <trkpt lat="48.77622" lon="1.60473">
        <ele>116.4</ele>
        <time>2015-04-25T13:59:34.000Z</time>
      </trkpt>
      <trkpt lat="48.77634" lon="1.60487">
        <ele>116.8</ele>
        <time>2015-04-25T13:59:43.000Z</time>
      </trkpt>
      <trkpt lat="48.77638" lon="1.60493">
        <ele>117</ele>
        <time>2015-04-25T13:59:47.000Z</time>
      </trkpt>
      <trkpt lat="48.77644" lon="1.60499">
        <ele>117</ele>
        <time>2015-04-25T13:59:52.000Z</time>
      </trkpt>
      <trkpt lat="48.77655" lon="1.60512">
        <ele>116.8</ele>
        <time>2015-04-25T14:00:02.000Z</time>
      </trkpt>
      <trkpt lat="48.77663" lon="1.60519">
        <ele>116.9</ele>
        <time>2015-04-25T14:00:08.000Z</time>
      </trkpt>
      <trkpt lat="48.77674" lon="1.60531">
        <ele>117.1</ele>
        <time>2015-04-25T14:00:17.000Z</time>
      </trkpt>
      <trkpt lat="48.77689" lon="1.60542">
        <ele>116.9</ele>
        <time>2015-04-25T14:00:28.000Z</time>
      </trkpt>
      <trkpt lat="48.77704" lon="1.6055">
        <ele>116.7</ele>
        <time>2015-04-25T14:00:39.000Z</time>
      </trkpt>
      <trkpt lat="48.77716" lon="1.60554">
        <ele>116.8</ele>
        <time>2015-04-25T14:00:47.000Z</time>
      </trkpt>
      <trkpt lat="48.77721" lon="1.60555">
        <ele>117</ele>
        <time>2015-04-25T14:00:50.000Z</time>
      </trkpt>
      <trkpt lat="48.77732" lon="1.60556">
        <ele>117</ele>
        <time>2015-04-25T14:00:58.000Z</time>
      </trkpt>
      <trkpt lat="48.77745" lon="1.60556">
        <ele>117</ele>
        <time>2015-04-25T14:01:06.000Z</time>
      </trkpt>
      <trkpt lat="48.77759" lon="1.60554">
        <ele>117.4</ele>
        <time>2015-04-25T14:01:16.000Z</time>
      </trkpt>
      <trkpt lat="48.77771" lon="1.6055">
        <ele>117.8</ele>
        <time>2015-04-25T14:01:24.000Z</time>
      </trkpt>
      <trkpt lat="48.77775" lon="1.60548">
        <ele>117.9</ele>
        <time>2015-04-25T14:01:27.000Z</time>
      </trkpt>
      <trkpt lat="48.77783" lon="1.60544">
        <ele>118</ele>
        <time>2015-04-25T14:01:32.000Z</time>
      </trkpt>
      <trkpt lat="48.77787" lon="1.60542">
        <ele>118</ele>
        <time>2015-04-25T14:01:35.000Z</time>
      </trkpt>
      <trkpt lat="48.77798" lon="1.60533">
        <ele>118</ele>
        <time>2015-04-25T14:01:41.000Z</time>
      </trkpt>
      <trkpt lat="48.77807" lon="1.60527">
        <ele>118</ele>
        <time>2015-04-25T14:01:48.000Z</time>
      </trkpt>
      <trkpt lat="48.77814" lon="1.60516">
        <ele>118.4</ele>
        <time>2015-04-25T14:01:56.000Z</time>
      </trkpt>
      <trkpt lat="48.77819" lon="1.60504">
        <ele>118.8</ele>
        <time>2015-04-25T14:02:02.000Z</time>
      </trkpt>
      <trkpt lat="48.77827" lon="1.60495">
        <ele>119.1</ele>
        <time>2015-04-25T14:02:09.000Z</time>
      </trkpt>
      <trkpt lat="48.77837" lon="1.60487">
        <ele>119.5</ele>
        <time>2015-04-25T14:02:17.000Z</time>
      </trkpt>
      <trkpt lat="48.77847" lon="1.60479">
        <ele>119.7</ele>
        <time>2015-04-25T14:02:24.000Z</time>
      </trkpt>
      <trkpt lat="48.77861" lon="1.60469">
        <ele>120</ele>
        <time>2015-04-25T14:02:34.000Z</time>
      </trkpt>
      <trkpt lat="48.77869" lon="1.60463">
        <ele>119.8</ele>
        <time>2015-04-25T14:02:40.000Z</time>
      </trkpt>
      <trkpt lat="48.77879" lon="1.60455">
        <ele>119.8</ele>
        <time>2015-04-25T14:02:48.000Z</time>
      </trkpt>
      <trkpt lat="48.77896" lon="1.60443">
        <ele>120</ele>
        <time>2015-04-25T14:03:01.000Z</time>
      </trkpt>
      <trkpt lat="48.77906" lon="1.60436">
        <ele>120</ele>
        <time>2015-04-25T14:03:08.000Z</time>
      </trkpt>
      <trkpt lat="48.77921" lon="1.60426">
        <ele>120</ele>
        <time>2015-04-25T14:03:19.000Z</time>
      </trkpt>
      <trkpt lat="48.77934" lon="1.60418">
        <ele>120</ele>
        <time>2015-04-25T14:03:28.000Z</time>
      </trkpt>
      <trkpt lat="48.77945" lon="1.60408">
        <ele>120</ele>
        <time>2015-04-25T14:03:37.000Z</time>
      </trkpt>
      <trkpt lat="48.77957" lon="1.604">
        <ele>120</ele>
        <time>2015-04-25T14:03:46.000Z</time>
      </trkpt>
      <trkpt lat="48.77972" lon="1.60389">
        <ele>120</ele>
        <time>2015-04-25T14:03:57.000Z</time>
      </trkpt>
      <trkpt lat="48.77983" lon="1.60379">
        <ele>120</ele>
        <time>2015-04-25T14:04:06.000Z</time>
      </trkpt>
      <trkpt lat="48.77994" lon="1.60372">
        <ele>120</ele>
        <time>2015-04-25T14:04:14.000Z</time>
      </trkpt>
      <trkpt lat="48.78005" lon="1.60365">
        <ele>120</ele>
        <time>2015-04-25T14:04:19.000Z</time>
      </trkpt>
      <trkpt lat="48.7801" lon="1.60361">
        <ele>120</ele>
        <time>2015-04-25T14:04:23.000Z</time>
      </trkpt>
      <trkpt lat="48.78025" lon="1.60352">
        <ele>120</ele>
        <time>2015-04-25T14:04:33.000Z</time>
      </trkpt>
      <trkpt lat="48.78033" lon="1.60346">
        <ele>120</ele>
        <time>2015-04-25T14:04:38.000Z</time>
      </trkpt>
      <trkpt lat="48.78045" lon="1.60338">
        <ele>120</ele>
        <time>2015-04-25T14:04:47.000Z</time>
      </trkpt>
      <trkpt lat="48.78059" lon="1.60329">
        <ele>120</ele>
        <time>2015-04-25T14:04:57.000Z</time>
      </trkpt>
      <trkpt lat="48.78072" lon="1.60318">
        <ele>120</ele>
        <time>2015-04-25T14:05:07.000Z</time>
      </trkpt>
      <trkpt lat="48.78073" lon="1.60317">
        <ele>120</ele>
        <time>2015-04-25T14:05:08.000Z</time>
      </trkpt>
      <trkpt lat="48.78084" lon="1.60312">
        <ele>120</ele>
        <time>2015-04-25T14:05:14.000Z</time>
      </trkpt>
      <trkpt lat="48.78098" lon="1.60297">
        <ele>119.3</ele>
        <time>2015-04-25T14:05:21.000Z</time>
      </trkpt>
      <trkpt lat="48.78104" lon="1.60293">
        <ele>119.1</ele>
        <time>2015-04-25T14:05:25.000Z</time>
      </trkpt>
      <trkpt lat="48.78113" lon="1.60285">
        <ele>119</ele>
        <time>2015-04-25T14:05:32.000Z</time>
      </trkpt>
      <trkpt lat="48.78123" lon="1.60277">
        <ele>119</ele>
        <time>2015-04-25T14:05:40.000Z</time>
      </trkpt>
      <trkpt lat="48.78134" lon="1.60268">
        <ele>119.3</ele>
        <time>2015-04-25T14:05:48.000Z</time>
      </trkpt>
      <trkpt lat="48.78138" lon="1.60264">
        <ele>119.5</ele>
        <time>2015-04-25T14:05:52.000Z</time>
      </trkpt>
      <trkpt lat="48.78151" lon="1.60252">
        <ele>119.5</ele>
        <time>2015-04-25T14:06:03.000Z</time>
      </trkpt>
      <trkpt lat="48.78161" lon="1.6024">
        <ele>119.1</ele>
        <time>2015-04-25T14:06:11.000Z</time>
      </trkpt>
      <trkpt lat="48.78173" lon="1.60227">
        <ele>118.3</ele>
        <time>2015-04-25T14:06:21.000Z</time>
      </trkpt>
      <trkpt lat="48.78182" lon="1.60216">
        <ele>117.2</ele>
        <time>2015-04-25T14:06:30.000Z</time>
      </trkpt>
      <trkpt lat="48.78183" lon="1.60215">
        <ele>117.1</ele>
        <time>2015-04-25T14:06:33.000Z</time>
      </trkpt>
      <trkpt lat="48.78179" lon="1.60222">
        <ele>117.7</ele>
        <time>2015-04-25T14:06:41.000Z</time>
      </trkpt>
      <trkpt lat="48.78166" lon="1.60238">
        <ele>119</ele>
        <time>2015-04-25T14:06:49.000Z</time>
      </trkpt>
      <trkpt lat="48.78156" lon="1.60247">
        <ele>119.3</ele>
        <time>2015-04-25T14:06:55.000Z</time>
      </trkpt>
      <trkpt lat="48.78144" lon="1.60259">
        <ele>119.6</ele>
        <time>2015-04-25T14:07:03.000Z</time>
      </trkpt>
      <trkpt lat="48.78131" lon="1.60272">
        <ele>119.1</ele>
        <time>2015-04-25T14:07:12.000Z</time>
      </trkpt>
      <trkpt lat="48.78128" lon="1.60275">
        <ele>119.1</ele>
        <time>2015-04-25T14:07:14.000Z</time>
      </trkpt>
      <trkpt lat="48.78121" lon="1.6028">
        <ele>119</ele>
        <time>2015-04-25T14:07:19.000Z</time>
      </trkpt>
      <trkpt lat="48.78119" lon="1.60281">
        <ele>119</ele>
        <time>2015-04-25T14:07:20.000Z</time>
      </trkpt>
      <trkpt lat="48.78101" lon="1.60297">
        <ele>119.3</ele>
        <time>2015-04-25T14:07:32.000Z</time>
      </trkpt>
      <trkpt lat="48.78084" lon="1.60311">
        <ele>120</ele>
        <time>2015-04-25T14:07:43.000Z</time>
      </trkpt>
      <trkpt lat="48.78075" lon="1.60319">
        <ele>120</ele>
        <time>2015-04-25T14:07:50.000Z</time>
      </trkpt>
      <trkpt lat="48.78069" lon="1.60322">
        <ele>120</ele>
        <time>2015-04-25T14:07:54.000Z</time>
      </trkpt>
      <trkpt lat="48.78058" lon="1.6033">
        <ele>120</ele>
        <time>2015-04-25T14:08:01.000Z</time>
      </trkpt>
      <trkpt lat="48.78047" lon="1.60338">
        <ele>120</ele>
        <time>2015-04-25T14:08:08.000Z</time>
      </trkpt>
      <trkpt lat="48.78034" lon="1.60346">
        <ele>120</ele>
        <time>2015-04-25T14:08:16.000Z</time>
      </trkpt>
      <trkpt lat="48.78018" lon="1.60357">
        <ele>120</ele>
        <time>2015-04-25T14:08:26.000Z</time>
      </trkpt>
      <trkpt lat="48.78012" lon="1.60361">
        <ele>120</ele>
        <time>2015-04-25T14:08:30.000Z</time>
      </trkpt>
      <trkpt lat="48.78006" lon="1.60364">
        <ele>120</ele>
        <time>2015-04-25T14:08:34.000Z</time>
      </trkpt>
      <trkpt lat="48.77986" lon="1.60378">
        <ele>120</ele>
        <time>2015-04-25T14:08:47.000Z</time>
      </trkpt>
      <trkpt lat="48.77971" lon="1.60388">
        <ele>120</ele>
        <time>2015-04-25T14:08:57.000Z</time>
      </trkpt>
      <trkpt lat="48.77962" lon="1.60395">
        <ele>120</ele>
        <time>2015-04-25T14:09:03.000Z</time>
      </trkpt>
      <trkpt lat="48.77949" lon="1.60403">
        <ele>120</ele>
        <time>2015-04-25T14:09:11.000Z</time>
      </trkpt>
      <trkpt lat="48.77933" lon="1.60415">
        <ele>120</ele>
        <time>2015-04-25T14:09:22.000Z</time>
      </trkpt>
      <trkpt lat="48.7792" lon="1.60425">
        <ele>120</ele>
        <time>2015-04-25T14:09:31.000Z</time>
      </trkpt>
      <trkpt lat="48.77901" lon="1.60438">
        <ele>120</ele>
        <time>2015-04-25T14:09:42.000Z</time>
      </trkpt>
      <trkpt lat="48.77893" lon="1.60444">
        <ele>120</ele>
        <time>2015-04-25T14:09:48.000Z</time>
      </trkpt>
      <trkpt lat="48.77891" lon="1.60446">
        <ele>119.9</ele>
        <time>2015-04-25T14:09:50.000Z</time>
      </trkpt>
      <trkpt lat="48.77874" lon="1.60458">
        <ele>119.8</ele>
        <time>2015-04-25T14:10:01.000Z</time>
      </trkpt>
      <trkpt lat="48.77859" lon="1.6047">
        <ele>120</ele>
        <time>2015-04-25T14:10:11.000Z</time>
      </trkpt>
      <trkpt lat="48.77845" lon="1.60481">
        <ele>119.7</ele>
        <time>2015-04-25T14:10:21.000Z</time>
      </trkpt>
      <trkpt lat="48.77829" lon="1.60494">
        <ele>119.2</ele>
        <time>2015-04-25T14:10:32.000Z</time>
      </trkpt>
      <trkpt lat="48.77815" lon="1.60507">
        <ele>118.8</ele>
        <time>2015-04-25T14:10:42.000Z</time>
      </trkpt>
      <trkpt lat="48.77812" lon="1.6051">
        <ele>118.6</ele>
        <time>2015-04-25T14:10:44.000Z</time>
      </trkpt>
      <trkpt lat="48.7781" lon="1.60525">
        <ele>118.1</ele>
        <time>2015-04-25T14:10:52.000Z</time>
      </trkpt>
      <trkpt lat="48.77817" lon="1.60534">
        <ele>118</ele>
        <time>2015-04-25T14:10:59.000Z</time>
      </trkpt>
      <trkpt lat="48.77829" lon="1.60535">
        <ele>118</ele>
        <time>2015-04-25T14:11:07.000Z</time>
      </trkpt>
      <trkpt lat="48.77845" lon="1.60537">
        <ele>118.3</ele>
        <time>2015-04-25T14:11:17.000Z</time>
      </trkpt>
      <trkpt lat="48.77858" lon="1.60539">
        <ele>118.5</ele>
        <time>2015-04-25T14:11:25.000Z</time>
      </trkpt>
      <trkpt lat="48.77872" lon="1.60544">
        <ele>118.4</ele>
        <time>2015-04-25T14:11:35.000Z</time>
      </trkpt>
      <trkpt lat="48.77887" lon="1.60551">
        <ele>118.2</ele>
        <time>2015-04-25T14:11:45.000Z</time>
      </trkpt>
      <trkpt lat="48.77903" lon="1.60558">
        <ele>118.4</ele>
        <time>2015-04-25T14:11:56.000Z</time>
      </trkpt>
      <trkpt lat="48.77917" lon="1.60563">
        <ele>118.7</ele>
        <time>2015-04-25T14:12:05.000Z</time>
      </trkpt>
      <trkpt lat="48.77931" lon="1.60567">
        <ele>118.6</ele>
        <time>2015-04-25T14:12:14.000Z</time>
      </trkpt>
      <trkpt lat="48.77937" lon="1.6057">
        <ele>118.5</ele>
        <time>2015-04-25T14:12:18.000Z</time>
      </trkpt>
      <trkpt lat="48.77943" lon="1.6057">
        <ele>118.5</ele>
        <time>2015-04-25T14:12:22.000Z</time>
      </trkpt>
      <trkpt lat="48.77954" lon="1.60571">
        <ele>118.6</ele>
        <time>2015-04-25T14:12:28.000Z</time>
      </trkpt>
      <trkpt lat="48.77964" lon="1.60572">
        <ele>118.8</ele>
        <time>2015-04-25T14:12:34.000Z</time>
      </trkpt>
      <trkpt lat="48.77974" lon="1.60575">
        <ele>118.9</ele>
        <time>2015-04-25T14:12:41.000Z</time>
      </trkpt>
      <trkpt lat="48.77983" lon="1.60576">
        <ele>118.7</ele>
        <time>2015-04-25T14:12:48.000Z</time>
      </trkpt>
      <trkpt lat="48.77992" lon="1.60574">
        <ele>118.5</ele>
        <time>2015-04-25T14:12:53.000Z</time>
      </trkpt>
      <trkpt lat="48.78006" lon="1.60572">
        <ele>118.4</ele>
        <time>2015-04-25T14:13:00.000Z</time>
      </trkpt>
      <trkpt lat="48.78014" lon="1.60572">
        <ele>118.4</ele>
        <time>2015-04-25T14:13:05.000Z</time>
      </trkpt>
      <trkpt lat="48.78026" lon="1.60573">
        <ele>118.4</ele>
        <time>2015-04-25T14:13:12.000Z</time>
      </trkpt>
      <trkpt lat="48.78036" lon="1.60571">
        <ele>118.3</ele>
        <time>2015-04-25T14:13:18.000Z</time>
      </trkpt>
      <trkpt lat="48.78046" lon="1.60569">
        <ele>118.2</ele>
        <time>2015-04-25T14:13:24.000Z</time>
      </trkpt>
      <trkpt lat="48.78056" lon="1.60568">
        <ele>118</ele>
        <time>2015-04-25T14:13:30.000Z</time>
      </trkpt>
      <trkpt lat="48.78069" lon="1.60566">
        <ele>118</ele>
        <time>2015-04-25T14:13:38.000Z</time>
      </trkpt>
      <trkpt lat="48.78072" lon="1.60565">
        <ele>118</ele>
        <time>2015-04-25T14:13:40.000Z</time>
      </trkpt>
      <trkpt lat="48.7808" lon="1.60565">
        <ele>118</ele>
        <time>2015-04-25T14:13:45.000Z</time>
      </trkpt>
      <trkpt lat="48.78096" lon="1.60564">
        <ele>117.9</ele>
        <time>2015-04-25T14:13:54.000Z</time>
      </trkpt>
      <trkpt lat="48.78106" lon="1.60565">
        <ele>117.7</ele>
        <time>2015-04-25T14:14:00.000Z</time>
      </trkpt>
      <trkpt lat="48.78116" lon="1.60565">
        <ele>117.7</ele>
        <time>2015-04-25T14:14:07.000Z</time>
      </trkpt>
      <trkpt lat="48.78121" lon="1.60565">
        <ele>117.7</ele>
        <time>2015-04-25T14:14:10.000Z</time>
      </trkpt>
      <trkpt lat="48.78131" lon="1.60566">
        <ele>117.6</ele>
        <time>2015-04-25T14:14:17.000Z</time>
      </trkpt>
      <trkpt lat="48.78143" lon="1.60565">
        <ele>117.6</ele>
        <time>2015-04-25T14:14:25.000Z</time>
      </trkpt>
      <trkpt lat="48.78153" lon="1.60566">
        <ele>117.3</ele>
        <time>2015-04-25T14:14:31.000Z</time>
      </trkpt>
      <trkpt lat="48.78166" lon="1.60571">
        <ele>117</ele>
        <time>2015-04-25T14:14:40.000Z</time>
      </trkpt>
      <trkpt lat="48.78174" lon="1.60574">
        <ele>116.7</ele>
        <time>2015-04-25T14:14:45.000Z</time>
      </trkpt>
      <trkpt lat="48.78184" lon="1.60578">
        <ele>116.4</ele>
        <time>2015-04-25T14:14:52.000Z</time>
      </trkpt>
      <trkpt lat="48.78195" lon="1.60581">
        <ele>116</ele>
        <time>2015-04-25T14:14:59.000Z</time>
      </trkpt>
      <trkpt lat="48.78202" lon="1.60583">
        <ele>114.8</ele>
        <time>2015-04-25T14:15:04.000Z</time>
      </trkpt>
      <trkpt lat="48.7821" lon="1.60586">
        <ele>113.5</ele>
        <time>2015-04-25T14:15:09.000Z</time>
      </trkpt>
      <trkpt lat="48.78224" lon="1.60589">
        <ele>111.4</ele>
        <time>2015-04-25T14:15:18.000Z</time>
      </trkpt>
      <trkpt lat="48.78233" lon="1.60592">
        <ele>110</ele>
        <time>2015-04-25T14:15:25.000Z</time>
      </trkpt>
      <trkpt lat="48.78244" lon="1.60595">
        <ele>108.7</ele>
        <time>2015-04-25T14:15:32.000Z</time>
      </trkpt>
      <trkpt lat="48.78253" lon="1.60597">
        <ele>108.5</ele>
        <time>2015-04-25T14:15:38.000Z</time>
      </trkpt>
      <trkpt lat="48.78256" lon="1.60598">
        <ele>108.9</ele>
        <time>2015-04-25T14:15:40.000Z</time>
      </trkpt>
      <trkpt lat="48.78264" lon="1.60597">
        <ele>110</ele>
        <time>2015-04-25T14:15:45.000Z</time>
      </trkpt>
      <trkpt lat="48.78272" lon="1.60605">
        <ele>111.2</ele>
        <time>2015-04-25T14:15:51.000Z</time>
      </trkpt>
      <trkpt lat="48.78283" lon="1.60609">
        <ele>111.6</ele>
        <time>2015-04-25T14:15:58.000Z</time>
      </trkpt>
      <trkpt lat="48.78292" lon="1.60604">
        <ele>111</ele>
        <time>2015-04-25T14:16:04.000Z</time>
      </trkpt>
      <trkpt lat="48.78291" lon="1.60595">
        <ele>111.1</ele>
        <time>2015-04-25T14:16:09.000Z</time>
      </trkpt>
      <trkpt lat="48.78282" lon="1.60579">
        <ele>111.6</ele>
        <time>2015-04-25T14:16:17.000Z</time>
      </trkpt>
      <trkpt lat="48.78274" lon="1.60563">
        <ele>110.8</ele>
        <time>2015-04-25T14:16:25.000Z</time>
      </trkpt>
      <trkpt lat="48.78268" lon="1.60542">
        <ele>110.4</ele>
        <time>2015-04-25T14:16:34.000Z</time>
      </trkpt>
      <trkpt lat="48.78267" lon="1.60518">
        <ele>111</ele>
        <time>2015-04-25T14:16:43.000Z</time>
      </trkpt>
      <trkpt lat="48.78267" lon="1.60498">
        <ele>111.2</ele>
        <time>2015-04-25T14:16:51.000Z</time>
      </trkpt>
      <trkpt lat="48.78266" lon="1.60476">
        <ele>111.7</ele>
        <time>2015-04-25T14:16:59.000Z</time>
      </trkpt>
      <trkpt lat="48.78266" lon="1.60453">
        <ele>112.4</ele>
        <time>2015-04-25T14:17:08.000Z</time>
      </trkpt>
      <trkpt lat="48.78266" lon="1.60435">
        <ele>112.8</ele>
        <time>2015-04-25T14:17:15.000Z</time>
      </trkpt>
      <trkpt lat="48.78265" lon="1.60412">
        <ele>113.2</ele>
        <time>2015-04-25T14:17:24.000Z</time>
      </trkpt>
      <trkpt lat="48.78264" lon="1.60389">
        <ele>114</ele>
        <time>2015-04-25T14:17:33.000Z</time>
      </trkpt>
      <trkpt lat="48.78262" lon="1.60364">
        <ele>114.8</ele>
        <time>2015-04-25T14:17:43.000Z</time>
      </trkpt>
      <trkpt lat="48.78261" lon="1.60339">
        <ele>115.2</ele>
        <time>2015-04-25T14:17:53.000Z</time>
      </trkpt>
      <trkpt lat="48.78259" lon="1.60311">
        <ele>115.9</ele>
        <time>2015-04-25T14:18:05.000Z</time>
      </trkpt>
      <trkpt lat="48.78258" lon="1.60287">
        <ele>116.5</ele>
        <time>2015-04-25T14:18:15.000Z</time>
      </trkpt>
      <trkpt lat="48.78255" lon="1.60259">
        <ele>116.9</ele>
        <time>2015-04-25T14:18:26.000Z</time>
      </trkpt>
      <trkpt lat="48.78255" lon="1.60245">
        <ele>117.1</ele>
        <time>2015-04-25T14:18:32.000Z</time>
      </trkpt>
      <trkpt lat="48.78252" lon="1.60212">
        <ele>117.9</ele>
        <time>2015-04-25T14:18:45.000Z</time>
      </trkpt>
      <trkpt lat="48.78251" lon="1.60194">
        <ele>118</ele>
        <time>2015-04-25T14:18:52.000Z</time>
      </trkpt>
      <trkpt lat="48.7825" lon="1.60181">
        <ele>118</ele>
        <time>2015-04-25T14:18:58.000Z</time>
      </trkpt>
      <trkpt lat="48.78249" lon="1.60165">
        <ele>117.9</ele>
        <time>2015-04-25T14:19:04.000Z</time>
      </trkpt>
      <trkpt lat="48.78247" lon="1.6015">
        <ele>117.4</ele>
        <time>2015-04-25T14:19:10.000Z</time>
      </trkpt>
      <trkpt lat="48.78247" lon="1.60133">
        <ele>117.3</ele>
        <time>2015-04-25T14:19:17.000Z</time>
      </trkpt>
      <trkpt lat="48.78249" lon="1.60109">
        <ele>117.8</ele>
        <time>2015-04-25T14:19:27.000Z</time>
      </trkpt>
      <trkpt lat="48.78256" lon="1.60093">
        <ele>117.3</ele>
        <time>2015-04-25T14:19:35.000Z</time>
      </trkpt>
      <trkpt lat="48.78263" lon="1.60079">
        <ele>117</ele>
        <time>2015-04-25T14:19:42.000Z</time>
      </trkpt>
      <trkpt lat="48.78273" lon="1.6006">
        <ele>117</ele>
        <time>2015-04-25T14:19:52.000Z</time>
      </trkpt>
      <trkpt lat="48.78282" lon="1.60044">
        <ele>116.9</ele>
        <time>2015-04-25T14:20:01.000Z</time>
      </trkpt>
      <trkpt lat="48.7829" lon="1.60027">
        <ele>116.5</ele>
        <time>2015-04-25T14:20:10.000Z</time>
      </trkpt>
      <trkpt lat="48.78299" lon="1.60009">
        <ele>116.1</ele>
        <time>2015-04-25T14:20:19.000Z</time>
      </trkpt>
      <trkpt lat="48.78306" lon="1.59997">
        <ele>116</ele>
        <time>2015-04-25T14:20:26.000Z</time>
      </trkpt>
      <trkpt lat="48.78316" lon="1.59982">
        <ele>115.6</ele>
        <time>2015-04-25T14:20:35.000Z</time>
      </trkpt>
      <trkpt lat="48.78329" lon="1.59964">
        <ele>115.4</ele>
        <time>2015-04-25T14:20:46.000Z</time>
      </trkpt>
      <trkpt lat="48.78332" lon="1.59959">
        <ele>115.5</ele>
        <time>2015-04-25T14:20:51.000Z</time>
      </trkpt>
      <trkpt lat="48.78334" lon="1.59958">
        <ele>115.5</ele>
        <time>2015-04-25T14:20:55.000Z</time>
      </trkpt>
      <trkpt lat="48.78336" lon="1.59957">
        <ele>115.5</ele>
        <time>2015-04-25T14:21:25.000Z</time>
      </trkpt>
      <trkpt lat="48.78344" lon="1.59946">
        <ele>115.6</ele>
        <time>2015-04-25T14:21:30.000Z</time>
      </trkpt>
      <trkpt lat="48.78346" lon="1.59943">
        <ele>115.5</ele>
        <time>2015-04-25T14:21:32.000Z</time>
      </trkpt>
      <trkpt lat="48.78356" lon="1.59934">
        <ele>115.1</ele>
        <time>2015-04-25T14:21:40.000Z</time>
      </trkpt>
      <trkpt lat="48.78361" lon="1.59928">
        <ele>115</ele>
        <time>2015-04-25T14:21:45.000Z</time>
      </trkpt>
      <trkpt lat="48.78369" lon="1.59919">
        <ele>114.7</ele>
        <time>2015-04-25T14:21:53.000Z</time>
      </trkpt>
      <trkpt lat="48.78375" lon="1.59913">
        <ele>114.6</ele>
        <time>2015-04-25T14:21:59.000Z</time>
      </trkpt>
      <trkpt lat="48.78384" lon="1.59903">
        <ele>114.6</ele>
        <time>2015-04-25T14:22:07.000Z</time>
      </trkpt>
      <trkpt lat="48.78393" lon="1.59892">
        <ele>114.6</ele>
        <time>2015-04-25T14:22:15.000Z</time>
      </trkpt>
      <trkpt lat="48.78402" lon="1.59882">
        <ele>114</ele>
        <time>2015-04-25T14:22:24.000Z</time>
      </trkpt>
      <trkpt lat="48.78408" lon="1.59877">
        <ele>113.8</ele>
        <time>2015-04-25T14:22:29.000Z</time>
      </trkpt>
      <trkpt lat="48.78417" lon="1.5987">
        <ele>113.7</ele>
        <time>2015-04-25T14:22:36.000Z</time>
      </trkpt>
      <trkpt lat="48.78429" lon="1.59858">
        <ele>113.1</ele>
        <time>2015-04-25T14:22:45.000Z</time>
      </trkpt>
      <trkpt lat="48.78434" lon="1.59853">
        <ele>112.8</ele>
        <time>2015-04-25T14:22:49.000Z</time>
      </trkpt>
      <trkpt lat="48.78436" lon="1.59852">
        <ele>112.7</ele>
        <time>2015-04-25T14:22:53.000Z</time>
      </trkpt>
      <trkpt lat="48.78444" lon="1.59841">
        <ele>112.7</ele>
        <time>2015-04-25T14:23:06.000Z</time>
      </trkpt>
      <trkpt lat="48.78453" lon="1.59833">
        <ele>112.4</ele>
        <time>2015-04-25T14:23:13.000Z</time>
      </trkpt>
      <trkpt lat="48.78461" lon="1.59833">
        <ele>111.8</ele>
        <time>2015-04-25T14:23:19.000Z</time>
      </trkpt>
      <trkpt lat="48.78462" lon="1.59834">
        <ele>111.7</ele>
        <time>2015-04-25T14:23:20.000Z</time>
      </trkpt>
      <trkpt lat="48.78463" lon="1.59836">
        <ele>111.6</ele>
        <time>2015-04-25T14:23:23.000Z</time>
      </trkpt>
      <trkpt lat="48.7847" lon="1.59842">
        <ele>110.8</ele>
        <time>2015-04-25T14:23:50.000Z</time>
      </trkpt>
      <trkpt lat="48.78482" lon="1.59853">
        <ele>109.6</ele>
        <time>2015-04-25T14:23:58.000Z</time>
      </trkpt>
      <trkpt lat="48.78497" lon="1.59867">
        <ele>108.2</ele>
        <time>2015-04-25T14:24:09.000Z</time>
      </trkpt>
      <trkpt lat="48.78512" lon="1.59881">
        <ele>106.9</ele>
        <time>2015-04-25T14:24:20.000Z</time>
      </trkpt>
      <trkpt lat="48.78525" lon="1.59893">
        <ele>105.3</ele>
        <time>2015-04-25T14:24:30.000Z</time>
      </trkpt>
      <trkpt lat="48.78539" lon="1.59907">
        <ele>104.1</ele>
        <time>2015-04-25T14:24:41.000Z</time>
      </trkpt>
      <trkpt lat="48.78542" lon="1.5991">
        <ele>103.8</ele>
        <time>2015-04-25T14:24:43.000Z</time>
      </trkpt>
      <trkpt lat="48.78551" lon="1.59918">
        <ele>102.5</ele>
        <time>2015-04-25T14:24:50.000Z</time>
      </trkpt>
      <trkpt lat="48.78559" lon="1.59926">
        <ele>102.1</ele>
        <time>2015-04-25T14:24:56.000Z</time>
      </trkpt>
      <trkpt lat="48.78567" lon="1.59935">
        <ele>101.5</ele>
        <time>2015-04-25T14:25:02.000Z</time>
      </trkpt>
      <trkpt lat="48.78578" lon="1.59947">
        <ele>99.8</ele>
        <time>2015-04-25T14:25:10.000Z</time>
      </trkpt>
      <trkpt lat="48.78589" lon="1.59959">
        <ele>98.8</ele>
        <time>2015-04-25T14:25:19.000Z</time>
      </trkpt>
      <trkpt lat="48.786" lon="1.59971">
        <ele>97.9</ele>
        <time>2015-04-25T14:25:27.000Z</time>
      </trkpt>
      <trkpt lat="48.78608" lon="1.5998">
        <ele>97.2</ele>
        <time>2015-04-25T14:25:33.000Z</time>
      </trkpt>
      <trkpt lat="48.78619" lon="1.59995">
        <ele>96.8</ele>
        <time>2015-04-25T14:25:42.000Z</time>
      </trkpt>
      <trkpt lat="48.78626" lon="1.60006">
        <ele>96.5</ele>
        <time>2015-04-25T14:25:48.000Z</time>
      </trkpt>
      <trkpt lat="48.78631" lon="1.60018">
        <ele>96.3</ele>
        <time>2015-04-25T14:25:54.000Z</time>
      </trkpt>
      <trkpt lat="48.78636" lon="1.60037">
        <ele>96.1</ele>
        <time>2015-04-25T14:26:03.000Z</time>
      </trkpt>
      <trkpt lat="48.78639" lon="1.60047">
        <ele>96</ele>
        <time>2015-04-25T14:26:08.000Z</time>
      </trkpt>
      <trkpt lat="48.78639" lon="1.60051">
        <ele>96</ele>
        <time>2015-04-25T14:26:10.000Z</time>
      </trkpt>
      <trkpt lat="48.78639" lon="1.60054">
        <ele>96</ele>
        <time>2015-04-25T14:26:12.000Z</time>
      </trkpt>
      <trkpt lat="48.78639" lon="1.60056">
        <ele>96</ele>
        <time>2015-04-25T14:26:15.000Z</time>
      </trkpt>
      <trkpt lat="48.78645" lon="1.60083">
        <ele>96</ele>
        <time>2015-04-25T14:27:53.000Z</time>
      </trkpt>
      <trkpt lat="48.78649" lon="1.60094">
        <ele>96</ele>
        <time>2015-04-25T14:27:58.000Z</time>
      </trkpt>
      <trkpt lat="48.78651" lon="1.601">
        <ele>96</ele>
        <time>2015-04-25T14:28:01.000Z</time>
      </trkpt>
      <trkpt lat="48.78654" lon="1.60113">
        <ele>96</ele>
        <time>2015-04-25T14:28:08.000Z</time>
      </trkpt>
      <trkpt lat="48.78656" lon="1.60125">
        <ele>96.3</ele>
        <time>2015-04-25T14:28:14.000Z</time>
      </trkpt>
      <trkpt lat="48.78659" lon="1.60136">
        <ele>96.7</ele>
        <time>2015-04-25T14:28:20.000Z</time>
      </trkpt>
      <trkpt lat="48.7866" lon="1.60138">
        <ele>96.7</ele>
        <time>2015-04-25T14:28:21.000Z</time>
      </trkpt>
      <trkpt lat="48.78666" lon="1.60149">
        <ele>97.3</ele>
        <time>2015-04-25T14:28:30.000Z</time>
      </trkpt>
      <trkpt lat="48.78667" lon="1.60149">
        <ele>97.4</ele>
        <time>2015-04-25T14:28:32.000Z</time>
      </trkpt>
      <trkpt lat="48.7867" lon="1.60156">
        <ele>97.9</ele>
        <time>2015-04-25T14:28:39.000Z</time>
      </trkpt>
      <trkpt lat="48.78672" lon="1.60164">
        <ele>98.4</ele>
        <time>2015-04-25T14:28:45.000Z</time>
      </trkpt>
      <trkpt lat="48.78673" lon="1.60163">
        <ele>98.5</ele>
        <time>2015-04-25T14:28:49.000Z</time>
      </trkpt>
      <trkpt lat="48.78673" lon="1.60164">
        <ele>98.6</ele>
        <time>2015-04-25T14:28:54.000Z</time>
      </trkpt>
      <trkpt lat="48.78673" lon="1.60165">
        <ele>98.6</ele>
        <time>2015-04-25T14:28:57.000Z</time>
      </trkpt>
      <trkpt lat="48.78682" lon="1.60182">
        <ele>100.3</ele>
        <time>2015-04-25T14:30:11.000Z</time>
      </trkpt>
      <trkpt lat="48.7869" lon="1.60193">
        <ele>101.5</ele>
        <time>2015-04-25T14:30:17.000Z</time>
      </trkpt>
      <trkpt lat="48.78699" lon="1.60206">
        <ele>103.5</ele>
        <time>2015-04-25T14:30:25.000Z</time>
      </trkpt>
      <trkpt lat="48.78708" lon="1.60216">
        <ele>104.7</ele>
        <time>2015-04-25T14:30:33.000Z</time>
      </trkpt>
      <trkpt lat="48.78715" lon="1.60229">
        <ele>105.5</ele>
        <time>2015-04-25T14:30:42.000Z</time>
      </trkpt>
      <trkpt lat="48.78726" lon="1.60241">
        <ele>107.3</ele>
        <time>2015-04-25T14:30:52.000Z</time>
      </trkpt>
      <trkpt lat="48.78727" lon="1.60243">
        <ele>107.6</ele>
        <time>2015-04-25T14:30:53.000Z</time>
      </trkpt>
      <trkpt lat="48.78732" lon="1.60247">
        <ele>108.4</ele>
        <time>2015-04-25T14:30:57.000Z</time>
      </trkpt>
      <trkpt lat="48.78743" lon="1.60263">
        <ele>109.5</ele>
        <time>2015-04-25T14:31:08.000Z</time>
      </trkpt>
      <trkpt lat="48.78752" lon="1.60274">
        <ele>110.1</ele>
        <time>2015-04-25T14:31:16.000Z</time>
      </trkpt>
      <trkpt lat="48.78761" lon="1.60282">
        <ele>110.9</ele>
        <time>2015-04-25T14:31:23.000Z</time>
      </trkpt>
      <trkpt lat="48.78768" lon="1.60291">
        <ele>111.4</ele>
        <time>2015-04-25T14:31:29.000Z</time>
      </trkpt>
      <trkpt lat="48.78776" lon="1.603">
        <ele>111.9</ele>
        <time>2015-04-25T14:31:34.000Z</time>
      </trkpt>
      <trkpt lat="48.78785" lon="1.60311">
        <ele>112.1</ele>
        <time>2015-04-25T14:31:39.000Z</time>
      </trkpt>
      <trkpt lat="48.78792" lon="1.60321">
        <ele>112.3</ele>
        <time>2015-04-25T14:31:46.000Z</time>
      </trkpt>
      <trkpt lat="48.78793" lon="1.60323">
        <ele>112.3</ele>
        <time>2015-04-25T14:31:50.000Z</time>
      </trkpt>
      <trkpt lat="48.788" lon="1.60334">
        <ele>112.8</ele>
        <time>2015-04-25T14:32:20.000Z</time>
      </trkpt>
      <trkpt lat="48.78808" lon="1.60334">
        <ele>112.9</ele>
        <time>2015-04-25T14:32:25.000Z</time>
      </trkpt>
      <trkpt lat="48.78817" lon="1.60325">
        <ele>112.4</ele>
        <time>2015-04-25T14:32:31.000Z</time>
      </trkpt>
      <trkpt lat="48.78823" lon="1.60314">
        <ele>112.1</ele>
        <time>2015-04-25T14:32:38.000Z</time>
      </trkpt>
      <trkpt lat="48.78831" lon="1.603">
        <ele>112</ele>
        <time>2015-04-25T14:32:46.000Z</time>
      </trkpt>
      <trkpt lat="48.7884" lon="1.60282">
        <ele>112</ele>
        <time>2015-04-25T14:32:56.000Z</time>
      </trkpt>
      <trkpt lat="48.78849" lon="1.6027">
        <ele>112</ele>
        <time>2015-04-25T14:33:02.000Z</time>
      </trkpt>
      <trkpt lat="48.78857" lon="1.60257">
        <ele>112</ele>
        <time>2015-04-25T14:33:10.000Z</time>
      </trkpt>
      <trkpt lat="48.78869" lon="1.60241">
        <ele>111.7</ele>
        <time>2015-04-25T14:33:20.000Z</time>
      </trkpt>
      <trkpt lat="48.78877" lon="1.60232">
        <ele>111.4</ele>
        <time>2015-04-25T14:33:27.000Z</time>
      </trkpt>
      <trkpt lat="48.78884" lon="1.6022">
        <ele>111.2</ele>
        <time>2015-04-25T14:33:35.000Z</time>
      </trkpt>
      <trkpt lat="48.78888" lon="1.60212">
        <ele>111</ele>
        <time>2015-04-25T14:33:40.000Z</time>
      </trkpt>
      <trkpt lat="48.78896" lon="1.60199">
        <ele>111</ele>
        <time>2015-04-25T14:33:48.000Z</time>
      </trkpt>
      <trkpt lat="48.78906" lon="1.60187">
        <ele>111</ele>
        <time>2015-04-25T14:33:56.000Z</time>
      </trkpt>
      <trkpt lat="48.78913" lon="1.60181">
        <ele>111</ele>
        <time>2015-04-25T14:34:01.000Z</time>
      </trkpt>
      <trkpt lat="48.78921" lon="1.60175">
        <ele>110.8</ele>
        <time>2015-04-25T14:34:07.000Z</time>
      </trkpt>
      <trkpt lat="48.78922" lon="1.60178">
        <ele>110.8</ele>
        <time>2015-04-25T14:34:11.000Z</time>
      </trkpt>
      <trkpt lat="48.78923" lon="1.60183">
        <ele>110.8</ele>
        <time>2015-04-25T14:34:14.000Z</time>
      </trkpt>
      <trkpt lat="48.78926" lon="1.6019">
        <ele>110.7</ele>
        <time>2015-04-25T14:34:21.000Z</time>
      </trkpt>
      <trkpt lat="48.78928" lon="1.6019">
        <ele>110.6</ele>
        <time>2015-04-25T14:34:22.000Z</time>
      </trkpt>
      <trkpt lat="48.78942" lon="1.60185">
        <ele>110.1</ele>
        <time>2015-04-25T14:34:29.000Z</time>
      </trkpt>
      <trkpt lat="48.78944" lon="1.60185">
        <ele>110</ele>
        <time>2015-04-25T14:34:30.000Z</time>
      </trkpt>
      <trkpt lat="48.78953" lon="1.60187">
        <ele>109.7</ele>
        <time>2015-04-25T14:34:37.000Z</time>
      </trkpt>
      <trkpt lat="48.78957" lon="1.60191">
        <ele>109.6</ele>
        <time>2015-04-25T14:34:43.000Z</time>
      </trkpt>
      <trkpt lat="48.78957" lon="1.60191">
        <ele>109.5</ele>
        <time>2015-04-25T14:34:45.000Z</time>
      </trkpt>
      <trkpt lat="48.78959" lon="1.60178">
        <ele>109.5</ele>
        <time>2015-04-25T14:35:29.000Z</time>
      </trkpt>
      <trkpt lat="48.78962" lon="1.60175">
        <ele>109.4</ele>
        <time>2015-04-25T14:35:31.000Z</time>
      </trkpt>
      <trkpt lat="48.78973" lon="1.60163">
        <ele>109</ele>
        <time>2015-04-25T14:35:40.000Z</time>
      </trkpt>
      <trkpt lat="48.78984" lon="1.60152">
        <ele>108.6</ele>
        <time>2015-04-25T14:35:49.000Z</time>
      </trkpt>
      <trkpt lat="48.78992" lon="1.60148">
        <ele>108.3</ele>
        <time>2015-04-25T14:35:55.000Z</time>
      </trkpt>
      <trkpt lat="48.78998" lon="1.60146">
        <ele>108.1</ele>
        <time>2015-04-25T14:36:01.000Z</time>
      </trkpt>
      <trkpt lat="48.79008" lon="1.60145">
        <ele>107.7</ele>
        <time>2015-04-25T14:36:06.000Z</time>
      </trkpt>
      <trkpt lat="48.79017" lon="1.60141">
        <ele>107.4</ele>
        <time>2015-04-25T14:36:12.000Z</time>
      </trkpt>
      <trkpt lat="48.79029" lon="1.60139">
        <ele>107</ele>
        <time>2015-04-25T14:36:18.000Z</time>
      </trkpt>
      <trkpt lat="48.79034" lon="1.6014">
        <ele>106.8</ele>
        <time>2015-04-25T14:36:20.000Z</time>
      </trkpt>
      <trkpt lat="48.79049" lon="1.60132">
        <ele>106.2</ele>
        <time>2015-04-25T14:36:29.000Z</time>
      </trkpt>
      <trkpt lat="48.79059" lon="1.60124">
        <ele>106</ele>
        <time>2015-04-25T14:36:34.000Z</time>
      </trkpt>
      <trkpt lat="48.79068" lon="1.60111">
        <ele>106</ele>
        <time>2015-04-25T14:36:42.000Z</time>
      </trkpt>
      <trkpt lat="48.79073" lon="1.60107">
        <ele>105.9</ele>
        <time>2015-04-25T14:36:46.000Z</time>
      </trkpt>
      <trkpt lat="48.79075" lon="1.60104">
        <ele>105.8</ele>
        <time>2015-04-25T14:36:51.000Z</time>
      </trkpt>
      <trkpt lat="48.79078" lon="1.60096">
        <ele>105.5</ele>
        <time>2015-04-25T14:37:26.000Z</time>
      </trkpt>
      <trkpt lat="48.79088" lon="1.60086">
        <ele>104.9</ele>
        <time>2015-04-25T14:37:32.000Z</time>
      </trkpt>
      <trkpt lat="48.79089" lon="1.60084">
        <ele>104.8</ele>
        <time>2015-04-25T14:37:33.000Z</time>
      </trkpt>
      <trkpt lat="48.79092" lon="1.60076">
        <ele>104.6</ele>
        <time>2015-04-25T14:37:38.000Z</time>
      </trkpt>
      <trkpt lat="48.79099" lon="1.60069">
        <ele>104.1</ele>
        <time>2015-04-25T14:37:43.000Z</time>
      </trkpt>
      <trkpt lat="48.79104" lon="1.6006">
        <ele>103.6</ele>
        <time>2015-04-25T14:37:48.000Z</time>
      </trkpt>
      <trkpt lat="48.79108" lon="1.60052">
        <ele>103.2</ele>
        <time>2015-04-25T14:37:53.000Z</time>
      </trkpt>
      <trkpt lat="48.79125" lon="1.6005">
        <ele>102.5</ele>
        <time>2015-04-25T14:38:01.000Z</time>
      </trkpt>
      <trkpt lat="48.79132" lon="1.60045">
        <ele>102.2</ele>
        <time>2015-04-25T14:38:07.000Z</time>
      </trkpt>
      <trkpt lat="48.79138" lon="1.6004">
        <ele>102</ele>
        <time>2015-04-25T14:38:12.000Z</time>
      </trkpt>
      <trkpt lat="48.79149" lon="1.60033">
        <ele>101.3</ele>
        <time>2015-04-25T14:38:20.000Z</time>
      </trkpt>
      <trkpt lat="48.79162" lon="1.60028">
        <ele>100.3</ele>
        <time>2015-04-25T14:38:29.000Z</time>
      </trkpt>
      <trkpt lat="48.79175" lon="1.60031">
        <ele>99.5</ele>
        <time>2015-04-25T14:38:37.000Z</time>
      </trkpt>
      <trkpt lat="48.79176" lon="1.60032">
        <ele>99.4</ele>
        <time>2015-04-25T14:38:41.000Z</time>
      </trkpt>
      <trkpt lat="48.7918" lon="1.60033">
        <ele>99.1</ele>
        <time>2015-04-25T14:38:53.000Z</time>
      </trkpt>
      <trkpt lat="48.79191" lon="1.60036">
        <ele>98.5</ele>
        <time>2015-04-25T14:38:59.000Z</time>
      </trkpt>
      <trkpt lat="48.79204" lon="1.60039">
        <ele>97.9</ele>
        <time>2015-04-25T14:39:06.000Z</time>
      </trkpt>
      <trkpt lat="48.79215" lon="1.60042">
        <ele>97.4</ele>
        <time>2015-04-25T14:39:13.000Z</time>
      </trkpt>
      <trkpt lat="48.79225" lon="1.60046">
        <ele>96.9</ele>
        <time>2015-04-25T14:39:20.000Z</time>
      </trkpt>
      <trkpt lat="48.79235" lon="1.60048">
        <ele>96.5</ele>
        <time>2015-04-25T14:39:27.000Z</time>
      </trkpt>
      <trkpt lat="48.79237" lon="1.60049">
        <ele>96.5</ele>
        <time>2015-04-25T14:39:28.000Z</time>
      </trkpt>
      <trkpt lat="48.79245" lon="1.60052">
        <ele>96.2</ele>
        <time>2015-04-25T14:39:35.000Z</time>
      </trkpt>
      <trkpt lat="48.79253" lon="1.60049">
        <ele>95.9</ele>
        <time>2015-04-25T14:39:42.000Z</time>
      </trkpt>
      <trkpt lat="48.79254" lon="1.60048">
        <ele>95.9</ele>
        <time>2015-04-25T14:39:43.000Z</time>
      </trkpt>
      <trkpt lat="48.79258" lon="1.60048">
        <ele>95.7</ele>
        <time>2015-04-25T14:39:46.000Z</time>
      </trkpt>
      <trkpt lat="48.7926" lon="1.6005">
        <ele>95.6</ele>
        <time>2015-04-25T14:39:48.000Z</time>
      </trkpt>
      <trkpt lat="48.79261" lon="1.60051">
        <ele>95.6</ele>
        <time>2015-04-25T14:39:51.000Z</time>
      </trkpt>
      <trkpt lat="48.79954" lon="1.60313">
        <ele>123</ele>
        <time>2015-04-25T15:25:20.000Z</time>
      </trkpt>
      <trkpt lat="48.79956" lon="1.60314">
        <ele>123</ele>
        <time>2015-04-25T15:25:21.000Z</time>
      </trkpt>
      <trkpt lat="48.79957" lon="1.60317">
        <ele>123</ele>
        <time>2015-04-25T15:25:24.000Z</time>
      </trkpt>
      <trkpt lat="48.79963" lon="1.60318">
        <ele>123</ele>
        <time>2015-04-25T15:25:29.000Z</time>
      </trkpt>
      <trkpt lat="48.79973" lon="1.60326">
        <ele>123</ele>
        <time>2015-04-25T15:25:36.000Z</time>
      </trkpt>
      <trkpt lat="48.7998" lon="1.60333">
        <ele>123</ele>
        <time>2015-04-25T15:25:42.000Z</time>
      </trkpt>
      <trkpt lat="48.7999" lon="1.60344">
        <ele>123</ele>
        <time>2015-04-25T15:25:50.000Z</time>
      </trkpt>
      <trkpt lat="48.79996" lon="1.60351">
        <ele>123</ele>
        <time>2015-04-25T15:25:56.000Z</time>
      </trkpt>
      <trkpt lat="48.79998" lon="1.60352">
        <ele>123</ele>
        <time>2015-04-25T15:25:58.000Z</time>
      </trkpt>
      <trkpt lat="48.8" lon="1.60352">
        <ele>123</ele>
        <time>2015-04-25T15:26:01.000Z</time>
      </trkpt>
      <trkpt lat="48.80001" lon="1.60353">
        <ele>123</ele>
        <time>2015-04-25T15:26:04.000Z</time>
      </trkpt>
      <trkpt lat="48.80005" lon="1.60358">
        <ele>123</ele>
        <time>2015-04-25T15:26:37.000Z</time>
      </trkpt>
      <trkpt lat="48.80015" lon="1.60371">
        <ele>123</ele>
        <time>2015-04-25T15:26:45.000Z</time>
      </trkpt>
      <trkpt lat="48.8002" lon="1.60379">
        <ele>123</ele>
        <time>2015-04-25T15:26:51.000Z</time>
      </trkpt>
      <trkpt lat="48.80023" lon="1.60383">
        <ele>123</ele>
        <time>2015-04-25T15:26:53.000Z</time>
      </trkpt>
      <trkpt lat="48.80039" lon="1.60403">
        <ele>123</ele>
        <time>2015-04-25T15:27:00.000Z</time>
      </trkpt>
      <trkpt lat="48.80056" lon="1.60426">
        <ele>123</ele>
        <time>2015-04-25T15:27:07.000Z</time>
      </trkpt>
      <trkpt lat="48.8007" lon="1.60442">
        <ele>123.5</ele>
        <time>2015-04-25T15:27:13.000Z</time>
      </trkpt>
      <trkpt lat="48.80086" lon="1.60455">
        <ele>124</ele>
        <time>2015-04-25T15:27:20.000Z</time>
      </trkpt>
      <trkpt lat="48.80094" lon="1.60461">
        <ele>124</ele>
        <time>2015-04-25T15:27:25.000Z</time>
      </trkpt>
      <trkpt lat="48.80107" lon="1.60471">
        <ele>124</ele>
        <time>2015-04-25T15:27:31.000Z</time>
      </trkpt>
      <trkpt lat="48.80122" lon="1.60483">
        <ele>124.2</ele>
        <time>2015-04-25T15:27:36.000Z</time>
      </trkpt>
      <trkpt lat="48.80145" lon="1.60496">
        <ele>124.3</ele>
        <time>2015-04-25T15:27:43.000Z</time>
      </trkpt>
      <trkpt lat="48.80176" lon="1.60515">
        <ele>124.6</ele>
        <time>2015-04-25T15:27:52.000Z</time>
      </trkpt>
      <trkpt lat="48.80197" lon="1.60528">
        <ele>125.1</ele>
        <time>2015-04-25T15:27:58.000Z</time>
      </trkpt>
      <trkpt lat="48.80226" lon="1.60546">
        <ele>125.4</ele>
        <time>2015-04-25T15:28:06.000Z</time>
      </trkpt>
      <trkpt lat="48.80248" lon="1.60563">
        <ele>125.9</ele>
        <time>2015-04-25T15:28:12.000Z</time>
      </trkpt>
      <trkpt lat="48.80269" lon="1.60579">
        <ele>126</ele>
        <time>2015-04-25T15:28:18.000Z</time>
      </trkpt>
      <trkpt lat="48.80306" lon="1.60604">
        <ele>127</ele>
        <time>2015-04-25T15:28:28.000Z</time>
      </trkpt>
      <trkpt lat="48.8034" lon="1.60625">
        <ele>127.6</ele>
        <time>2015-04-25T15:28:37.000Z</time>
      </trkpt>
      <trkpt lat="48.8038" lon="1.60652">
        <ele>127.8</ele>
        <time>2015-04-25T15:28:48.000Z</time>
      </trkpt>
      <trkpt lat="48.80407" lon="1.60672">
        <ele>128</ele>
        <time>2015-04-25T15:28:55.000Z</time>
      </trkpt>
      <trkpt lat="48.80438" lon="1.60688">
        <ele>128</ele>
        <time>2015-04-25T15:29:03.000Z</time>
      </trkpt>
      <trkpt lat="48.80469" lon="1.60701">
        <ele>128</ele>
        <time>2015-04-25T15:29:11.000Z</time>
      </trkpt>
      <trkpt lat="48.80477" lon="1.60704">
        <ele>128</ele>
        <time>2015-04-25T15:29:13.000Z</time>
      </trkpt>
      <trkpt lat="48.80517" lon="1.60719">
        <ele>128</ele>
        <time>2015-04-25T15:29:23.000Z</time>
      </trkpt>
      <trkpt lat="48.8054" lon="1.60729">
        <ele>128</ele>
        <time>2015-04-25T15:29:29.000Z</time>
      </trkpt>
      <trkpt lat="48.80568" lon="1.6074">
        <ele>128</ele>
        <time>2015-04-25T15:29:36.000Z</time>
      </trkpt>
      <trkpt lat="48.80595" lon="1.60753">
        <ele>127.5</ele>
        <time>2015-04-25T15:29:43.000Z</time>
      </trkpt>
      <trkpt lat="48.80626" lon="1.60767">
        <ele>127</ele>
        <time>2015-04-25T15:29:51.000Z</time>
      </trkpt>
      <trkpt lat="48.80653" lon="1.60776">
        <ele>127</ele>
        <time>2015-04-25T15:29:58.000Z</time>
      </trkpt>
      <trkpt lat="48.80683" lon="1.60789">
        <ele>127</ele>
        <time>2015-04-25T15:30:06.000Z</time>
      </trkpt>
      <trkpt lat="48.80707" lon="1.608">
        <ele>126.5</ele>
        <time>2015-04-25T15:30:13.000Z</time>
      </trkpt>
      <trkpt lat="48.80722" lon="1.60809">
        <ele>126</ele>
        <time>2015-04-25T15:30:18.000Z</time>
      </trkpt>
      <trkpt lat="48.80743" lon="1.60819">
        <ele>126</ele>
        <time>2015-04-25T15:30:25.000Z</time>
      </trkpt>
      <trkpt lat="48.8075" lon="1.60819">
        <ele>126</ele>
        <time>2015-04-25T15:30:29.000Z</time>
      </trkpt>
      <trkpt lat="48.80756" lon="1.60821">
        <ele>125.8</ele>
        <time>2015-04-25T15:30:34.000Z</time>
      </trkpt>
      <trkpt lat="48.80764" lon="1.60823">
        <ele>125.5</ele>
        <time>2015-04-25T15:30:40.000Z</time>
      </trkpt>
      <trkpt lat="48.80765" lon="1.60824">
        <ele>125.4</ele>
        <time>2015-04-25T15:30:41.000Z</time>
      </trkpt>
      <trkpt lat="48.8077" lon="1.60827">
        <ele>125.3</ele>
        <time>2015-04-25T15:30:45.000Z</time>
      </trkpt>
      <trkpt lat="48.80781" lon="1.60833">
        <ele>124.9</ele>
        <time>2015-04-25T15:30:54.000Z</time>
      </trkpt>
      <trkpt lat="48.80787" lon="1.60837">
        <ele>124.7</ele>
        <time>2015-04-25T15:31:00.000Z</time>
      </trkpt>
      <trkpt lat="48.80793" lon="1.6084">
        <ele>124.4</ele>
        <time>2015-04-25T15:31:06.000Z</time>
      </trkpt>
      <trkpt lat="48.80799" lon="1.60842">
        <ele>124.2</ele>
        <time>2015-04-25T15:31:11.000Z</time>
      </trkpt>
      <trkpt lat="48.80806" lon="1.60847">
        <ele>124</ele>
        <time>2015-04-25T15:31:16.000Z</time>
      </trkpt>
      <trkpt lat="48.80815" lon="1.60852">
        <ele>124</ele>
        <time>2015-04-25T15:31:24.000Z</time>
      </trkpt>
      <trkpt lat="48.80821" lon="1.60855">
        <ele>124</ele>
        <time>2015-04-25T15:31:29.000Z</time>
      </trkpt>
      <trkpt lat="48.8083" lon="1.6086">
        <ele>124</ele>
        <time>2015-04-25T15:31:37.000Z</time>
      </trkpt>
      <trkpt lat="48.80842" lon="1.60865">
        <ele>123.7</ele>
        <time>2015-04-25T15:31:45.000Z</time>
      </trkpt>
      <trkpt lat="48.80857" lon="1.60872">
        <ele>123.1</ele>
        <time>2015-04-25T15:31:55.000Z</time>
      </trkpt>
      <trkpt lat="48.80865" lon="1.60878">
        <ele>123</ele>
        <time>2015-04-25T15:32:02.000Z</time>
      </trkpt>
      <trkpt lat="48.80873" lon="1.60882">
        <ele>123</ele>
        <time>2015-04-25T15:32:09.000Z</time>
      </trkpt>
      <trkpt lat="48.80891" lon="1.60891">
        <ele>123</ele>
        <time>2015-04-25T15:32:21.000Z</time>
      </trkpt>
      <trkpt lat="48.80907" lon="1.609">
        <ele>123</ele>
        <time>2015-04-25T15:32:33.000Z</time>
      </trkpt>
      <trkpt lat="48.80909" lon="1.60901">
        <ele>123</ele>
        <time>2015-04-25T15:32:35.000Z</time>
      </trkpt>
      <trkpt lat="48.8091" lon="1.60902">
        <ele>123</ele>
        <time>2015-04-25T15:32:38.000Z</time>
      </trkpt>
      <trkpt lat="48.80916" lon="1.60905">
        <ele>123</ele>
        <time>2015-04-25T15:32:51.000Z</time>
      </trkpt>
      <trkpt lat="48.80928" lon="1.60912">
        <ele>122.9</ele>
        <time>2015-04-25T15:32:59.000Z</time>
      </trkpt>
      <trkpt lat="48.80939" lon="1.6092">
        <ele>123</ele>
        <time>2015-04-25T15:33:08.000Z</time>
      </trkpt>
      <trkpt lat="48.80947" lon="1.60924">
        <ele>122.9</ele>
        <time>2015-04-25T15:33:16.000Z</time>
      </trkpt>
      <trkpt lat="48.80957" lon="1.6093">
        <ele>122.8</ele>
        <time>2015-04-25T15:33:24.000Z</time>
      </trkpt>
      <trkpt lat="48.80966" lon="1.60934">
        <ele>122.7</ele>
        <time>2015-04-25T15:33:32.000Z</time>
      </trkpt>
      <trkpt lat="48.80968" lon="1.60934">
        <ele>122.7</ele>
        <time>2015-04-25T15:33:36.000Z</time>
      </trkpt>
      <trkpt lat="48.80972" lon="1.60936">
        <ele>122.7</ele>
        <time>2015-04-25T15:33:58.000Z</time>
      </trkpt>
      <trkpt lat="48.8098" lon="1.60937">
        <ele>122.7</ele>
        <time>2015-04-25T15:34:02.000Z</time>
      </trkpt>
      <trkpt lat="48.80992" lon="1.60944">
        <ele>123</ele>
        <time>2015-04-25T15:34:11.000Z</time>
      </trkpt>
      <trkpt lat="48.81003" lon="1.60951">
        <ele>122.9</ele>
        <time>2015-04-25T15:34:20.000Z</time>
      </trkpt>
      <trkpt lat="48.81015" lon="1.60958">
        <ele>122.7</ele>
        <time>2015-04-25T15:34:29.000Z</time>
      </trkpt>
      <trkpt lat="48.81026" lon="1.60966">
        <ele>122.8</ele>
        <time>2015-04-25T15:34:38.000Z</time>
      </trkpt>
      <trkpt lat="48.81038" lon="1.60977">
        <ele>122.7</ele>
        <time>2015-04-25T15:34:48.000Z</time>
      </trkpt>
      <trkpt lat="48.81051" lon="1.60987">
        <ele>122.6</ele>
        <time>2015-04-25T15:34:58.000Z</time>
      </trkpt>
      <trkpt lat="48.8106" lon="1.60994">
        <ele>122.8</ele>
        <time>2015-04-25T15:35:05.000Z</time>
      </trkpt>
      <trkpt lat="48.81073" lon="1.61003">
        <ele>123.1</ele>
        <time>2015-04-25T15:35:15.000Z</time>
      </trkpt>
      <trkpt lat="48.81084" lon="1.6101">
        <ele>123.3</ele>
        <time>2015-04-25T15:35:23.000Z</time>
      </trkpt>
      <trkpt lat="48.81092" lon="1.61014">
        <ele>123.2</ele>
        <time>2015-04-25T15:35:28.000Z</time>
      </trkpt>
      <trkpt lat="48.81103" lon="1.6102">
        <ele>123</ele>
        <time>2015-04-25T15:35:36.000Z</time>
      </trkpt>
      <trkpt lat="48.81117" lon="1.61029">
        <ele>123</ele>
        <time>2015-04-25T15:35:45.000Z</time>
      </trkpt>
      <trkpt lat="48.81126" lon="1.61033">
        <ele>123.1</ele>
        <time>2015-04-25T15:35:51.000Z</time>
      </trkpt>
      <trkpt lat="48.81135" lon="1.61038">
        <ele>123.1</ele>
        <time>2015-04-25T15:35:58.000Z</time>
      </trkpt>
      <trkpt lat="48.8115" lon="1.61046">
        <ele>122.9</ele>
        <time>2015-04-25T15:36:08.000Z</time>
      </trkpt>
      <trkpt lat="48.81163" lon="1.61055">
        <ele>123</ele>
        <time>2015-04-25T15:36:16.000Z</time>
      </trkpt>
      <trkpt lat="48.81177" lon="1.61063">
        <ele>122.4</ele>
        <time>2015-04-25T15:36:22.000Z</time>
      </trkpt>
      <trkpt lat="48.81187" lon="1.61069">
        <ele>121.9</ele>
        <time>2015-04-25T15:36:29.000Z</time>
      </trkpt>
      <trkpt lat="48.81195" lon="1.61073">
        <ele>121.6</ele>
        <time>2015-04-25T15:36:36.000Z</time>
      </trkpt>
      <trkpt lat="48.812" lon="1.61076">
        <ele>121.5</ele>
        <time>2015-04-25T15:36:40.000Z</time>
      </trkpt>
      <trkpt lat="48.81211" lon="1.61082">
        <ele>121.4</ele>
        <time>2015-04-25T15:36:48.000Z</time>
      </trkpt>
      <trkpt lat="48.81218" lon="1.61086">
        <ele>121.2</ele>
        <time>2015-04-25T15:36:53.000Z</time>
      </trkpt>
      <trkpt lat="48.8123" lon="1.61093">
        <ele>120.8</ele>
        <time>2015-04-25T15:37:01.000Z</time>
      </trkpt>
      <trkpt lat="48.8124" lon="1.61099">
        <ele>120.7</ele>
        <time>2015-04-25T15:37:09.000Z</time>
      </trkpt>
      <trkpt lat="48.81254" lon="1.61106">
        <ele>120.8</ele>
        <time>2015-04-25T15:37:19.000Z</time>
      </trkpt>
      <trkpt lat="48.8127" lon="1.61114">
        <ele>121</ele>
        <time>2015-04-25T15:37:30.000Z</time>
      </trkpt>
      <trkpt lat="48.8128" lon="1.61118">
        <ele>121</ele>
        <time>2015-04-25T15:37:35.000Z</time>
      </trkpt>
      <trkpt lat="48.81291" lon="1.61124">
        <ele>121</ele>
        <time>2015-04-25T15:37:42.000Z</time>
      </trkpt>
      <trkpt lat="48.81301" lon="1.6113">
        <ele>121</ele>
        <time>2015-04-25T15:37:50.000Z</time>
      </trkpt>
      <trkpt lat="48.8131" lon="1.61134">
        <ele>121.1</ele>
        <time>2015-04-25T15:37:58.000Z</time>
      </trkpt>
      <trkpt lat="48.81323" lon="1.61136">
        <ele>121.6</ele>
        <time>2015-04-25T15:38:06.000Z</time>
      </trkpt>
      <trkpt lat="48.81324" lon="1.61137">
        <ele>121.6</ele>
        <time>2015-04-25T15:38:07.000Z</time>
      </trkpt>
      <trkpt lat="48.8133" lon="1.6114">
        <ele>121.9</ele>
        <time>2015-04-25T15:38:11.000Z</time>
      </trkpt>
      <trkpt lat="48.81345" lon="1.61149">
        <ele>122.2</ele>
        <time>2015-04-25T15:38:21.000Z</time>
      </trkpt>
      <trkpt lat="48.81354" lon="1.61154">
        <ele>122.4</ele>
        <time>2015-04-25T15:38:27.000Z</time>
      </trkpt>
      <trkpt lat="48.8137" lon="1.61164">
        <ele>122.9</ele>
        <time>2015-04-25T15:38:39.000Z</time>
      </trkpt>
      <trkpt lat="48.81382" lon="1.61173">
        <ele>123</ele>
        <time>2015-04-25T15:38:48.000Z</time>
      </trkpt>
      <trkpt lat="48.81391" lon="1.61178">
        <ele>123</ele>
        <time>2015-04-25T15:38:55.000Z</time>
      </trkpt>
      <trkpt lat="48.81401" lon="1.61184">
        <ele>123</ele>
        <time>2015-04-25T15:39:03.000Z</time>
      </trkpt>
      <trkpt lat="48.81406" lon="1.61188">
        <ele>123</ele>
        <time>2015-04-25T15:39:07.000Z</time>
      </trkpt>
      <trkpt lat="48.81415" lon="1.61194">
        <ele>123</ele>
        <time>2015-04-25T15:39:14.000Z</time>
      </trkpt>
      <trkpt lat="48.81425" lon="1.61199">
        <ele>123.2</ele>
        <time>2015-04-25T15:39:21.000Z</time>
      </trkpt>
      <trkpt lat="48.81436" lon="1.61206">
        <ele>123.4</ele>
        <time>2015-04-25T15:39:30.000Z</time>
      </trkpt>
      <trkpt lat="48.81451" lon="1.61214">
        <ele>123.7</ele>
        <time>2015-04-25T15:39:41.000Z</time>
      </trkpt>
      <trkpt lat="48.81456" lon="1.61216">
        <ele>123.8</ele>
        <time>2015-04-25T15:39:44.000Z</time>
      </trkpt>
      <trkpt lat="48.81463" lon="1.6122">
        <ele>123.9</ele>
        <time>2015-04-25T15:39:50.000Z</time>
      </trkpt>
      <trkpt lat="48.81468" lon="1.61222">
        <ele>124</ele>
        <time>2015-04-25T15:39:54.000Z</time>
      </trkpt>
      <trkpt lat="48.81482" lon="1.61229">
        <ele>124.1</ele>
        <time>2015-04-25T15:40:05.000Z</time>
      </trkpt>
      <trkpt lat="48.81489" lon="1.61234">
        <ele>124.3</ele>
        <time>2015-04-25T15:40:12.000Z</time>
      </trkpt>
      <trkpt lat="48.81499" lon="1.61238">
        <ele>124.6</ele>
        <time>2015-04-25T15:40:19.000Z</time>
      </trkpt>
      <trkpt lat="48.81507" lon="1.61242">
        <ele>124.7</ele>
        <time>2015-04-25T15:40:25.000Z</time>
      </trkpt>
      <trkpt lat="48.81517" lon="1.61247">
        <ele>124.9</ele>
        <time>2015-04-25T15:40:32.000Z</time>
      </trkpt>
      <trkpt lat="48.81535" lon="1.61256">
        <ele>124.8</ele>
        <time>2015-04-25T15:40:44.000Z</time>
      </trkpt>
      <trkpt lat="48.81543" lon="1.61261">
        <ele>124.7</ele>
        <time>2015-04-25T15:40:50.000Z</time>
      </trkpt>
      <trkpt lat="48.81551" lon="1.61266">
        <ele>124.6</ele>
        <time>2015-04-25T15:40:57.000Z</time>
      </trkpt>
      <trkpt lat="48.81565" lon="1.61273">
        <ele>124.8</ele>
        <time>2015-04-25T15:41:07.000Z</time>
      </trkpt>
      <trkpt lat="48.81582" lon="1.61283">
        <ele>125</ele>
        <time>2015-04-25T15:41:19.000Z</time>
      </trkpt>
      <trkpt lat="48.81588" lon="1.61288">
        <ele>124.9</ele>
        <time>2015-04-25T15:41:25.000Z</time>
      </trkpt>
      <trkpt lat="48.81596" lon="1.61293">
        <ele>124.8</ele>
        <time>2015-04-25T15:41:31.000Z</time>
      </trkpt>
      <trkpt lat="48.81612" lon="1.61302">
        <ele>124.9</ele>
        <time>2015-04-25T15:41:42.000Z</time>
      </trkpt>
      <trkpt lat="48.81628" lon="1.61312">
        <ele>125</ele>
        <time>2015-04-25T15:41:54.000Z</time>
      </trkpt>
      <trkpt lat="48.81645" lon="1.61322">
        <ele>125</ele>
        <time>2015-04-25T15:42:05.000Z</time>
      </trkpt>
      <trkpt lat="48.81653" lon="1.61328">
        <ele>125</ele>
        <time>2015-04-25T15:42:12.000Z</time>
      </trkpt>
      <trkpt lat="48.81669" lon="1.61337">
        <ele>125</ele>
        <time>2015-04-25T15:42:23.000Z</time>
      </trkpt>
      <trkpt lat="48.81678" lon="1.61343">
        <ele>125</ele>
        <time>2015-04-25T15:42:30.000Z</time>
      </trkpt>
      <trkpt lat="48.81688" lon="1.61349">
        <ele>125</ele>
        <time>2015-04-25T15:42:37.000Z</time>
      </trkpt>
      <trkpt lat="48.81698" lon="1.61353">
        <ele>125</ele>
        <time>2015-04-25T15:42:43.000Z</time>
      </trkpt>
      <trkpt lat="48.81706" lon="1.61359">
        <ele>125</ele>
        <time>2015-04-25T15:42:50.000Z</time>
      </trkpt>
      <trkpt lat="48.81725" lon="1.61368">
        <ele>125</ele>
        <time>2015-04-25T15:43:02.000Z</time>
      </trkpt>
      <trkpt lat="48.81735" lon="1.61372">
        <ele>125</ele>
        <time>2015-04-25T15:43:09.000Z</time>
      </trkpt>
      <trkpt lat="48.81745" lon="1.61377">
        <ele>125</ele>
        <time>2015-04-25T15:43:16.000Z</time>
      </trkpt>
      <trkpt lat="48.81748" lon="1.6138">
        <ele>125</ele>
        <time>2015-04-25T15:43:19.000Z</time>
      </trkpt>
      <trkpt lat="48.81757" lon="1.61386">
        <ele>125</ele>
        <time>2015-04-25T15:43:26.000Z</time>
      </trkpt>
      <trkpt lat="48.81759" lon="1.61387">
        <ele>125</ele>
        <time>2015-04-25T15:43:28.000Z</time>
      </trkpt>
      <trkpt lat="48.81763" lon="1.6139">
        <ele>125</ele>
        <time>2015-04-25T15:43:32.000Z</time>
      </trkpt>
      <trkpt lat="48.81771" lon="1.61396">
        <ele>125</ele>
        <time>2015-04-25T15:43:39.000Z</time>
      </trkpt>
      <trkpt lat="48.81786" lon="1.61403">
        <ele>125</ele>
        <time>2015-04-25T15:43:49.000Z</time>
      </trkpt>
      <trkpt lat="48.81799" lon="1.61408">
        <ele>125</ele>
        <time>2015-04-25T15:43:57.000Z</time>
      </trkpt>
      <trkpt lat="48.81809" lon="1.61415">
        <ele>125</ele>
        <time>2015-04-25T15:44:05.000Z</time>
      </trkpt>
      <trkpt lat="48.81812" lon="1.61417">
        <ele>125</ele>
        <time>2015-04-25T15:44:07.000Z</time>
      </trkpt>
      <trkpt lat="48.81821" lon="1.61426">
        <ele>125</ele>
        <time>2015-04-25T15:44:15.000Z</time>
      </trkpt>
      <trkpt lat="48.8183" lon="1.61433">
        <ele>125</ele>
        <time>2015-04-25T15:44:22.000Z</time>
      </trkpt>
      <trkpt lat="48.81842" lon="1.6144">
        <ele>124.9</ele>
        <time>2015-04-25T15:44:31.000Z</time>
      </trkpt>
      <trkpt lat="48.81849" lon="1.61443">
        <ele>125</ele>
        <time>2015-04-25T15:44:36.000Z</time>
      </trkpt>
      <trkpt lat="48.81859" lon="1.61451">
        <ele>125</ele>
        <time>2015-04-25T15:44:44.000Z</time>
      </trkpt>
      <trkpt lat="48.81862" lon="1.61453">
        <ele>125</ele>
        <time>2015-04-25T15:44:46.000Z</time>
      </trkpt>
      <trkpt lat="48.81867" lon="1.61455">
        <ele>125</ele>
        <time>2015-04-25T15:44:50.000Z</time>
      </trkpt>
      <trkpt lat="48.8188" lon="1.61465">
        <ele>125</ele>
        <time>2015-04-25T15:45:00.000Z</time>
      </trkpt>
      <trkpt lat="48.81891" lon="1.61473">
        <ele>125</ele>
        <time>2015-04-25T15:45:08.000Z</time>
      </trkpt>
      <trkpt lat="48.819" lon="1.6148">
        <ele>125</ele>
        <time>2015-04-25T15:45:15.000Z</time>
      </trkpt>
      <trkpt lat="48.81912" lon="1.6149">
        <ele>125</ele>
        <time>2015-04-25T15:45:25.000Z</time>
      </trkpt>
      <trkpt lat="48.81925" lon="1.615">
        <ele>125</ele>
        <time>2015-04-25T15:45:35.000Z</time>
      </trkpt>
      <trkpt lat="48.81933" lon="1.61509">
        <ele>125.2</ele>
        <time>2015-04-25T15:45:43.000Z</time>
      </trkpt>
      <trkpt lat="48.81941" lon="1.61516">
        <ele>125.5</ele>
        <time>2015-04-25T15:45:50.000Z</time>
      </trkpt>
      <trkpt lat="48.81949" lon="1.61524">
        <ele>125.9</ele>
        <time>2015-04-25T15:45:57.000Z</time>
      </trkpt>
      <trkpt lat="48.81958" lon="1.61531">
        <ele>125.9</ele>
        <time>2015-04-25T15:46:05.000Z</time>
      </trkpt>
      <trkpt lat="48.81959" lon="1.61531">
        <ele>125.9</ele>
        <time>2015-04-25T15:46:08.000Z</time>
      </trkpt>
      <trkpt lat="48.81961" lon="1.61533">
        <ele>125.8</ele>
        <time>2015-04-25T15:46:12.000Z</time>
      </trkpt>
      <trkpt lat="48.81963" lon="1.61534">
        <ele>125.8</ele>
        <time>2015-04-25T15:46:13.000Z</time>
      </trkpt>
      <trkpt lat="48.81976" lon="1.61545">
        <ele>125.4</ele>
        <time>2015-04-25T15:46:22.000Z</time>
      </trkpt>
      <trkpt lat="48.81984" lon="1.61551">
        <ele>125.4</ele>
        <time>2015-04-25T15:46:28.000Z</time>
      </trkpt>
      <trkpt lat="48.8199" lon="1.61555">
        <ele>125.6</ele>
        <time>2015-04-25T15:46:32.000Z</time>
      </trkpt>
      <trkpt lat="48.81997" lon="1.61562">
        <ele>125.7</ele>
        <time>2015-04-25T15:46:37.000Z</time>
      </trkpt>
      <trkpt lat="48.82008" lon="1.61569">
        <ele>125.4</ele>
        <time>2015-04-25T15:46:43.000Z</time>
      </trkpt>
      <trkpt lat="48.82012" lon="1.61572">
        <ele>125.2</ele>
        <time>2015-04-25T15:46:46.000Z</time>
      </trkpt>
      <trkpt lat="48.82021" lon="1.61578">
        <ele>125</ele>
        <time>2015-04-25T15:46:54.000Z</time>
      </trkpt>
      <trkpt lat="48.8203" lon="1.61585">
        <ele>125</ele>
        <time>2015-04-25T15:47:02.000Z</time>
      </trkpt>
      <trkpt lat="48.82044" lon="1.61594">
        <ele>125</ele>
        <time>2015-04-25T15:47:12.000Z</time>
      </trkpt>
      <trkpt lat="48.82059" lon="1.61605">
        <ele>124.9</ele>
        <time>2015-04-25T15:47:24.000Z</time>
      </trkpt>
      <trkpt lat="48.82061" lon="1.61607">
        <ele>124.8</ele>
        <time>2015-04-25T15:47:26.000Z</time>
      </trkpt>
      <trkpt lat="48.82065" lon="1.6161">
        <ele>124.6</ele>
        <time>2015-04-25T15:47:30.000Z</time>
      </trkpt>
      <trkpt lat="48.82079" lon="1.61621">
        <ele>124.5</ele>
        <time>2015-04-25T15:47:40.000Z</time>
      </trkpt>
      <trkpt lat="48.82091" lon="1.6163">
        <ele>124.5</ele>
        <time>2015-04-25T15:47:49.000Z</time>
      </trkpt>
      <trkpt lat="48.82096" lon="1.61644">
        <ele>124.6</ele>
        <time>2015-04-25T15:47:56.000Z</time>
      </trkpt>
      <trkpt lat="48.82099" lon="1.6166">
        <ele>124.9</ele>
        <time>2015-04-25T15:48:04.000Z</time>
      </trkpt>
      <trkpt lat="48.82102" lon="1.61678">
        <ele>125</ele>
        <time>2015-04-25T15:48:12.000Z</time>
      </trkpt>
      <trkpt lat="48.82107" lon="1.61705">
        <ele>125</ele>
        <time>2015-04-25T15:48:23.000Z</time>
      </trkpt>
      <trkpt lat="48.8211" lon="1.61727">
        <ele>125.2</ele>
        <time>2015-04-25T15:48:30.000Z</time>
      </trkpt>
      <trkpt lat="48.82111" lon="1.6173">
        <ele>125.3</ele>
        <time>2015-04-25T15:48:31.000Z</time>
      </trkpt>
      <trkpt lat="48.82112" lon="1.61739">
        <ele>125.6</ele>
        <time>2015-04-25T15:48:35.000Z</time>
      </trkpt>
      <trkpt lat="48.82117" lon="1.61764">
        <ele>125.9</ele>
        <time>2015-04-25T15:48:42.000Z</time>
      </trkpt>
      <trkpt lat="48.82125" lon="1.61803">
        <ele>126</ele>
        <time>2015-04-25T15:48:50.000Z</time>
      </trkpt>
      <trkpt lat="48.82139" lon="1.61861">
        <ele>127</ele>
        <time>2015-04-25T15:49:01.000Z</time>
      </trkpt>
      <trkpt lat="48.82151" lon="1.61915">
        <ele>127</ele>
        <time>2015-04-25T15:49:11.000Z</time>
      </trkpt>
      <trkpt lat="48.82166" lon="1.61954">
        <ele>127</ele>
        <time>2015-04-25T15:49:19.000Z</time>
      </trkpt>
      <trkpt lat="48.82181" lon="1.61988">
        <ele>127.5</ele>
        <time>2015-04-25T15:49:26.000Z</time>
      </trkpt>
      <trkpt lat="48.82198" lon="1.62022">
        <ele>128</ele>
        <time>2015-04-25T15:49:33.000Z</time>
      </trkpt>
      <trkpt lat="48.82228" lon="1.62081">
        <ele>128</ele>
        <time>2015-04-25T15:49:45.000Z</time>
      </trkpt>
      <trkpt lat="48.82249" lon="1.62117">
        <ele>128.8</ele>
        <time>2015-04-25T15:49:53.000Z</time>
      </trkpt>
      <trkpt lat="48.82267" lon="1.62147">
        <ele>128.6</ele>
        <time>2015-04-25T15:50:00.000Z</time>
      </trkpt>
      <trkpt lat="48.82286" lon="1.62177">
        <ele>129.1</ele>
        <time>2015-04-25T15:50:07.000Z</time>
      </trkpt>
      <trkpt lat="48.82309" lon="1.62216">
        <ele>129.3</ele>
        <time>2015-04-25T15:50:16.000Z</time>
      </trkpt>
      <trkpt lat="48.8233" lon="1.62249">
        <ele>129.9</ele>
        <time>2015-04-25T15:50:24.000Z</time>
      </trkpt>
      <trkpt lat="48.82345" lon="1.62274">
        <ele>130.4</ele>
        <time>2015-04-25T15:50:30.000Z</time>
      </trkpt>
      <trkpt lat="48.82364" lon="1.62309">
        <ele>130.1</ele>
        <time>2015-04-25T15:50:38.000Z</time>
      </trkpt>
      <trkpt lat="48.8238" lon="1.62335">
        <ele>130.7</ele>
        <time>2015-04-25T15:50:44.000Z</time>
      </trkpt>
      <trkpt lat="48.82393" lon="1.62356">
        <ele>131</ele>
        <time>2015-04-25T15:50:50.000Z</time>
      </trkpt>
      <trkpt lat="48.82399" lon="1.62367">
        <ele>130.9</ele>
        <time>2015-04-25T15:50:57.000Z</time>
      </trkpt>
      <trkpt lat="48.82408" lon="1.62379">
        <ele>130.8</ele>
        <time>2015-04-25T15:51:05.000Z</time>
      </trkpt>
      <trkpt lat="48.82409" lon="1.62381">
        <ele>130.8</ele>
        <time>2015-04-25T15:51:06.000Z</time>
      </trkpt>
      <trkpt lat="48.82412" lon="1.62387">
        <ele>130.9</ele>
        <time>2015-04-25T15:51:10.000Z</time>
      </trkpt>
      <trkpt lat="48.8242" lon="1.62399">
        <ele>131</ele>
        <time>2015-04-25T15:51:18.000Z</time>
      </trkpt>
      <trkpt lat="48.82421" lon="1.62413">
        <ele>131</ele>
        <time>2015-04-25T15:51:24.000Z</time>
      </trkpt>
      <trkpt lat="48.82415" lon="1.62429">
        <ele>130.5</ele>
        <time>2015-04-25T15:51:32.000Z</time>
      </trkpt>
      <trkpt lat="48.82407" lon="1.62447">
        <ele>130</ele>
        <time>2015-04-25T15:51:41.000Z</time>
      </trkpt>
      <trkpt lat="48.82402" lon="1.62462">
        <ele>130</ele>
        <time>2015-04-25T15:51:46.000Z</time>
      </trkpt>
      <trkpt lat="48.82391" lon="1.62488">
        <ele>129.5</ele>
        <time>2015-04-25T15:51:53.000Z</time>
      </trkpt>
      <trkpt lat="48.82385" lon="1.62503">
        <ele>129</ele>
        <time>2015-04-25T15:52:00.000Z</time>
      </trkpt>
      <trkpt lat="48.82379" lon="1.62517">
        <ele>129</ele>
        <time>2015-04-25T15:52:07.000Z</time>
      </trkpt>
      <trkpt lat="48.82374" lon="1.62528">
        <ele>129</ele>
        <time>2015-04-25T15:52:13.000Z</time>
      </trkpt>
      <trkpt lat="48.82369" lon="1.62539">
        <ele>129</ele>
        <time>2015-04-25T15:52:17.000Z</time>
      </trkpt>
      <trkpt lat="48.82365" lon="1.62551">
        <ele>129</ele>
        <time>2015-04-25T15:52:23.000Z</time>
      </trkpt>
      <trkpt lat="48.82358" lon="1.6257">
        <ele>128.9</ele>
        <time>2015-04-25T15:52:33.000Z</time>
      </trkpt>
      <trkpt lat="48.82352" lon="1.62583">
        <ele>128.7</ele>
        <time>2015-04-25T15:52:40.000Z</time>
      </trkpt>
      <trkpt lat="48.82346" lon="1.62597">
        <ele>128.7</ele>
        <time>2015-04-25T15:52:47.000Z</time>
      </trkpt>
      <trkpt lat="48.82336" lon="1.6262">
        <ele>129.3</ele>
        <time>2015-04-25T15:52:58.000Z</time>
      </trkpt>
      <trkpt lat="48.82328" lon="1.6264">
        <ele>130</ele>
        <time>2015-04-25T15:53:05.000Z</time>
      </trkpt>
      <trkpt lat="48.82322" lon="1.62654">
        <ele>130.6</ele>
        <time>2015-04-25T15:53:13.000Z</time>
      </trkpt>
      <trkpt lat="48.82315" lon="1.62671">
        <ele>131.2</ele>
        <time>2015-04-25T15:53:20.000Z</time>
      </trkpt>
      <trkpt lat="48.82314" lon="1.62673">
        <ele>131.2</ele>
        <time>2015-04-25T15:53:21.000Z</time>
      </trkpt>
      <trkpt lat="48.82307" lon="1.6269">
        <ele>131.9</ele>
        <time>2015-04-25T15:53:30.000Z</time>
      </trkpt>
      <trkpt lat="48.82299" lon="1.62709">
        <ele>132.5</ele>
        <time>2015-04-25T15:53:40.000Z</time>
      </trkpt>
      <trkpt lat="48.82295" lon="1.62719">
        <ele>132.9</ele>
        <time>2015-04-25T15:53:46.000Z</time>
      </trkpt>
      <trkpt lat="48.82293" lon="1.62725">
        <ele>133.1</ele>
        <time>2015-04-25T15:53:49.000Z</time>
      </trkpt>
      <trkpt lat="48.82288" lon="1.62736">
        <ele>133.5</ele>
        <time>2015-04-25T15:53:56.000Z</time>
      </trkpt>
      <trkpt lat="48.82287" lon="1.62737">
        <ele>133.5</ele>
        <time>2015-04-25T15:53:57.000Z</time>
      </trkpt>
      <trkpt lat="48.82282" lon="1.62753">
        <ele>134</ele>
        <time>2015-04-25T15:54:05.000Z</time>
      </trkpt>
      <trkpt lat="48.82276" lon="1.62767">
        <ele>133.9</ele>
        <time>2015-04-25T15:54:12.000Z</time>
      </trkpt>
      <trkpt lat="48.82268" lon="1.62785">
        <ele>133.7</ele>
        <time>2015-04-25T15:54:21.000Z</time>
      </trkpt>
      <trkpt lat="48.82261" lon="1.62801">
        <ele>133.9</ele>
        <time>2015-04-25T15:54:29.000Z</time>
      </trkpt>
      <trkpt lat="48.82257" lon="1.62813">
        <ele>134</ele>
        <time>2015-04-25T15:54:35.000Z</time>
      </trkpt>
      <trkpt lat="48.82246" lon="1.62837">
        <ele>133.9</ele>
        <time>2015-04-25T15:54:48.000Z</time>
      </trkpt>
      <trkpt lat="48.82237" lon="1.6286">
        <ele>134</ele>
        <time>2015-04-25T15:55:00.000Z</time>
      </trkpt>
      <trkpt lat="48.82229" lon="1.62881">
        <ele>134.2</ele>
        <time>2015-04-25T15:55:11.000Z</time>
      </trkpt>
      <trkpt lat="48.82221" lon="1.62901">
        <ele>134.4</ele>
        <time>2015-04-25T15:55:21.000Z</time>
      </trkpt>
      <trkpt lat="48.82217" lon="1.62908">
        <ele>134.6</ele>
        <time>2015-04-25T15:55:25.000Z</time>
      </trkpt>
      <trkpt lat="48.82211" lon="1.62926">
        <ele>134.7</ele>
        <time>2015-04-25T15:55:34.000Z</time>
      </trkpt>
      <trkpt lat="48.82202" lon="1.62948">
        <ele>135</ele>
        <time>2015-04-25T15:55:45.000Z</time>
      </trkpt>
      <trkpt lat="48.82195" lon="1.62965">
        <ele>135</ele>
        <time>2015-04-25T15:55:54.000Z</time>
      </trkpt>
      <trkpt lat="48.82185" lon="1.62986">
        <ele>134.7</ele>
        <time>2015-04-25T15:56:06.000Z</time>
      </trkpt>
      <trkpt lat="48.82185" lon="1.62997">
        <ele>134.7</ele>
        <time>2015-04-25T15:56:13.000Z</time>
      </trkpt>
      <trkpt lat="48.8219" lon="1.63011">
        <ele>134.8</ele>
        <time>2015-04-25T15:56:21.000Z</time>
      </trkpt>
      <trkpt lat="48.82196" lon="1.63025">
        <ele>135</ele>
        <time>2015-04-25T15:56:29.000Z</time>
      </trkpt>
      <trkpt lat="48.82202" lon="1.63039">
        <ele>135.3</ele>
        <time>2015-04-25T15:56:37.000Z</time>
      </trkpt>
      <trkpt lat="48.82211" lon="1.63053">
        <ele>135.6</ele>
        <time>2015-04-25T15:56:45.000Z</time>
      </trkpt>
      <trkpt lat="48.82217" lon="1.63066">
        <ele>135.8</ele>
        <time>2015-04-25T15:56:52.000Z</time>
      </trkpt>
      <trkpt lat="48.82224" lon="1.63084">
        <ele>136.1</ele>
        <time>2015-04-25T15:57:02.000Z</time>
      </trkpt>
      <trkpt lat="48.82228" lon="1.631">
        <ele>136.3</ele>
        <time>2015-04-25T15:57:10.000Z</time>
      </trkpt>
      <trkpt lat="48.82229" lon="1.63102">
        <ele>136.3</ele>
        <time>2015-04-25T15:57:11.000Z</time>
      </trkpt>
      <trkpt lat="48.82242" lon="1.63109">
        <ele>136.8</ele>
        <time>2015-04-25T15:57:20.000Z</time>
      </trkpt>
      <trkpt lat="48.82255" lon="1.63115">
        <ele>137.2</ele>
        <time>2015-04-25T15:57:30.000Z</time>
      </trkpt>
      <trkpt lat="48.82271" lon="1.63121">
        <ele>137.7</ele>
        <time>2015-04-25T15:57:40.000Z</time>
      </trkpt>
      <trkpt lat="48.82273" lon="1.63122">
        <ele>137.8</ele>
        <time>2015-04-25T15:57:42.000Z</time>
      </trkpt>
      <trkpt lat="48.82286" lon="1.63127">
        <ele>138.3</ele>
        <time>2015-04-25T15:57:51.000Z</time>
      </trkpt>
      <trkpt lat="48.82297" lon="1.63133">
        <ele>138.7</ele>
        <time>2015-04-25T15:57:56.000Z</time>
      </trkpt>
      <trkpt lat="48.82311" lon="1.63139">
        <ele>139.2</ele>
        <time>2015-04-25T15:58:02.000Z</time>
      </trkpt>
      <trkpt lat="48.82325" lon="1.63144">
        <ele>139.7</ele>
        <time>2015-04-25T15:58:12.000Z</time>
      </trkpt>
      <trkpt lat="48.82339" lon="1.63148">
        <ele>140.2</ele>
        <time>2015-04-25T15:58:22.000Z</time>
      </trkpt>
      <trkpt lat="48.8234" lon="1.63149">
        <ele>140.3</ele>
        <time>2015-04-25T15:58:23.000Z</time>
      </trkpt>
      <trkpt lat="48.82345" lon="1.63164">
        <ele>140.4</ele>
        <time>2015-04-25T15:58:31.000Z</time>
      </trkpt>
      <trkpt lat="48.82341" lon="1.63181">
        <ele>140.3</ele>
        <time>2015-04-25T15:58:39.000Z</time>
      </trkpt>
      <trkpt lat="48.82336" lon="1.63199">
        <ele>140.1</ele>
        <time>2015-04-25T15:58:47.000Z</time>
      </trkpt>
      <trkpt lat="48.8233" lon="1.63216">
        <ele>139.8</ele>
        <time>2015-04-25T15:58:55.000Z</time>
      </trkpt>
      <trkpt lat="48.82326" lon="1.63232">
        <ele>139.5</ele>
        <time>2015-04-25T15:59:03.000Z</time>
      </trkpt>
      <trkpt lat="48.82323" lon="1.63252">
        <ele>139.2</ele>
        <time>2015-04-25T15:59:12.000Z</time>
      </trkpt>
      <trkpt lat="48.82319" lon="1.63281">
        <ele>138.5</ele>
        <time>2015-04-25T15:59:24.000Z</time>
      </trkpt>
      <trkpt lat="48.82317" lon="1.63295">
        <ele>138.4</ele>
        <time>2015-04-25T15:59:30.000Z</time>
      </trkpt>
      <trkpt lat="48.82317" lon="1.63304">
        <ele>138.4</ele>
        <time>2015-04-25T15:59:34.000Z</time>
      </trkpt>
      <trkpt lat="48.82315" lon="1.63323">
        <ele>137.9</ele>
        <time>2015-04-25T15:59:42.000Z</time>
      </trkpt>
      <trkpt lat="48.82313" lon="1.63347">
        <ele>137.4</ele>
        <time>2015-04-25T15:59:52.000Z</time>
      </trkpt>
      <trkpt lat="48.82312" lon="1.63362">
        <ele>137.2</ele>
        <time>2015-04-25T15:59:59.000Z</time>
      </trkpt>
      <trkpt lat="48.8231" lon="1.63384">
        <ele>136.5</ele>
        <time>2015-04-25T16:00:09.000Z</time>
      </trkpt>
      <trkpt lat="48.8231" lon="1.63395">
        <ele>136.3</ele>
        <time>2015-04-25T16:00:14.000Z</time>
      </trkpt>
      <trkpt lat="48.8231" lon="1.63408">
        <ele>136.2</ele>
        <time>2015-04-25T16:00:20.000Z</time>
      </trkpt>
      <trkpt lat="48.82307" lon="1.63429">
        <ele>136</ele>
        <time>2015-04-25T16:00:29.000Z</time>
      </trkpt>
      <trkpt lat="48.82305" lon="1.63449">
        <ele>136</ele>
        <time>2015-04-25T16:00:38.000Z</time>
      </trkpt>
      <trkpt lat="48.82303" lon="1.6347">
        <ele>135.8</ele>
        <time>2015-04-25T16:00:48.000Z</time>
      </trkpt>
      <trkpt lat="48.82302" lon="1.63497">
        <ele>135</ele>
        <time>2015-04-25T16:01:00.000Z</time>
      </trkpt>
      <trkpt lat="48.823" lon="1.63524">
        <ele>134.8</ele>
        <time>2015-04-25T16:01:11.000Z</time>
      </trkpt>
      <trkpt lat="48.82297" lon="1.63542">
        <ele>134.5</ele>
        <time>2015-04-25T16:01:19.000Z</time>
      </trkpt>
      <trkpt lat="48.82297" lon="1.63568">
        <ele>134.2</ele>
        <time>2015-04-25T16:01:31.000Z</time>
      </trkpt>
      <trkpt lat="48.823" lon="1.63598">
        <ele>134</ele>
        <time>2015-04-25T16:01:44.000Z</time>
      </trkpt>
      <trkpt lat="48.82304" lon="1.63624">
        <ele>133.5</ele>
        <time>2015-04-25T16:01:55.000Z</time>
      </trkpt>
      <trkpt lat="48.82305" lon="1.63643">
        <ele>133</ele>
        <time>2015-04-25T16:02:03.000Z</time>
      </trkpt>
      <trkpt lat="48.82305" lon="1.63649">
        <ele>133</ele>
        <time>2015-04-25T16:02:08.000Z</time>
      </trkpt>
      <trkpt lat="48.82307" lon="1.63658">
        <ele>133.1</ele>
        <time>2015-04-25T16:02:30.000Z</time>
      </trkpt>
      <trkpt lat="48.82313" lon="1.63676">
        <ele>133.2</ele>
        <time>2015-04-25T16:02:38.000Z</time>
      </trkpt>
      <trkpt lat="48.82317" lon="1.6369">
        <ele>133</ele>
        <time>2015-04-25T16:02:45.000Z</time>
      </trkpt>
      <trkpt lat="48.82311" lon="1.63707">
        <ele>132.3</ele>
        <time>2015-04-25T16:02:53.000Z</time>
      </trkpt>
      <trkpt lat="48.82306" lon="1.63731">
        <ele>132</ele>
        <time>2015-04-25T16:03:04.000Z</time>
      </trkpt>
      <trkpt lat="48.82303" lon="1.6375">
        <ele>131.9</ele>
        <time>2015-04-25T16:03:13.000Z</time>
      </trkpt>
      <trkpt lat="48.82302" lon="1.63769">
        <ele>131.9</ele>
        <time>2015-04-25T16:03:21.000Z</time>
      </trkpt>
      <trkpt lat="48.823" lon="1.63791">
        <ele>130.9</ele>
        <time>2015-04-25T16:03:30.000Z</time>
      </trkpt>
      <trkpt lat="48.82298" lon="1.63813">
        <ele>130</ele>
        <time>2015-04-25T16:03:39.000Z</time>
      </trkpt>
      <trkpt lat="48.82292" lon="1.63835">
        <ele>130</ele>
        <time>2015-04-25T16:03:49.000Z</time>
      </trkpt>
      <trkpt lat="48.82283" lon="1.63853">
        <ele>129.4</ele>
        <time>2015-04-25T16:03:58.000Z</time>
      </trkpt>
      <trkpt lat="48.82272" lon="1.63872">
        <ele>128.6</ele>
        <time>2015-04-25T16:04:08.000Z</time>
      </trkpt>
      <trkpt lat="48.82261" lon="1.63892">
        <ele>128</ele>
        <time>2015-04-25T16:04:18.000Z</time>
      </trkpt>
      <trkpt lat="48.8225" lon="1.6391">
        <ele>128</ele>
        <time>2015-04-25T16:04:29.000Z</time>
      </trkpt>
      <trkpt lat="48.82242" lon="1.63931">
        <ele>127.7</ele>
        <time>2015-04-25T16:04:40.000Z</time>
      </trkpt>
      <trkpt lat="48.82233" lon="1.63948">
        <ele>127.4</ele>
        <time>2015-04-25T16:04:48.000Z</time>
      </trkpt>
      <trkpt lat="48.82225" lon="1.63961">
        <ele>127.1</ele>
        <time>2015-04-25T16:04:55.000Z</time>
      </trkpt>
      <trkpt lat="48.82222" lon="1.63969">
        <ele>127</ele>
        <time>2015-04-25T16:05:00.000Z</time>
      </trkpt>
      <trkpt lat="48.82215" lon="1.63983">
        <ele>126.9</ele>
        <time>2015-04-25T16:05:08.000Z</time>
      </trkpt>
      <trkpt lat="48.82209" lon="1.64002">
        <ele>126.5</ele>
        <time>2015-04-25T16:05:17.000Z</time>
      </trkpt>
      <trkpt lat="48.82209" lon="1.64005">
        <ele>126.5</ele>
        <time>2015-04-25T16:05:21.000Z</time>
      </trkpt>
      <trkpt lat="48.82212" lon="1.6401">
        <ele>126.6</ele>
        <time>2015-04-25T16:05:32.000Z</time>
      </trkpt>
      <trkpt lat="48.82216" lon="1.64018">
        <ele>126.8</ele>
        <time>2015-04-25T16:05:38.000Z</time>
      </trkpt>
      <trkpt lat="48.82222" lon="1.6403">
        <ele>126.9</ele>
        <time>2015-04-25T16:06:12.000Z</time>
      </trkpt>
      <trkpt lat="48.82233" lon="1.64053">
        <ele>126.4</ele>
        <time>2015-04-25T16:06:23.000Z</time>
      </trkpt>
      <trkpt lat="48.82238" lon="1.64063">
        <ele>126.6</ele>
        <time>2015-04-25T16:06:28.000Z</time>
      </trkpt>
      <trkpt lat="48.82243" lon="1.64075">
        <ele>126.8</ele>
        <time>2015-04-25T16:06:34.000Z</time>
      </trkpt>
      <trkpt lat="48.8225" lon="1.6409">
        <ele>126.8</ele>
        <time>2015-04-25T16:06:42.000Z</time>
      </trkpt>
      <trkpt lat="48.82257" lon="1.64107">
        <ele>126.4</ele>
        <time>2015-04-25T16:06:51.000Z</time>
      </trkpt>
      <trkpt lat="48.82266" lon="1.64124">
        <ele>126.6</ele>
        <time>2015-04-25T16:06:59.000Z</time>
      </trkpt>
      <trkpt lat="48.82274" lon="1.64143">
        <ele>126.7</ele>
        <time>2015-04-25T16:07:09.000Z</time>
      </trkpt>
      <trkpt lat="48.82283" lon="1.64163">
        <ele>126.3</ele>
        <time>2015-04-25T16:07:20.000Z</time>
      </trkpt>
      <trkpt lat="48.82291" lon="1.64182">
        <ele>126.2</ele>
        <time>2015-04-25T16:07:30.000Z</time>
      </trkpt>
      <trkpt lat="48.82295" lon="1.64194">
        <ele>126</ele>
        <time>2015-04-25T16:07:36.000Z</time>
      </trkpt>
      <trkpt lat="48.82299" lon="1.64205">
        <ele>126.3</ele>
        <time>2015-04-25T16:07:41.000Z</time>
      </trkpt>
      <trkpt lat="48.823" lon="1.64207">
        <ele>126.4</ele>
        <time>2015-04-25T16:07:42.000Z</time>
      </trkpt>
      <trkpt lat="48.82308" lon="1.64224">
        <ele>126.9</ele>
        <time>2015-04-25T16:07:51.000Z</time>
      </trkpt>
      <trkpt lat="48.82318" lon="1.64243">
        <ele>126.6</ele>
        <time>2015-04-25T16:08:01.000Z</time>
      </trkpt>
      <trkpt lat="48.82324" lon="1.64256">
        <ele>126.7</ele>
        <time>2015-04-25T16:08:08.000Z</time>
      </trkpt>
      <trkpt lat="48.82334" lon="1.64275">
        <ele>127</ele>
        <time>2015-04-25T16:08:18.000Z</time>
      </trkpt>
      <trkpt lat="48.82343" lon="1.64294">
        <ele>127</ele>
        <time>2015-04-25T16:08:28.000Z</time>
      </trkpt>
      <trkpt lat="48.82352" lon="1.64313">
        <ele>127</ele>
        <time>2015-04-25T16:08:37.000Z</time>
      </trkpt>
      <trkpt lat="48.82362" lon="1.64334">
        <ele>127</ele>
        <time>2015-04-25T16:08:48.000Z</time>
      </trkpt>
      <trkpt lat="48.82372" lon="1.64355">
        <ele>127</ele>
        <time>2015-04-25T16:08:59.000Z</time>
      </trkpt>
      <trkpt lat="48.82379" lon="1.64369">
        <ele>127</ele>
        <time>2015-04-25T16:09:07.000Z</time>
      </trkpt>
      <trkpt lat="48.82381" lon="1.64371">
        <ele>127</ele>
        <time>2015-04-25T16:09:09.000Z</time>
      </trkpt>
      <trkpt lat="48.82396" lon="1.6437">
        <ele>127</ele>
        <time>2015-04-25T16:09:18.000Z</time>
      </trkpt>
      <trkpt lat="48.82406" lon="1.64374">
        <ele>127</ele>
        <time>2015-04-25T16:09:25.000Z</time>
      </trkpt>
      <trkpt lat="48.82426" lon="1.64382">
        <ele>127.1</ele>
        <time>2015-04-25T16:09:38.000Z</time>
      </trkpt>
      <trkpt lat="48.82434" lon="1.64388">
        <ele>127</ele>
        <time>2015-04-25T16:09:44.000Z</time>
      </trkpt>
      <trkpt lat="48.82444" lon="1.64391">
        <ele>127</ele>
        <time>2015-04-25T16:09:50.000Z</time>
      </trkpt>
      <trkpt lat="48.82454" lon="1.64398">
        <ele>127</ele>
        <time>2015-04-25T16:09:56.000Z</time>
      </trkpt>
      <trkpt lat="48.82474" lon="1.64412">
        <ele>127</ele>
        <time>2015-04-25T16:10:11.000Z</time>
      </trkpt>
      <trkpt lat="48.8249" lon="1.64423">
        <ele>127</ele>
        <time>2015-04-25T16:10:23.000Z</time>
      </trkpt>
      <trkpt lat="48.82494" lon="1.64435">
        <ele>127</ele>
        <time>2015-04-25T16:10:30.000Z</time>
      </trkpt>
      <trkpt lat="48.82495" lon="1.64435">
        <ele>127</ele>
        <time>2015-04-25T16:10:32.000Z</time>
      </trkpt>
      <trkpt lat="48.82498" lon="1.6443">
        <ele>127</ele>
        <time>2015-04-25T16:10:45.000Z</time>
      </trkpt>
      <trkpt lat="48.82511" lon="1.64416">
        <ele>127</ele>
        <time>2015-04-25T16:10:55.000Z</time>
      </trkpt>
      <trkpt lat="48.82518" lon="1.64405">
        <ele>127.4</ele>
        <time>2015-04-25T16:11:02.000Z</time>
      </trkpt>
      <trkpt lat="48.82519" lon="1.64404">
        <ele>127.5</ele>
        <time>2015-04-25T16:11:03.000Z</time>
      </trkpt>
      <trkpt lat="48.82524" lon="1.64402">
        <ele>127.5</ele>
        <time>2015-04-25T16:11:07.000Z</time>
      </trkpt>
      <trkpt lat="48.82531" lon="1.64393">
        <ele>127.9</ele>
        <time>2015-04-25T16:11:14.000Z</time>
      </trkpt>
      <trkpt lat="48.82542" lon="1.64376">
        <ele>128</ele>
        <time>2015-04-25T16:11:25.000Z</time>
      </trkpt>
      <trkpt lat="48.82552" lon="1.64364">
        <ele>128</ele>
        <time>2015-04-25T16:11:35.000Z</time>
      </trkpt>
      <trkpt lat="48.82562" lon="1.6437">
        <ele>128.2</ele>
        <time>2015-04-25T16:11:42.000Z</time>
      </trkpt>
      <trkpt lat="48.82574" lon="1.64377">
        <ele>128.7</ele>
        <time>2015-04-25T16:11:51.000Z</time>
      </trkpt>
      <trkpt lat="48.82583" lon="1.64384">
        <ele>129</ele>
        <time>2015-04-25T16:11:58.000Z</time>
      </trkpt>
      <trkpt lat="48.82597" lon="1.64394">
        <ele>129</ele>
        <time>2015-04-25T16:12:08.000Z</time>
      </trkpt>
      <trkpt lat="48.82608" lon="1.64401">
        <ele>129</ele>
        <time>2015-04-25T16:12:17.000Z</time>
      </trkpt>
      <trkpt lat="48.82618" lon="1.64407">
        <ele>129</ele>
        <time>2015-04-25T16:12:24.000Z</time>
      </trkpt>
      <trkpt lat="48.82632" lon="1.64417">
        <ele>129</ele>
        <time>2015-04-25T16:12:34.000Z</time>
      </trkpt>
      <trkpt lat="48.82646" lon="1.64429">
        <ele>129</ele>
        <time>2015-04-25T16:12:45.000Z</time>
      </trkpt>
      <trkpt lat="48.82661" lon="1.64442">
        <ele>129</ele>
        <time>2015-04-25T16:12:56.000Z</time>
      </trkpt>
      <trkpt lat="48.82673" lon="1.64451">
        <ele>129.2</ele>
        <time>2015-04-25T16:13:04.000Z</time>
      </trkpt>
      <trkpt lat="48.82692" lon="1.64467">
        <ele>129.9</ele>
        <time>2015-04-25T16:13:17.000Z</time>
      </trkpt>
      <trkpt lat="48.82709" lon="1.64483">
        <ele>130</ele>
        <time>2015-04-25T16:13:29.000Z</time>
      </trkpt>
      <trkpt lat="48.82722" lon="1.64495">
        <ele>130</ele>
        <time>2015-04-25T16:13:39.000Z</time>
      </trkpt>
      <trkpt lat="48.8274" lon="1.64512">
        <ele>130.6</ele>
        <time>2015-04-25T16:13:52.000Z</time>
      </trkpt>
      <trkpt lat="48.82751" lon="1.64523">
        <ele>131</ele>
        <time>2015-04-25T16:14:01.000Z</time>
      </trkpt>
      <trkpt lat="48.82759" lon="1.64532">
        <ele>131.7</ele>
        <time>2015-04-25T16:14:08.000Z</time>
      </trkpt>
      <trkpt lat="48.8277" lon="1.64544">
        <ele>132.4</ele>
        <time>2015-04-25T16:14:17.000Z</time>
      </trkpt>
      <trkpt lat="48.82779" lon="1.64553">
        <ele>133.1</ele>
        <time>2015-04-25T16:14:23.000Z</time>
      </trkpt>
      <trkpt lat="48.82785" lon="1.64559">
        <ele>133.5</ele>
        <time>2015-04-25T16:14:28.000Z</time>
      </trkpt>
      <trkpt lat="48.82795" lon="1.6457">
        <ele>133.9</ele>
        <time>2015-04-25T16:14:37.000Z</time>
      </trkpt>
      <trkpt lat="48.82804" lon="1.6458">
        <ele>134</ele>
        <time>2015-04-25T16:14:45.000Z</time>
      </trkpt>
      <trkpt lat="48.82816" lon="1.64593">
        <ele>135</ele>
        <time>2015-04-25T16:14:56.000Z</time>
      </trkpt>
      <trkpt lat="48.82827" lon="1.64606">
        <ele>135.7</ele>
        <time>2015-04-25T16:15:06.000Z</time>
      </trkpt>
      <trkpt lat="48.82837" lon="1.64614">
        <ele>136.3</ele>
        <time>2015-04-25T16:15:12.000Z</time>
      </trkpt>
      <trkpt lat="48.82844" lon="1.64622">
        <ele>137</ele>
        <time>2015-04-25T16:15:18.000Z</time>
      </trkpt>
      <trkpt lat="48.82848" lon="1.64626">
        <ele>137.3</ele>
        <time>2015-04-25T16:15:21.000Z</time>
      </trkpt>
      <trkpt lat="48.82856" lon="1.64634">
        <ele>137.7</ele>
        <time>2015-04-25T16:15:28.000Z</time>
      </trkpt>
      <trkpt lat="48.8287" lon="1.64647">
        <ele>138.8</ele>
        <time>2015-04-25T16:15:39.000Z</time>
      </trkpt>
      <trkpt lat="48.82878" lon="1.64656">
        <ele>139.5</ele>
        <time>2015-04-25T16:15:47.000Z</time>
      </trkpt>
      <trkpt lat="48.82885" lon="1.64662">
        <ele>139.9</ele>
        <time>2015-04-25T16:15:55.000Z</time>
      </trkpt>
      <trkpt lat="48.82885" lon="1.64662">
        <ele>139.9</ele>
        <time>2015-04-25T16:15:57.000Z</time>
      </trkpt>
      <trkpt lat="48.82879" lon="1.64675">
        <ele>139</ele>
        <time>2015-04-25T16:16:24.000Z</time>
      </trkpt>
      <trkpt lat="48.82871" lon="1.64687">
        <ele>137.9</ele>
        <time>2015-04-25T16:16:32.000Z</time>
      </trkpt>
      <trkpt lat="48.82865" lon="1.64695">
        <ele>137.2</ele>
        <time>2015-04-25T16:16:38.000Z</time>
      </trkpt>
      <trkpt lat="48.82856" lon="1.64705">
        <ele>136.3</ele>
        <time>2015-04-25T16:16:45.000Z</time>
      </trkpt>
      <trkpt lat="48.82848" lon="1.64715">
        <ele>135.3</ele>
        <time>2015-04-25T16:16:52.000Z</time>
      </trkpt>
      <trkpt lat="48.82838" lon="1.64725">
        <ele>134.3</ele>
        <time>2015-04-25T16:17:00.000Z</time>
      </trkpt>
      <trkpt lat="48.82832" lon="1.64733">
        <ele>133.6</ele>
        <time>2015-04-25T16:17:06.000Z</time>
      </trkpt>
      <trkpt lat="48.82832" lon="1.64735">
        <ele>133.5</ele>
        <time>2015-04-25T16:17:11.000Z</time>
      </trkpt>
      <trkpt lat="48.82826" lon="1.64739">
        <ele>133</ele>
        <time>2015-04-25T16:17:19.000Z</time>
      </trkpt>
      <trkpt lat="48.82817" lon="1.64746">
        <ele>132.5</ele>
        <time>2015-04-25T16:17:26.000Z</time>
      </trkpt>
      <trkpt lat="48.82819" lon="1.64751">
        <ele>132.5</ele>
        <time>2015-04-25T16:17:32.000Z</time>
      </trkpt>
      <trkpt lat="48.82817" lon="1.64758">
        <ele>132.4</ele>
        <time>2015-04-25T16:17:38.000Z</time>
      </trkpt>
      <trkpt lat="48.82813" lon="1.64761">
        <ele>132.3</ele>
        <time>2015-04-25T16:17:40.000Z</time>
      </trkpt>
      <trkpt lat="48.82802" lon="1.6477">
        <ele>131.9</ele>
        <time>2015-04-25T16:17:47.000Z</time>
      </trkpt>
      <trkpt lat="48.82788" lon="1.64781">
        <ele>131.4</ele>
        <time>2015-04-25T16:17:57.000Z</time>
      </trkpt>
      <trkpt lat="48.82777" lon="1.6479">
        <ele>131</ele>
        <time>2015-04-25T16:18:04.000Z</time>
      </trkpt>
      <trkpt lat="48.8277" lon="1.64796">
        <ele>130.7</ele>
        <time>2015-04-25T16:18:09.000Z</time>
      </trkpt>
      <trkpt lat="48.82756" lon="1.64808">
        <ele>130.2</ele>
        <time>2015-04-25T16:18:19.000Z</time>
      </trkpt>
      <trkpt lat="48.82742" lon="1.64821">
        <ele>130</ele>
        <time>2015-04-25T16:18:29.000Z</time>
      </trkpt>
      <trkpt lat="48.82734" lon="1.64834">
        <ele>130</ele>
        <time>2015-04-25T16:18:36.000Z</time>
      </trkpt>
      <trkpt lat="48.82725" lon="1.64848">
        <ele>130.1</ele>
        <time>2015-04-25T16:18:44.000Z</time>
      </trkpt>
      <trkpt lat="48.82716" lon="1.64858">
        <ele>129.8</ele>
        <time>2015-04-25T16:18:51.000Z</time>
      </trkpt>
      <trkpt lat="48.82706" lon="1.6487">
        <ele>129.4</ele>
        <time>2015-04-25T16:18:59.000Z</time>
      </trkpt>
      <trkpt lat="48.82702" lon="1.64876">
        <ele>129.3</ele>
        <time>2015-04-25T16:19:03.000Z</time>
      </trkpt>
      <trkpt lat="48.82701" lon="1.64878">
        <ele>129.2</ele>
        <time>2015-04-25T16:19:04.000Z</time>
      </trkpt>
      <trkpt lat="48.827" lon="1.64884">
        <ele>129.2</ele>
        <time>2015-04-25T16:19:07.000Z</time>
      </trkpt>
      <trkpt lat="48.827" lon="1.64897">
        <ele>129.4</ele>
        <time>2015-04-25T16:19:13.000Z</time>
      </trkpt>
      <trkpt lat="48.82701" lon="1.64902">
        <ele>129.6</ele>
        <time>2015-04-25T16:19:19.000Z</time>
      </trkpt>
      <trkpt lat="48.82701" lon="1.64912">
        <ele>129.9</ele>
        <time>2015-04-25T16:19:39.000Z</time>
      </trkpt>
      <trkpt lat="48.82701" lon="1.64933">
        <ele>130</ele>
        <time>2015-04-25T16:19:47.000Z</time>
      </trkpt>
      <trkpt lat="48.82702" lon="1.64947">
        <ele>130</ele>
        <time>2015-04-25T16:19:52.000Z</time>
      </trkpt>
      <trkpt lat="48.82704" lon="1.64964">
        <ele>130.2</ele>
        <time>2015-04-25T16:19:59.000Z</time>
      </trkpt>
      <trkpt lat="48.82703" lon="1.64969">
        <ele>130.3</ele>
        <time>2015-04-25T16:20:01.000Z</time>
      </trkpt>
      <trkpt lat="48.82705" lon="1.64986">
        <ele>130.4</ele>
        <time>2015-04-25T16:20:08.000Z</time>
      </trkpt>
      <trkpt lat="48.82705" lon="1.65004">
        <ele>130.4</ele>
        <time>2015-04-25T16:20:16.000Z</time>
      </trkpt>
      <trkpt lat="48.82711" lon="1.65027">
        <ele>130.6</ele>
        <time>2015-04-25T16:20:26.000Z</time>
      </trkpt>
      <trkpt lat="48.82713" lon="1.65035">
        <ele>130.8</ele>
        <time>2015-04-25T16:20:30.000Z</time>
      </trkpt>
      <trkpt lat="48.82719" lon="1.65058">
        <ele>131.1</ele>
        <time>2015-04-25T16:20:40.000Z</time>
      </trkpt>
      <trkpt lat="48.82725" lon="1.65079">
        <ele>131.9</ele>
        <time>2015-04-25T16:20:49.000Z</time>
      </trkpt>
      <trkpt lat="48.82731" lon="1.65097">
        <ele>132.3</ele>
        <time>2015-04-25T16:20:57.000Z</time>
      </trkpt>
      <trkpt lat="48.82735" lon="1.65108">
        <ele>132.5</ele>
        <time>2015-04-25T16:21:02.000Z</time>
      </trkpt>
      <trkpt lat="48.82739" lon="1.65122">
        <ele>132.6</ele>
        <time>2015-04-25T16:21:09.000Z</time>
      </trkpt>
      <trkpt lat="48.82739" lon="1.65126">
        <ele>132.6</ele>
        <time>2015-04-25T16:21:11.000Z</time>
      </trkpt>
      <trkpt lat="48.82744" lon="1.65144">
        <ele>133</ele>
        <time>2015-04-25T16:21:19.000Z</time>
      </trkpt>
      <trkpt lat="48.82745" lon="1.6515">
        <ele>133.2</ele>
        <time>2015-04-25T16:21:22.000Z</time>
      </trkpt>
      <trkpt lat="48.82746" lon="1.65164">
        <ele>133.8</ele>
        <time>2015-04-25T16:21:27.000Z</time>
      </trkpt>
      <trkpt lat="48.82748" lon="1.6517">
        <ele>133.9</ele>
        <time>2015-04-25T16:21:30.000Z</time>
      </trkpt>
      <trkpt lat="48.82752" lon="1.6518">
        <ele>134.1</ele>
        <time>2015-04-25T16:21:35.000Z</time>
      </trkpt>
      <trkpt lat="48.82754" lon="1.65191">
        <ele>134.2</ele>
        <time>2015-04-25T16:21:40.000Z</time>
      </trkpt>
      <trkpt lat="48.82756" lon="1.65201">
        <ele>134.3</ele>
        <time>2015-04-25T16:21:44.000Z</time>
      </trkpt>
      <trkpt lat="48.82759" lon="1.6522">
        <ele>134.6</ele>
        <time>2015-04-25T16:21:52.000Z</time>
      </trkpt>
      <trkpt lat="48.82764" lon="1.65225">
        <ele>135.1</ele>
        <time>2015-04-25T16:21:56.000Z</time>
      </trkpt>
      <trkpt lat="48.82767" lon="1.65227">
        <ele>135.3</ele>
        <time>2015-04-25T16:21:58.000Z</time>
      </trkpt>
      <trkpt lat="48.82774" lon="1.6524">
        <ele>135.8</ele>
        <time>2015-04-25T16:22:06.000Z</time>
      </trkpt>
      <trkpt lat="48.82777" lon="1.65249">
        <ele>136</ele>
        <time>2015-04-25T16:22:11.000Z</time>
      </trkpt>
      <trkpt lat="48.82782" lon="1.65261">
        <ele>136.6</ele>
        <time>2015-04-25T16:22:17.000Z</time>
      </trkpt>
      <trkpt lat="48.82791" lon="1.65279">
        <ele>137.5</ele>
        <time>2015-04-25T16:22:25.000Z</time>
      </trkpt>
      <trkpt lat="48.82793" lon="1.65281">
        <ele>137.5</ele>
        <time>2015-04-25T16:22:26.000Z</time>
      </trkpt>
      <trkpt lat="48.82796" lon="1.65291">
        <ele>137.7</ele>
        <time>2015-04-25T16:22:31.000Z</time>
      </trkpt>
      <trkpt lat="48.82803" lon="1.65305">
        <ele>137.9</ele>
        <time>2015-04-25T16:22:38.000Z</time>
      </trkpt>
      <trkpt lat="48.82806" lon="1.6531">
        <ele>138.2</ele>
        <time>2015-04-25T16:22:43.000Z</time>
      </trkpt>
      <trkpt lat="48.82807" lon="1.65311">
        <ele>138.3</ele>
        <time>2015-04-25T16:22:45.000Z</time>
      </trkpt>
      <trkpt lat="48.82808" lon="1.65312">
        <ele>138.4</ele>
        <time>2015-04-25T16:22:57.000Z</time>
      </trkpt>
      <trkpt lat="48.82811" lon="1.65312">
        <ele>138.6</ele>
        <time>2015-04-25T16:23:00.000Z</time>
      </trkpt>
      <trkpt lat="48.82814" lon="1.65319">
        <ele>138.9</ele>
        <time>2015-04-25T16:23:22.000Z</time>
      </trkpt>
      <trkpt lat="48.82817" lon="1.65327">
        <ele>139.2</ele>
        <time>2015-04-25T16:23:25.000Z</time>
      </trkpt>
      <trkpt lat="48.82824" lon="1.65346">
        <ele>139.7</ele>
        <time>2015-04-25T16:23:34.000Z</time>
      </trkpt>
      <trkpt lat="48.82833" lon="1.65359">
        <ele>140</ele>
        <time>2015-04-25T16:23:41.000Z</time>
      </trkpt>
      <trkpt lat="48.82839" lon="1.6537">
        <ele>140.2</ele>
        <time>2015-04-25T16:23:48.000Z</time>
      </trkpt>
      <trkpt lat="48.82843" lon="1.65381">
        <ele>140.3</ele>
        <time>2015-04-25T16:23:55.000Z</time>
      </trkpt>
      <trkpt lat="48.82845" lon="1.65387">
        <ele>140.4</ele>
        <time>2015-04-25T16:23:59.000Z</time>
      </trkpt>
      <trkpt lat="48.82845" lon="1.65389">
        <ele>140.4</ele>
        <time>2015-04-25T16:24:03.000Z</time>
      </trkpt>
      <trkpt lat="48.82838" lon="1.65374">
        <ele>140.2</ele>
        <time>2015-04-25T16:24:17.000Z</time>
      </trkpt>
      <trkpt lat="48.82841" lon="1.65365">
        <ele>140.3</ele>
        <time>2015-04-25T16:24:21.000Z</time>
      </trkpt>
      <trkpt lat="48.82843" lon="1.65363">
        <ele>140.3</ele>
        <time>2015-04-25T16:24:23.000Z</time>
      </trkpt>
      <trkpt lat="48.82852" lon="1.65351">
        <ele>140.7</ele>
        <time>2015-04-25T16:24:31.000Z</time>
      </trkpt>
      <trkpt lat="48.8286" lon="1.65343">
        <ele>141</ele>
        <time>2015-04-25T16:24:38.000Z</time>
      </trkpt>
      <trkpt lat="48.82864" lon="1.6533">
        <ele>141.1</ele>
        <time>2015-04-25T16:24:45.000Z</time>
      </trkpt>
      <trkpt lat="48.82865" lon="1.65316">
        <ele>141.1</ele>
        <time>2015-04-25T16:24:51.000Z</time>
      </trkpt>
      <trkpt lat="48.82867" lon="1.65308">
        <ele>141.2</ele>
        <time>2015-04-25T16:24:55.000Z</time>
      </trkpt>
      <trkpt lat="48.8287" lon="1.65289">
        <ele>141.3</ele>
        <time>2015-04-25T16:25:04.000Z</time>
      </trkpt>
      <trkpt lat="48.82875" lon="1.65276">
        <ele>141.5</ele>
        <time>2015-04-25T16:25:11.000Z</time>
      </trkpt>
      <trkpt lat="48.8288" lon="1.65269">
        <ele>141.6</ele>
        <time>2015-04-25T16:25:17.000Z</time>
      </trkpt>
      <trkpt lat="48.8288" lon="1.65269">
        <ele>141.6</ele>
        <time>2015-04-25T16:25:18.000Z</time>
      </trkpt>
      <trkpt lat="48.82888" lon="1.65259">
        <ele>142</ele>
        <time>2015-04-25T16:26:20.000Z</time>
      </trkpt>
      <trkpt lat="48.82894" lon="1.65251">
        <ele>142.2</ele>
        <time>2015-04-25T16:26:25.000Z</time>
      </trkpt>
      <trkpt lat="48.82895" lon="1.65251">
        <ele>142.2</ele>
        <time>2015-04-25T16:26:26.000Z</time>
      </trkpt>
      <trkpt lat="48.82904" lon="1.65241">
        <ele>142.4</ele>
        <time>2015-04-25T16:26:33.000Z</time>
      </trkpt>
      <trkpt lat="48.82906" lon="1.65237">
        <ele>142.5</ele>
        <time>2015-04-25T16:26:35.000Z</time>
      </trkpt>
      <trkpt lat="48.82914" lon="1.65229">
        <ele>142.8</ele>
        <time>2015-04-25T16:26:41.000Z</time>
      </trkpt>
      <trkpt lat="48.82919" lon="1.65223">
        <ele>143.1</ele>
        <time>2015-04-25T16:26:46.000Z</time>
      </trkpt>
      <trkpt lat="48.82922" lon="1.65221">
        <ele>143.2</ele>
        <time>2015-04-25T16:26:48.000Z</time>
      </trkpt>
      <trkpt lat="48.82929" lon="1.65212">
        <ele>143.4</ele>
        <time>2015-04-25T16:26:55.000Z</time>
      </trkpt>
      <trkpt lat="48.82936" lon="1.65202">
        <ele>143.7</ele>
        <time>2015-04-25T16:27:01.000Z</time>
      </trkpt>
      <trkpt lat="48.82942" lon="1.65191">
        <ele>143.9</ele>
        <time>2015-04-25T16:27:07.000Z</time>
      </trkpt>
      <trkpt lat="48.82948" lon="1.65182">
        <ele>144</ele>
        <time>2015-04-25T16:27:13.000Z</time>
      </trkpt>
      <trkpt lat="48.82955" lon="1.65175">
        <ele>144</ele>
        <time>2015-04-25T16:27:19.000Z</time>
      </trkpt>
      <trkpt lat="48.82966" lon="1.65164">
        <ele>144</ele>
        <time>2015-04-25T16:27:28.000Z</time>
      </trkpt>
      <trkpt lat="48.82973" lon="1.65148">
        <ele>144</ele>
        <time>2015-04-25T16:27:37.000Z</time>
      </trkpt>
      <trkpt lat="48.82973" lon="1.65143">
        <ele>144</ele>
        <time>2015-04-25T16:27:39.000Z</time>
      </trkpt>
      <trkpt lat="48.82968" lon="1.65135">
        <ele>144</ele>
        <time>2015-04-25T16:27:44.000Z</time>
      </trkpt>
      <trkpt lat="48.82953" lon="1.65116">
        <ele>143.4</ele>
        <time>2015-04-25T16:27:58.000Z</time>
      </trkpt>
      <trkpt lat="48.82937" lon="1.65097">
        <ele>142.6</ele>
        <time>2015-04-25T16:28:11.000Z</time>
      </trkpt>
      <trkpt lat="48.82929" lon="1.6508">
        <ele>141.7</ele>
        <time>2015-04-25T16:28:20.000Z</time>
      </trkpt>
      <trkpt lat="48.8293" lon="1.65076">
        <ele>141.5</ele>
        <time>2015-04-25T16:28:22.000Z</time>
      </trkpt>
      <trkpt lat="48.82934" lon="1.65066">
        <ele>141.3</ele>
        <time>2015-04-25T16:28:27.000Z</time>
      </trkpt>
      <trkpt lat="48.82941" lon="1.65057">
        <ele>141</ele>
        <time>2015-04-25T16:28:33.000Z</time>
      </trkpt>
      <trkpt lat="48.8295" lon="1.65061">
        <ele>141.5</ele>
        <time>2015-04-25T16:28:40.000Z</time>
      </trkpt>
      <trkpt lat="48.82952" lon="1.65064">
        <ele>141.8</ele>
        <time>2015-04-25T16:28:42.000Z</time>
      </trkpt>
      <trkpt lat="48.82959" lon="1.65075">
        <ele>142.5</ele>
        <time>2015-04-25T16:28:50.000Z</time>
      </trkpt>
      <trkpt lat="48.82967" lon="1.65088">
        <ele>143.1</ele>
        <time>2015-04-25T16:28:58.000Z</time>
      </trkpt>
      <trkpt lat="48.82974" lon="1.65098">
        <ele>143.4</ele>
        <time>2015-04-25T16:29:04.000Z</time>
      </trkpt>
      <trkpt lat="48.82986" lon="1.65113">
        <ele>143.6</ele>
        <time>2015-04-25T16:29:14.000Z</time>
      </trkpt>
      <trkpt lat="48.82996" lon="1.65127">
        <ele>143.6</ele>
        <time>2015-04-25T16:29:24.000Z</time>
      </trkpt>
      <trkpt lat="48.83003" lon="1.65139">
        <ele>143.9</ele>
        <time>2015-04-25T16:29:32.000Z</time>
      </trkpt>
      <trkpt lat="48.83008" lon="1.65146">
        <ele>143.7</ele>
        <time>2015-04-25T16:29:37.000Z</time>
      </trkpt>
      <trkpt lat="48.83015" lon="1.65155">
        <ele>143.5</ele>
        <time>2015-04-25T16:29:44.000Z</time>
      </trkpt>
      <trkpt lat="48.83025" lon="1.65169">
        <ele>143.1</ele>
        <time>2015-04-25T16:29:53.000Z</time>
      </trkpt>
      <trkpt lat="48.8303" lon="1.65178">
        <ele>142.9</ele>
        <time>2015-04-25T16:29:58.000Z</time>
      </trkpt>
      <trkpt lat="48.83035" lon="1.65184">
        <ele>142.7</ele>
        <time>2015-04-25T16:30:02.000Z</time>
      </trkpt>
      <trkpt lat="48.83047" lon="1.65201">
        <ele>142.3</ele>
        <time>2015-04-25T16:30:13.000Z</time>
      </trkpt>
      <trkpt lat="48.83058" lon="1.65216">
        <ele>141.9</ele>
        <time>2015-04-25T16:30:23.000Z</time>
      </trkpt>
      <trkpt lat="48.83068" lon="1.65231">
        <ele>141.6</ele>
        <time>2015-04-25T16:30:32.000Z</time>
      </trkpt>
      <trkpt lat="48.83069" lon="1.65233">
        <ele>141.5</ele>
        <time>2015-04-25T16:30:34.000Z</time>
      </trkpt>
      <trkpt lat="48.83073" lon="1.65239">
        <ele>141.4</ele>
        <time>2015-04-25T16:30:38.000Z</time>
      </trkpt>
      <trkpt lat="48.83081" lon="1.65252">
        <ele>141.1</ele>
        <time>2015-04-25T16:30:46.000Z</time>
      </trkpt>
      <trkpt lat="48.83084" lon="1.65256">
        <ele>141</ele>
        <time>2015-04-25T16:30:50.000Z</time>
      </trkpt>
      <trkpt lat="48.8309" lon="1.65267">
        <ele>140.8</ele>
        <time>2015-04-25T16:30:56.000Z</time>
      </trkpt>
      <trkpt lat="48.831" lon="1.65279">
        <ele>140.4</ele>
        <time>2015-04-25T16:31:05.000Z</time>
      </trkpt>
      <trkpt lat="48.83106" lon="1.65289">
        <ele>139.9</ele>
        <time>2015-04-25T16:31:11.000Z</time>
      </trkpt>
      <trkpt lat="48.83112" lon="1.65298">
        <ele>139.3</ele>
        <time>2015-04-25T16:31:17.000Z</time>
      </trkpt>
      <trkpt lat="48.83119" lon="1.65307">
        <ele>139</ele>
        <time>2015-04-25T16:31:23.000Z</time>
      </trkpt>
      <trkpt lat="48.83131" lon="1.65325">
        <ele>138.5</ele>
        <time>2015-04-25T16:31:34.000Z</time>
      </trkpt>
      <trkpt lat="48.83139" lon="1.65337">
        <ele>138</ele>
        <time>2015-04-25T16:31:43.000Z</time>
      </trkpt>
      <trkpt lat="48.83146" lon="1.65347">
        <ele>137.9</ele>
        <time>2015-04-25T16:31:51.000Z</time>
      </trkpt>
      <trkpt lat="48.8315" lon="1.65354">
        <ele>137.7</ele>
        <time>2015-04-25T16:31:55.000Z</time>
      </trkpt>
      <trkpt lat="48.83153" lon="1.65358">
        <ele>137.5</ele>
        <time>2015-04-25T16:31:59.000Z</time>
      </trkpt>
      <trkpt lat="48.83159" lon="1.65366">
        <ele>137.3</ele>
        <time>2015-04-25T16:32:04.000Z</time>
      </trkpt>
      <trkpt lat="48.83166" lon="1.65377">
        <ele>137</ele>
        <time>2015-04-25T16:32:12.000Z</time>
      </trkpt>
      <trkpt lat="48.83166" lon="1.65377">
        <ele>137</ele>
        <time>2015-04-25T16:32:13.000Z</time>
      </trkpt>
      <trkpt lat="48.83167" lon="1.65379">
        <ele>137</ele>
        <time>2015-04-25T16:32:36.000Z</time>
      </trkpt>
      <trkpt lat="48.83175" lon="1.6539">
        <ele>136.7</ele>
        <time>2015-04-25T16:32:42.000Z</time>
      </trkpt>
      <trkpt lat="48.83182" lon="1.654">
        <ele>136.4</ele>
        <time>2015-04-25T16:32:48.000Z</time>
      </trkpt>
      <trkpt lat="48.83193" lon="1.65413">
        <ele>136</ele>
        <time>2015-04-25T16:32:57.000Z</time>
      </trkpt>
      <trkpt lat="48.83201" lon="1.65424">
        <ele>135.8</ele>
        <time>2015-04-25T16:33:04.000Z</time>
      </trkpt>
      <trkpt lat="48.83212" lon="1.65438">
        <ele>135.4</ele>
        <time>2015-04-25T16:33:13.000Z</time>
      </trkpt>
      <trkpt lat="48.83221" lon="1.65452">
        <ele>135</ele>
        <time>2015-04-25T16:33:21.000Z</time>
      </trkpt>
      <trkpt lat="48.83228" lon="1.65467">
        <ele>134.8</ele>
        <time>2015-04-25T16:33:29.000Z</time>
      </trkpt>
      <trkpt lat="48.8323" lon="1.65473">
        <ele>134.7</ele>
        <time>2015-04-25T16:33:32.000Z</time>
      </trkpt>
      <trkpt lat="48.83236" lon="1.65487">
        <ele>134.5</ele>
        <time>2015-04-25T16:33:39.000Z</time>
      </trkpt>
      <trkpt lat="48.83243" lon="1.65502">
        <ele>134.3</ele>
        <time>2015-04-25T16:33:47.000Z</time>
      </trkpt>
      <trkpt lat="48.83249" lon="1.65521">
        <ele>134</ele>
        <time>2015-04-25T16:33:56.000Z</time>
      </trkpt>
      <trkpt lat="48.83256" lon="1.6554">
        <ele>133.9</ele>
        <time>2015-04-25T16:34:06.000Z</time>
      </trkpt>
      <trkpt lat="48.83264" lon="1.65562">
        <ele>134</ele>
        <time>2015-04-25T16:34:17.000Z</time>
      </trkpt>
      <trkpt lat="48.83269" lon="1.6558">
        <ele>134</ele>
        <time>2015-04-25T16:34:26.000Z</time>
      </trkpt>
      <trkpt lat="48.83275" lon="1.65598">
        <ele>134</ele>
        <time>2015-04-25T16:34:35.000Z</time>
      </trkpt>
      <trkpt lat="48.83276" lon="1.65601">
        <ele>134</ele>
        <time>2015-04-25T16:34:39.000Z</time>
      </trkpt>
      <trkpt lat="48.833" lon="1.65651">
        <ele>133.2</ele>
        <time>2015-04-25T16:38:22.000Z</time>
      </trkpt>
      <trkpt lat="48.83303" lon="1.65665">
        <ele>133.1</ele>
        <time>2015-04-25T16:38:28.000Z</time>
      </trkpt>
      <trkpt lat="48.83307" lon="1.65681">
        <ele>133</ele>
        <time>2015-04-25T16:38:37.000Z</time>
      </trkpt>
      <trkpt lat="48.83315" lon="1.65705">
        <ele>133</ele>
        <time>2015-04-25T16:38:49.000Z</time>
      </trkpt>
      <trkpt lat="48.83322" lon="1.6572">
        <ele>133</ele>
        <time>2015-04-25T16:38:58.000Z</time>
      </trkpt>
      <trkpt lat="48.83328" lon="1.65735">
        <ele>133</ele>
        <time>2015-04-25T16:39:07.000Z</time>
      </trkpt>
      <trkpt lat="48.83334" lon="1.65748">
        <ele>133</ele>
        <time>2015-04-25T16:39:15.000Z</time>
      </trkpt>
      <trkpt lat="48.8334" lon="1.6576">
        <ele>132.5</ele>
        <time>2015-04-25T16:39:23.000Z</time>
      </trkpt>
      <trkpt lat="48.83351" lon="1.65774">
        <ele>132</ele>
        <time>2015-04-25T16:39:33.000Z</time>
      </trkpt>
      <trkpt lat="48.83364" lon="1.65789">
        <ele>131.7</ele>
        <time>2015-04-25T16:39:43.000Z</time>
      </trkpt>
      <trkpt lat="48.83375" lon="1.65802">
        <ele>131.4</ele>
        <time>2015-04-25T16:39:52.000Z</time>
      </trkpt>
      <trkpt lat="48.83383" lon="1.65809">
        <ele>131.2</ele>
        <time>2015-04-25T16:39:59.000Z</time>
      </trkpt>
      <trkpt lat="48.83391" lon="1.65816">
        <ele>130.9</ele>
        <time>2015-04-25T16:40:05.000Z</time>
      </trkpt>
      <trkpt lat="48.83403" lon="1.65825">
        <ele>130.7</ele>
        <time>2015-04-25T16:40:14.000Z</time>
      </trkpt>
      <trkpt lat="48.83415" lon="1.65836">
        <ele>131</ele>
        <time>2015-04-25T16:40:23.000Z</time>
      </trkpt>
      <trkpt lat="48.83426" lon="1.65847">
        <ele>130.5</ele>
        <time>2015-04-25T16:40:31.000Z</time>
      </trkpt>
      <trkpt lat="48.83435" lon="1.65855">
        <ele>130.2</ele>
        <time>2015-04-25T16:40:38.000Z</time>
      </trkpt>
      <trkpt lat="48.83447" lon="1.65868">
        <ele>129.9</ele>
        <time>2015-04-25T16:40:48.000Z</time>
      </trkpt>
      <trkpt lat="48.83457" lon="1.65876">
        <ele>129.8</ele>
        <time>2015-04-25T16:40:57.000Z</time>
      </trkpt>
      <trkpt lat="48.83466" lon="1.65879">
        <ele>129.7</ele>
        <time>2015-04-25T16:41:04.000Z</time>
      </trkpt>
      <trkpt lat="48.83477" lon="1.65885">
        <ele>129.7</ele>
        <time>2015-04-25T16:41:11.000Z</time>
      </trkpt>
      <trkpt lat="48.83488" lon="1.65892">
        <ele>129.4</ele>
        <time>2015-04-25T16:41:19.000Z</time>
      </trkpt>
      <trkpt lat="48.83496" lon="1.65898">
        <ele>129.1</ele>
        <time>2015-04-25T16:41:25.000Z</time>
      </trkpt>
      <trkpt lat="48.83503" lon="1.65905">
        <ele>129</ele>
        <time>2015-04-25T16:41:31.000Z</time>
      </trkpt>
      <trkpt lat="48.83507" lon="1.65905">
        <ele>129</ele>
        <time>2015-04-25T16:41:35.000Z</time>
      </trkpt>
      <trkpt lat="48.83515" lon="1.65903">
        <ele>129</ele>
        <time>2015-04-25T16:41:41.000Z</time>
      </trkpt>
      <trkpt lat="48.83524" lon="1.65888">
        <ele>129</ele>
        <time>2015-04-25T16:41:50.000Z</time>
      </trkpt>
      <trkpt lat="48.83535" lon="1.65868">
        <ele>128.9</ele>
        <time>2015-04-25T16:42:02.000Z</time>
      </trkpt>
      <trkpt lat="48.83547" lon="1.65853">
        <ele>129</ele>
        <time>2015-04-25T16:42:12.000Z</time>
      </trkpt>
      <trkpt lat="48.83561" lon="1.65854">
        <ele>128.9</ele>
        <time>2015-04-25T16:42:21.000Z</time>
      </trkpt>
      <trkpt lat="48.83572" lon="1.65872">
        <ele>128.2</ele>
        <time>2015-04-25T16:42:32.000Z</time>
      </trkpt>
      <trkpt lat="48.83583" lon="1.65891">
        <ele>127.9</ele>
        <time>2015-04-25T16:42:43.000Z</time>
      </trkpt>
      <trkpt lat="48.83589" lon="1.65903">
        <ele>127.5</ele>
        <time>2015-04-25T16:42:49.000Z</time>
      </trkpt>
      <trkpt lat="48.83601" lon="1.65925">
        <ele>126.8</ele>
        <time>2015-04-25T16:43:00.000Z</time>
      </trkpt>
      <trkpt lat="48.83609" lon="1.65939">
        <ele>126.2</ele>
        <time>2015-04-25T16:43:08.000Z</time>
      </trkpt>
      <trkpt lat="48.83621" lon="1.6596">
        <ele>126.2</ele>
        <time>2015-04-25T16:43:19.000Z</time>
      </trkpt>
      <trkpt lat="48.83632" lon="1.65979">
        <ele>126</ele>
        <time>2015-04-25T16:43:29.000Z</time>
      </trkpt>
      <trkpt lat="48.83641" lon="1.65994">
        <ele>126</ele>
        <time>2015-04-25T16:43:37.000Z</time>
      </trkpt>
      <trkpt lat="48.83653" lon="1.66017">
        <ele>125.4</ele>
        <time>2015-04-25T16:43:49.000Z</time>
      </trkpt>
      <trkpt lat="48.83666" lon="1.66042">
        <ele>125</ele>
        <time>2015-04-25T16:44:02.000Z</time>
      </trkpt>
      <trkpt lat="48.83681" lon="1.66068">
        <ele>124.8</ele>
        <time>2015-04-25T16:44:16.000Z</time>
      </trkpt>
      <trkpt lat="48.8369" lon="1.66084">
        <ele>124.2</ele>
        <time>2015-04-25T16:44:25.000Z</time>
      </trkpt>
      <trkpt lat="48.83698" lon="1.66099">
        <ele>124</ele>
        <time>2015-04-25T16:44:33.000Z</time>
      </trkpt>
      <trkpt lat="48.83712" lon="1.66121">
        <ele>124</ele>
        <time>2015-04-25T16:44:45.000Z</time>
      </trkpt>
      <trkpt lat="48.83723" lon="1.6614">
        <ele>123.9</ele>
        <time>2015-04-25T16:44:55.000Z</time>
      </trkpt>
      <trkpt lat="48.83732" lon="1.66156">
        <ele>123.2</ele>
        <time>2015-04-25T16:45:04.000Z</time>
      </trkpt>
      <trkpt lat="48.83734" lon="1.66161">
        <ele>123.1</ele>
        <time>2015-04-25T16:45:06.000Z</time>
      </trkpt>
      <trkpt lat="48.83738" lon="1.66177">
        <ele>123</ele>
        <time>2015-04-25T16:45:13.000Z</time>
      </trkpt>
      <trkpt lat="48.83737" lon="1.6619">
        <ele>123</ele>
        <time>2015-04-25T16:45:19.000Z</time>
      </trkpt>
      <trkpt lat="48.83732" lon="1.66203">
        <ele>123.3</ele>
        <time>2015-04-25T16:45:28.000Z</time>
      </trkpt>
      <trkpt lat="48.83732" lon="1.66203">
        <ele>123.3</ele>
        <time>2015-04-25T16:45:31.000Z</time>
      </trkpt>
      <trkpt lat="48.83723" lon="1.66216">
        <ele>123.8</ele>
        <time>2015-04-25T16:45:59.000Z</time>
      </trkpt>
      <trkpt lat="48.83716" lon="1.66227">
        <ele>124</ele>
        <time>2015-04-25T16:46:05.000Z</time>
      </trkpt>
      <trkpt lat="48.83714" lon="1.66231">
        <ele>124</ele>
        <time>2015-04-25T16:46:07.000Z</time>
      </trkpt>
      <trkpt lat="48.83708" lon="1.66242">
        <ele>124</ele>
        <time>2015-04-25T16:46:13.000Z</time>
      </trkpt>
      <trkpt lat="48.83697" lon="1.66262">
        <ele>124</ele>
        <time>2015-04-25T16:46:22.000Z</time>
      </trkpt>
      <trkpt lat="48.83692" lon="1.66278">
        <ele>124</ele>
        <time>2015-04-25T16:46:30.000Z</time>
      </trkpt>
      <trkpt lat="48.8369" lon="1.66289">
        <ele>124</ele>
        <time>2015-04-25T16:46:35.000Z</time>
      </trkpt>
      <trkpt lat="48.83691" lon="1.66293">
        <ele>124</ele>
        <time>2015-04-25T16:46:37.000Z</time>
      </trkpt>
      <trkpt lat="48.83691" lon="1.66305">
        <ele>124</ele>
        <time>2015-04-25T16:46:43.000Z</time>
      </trkpt>
      <trkpt lat="48.83692" lon="1.66307">
        <ele>124.1</ele>
        <time>2015-04-25T16:46:44.000Z</time>
      </trkpt>
      <trkpt lat="48.83698" lon="1.66326">
        <ele>124.8</ele>
        <time>2015-04-25T16:46:53.000Z</time>
      </trkpt>
      <trkpt lat="48.83708" lon="1.66346">
        <ele>125.2</ele>
        <time>2015-04-25T16:47:04.000Z</time>
      </trkpt>
      <trkpt lat="48.83713" lon="1.6636">
        <ele>125.7</ele>
        <time>2015-04-25T16:47:12.000Z</time>
      </trkpt>
      <trkpt lat="48.8372" lon="1.66379">
        <ele>126</ele>
        <time>2015-04-25T16:47:22.000Z</time>
      </trkpt>
      <trkpt lat="48.8372" lon="1.66381">
        <ele>126</ele>
        <time>2015-04-25T16:47:24.000Z</time>
      </trkpt>
      <trkpt lat="48.83725" lon="1.66393">
        <ele>126.2</ele>
        <time>2015-04-25T16:47:33.000Z</time>
      </trkpt>
      <trkpt lat="48.83733" lon="1.66412">
        <ele>126.8</ele>
        <time>2015-04-25T16:47:43.000Z</time>
      </trkpt>
      <trkpt lat="48.83739" lon="1.66424">
        <ele>127</ele>
        <time>2015-04-25T16:47:49.000Z</time>
      </trkpt>
      <trkpt lat="48.83749" lon="1.66449">
        <ele>127.2</ele>
        <time>2015-04-25T16:47:55.000Z</time>
      </trkpt>
      <trkpt lat="48.8376" lon="1.66476">
        <ele>128</ele>
        <time>2015-04-25T16:48:01.000Z</time>
      </trkpt>
      <trkpt lat="48.83774" lon="1.66509">
        <ele>128.3</ele>
        <time>2015-04-25T16:48:08.000Z</time>
      </trkpt>
      <trkpt lat="48.83791" lon="1.6655">
        <ele>129</ele>
        <time>2015-04-25T16:48:17.000Z</time>
      </trkpt>
      <trkpt lat="48.83808" lon="1.66597">
        <ele>129.5</ele>
        <time>2015-04-25T16:48:27.000Z</time>
      </trkpt>
      <trkpt lat="48.83822" lon="1.66635">
        <ele>130.3</ele>
        <time>2015-04-25T16:48:35.000Z</time>
      </trkpt>
      <trkpt lat="48.83827" lon="1.66665">
        <ele>131.2</ele>
        <time>2015-04-25T16:48:41.000Z</time>
      </trkpt>
      <trkpt lat="48.83832" lon="1.66699">
        <ele>132</ele>
        <time>2015-04-25T16:48:48.000Z</time>
      </trkpt>
      <trkpt lat="48.83836" lon="1.66716">
        <ele>132</ele>
        <time>2015-04-25T16:48:53.000Z</time>
      </trkpt>
      <trkpt lat="48.83841" lon="1.66723">
        <ele>132</ele>
        <time>2015-04-25T16:48:58.000Z</time>
      </trkpt>
      <trkpt lat="48.8385" lon="1.66717">
        <ele>131.9</ele>
        <time>2015-04-25T16:49:05.000Z</time>
      </trkpt>
      <trkpt lat="48.83855" lon="1.66699">
        <ele>131.4</ele>
        <time>2015-04-25T16:49:13.000Z</time>
      </trkpt>
      <trkpt lat="48.8386" lon="1.66672">
        <ele>131</ele>
        <time>2015-04-25T16:49:23.000Z</time>
      </trkpt>
      <trkpt lat="48.83866" lon="1.66648">
        <ele>130.3</ele>
        <time>2015-04-25T16:49:31.000Z</time>
      </trkpt>
      <trkpt lat="48.83878" lon="1.66613">
        <ele>129.4</ele>
        <time>2015-04-25T16:49:39.000Z</time>
      </trkpt>
      <trkpt lat="48.83887" lon="1.66592">
        <ele>129</ele>
        <time>2015-04-25T16:49:45.000Z</time>
      </trkpt>
      <trkpt lat="48.83893" lon="1.66578">
        <ele>128.9</ele>
        <time>2015-04-25T16:49:51.000Z</time>
      </trkpt>
      <trkpt lat="48.83902" lon="1.66559">
        <ele>128.5</ele>
        <time>2015-04-25T16:50:00.000Z</time>
      </trkpt>
      <trkpt lat="48.83911" lon="1.66541">
        <ele>128.8</ele>
        <time>2015-04-25T16:50:09.000Z</time>
      </trkpt>
      <trkpt lat="48.83918" lon="1.66526">
        <ele>128.9</ele>
        <time>2015-04-25T16:50:17.000Z</time>
      </trkpt>
      <trkpt lat="48.83927" lon="1.66511">
        <ele>128.6</ele>
        <time>2015-04-25T16:50:25.000Z</time>
      </trkpt>
      <trkpt lat="48.83935" lon="1.665">
        <ele>128.7</ele>
        <time>2015-04-25T16:50:32.000Z</time>
      </trkpt>
      <trkpt lat="48.83942" lon="1.6649">
        <ele>128.9</ele>
        <time>2015-04-25T16:50:39.000Z</time>
      </trkpt>
      <trkpt lat="48.83952" lon="1.66479">
        <ele>129.3</ele>
        <time>2015-04-25T16:50:47.000Z</time>
      </trkpt>
      <trkpt lat="48.83959" lon="1.66468">
        <ele>129.5</ele>
        <time>2015-04-25T16:50:54.000Z</time>
      </trkpt>
      <trkpt lat="48.83971" lon="1.66445">
        <ele>130</ele>
        <time>2015-04-25T16:51:05.000Z</time>
      </trkpt>
      <trkpt lat="48.83979" lon="1.66436">
        <ele>130.2</ele>
        <time>2015-04-25T16:51:11.000Z</time>
      </trkpt>
      <trkpt lat="48.83986" lon="1.66427">
        <ele>130.5</ele>
        <time>2015-04-25T16:51:17.000Z</time>
      </trkpt>
      <trkpt lat="48.83998" lon="1.66411">
        <ele>130.9</ele>
        <time>2015-04-25T16:51:28.000Z</time>
      </trkpt>
      <trkpt lat="48.84012" lon="1.6639">
        <ele>131.4</ele>
        <time>2015-04-25T16:51:40.000Z</time>
      </trkpt>
      <trkpt lat="48.84023" lon="1.66372">
        <ele>131.3</ele>
        <time>2015-04-25T16:51:50.000Z</time>
      </trkpt>
      <trkpt lat="48.84028" lon="1.66364">
        <ele>131.1</ele>
        <time>2015-04-25T16:51:55.000Z</time>
      </trkpt>
      <trkpt lat="48.84039" lon="1.66349">
        <ele>131</ele>
        <time>2015-04-25T16:52:05.000Z</time>
      </trkpt>
      <trkpt lat="48.84054" lon="1.66325">
        <ele>130.7</ele>
        <time>2015-04-25T16:52:18.000Z</time>
      </trkpt>
      <trkpt lat="48.84064" lon="1.66317">
        <ele>130.5</ele>
        <time>2015-04-25T16:52:25.000Z</time>
      </trkpt>
      <trkpt lat="48.84065" lon="1.66318">
        <ele>130.6</ele>
        <time>2015-04-25T16:52:26.000Z</time>
      </trkpt>
      <trkpt lat="48.84069" lon="1.66323">
        <ele>130.9</ele>
        <time>2015-04-25T16:52:29.000Z</time>
      </trkpt>
      <trkpt lat="48.8407" lon="1.66325">
        <ele>131.1</ele>
        <time>2015-04-25T16:52:33.000Z</time>
      </trkpt>
      <trkpt lat="48.84075" lon="1.66343">
        <ele>132.1</ele>
        <time>2015-04-25T16:53:36.000Z</time>
      </trkpt>
      <trkpt lat="48.8408" lon="1.66351">
        <ele>132.5</ele>
        <time>2015-04-25T16:53:40.000Z</time>
      </trkpt>
      <trkpt lat="48.84085" lon="1.66362">
        <ele>133.2</ele>
        <time>2015-04-25T16:53:48.000Z</time>
      </trkpt>
      <trkpt lat="48.84086" lon="1.66371">
        <ele>133.8</ele>
        <time>2015-04-25T16:53:54.000Z</time>
      </trkpt>
      <trkpt lat="48.84087" lon="1.66378">
        <ele>134.4</ele>
        <time>2015-04-25T16:53:58.000Z</time>
      </trkpt>
      <trkpt lat="48.84088" lon="1.66382">
        <ele>134.7</ele>
        <time>2015-04-25T16:54:00.000Z</time>
      </trkpt>
      <trkpt lat="48.84091" lon="1.66386">
        <ele>135.1</ele>
        <time>2015-04-25T16:54:04.000Z</time>
      </trkpt>
      <trkpt lat="48.84098" lon="1.66393">
        <ele>135.7</ele>
        <time>2015-04-25T16:54:10.000Z</time>
      </trkpt>
      <trkpt lat="48.84099" lon="1.66394">
        <ele>135.8</ele>
        <time>2015-04-25T16:54:11.000Z</time>
      </trkpt>
      <trkpt lat="48.84106" lon="1.66402">
        <ele>136.3</ele>
        <time>2015-04-25T16:54:17.000Z</time>
      </trkpt>
      <trkpt lat="48.84112" lon="1.66407">
        <ele>136.7</ele>
        <time>2015-04-25T16:54:22.000Z</time>
      </trkpt>
      <trkpt lat="48.8412" lon="1.66412">
        <ele>137.4</ele>
        <time>2015-04-25T16:54:27.000Z</time>
      </trkpt>
      <trkpt lat="48.8412" lon="1.66413">
        <ele>137.5</ele>
        <time>2015-04-25T16:54:28.000Z</time>
      </trkpt>
      <trkpt lat="48.84123" lon="1.66418">
        <ele>137.9</ele>
        <time>2015-04-25T16:54:32.000Z</time>
      </trkpt>
      <trkpt lat="48.84127" lon="1.66423">
        <ele>138.3</ele>
        <time>2015-04-25T16:54:36.000Z</time>
      </trkpt>
      <trkpt lat="48.84134" lon="1.66429">
        <ele>138.7</ele>
        <time>2015-04-25T16:54:43.000Z</time>
      </trkpt>
      <trkpt lat="48.84136" lon="1.66432">
        <ele>138.9</ele>
        <time>2015-04-25T16:54:46.000Z</time>
      </trkpt>
      <trkpt lat="48.84143" lon="1.66439">
        <ele>139.1</ele>
        <time>2015-04-25T16:54:52.000Z</time>
      </trkpt>
      <trkpt lat="48.84149" lon="1.66443">
        <ele>139.4</ele>
        <time>2015-04-25T16:54:57.000Z</time>
      </trkpt>
      <trkpt lat="48.84157" lon="1.66447">
        <ele>139.7</ele>
        <time>2015-04-25T16:55:03.000Z</time>
      </trkpt>
      <trkpt lat="48.84158" lon="1.66448">
        <ele>139.8</ele>
        <time>2015-04-25T16:55:04.000Z</time>
      </trkpt>
      <trkpt lat="48.84164" lon="1.66456">
        <ele>140.3</ele>
        <time>2015-04-25T16:55:11.000Z</time>
      </trkpt>
      <trkpt lat="48.84169" lon="1.66462">
        <ele>140.7</ele>
        <time>2015-04-25T16:55:15.000Z</time>
      </trkpt>
      <trkpt lat="48.84178" lon="1.66472">
        <ele>141.4</ele>
        <time>2015-04-25T16:55:22.000Z</time>
      </trkpt>
      <trkpt lat="48.84188" lon="1.66482">
        <ele>141.8</ele>
        <time>2015-04-25T16:55:29.000Z</time>
      </trkpt>
      <trkpt lat="48.84192" lon="1.66486">
        <ele>141.9</ele>
        <time>2015-04-25T16:55:33.000Z</time>
      </trkpt>
      <trkpt lat="48.84196" lon="1.6649">
        <ele>142</ele>
        <time>2015-04-25T16:55:37.000Z</time>
      </trkpt>
      <trkpt lat="48.84202" lon="1.665">
        <ele>142</ele>
        <time>2015-04-25T16:55:44.000Z</time>
      </trkpt>
      <trkpt lat="48.84207" lon="1.66505">
        <ele>142.2</ele>
        <time>2015-04-25T16:55:48.000Z</time>
      </trkpt>
      <trkpt lat="48.84212" lon="1.66511">
        <ele>142.6</ele>
        <time>2015-04-25T16:55:52.000Z</time>
      </trkpt>
    </trkseg>
  </trk>
</gpx>